<?xml version="1.0" encoding="UTF-8" standalone="no" ?>
<gpx xmlns="http://www.topografix.com/GPX/1/1" xmlns:xsi="http://www.w3.org/2001/XMLSchema-instance" xsi:schemaLocation="http://www.topografix.com/GPX/1/1 http://www.topografix.com/GPX/1/1/gpx.xsd" version="1.1" creator="VisuGPX - https://www.visugpx.com">
  <metadata>
    <name>Mouthe,Le sentier du gendarme</name>
  </metadata>
  <trk>
    <name><![CDATA[Mouthe,Le sentier du gendarme_1]]></name>
    <trkseg>
      <trkpt lat="46.67974" lon="6.18769">
        <ele>1074.3</ele>
        <time>2020-07-21T06:50:06Z</time>
      </trkpt>
      <trkpt lat="46.6797" lon="6.18774">
        <ele>1089</ele>
        <time>2020-07-21T06:50:24Z</time>
      </trkpt>
      <trkpt lat="46.67974" lon="6.18779">
        <ele>1089.1</ele>
        <time>2020-07-21T06:50:48Z</time>
      </trkpt>
      <trkpt lat="46.67969" lon="6.18791">
        <ele>1086.1</ele>
        <time>2020-07-21T06:52:34Z</time>
      </trkpt>
      <trkpt lat="46.67966" lon="6.18798">
        <ele>1086</ele>
        <time>2020-07-21T06:52:36Z</time>
      </trkpt>
      <trkpt lat="46.67961" lon="6.18804">
        <ele>1085.8</ele>
        <time>2020-07-21T06:52:38Z</time>
      </trkpt>
      <trkpt lat="46.67956" lon="6.18809">
        <ele>1085.5</ele>
        <time>2020-07-21T06:52:41Z</time>
      </trkpt>
      <trkpt lat="46.67953" lon="6.18813">
        <ele>1085.4</ele>
        <time>2020-07-21T06:52:44Z</time>
      </trkpt>
      <trkpt lat="46.67949" lon="6.18819">
        <ele>1085.3</ele>
        <time>2020-07-21T06:52:48Z</time>
      </trkpt>
      <trkpt lat="46.67944" lon="6.18823">
        <ele>1085.3</ele>
        <time>2020-07-21T06:52:53Z</time>
      </trkpt>
      <trkpt lat="46.67933" lon="6.18832">
        <ele>1083.8</ele>
        <time>2020-07-21T06:53:07Z</time>
      </trkpt>
      <trkpt lat="46.67929" lon="6.18835">
        <ele>1083.4</ele>
        <time>2020-07-21T06:53:12Z</time>
      </trkpt>
      <trkpt lat="46.67918" lon="6.18847">
        <ele>1082.6</ele>
        <time>2020-07-21T06:53:25Z</time>
      </trkpt>
      <trkpt lat="46.67914" lon="6.18851">
        <ele>1082.3</ele>
        <time>2020-07-21T06:53:29Z</time>
      </trkpt>
      <trkpt lat="46.67905" lon="6.18862">
        <ele>1081.3</ele>
        <time>2020-07-21T06:53:38Z</time>
      </trkpt>
      <trkpt lat="46.67901" lon="6.18866">
        <ele>1081.1</ele>
        <time>2020-07-21T06:53:43Z</time>
      </trkpt>
      <trkpt lat="46.67896" lon="6.18871">
        <ele>1080.8</ele>
        <time>2020-07-21T06:53:48Z</time>
      </trkpt>
      <trkpt lat="46.67892" lon="6.18874">
        <ele>1080.5</ele>
        <time>2020-07-21T06:53:52Z</time>
      </trkpt>
      <trkpt lat="46.67888" lon="6.18876">
        <ele>1080.2</ele>
        <time>2020-07-21T06:53:56Z</time>
      </trkpt>
      <trkpt lat="46.67884" lon="6.1888">
        <ele>1080</ele>
        <time>2020-07-21T06:54:00Z</time>
      </trkpt>
      <trkpt lat="46.6788" lon="6.18885">
        <ele>1079.9</ele>
        <time>2020-07-21T06:54:05Z</time>
      </trkpt>
      <trkpt lat="46.67875" lon="6.18889">
        <ele>1079.9</ele>
        <time>2020-07-21T06:54:09Z</time>
      </trkpt>
      <trkpt lat="46.67871" lon="6.18893">
        <ele>1080</ele>
        <time>2020-07-21T06:54:13Z</time>
      </trkpt>
      <trkpt lat="46.67854" lon="6.18907">
        <ele>1081.1</ele>
        <time>2020-07-21T06:54:32Z</time>
      </trkpt>
      <trkpt lat="46.6785" lon="6.18912">
        <ele>1081</ele>
        <time>2020-07-21T06:54:36Z</time>
      </trkpt>
      <trkpt lat="46.67843" lon="6.18923">
        <ele>1080.1</ele>
        <time>2020-07-21T06:54:45Z</time>
      </trkpt>
      <trkpt lat="46.6784" lon="6.18928">
        <ele>1080</ele>
        <time>2020-07-21T06:54:49Z</time>
      </trkpt>
      <trkpt lat="46.67836" lon="6.18934">
        <ele>1080</ele>
        <time>2020-07-21T06:54:54Z</time>
      </trkpt>
      <trkpt lat="46.67832" lon="6.18938">
        <ele>1080.1</ele>
        <time>2020-07-21T06:54:58Z</time>
      </trkpt>
      <trkpt lat="46.67822" lon="6.18945">
        <ele>1080.4</ele>
        <time>2020-07-21T06:55:07Z</time>
      </trkpt>
      <trkpt lat="46.67818" lon="6.1895">
        <ele>1080.4</ele>
        <time>2020-07-21T06:55:12Z</time>
      </trkpt>
      <trkpt lat="46.67814" lon="6.18953">
        <ele>1080.4</ele>
        <time>2020-07-21T06:55:16Z</time>
      </trkpt>
      <trkpt lat="46.67802" lon="6.18959">
        <ele>1081.1</ele>
        <time>2020-07-21T06:55:26Z</time>
      </trkpt>
      <trkpt lat="46.67797" lon="6.1896">
        <ele>1081.5</ele>
        <time>2020-07-21T06:55:31Z</time>
      </trkpt>
      <trkpt lat="46.67793" lon="6.18962">
        <ele>1081.8</ele>
        <time>2020-07-21T06:55:35Z</time>
      </trkpt>
      <trkpt lat="46.67787" lon="6.18963">
        <ele>1082.1</ele>
        <time>2020-07-21T06:55:38Z</time>
      </trkpt>
      <trkpt lat="46.67782" lon="6.18964">
        <ele>1082.3</ele>
        <time>2020-07-21T06:55:40Z</time>
      </trkpt>
      <trkpt lat="46.67777" lon="6.18964">
        <ele>1082.9</ele>
        <time>2020-07-21T06:55:44Z</time>
      </trkpt>
      <trkpt lat="46.67772" lon="6.18962">
        <ele>1083.8</ele>
        <time>2020-07-21T06:55:49Z</time>
      </trkpt>
      <trkpt lat="46.67762" lon="6.18953">
        <ele>1084.8</ele>
        <time>2020-07-21T06:56:00Z</time>
      </trkpt>
      <trkpt lat="46.67757" lon="6.18951">
        <ele>1084.8</ele>
        <time>2020-07-21T06:56:05Z</time>
      </trkpt>
      <trkpt lat="46.67752" lon="6.1895">
        <ele>1084.7</ele>
        <time>2020-07-21T06:56:10Z</time>
      </trkpt>
      <trkpt lat="46.67747" lon="6.1895">
        <ele>1084.6</ele>
        <time>2020-07-21T06:56:15Z</time>
      </trkpt>
      <trkpt lat="46.67743" lon="6.18951">
        <ele>1084.5</ele>
        <time>2020-07-21T06:56:20Z</time>
      </trkpt>
      <trkpt lat="46.67737" lon="6.18951">
        <ele>1084.3</ele>
        <time>2020-07-21T06:56:25Z</time>
      </trkpt>
      <trkpt lat="46.67732" lon="6.18952">
        <ele>1084.1</ele>
        <time>2020-07-21T06:56:29Z</time>
      </trkpt>
      <trkpt lat="46.67719" lon="6.18962">
        <ele>1084.4</ele>
        <time>2020-07-21T06:56:44Z</time>
      </trkpt>
      <trkpt lat="46.67709" lon="6.18974">
        <ele>1084.7</ele>
        <time>2020-07-21T06:56:56Z</time>
      </trkpt>
      <trkpt lat="46.67692" lon="6.18978">
        <ele>1084.6</ele>
        <time>2020-07-21T06:57:10Z</time>
      </trkpt>
      <trkpt lat="46.67687" lon="6.18978">
        <ele>1084.4</ele>
        <time>2020-07-21T06:57:14Z</time>
      </trkpt>
      <trkpt lat="46.67682" lon="6.18978">
        <ele>1084.5</ele>
        <time>2020-07-21T06:57:20Z</time>
      </trkpt>
      <trkpt lat="46.67676" lon="6.18977">
        <ele>1084.6</ele>
        <time>2020-07-21T06:57:24Z</time>
      </trkpt>
      <trkpt lat="46.67671" lon="6.18978">
        <ele>1084.6</ele>
        <time>2020-07-21T06:57:29Z</time>
      </trkpt>
      <trkpt lat="46.67667" lon="6.18978">
        <ele>1084.6</ele>
        <time>2020-07-21T06:57:34Z</time>
      </trkpt>
      <trkpt lat="46.67662" lon="6.1898">
        <ele>1084.6</ele>
        <time>2020-07-21T06:57:40Z</time>
      </trkpt>
      <trkpt lat="46.67657" lon="6.18982">
        <ele>1084.6</ele>
        <time>2020-07-21T06:57:45Z</time>
      </trkpt>
      <trkpt lat="46.67652" lon="6.18985">
        <ele>1084.2</ele>
        <time>2020-07-21T06:57:49Z</time>
      </trkpt>
      <trkpt lat="46.67648" lon="6.18987">
        <ele>1083.9</ele>
        <time>2020-07-21T06:57:53Z</time>
      </trkpt>
      <trkpt lat="46.67643" lon="6.1899">
        <ele>1083.8</ele>
        <time>2020-07-21T06:57:58Z</time>
      </trkpt>
      <trkpt lat="46.6763" lon="6.18995">
        <ele>1083.9</ele>
        <time>2020-07-21T06:58:11Z</time>
      </trkpt>
      <trkpt lat="46.67624" lon="6.18998">
        <ele>1084.1</ele>
        <time>2020-07-21T06:58:15Z</time>
      </trkpt>
      <trkpt lat="46.67619" lon="6.19">
        <ele>1084.3</ele>
        <time>2020-07-21T06:58:21Z</time>
      </trkpt>
      <trkpt lat="46.67614" lon="6.19002">
        <ele>1084.6</ele>
        <time>2020-07-21T06:58:26Z</time>
      </trkpt>
      <trkpt lat="46.67609" lon="6.19006">
        <ele>1084.9</ele>
        <time>2020-07-21T06:58:31Z</time>
      </trkpt>
      <trkpt lat="46.67598" lon="6.19012">
        <ele>1085.4</ele>
        <time>2020-07-21T06:58:46Z</time>
      </trkpt>
      <trkpt lat="46.67576" lon="6.19024">
        <ele>1085.7</ele>
        <time>2020-07-21T06:59:08Z</time>
      </trkpt>
      <trkpt lat="46.67572" lon="6.19029">
        <ele>1085.9</ele>
        <time>2020-07-21T06:59:12Z</time>
      </trkpt>
      <trkpt lat="46.67568" lon="6.19033">
        <ele>1086.1</ele>
        <time>2020-07-21T06:59:16Z</time>
      </trkpt>
      <trkpt lat="46.67551" lon="6.19041">
        <ele>1086.9</ele>
        <time>2020-07-21T06:59:33Z</time>
      </trkpt>
      <trkpt lat="46.67547" lon="6.19046">
        <ele>1087.3</ele>
        <time>2020-07-21T06:59:38Z</time>
      </trkpt>
      <trkpt lat="46.67542" lon="6.19051">
        <ele>1087.8</ele>
        <time>2020-07-21T06:59:43Z</time>
      </trkpt>
      <trkpt lat="46.67539" lon="6.19056">
        <ele>1088</ele>
        <time>2020-07-21T06:59:47Z</time>
      </trkpt>
      <trkpt lat="46.67537" lon="6.19062">
        <ele>1088.1</ele>
        <time>2020-07-21T06:59:51Z</time>
      </trkpt>
      <trkpt lat="46.67534" lon="6.19069">
        <ele>1088.2</ele>
        <time>2020-07-21T06:59:55Z</time>
      </trkpt>
      <trkpt lat="46.67532" lon="6.19075">
        <ele>1088.2</ele>
        <time>2020-07-21T06:59:59Z</time>
      </trkpt>
      <trkpt lat="46.6753" lon="6.19081">
        <ele>1088.2</ele>
        <time>2020-07-21T07:00:05Z</time>
      </trkpt>
      <trkpt lat="46.67525" lon="6.19086">
        <ele>1087.9</ele>
        <time>2020-07-21T07:00:11Z</time>
      </trkpt>
      <trkpt lat="46.67522" lon="6.19091">
        <ele>1087.8</ele>
        <time>2020-07-21T07:00:17Z</time>
      </trkpt>
      <trkpt lat="46.67519" lon="6.19096">
        <ele>1087.9</ele>
        <time>2020-07-21T07:00:22Z</time>
      </trkpt>
      <trkpt lat="46.67516" lon="6.19103">
        <ele>1087.9</ele>
        <time>2020-07-21T07:00:26Z</time>
      </trkpt>
      <trkpt lat="46.67512" lon="6.19109">
        <ele>1087.8</ele>
        <time>2020-07-21T07:00:30Z</time>
      </trkpt>
      <trkpt lat="46.67509" lon="6.19115">
        <ele>1087.6</ele>
        <time>2020-07-21T07:00:34Z</time>
      </trkpt>
      <trkpt lat="46.67507" lon="6.19122">
        <ele>1087.7</ele>
        <time>2020-07-21T07:00:37Z</time>
      </trkpt>
      <trkpt lat="46.67504" lon="6.19128">
        <ele>1087.7</ele>
        <time>2020-07-21T07:00:41Z</time>
      </trkpt>
      <trkpt lat="46.67499" lon="6.19141">
        <ele>1087.8</ele>
        <time>2020-07-21T07:00:50Z</time>
      </trkpt>
      <trkpt lat="46.67495" lon="6.19146">
        <ele>1088.1</ele>
        <time>2020-07-21T07:00:55Z</time>
      </trkpt>
      <trkpt lat="46.67486" lon="6.19157">
        <ele>1088.3</ele>
        <time>2020-07-21T07:01:07Z</time>
      </trkpt>
      <trkpt lat="46.67482" lon="6.19162">
        <ele>1087.9</ele>
        <time>2020-07-21T07:01:11Z</time>
      </trkpt>
      <trkpt lat="46.67478" lon="6.19168">
        <ele>1087.4</ele>
        <time>2020-07-21T07:01:15Z</time>
      </trkpt>
      <trkpt lat="46.67474" lon="6.19173">
        <ele>1087</ele>
        <time>2020-07-21T07:01:19Z</time>
      </trkpt>
      <trkpt lat="46.67471" lon="6.19179">
        <ele>1086.7</ele>
        <time>2020-07-21T07:01:23Z</time>
      </trkpt>
      <trkpt lat="46.67467" lon="6.19182">
        <ele>1086.8</ele>
        <time>2020-07-21T07:01:28Z</time>
      </trkpt>
      <trkpt lat="46.67449" lon="6.19201">
        <ele>1087.7</ele>
        <time>2020-07-21T07:01:49Z</time>
      </trkpt>
      <trkpt lat="46.6744" lon="6.1921">
        <ele>1088.1</ele>
        <time>2020-07-21T07:01:59Z</time>
      </trkpt>
      <trkpt lat="46.67435" lon="6.19216">
        <ele>1088.3</ele>
        <time>2020-07-21T07:02:03Z</time>
      </trkpt>
      <trkpt lat="46.67431" lon="6.19221">
        <ele>1088.6</ele>
        <time>2020-07-21T07:02:07Z</time>
      </trkpt>
      <trkpt lat="46.67427" lon="6.19226">
        <ele>1088.8</ele>
        <time>2020-07-21T07:02:11Z</time>
      </trkpt>
      <trkpt lat="46.67423" lon="6.19229">
        <ele>1089.1</ele>
        <time>2020-07-21T07:02:15Z</time>
      </trkpt>
      <trkpt lat="46.67413" lon="6.19239">
        <ele>1089.8</ele>
        <time>2020-07-21T07:02:26Z</time>
      </trkpt>
      <trkpt lat="46.67404" lon="6.19246">
        <ele>1091.1</ele>
        <time>2020-07-21T07:02:37Z</time>
      </trkpt>
      <trkpt lat="46.674" lon="6.1925">
        <ele>1091.2</ele>
        <time>2020-07-21T07:02:41Z</time>
      </trkpt>
      <trkpt lat="46.67396" lon="6.19255">
        <ele>1091.4</ele>
        <time>2020-07-21T07:02:45Z</time>
      </trkpt>
      <trkpt lat="46.67392" lon="6.19259">
        <ele>1091.6</ele>
        <time>2020-07-21T07:02:49Z</time>
      </trkpt>
      <trkpt lat="46.67387" lon="6.19262">
        <ele>1091.7</ele>
        <time>2020-07-21T07:02:53Z</time>
      </trkpt>
      <trkpt lat="46.67377" lon="6.19273">
        <ele>1091.8</ele>
        <time>2020-07-21T07:03:05Z</time>
      </trkpt>
      <trkpt lat="46.67372" lon="6.19276">
        <ele>1091.9</ele>
        <time>2020-07-21T07:03:10Z</time>
      </trkpt>
      <trkpt lat="46.67368" lon="6.1928">
        <ele>1091.8</ele>
        <time>2020-07-21T07:03:15Z</time>
      </trkpt>
      <trkpt lat="46.67363" lon="6.19283">
        <ele>1091.8</ele>
        <time>2020-07-21T07:03:20Z</time>
      </trkpt>
      <trkpt lat="46.6735" lon="6.19297">
        <ele>1092</ele>
        <time>2020-07-21T07:03:34Z</time>
      </trkpt>
      <trkpt lat="46.67345" lon="6.19302">
        <ele>1092.1</ele>
        <time>2020-07-21T07:03:39Z</time>
      </trkpt>
      <trkpt lat="46.67324" lon="6.19317">
        <ele>1093.8</ele>
        <time>2020-07-21T07:04:00Z</time>
      </trkpt>
      <trkpt lat="46.67313" lon="6.19331">
        <ele>1095.4</ele>
        <time>2020-07-21T07:04:11Z</time>
      </trkpt>
      <trkpt lat="46.6731" lon="6.19337">
        <ele>1096</ele>
        <time>2020-07-21T07:04:15Z</time>
      </trkpt>
      <trkpt lat="46.67305" lon="6.19341">
        <ele>1096.6</ele>
        <time>2020-07-21T07:04:19Z</time>
      </trkpt>
      <trkpt lat="46.673" lon="6.19344">
        <ele>1097.2</ele>
        <time>2020-07-21T07:04:23Z</time>
      </trkpt>
      <trkpt lat="46.67296" lon="6.19348">
        <ele>1097.9</ele>
        <time>2020-07-21T07:04:27Z</time>
      </trkpt>
      <trkpt lat="46.67277" lon="6.19355">
        <ele>1101.6</ele>
        <time>2020-07-21T07:04:48Z</time>
      </trkpt>
      <trkpt lat="46.67271" lon="6.19357">
        <ele>1102.9</ele>
        <time>2020-07-21T07:04:54Z</time>
      </trkpt>
      <trkpt lat="46.67267" lon="6.19357">
        <ele>1104.1</ele>
        <time>2020-07-21T07:04:59Z</time>
      </trkpt>
      <trkpt lat="46.67262" lon="6.19356">
        <ele>1105.1</ele>
        <time>2020-07-21T07:05:03Z</time>
      </trkpt>
      <trkpt lat="46.67256" lon="6.19354">
        <ele>1105.9</ele>
        <time>2020-07-21T07:05:07Z</time>
      </trkpt>
      <trkpt lat="46.6725" lon="6.19352">
        <ele>1106.4</ele>
        <time>2020-07-21T07:05:10Z</time>
      </trkpt>
      <trkpt lat="46.67245" lon="6.1935">
        <ele>1106.9</ele>
        <time>2020-07-21T07:05:14Z</time>
      </trkpt>
      <trkpt lat="46.67234" lon="6.19342">
        <ele>1107.3</ele>
        <time>2020-07-21T07:05:26Z</time>
      </trkpt>
      <trkpt lat="46.67228" lon="6.19338">
        <ele>1107.6</ele>
        <time>2020-07-21T07:05:31Z</time>
      </trkpt>
      <trkpt lat="46.67217" lon="6.19331">
        <ele>1107.9</ele>
        <time>2020-07-21T07:05:41Z</time>
      </trkpt>
      <trkpt lat="46.67199" lon="6.1933">
        <ele>1107.9</ele>
        <time>2020-07-21T07:05:59Z</time>
      </trkpt>
      <trkpt lat="46.67194" lon="6.19334">
        <ele>1107.8</ele>
        <time>2020-07-21T07:06:03Z</time>
      </trkpt>
      <trkpt lat="46.6719" lon="6.19338">
        <ele>1107.7</ele>
        <time>2020-07-21T07:06:08Z</time>
      </trkpt>
      <trkpt lat="46.67184" lon="6.19341">
        <ele>1107.7</ele>
        <time>2020-07-21T07:06:13Z</time>
      </trkpt>
      <trkpt lat="46.6718" lon="6.19346">
        <ele>1107.9</ele>
        <time>2020-07-21T07:06:17Z</time>
      </trkpt>
      <trkpt lat="46.67177" lon="6.19351">
        <ele>1108.1</ele>
        <time>2020-07-21T07:06:21Z</time>
      </trkpt>
      <trkpt lat="46.67174" lon="6.19356">
        <ele>1108.3</ele>
        <time>2020-07-21T07:06:26Z</time>
      </trkpt>
      <trkpt lat="46.67167" lon="6.19371">
        <ele>1107.2</ele>
        <time>2020-07-21T07:06:41Z</time>
      </trkpt>
      <trkpt lat="46.67165" lon="6.19377">
        <ele>1106.6</ele>
        <time>2020-07-21T07:06:47Z</time>
      </trkpt>
      <trkpt lat="46.67163" lon="6.19384">
        <ele>1106.1</ele>
        <time>2020-07-21T07:06:52Z</time>
      </trkpt>
      <trkpt lat="46.6716" lon="6.1939">
        <ele>1105.7</ele>
        <time>2020-07-21T07:06:57Z</time>
      </trkpt>
      <trkpt lat="46.67156" lon="6.19396">
        <ele>1105.1</ele>
        <time>2020-07-21T07:07:03Z</time>
      </trkpt>
      <trkpt lat="46.67142" lon="6.19404">
        <ele>1103.6</ele>
        <time>2020-07-21T07:07:17Z</time>
      </trkpt>
      <trkpt lat="46.67137" lon="6.19411">
        <ele>1103.4</ele>
        <time>2020-07-21T07:07:21Z</time>
      </trkpt>
      <trkpt lat="46.67134" lon="6.19415">
        <ele>1103.4</ele>
        <time>2020-07-21T07:07:25Z</time>
      </trkpt>
      <trkpt lat="46.67125" lon="6.19422">
        <ele>1103.9</ele>
        <time>2020-07-21T07:07:33Z</time>
      </trkpt>
      <trkpt lat="46.67113" lon="6.19432">
        <ele>1104.3</ele>
        <time>2020-07-21T07:07:42Z</time>
      </trkpt>
      <trkpt lat="46.67109" lon="6.19435">
        <ele>1104.5</ele>
        <time>2020-07-21T07:07:45Z</time>
      </trkpt>
      <trkpt lat="46.67093" lon="6.19447">
        <ele>1107</ele>
        <time>2020-07-21T07:08:02Z</time>
      </trkpt>
      <trkpt lat="46.6709" lon="6.19453">
        <ele>1106.9</ele>
        <time>2020-07-21T07:08:05Z</time>
      </trkpt>
      <trkpt lat="46.67087" lon="6.19458">
        <ele>1106.9</ele>
        <time>2020-07-21T07:08:09Z</time>
      </trkpt>
      <trkpt lat="46.67083" lon="6.19464">
        <ele>1107.2</ele>
        <time>2020-07-21T07:08:14Z</time>
      </trkpt>
      <trkpt lat="46.67079" lon="6.19468">
        <ele>1107.9</ele>
        <time>2020-07-21T07:08:18Z</time>
      </trkpt>
      <trkpt lat="46.67076" lon="6.19474">
        <ele>1108.7</ele>
        <time>2020-07-21T07:08:22Z</time>
      </trkpt>
      <trkpt lat="46.67063" lon="6.19485">
        <ele>1112.1</ele>
        <time>2020-07-21T07:08:35Z</time>
      </trkpt>
      <trkpt lat="46.6706" lon="6.1949">
        <ele>1112.9</ele>
        <time>2020-07-21T07:08:40Z</time>
      </trkpt>
      <trkpt lat="46.67056" lon="6.19496">
        <ele>1113.8</ele>
        <time>2020-07-21T07:08:44Z</time>
      </trkpt>
      <trkpt lat="46.67052" lon="6.19499">
        <ele>1114.4</ele>
        <time>2020-07-21T07:08:47Z</time>
      </trkpt>
      <trkpt lat="46.67047" lon="6.19503">
        <ele>1115.4</ele>
        <time>2020-07-21T07:08:51Z</time>
      </trkpt>
      <trkpt lat="46.67044" lon="6.19508">
        <ele>1116.6</ele>
        <time>2020-07-21T07:08:57Z</time>
      </trkpt>
      <trkpt lat="46.67036" lon="6.1952">
        <ele>1117</ele>
        <time>2020-07-21T07:09:10Z</time>
      </trkpt>
      <trkpt lat="46.67032" lon="6.19524">
        <ele>1116.8</ele>
        <time>2020-07-21T07:09:15Z</time>
      </trkpt>
      <trkpt lat="46.67028" lon="6.19529">
        <ele>1116.6</ele>
        <time>2020-07-21T07:09:19Z</time>
      </trkpt>
      <trkpt lat="46.67024" lon="6.19533">
        <ele>1116.1</ele>
        <time>2020-07-21T07:09:25Z</time>
      </trkpt>
      <trkpt lat="46.67021" lon="6.19538">
        <ele>1115.6</ele>
        <time>2020-07-21T07:09:30Z</time>
      </trkpt>
      <trkpt lat="46.67013" lon="6.19553">
        <ele>1113.9</ele>
        <time>2020-07-21T07:09:43Z</time>
      </trkpt>
      <trkpt lat="46.66999" lon="6.19573">
        <ele>1113.5</ele>
        <time>2020-07-21T07:10:00Z</time>
      </trkpt>
      <trkpt lat="46.66995" lon="6.19575">
        <ele>1113.4</ele>
        <time>2020-07-21T07:10:04Z</time>
      </trkpt>
      <trkpt lat="46.6699" lon="6.19578">
        <ele>1113</ele>
        <time>2020-07-21T07:10:09Z</time>
      </trkpt>
      <trkpt lat="46.66977" lon="6.19585">
        <ele>1112.4</ele>
        <time>2020-07-21T07:10:23Z</time>
      </trkpt>
      <trkpt lat="46.66972" lon="6.19587">
        <ele>1112.7</ele>
        <time>2020-07-21T07:10:28Z</time>
      </trkpt>
      <trkpt lat="46.66968" lon="6.1959">
        <ele>1112.8</ele>
        <time>2020-07-21T07:10:32Z</time>
      </trkpt>
      <trkpt lat="46.66963" lon="6.19593">
        <ele>1112.9</ele>
        <time>2020-07-21T07:10:36Z</time>
      </trkpt>
      <trkpt lat="46.66959" lon="6.19596">
        <ele>1112.8</ele>
        <time>2020-07-21T07:10:40Z</time>
      </trkpt>
      <trkpt lat="46.66955" lon="6.19599">
        <ele>1112.7</ele>
        <time>2020-07-21T07:10:44Z</time>
      </trkpt>
      <trkpt lat="46.66951" lon="6.19602">
        <ele>1112.7</ele>
        <time>2020-07-21T07:10:48Z</time>
      </trkpt>
      <trkpt lat="46.66946" lon="6.19606">
        <ele>1112.6</ele>
        <time>2020-07-21T07:10:53Z</time>
      </trkpt>
      <trkpt lat="46.6694" lon="6.19608">
        <ele>1112.6</ele>
        <time>2020-07-21T07:10:57Z</time>
      </trkpt>
      <trkpt lat="46.66935" lon="6.19611">
        <ele>1112.5</ele>
        <time>2020-07-21T07:11:01Z</time>
      </trkpt>
      <trkpt lat="46.6693" lon="6.19613">
        <ele>1112.3</ele>
        <time>2020-07-21T07:11:06Z</time>
      </trkpt>
      <trkpt lat="46.66926" lon="6.19613">
        <ele>1111.9</ele>
        <time>2020-07-21T07:11:11Z</time>
      </trkpt>
      <trkpt lat="46.66921" lon="6.19615">
        <ele>1111.3</ele>
        <time>2020-07-21T07:11:17Z</time>
      </trkpt>
      <trkpt lat="46.66916" lon="6.19618">
        <ele>1110.8</ele>
        <time>2020-07-21T07:11:23Z</time>
      </trkpt>
      <trkpt lat="46.66911" lon="6.19622">
        <ele>1110.2</ele>
        <time>2020-07-21T07:11:29Z</time>
      </trkpt>
      <trkpt lat="46.66907" lon="6.19626">
        <ele>1109.6</ele>
        <time>2020-07-21T07:11:34Z</time>
      </trkpt>
      <trkpt lat="46.66902" lon="6.19628">
        <ele>1109</ele>
        <time>2020-07-21T07:11:41Z</time>
      </trkpt>
      <trkpt lat="46.66898" lon="6.19631">
        <ele>1108.7</ele>
        <time>2020-07-21T07:11:45Z</time>
      </trkpt>
      <trkpt lat="46.66893" lon="6.19635">
        <ele>1108.6</ele>
        <time>2020-07-21T07:11:49Z</time>
      </trkpt>
      <trkpt lat="46.66888" lon="6.19638">
        <ele>1108.5</ele>
        <time>2020-07-21T07:11:53Z</time>
      </trkpt>
      <trkpt lat="46.66883" lon="6.19642">
        <ele>1108.4</ele>
        <time>2020-07-21T07:11:57Z</time>
      </trkpt>
      <trkpt lat="46.66878" lon="6.19644">
        <ele>1108.3</ele>
        <time>2020-07-21T07:12:02Z</time>
      </trkpt>
      <trkpt lat="46.66866" lon="6.19649">
        <ele>1108.2</ele>
        <time>2020-07-21T07:12:11Z</time>
      </trkpt>
      <trkpt lat="46.66862" lon="6.19652">
        <ele>1108.3</ele>
        <time>2020-07-21T07:12:15Z</time>
      </trkpt>
      <trkpt lat="46.66856" lon="6.19655">
        <ele>1108.3</ele>
        <time>2020-07-21T07:12:20Z</time>
      </trkpt>
      <trkpt lat="46.66852" lon="6.19657">
        <ele>1108.2</ele>
        <time>2020-07-21T07:12:24Z</time>
      </trkpt>
      <trkpt lat="46.66847" lon="6.19659">
        <ele>1108.2</ele>
        <time>2020-07-21T07:12:30Z</time>
      </trkpt>
      <trkpt lat="46.66843" lon="6.19665">
        <ele>1108.1</ele>
        <time>2020-07-21T07:12:36Z</time>
      </trkpt>
      <trkpt lat="46.6684" lon="6.1967">
        <ele>1108</ele>
        <time>2020-07-21T07:12:40Z</time>
      </trkpt>
      <trkpt lat="46.66836" lon="6.19674">
        <ele>1107.9</ele>
        <time>2020-07-21T07:12:45Z</time>
      </trkpt>
      <trkpt lat="46.66832" lon="6.1968">
        <ele>1107.8</ele>
        <time>2020-07-21T07:12:49Z</time>
      </trkpt>
      <trkpt lat="46.66828" lon="6.19685">
        <ele>1107.7</ele>
        <time>2020-07-21T07:12:53Z</time>
      </trkpt>
      <trkpt lat="46.66824" lon="6.1969">
        <ele>1107.6</ele>
        <time>2020-07-21T07:12:57Z</time>
      </trkpt>
      <trkpt lat="46.66821" lon="6.19696">
        <ele>1107.8</ele>
        <time>2020-07-21T07:13:01Z</time>
      </trkpt>
      <trkpt lat="46.66812" lon="6.19709">
        <ele>1108.5</ele>
        <time>2020-07-21T07:13:13Z</time>
      </trkpt>
      <trkpt lat="46.66807" lon="6.19713">
        <ele>1108.6</ele>
        <time>2020-07-21T07:13:18Z</time>
      </trkpt>
      <trkpt lat="46.66803" lon="6.19718">
        <ele>1108.8</ele>
        <time>2020-07-21T07:13:23Z</time>
      </trkpt>
      <trkpt lat="46.668" lon="6.19724">
        <ele>1109.1</ele>
        <time>2020-07-21T07:13:28Z</time>
      </trkpt>
      <trkpt lat="46.66796" lon="6.19729">
        <ele>1109.1</ele>
        <time>2020-07-21T07:13:32Z</time>
      </trkpt>
      <trkpt lat="46.66793" lon="6.19734">
        <ele>1109</ele>
        <time>2020-07-21T07:13:37Z</time>
      </trkpt>
      <trkpt lat="46.66789" lon="6.19739">
        <ele>1108.8</ele>
        <time>2020-07-21T07:13:42Z</time>
      </trkpt>
      <trkpt lat="46.66786" lon="6.19744">
        <ele>1108.6</ele>
        <time>2020-07-21T07:13:48Z</time>
      </trkpt>
      <trkpt lat="46.66782" lon="6.1975">
        <ele>1108.5</ele>
        <time>2020-07-21T07:13:54Z</time>
      </trkpt>
      <trkpt lat="46.66778" lon="6.19755">
        <ele>1108.4</ele>
        <time>2020-07-21T07:13:59Z</time>
      </trkpt>
      <trkpt lat="46.66775" lon="6.1976">
        <ele>1108.2</ele>
        <time>2020-07-21T07:14:03Z</time>
      </trkpt>
      <trkpt lat="46.66771" lon="6.19764">
        <ele>1107.9</ele>
        <time>2020-07-21T07:14:07Z</time>
      </trkpt>
      <trkpt lat="46.66766" lon="6.19768">
        <ele>1107.7</ele>
        <time>2020-07-21T07:14:11Z</time>
      </trkpt>
      <trkpt lat="46.66763" lon="6.19772">
        <ele>1107.5</ele>
        <time>2020-07-21T07:14:16Z</time>
      </trkpt>
      <trkpt lat="46.66758" lon="6.19776">
        <ele>1107.4</ele>
        <time>2020-07-21T07:14:22Z</time>
      </trkpt>
      <trkpt lat="46.66754" lon="6.19781">
        <ele>1107.3</ele>
        <time>2020-07-21T07:14:28Z</time>
      </trkpt>
      <trkpt lat="46.6675" lon="6.19785">
        <ele>1107.3</ele>
        <time>2020-07-21T07:14:33Z</time>
      </trkpt>
      <trkpt lat="46.66747" lon="6.1979">
        <ele>1107.2</ele>
        <time>2020-07-21T07:14:37Z</time>
      </trkpt>
      <trkpt lat="46.66743" lon="6.19793">
        <ele>1107.2</ele>
        <time>2020-07-21T07:14:42Z</time>
      </trkpt>
      <trkpt lat="46.66738" lon="6.19797">
        <ele>1107.4</ele>
        <time>2020-07-21T07:14:47Z</time>
      </trkpt>
      <trkpt lat="46.66734" lon="6.198">
        <ele>1107.6</ele>
        <time>2020-07-21T07:14:52Z</time>
      </trkpt>
      <trkpt lat="46.66729" lon="6.19804">
        <ele>1107.5</ele>
        <time>2020-07-21T07:14:57Z</time>
      </trkpt>
      <trkpt lat="46.66725" lon="6.19808">
        <ele>1107.5</ele>
        <time>2020-07-21T07:15:02Z</time>
      </trkpt>
      <trkpt lat="46.6672" lon="6.19811">
        <ele>1107.3</ele>
        <time>2020-07-21T07:15:06Z</time>
      </trkpt>
      <trkpt lat="46.66715" lon="6.19815">
        <ele>1107.2</ele>
        <time>2020-07-21T07:15:11Z</time>
      </trkpt>
      <trkpt lat="46.66711" lon="6.19818">
        <ele>1106.9</ele>
        <time>2020-07-21T07:15:15Z</time>
      </trkpt>
      <trkpt lat="46.66706" lon="6.1982">
        <ele>1106.5</ele>
        <time>2020-07-21T07:15:20Z</time>
      </trkpt>
      <trkpt lat="46.66701" lon="6.19823">
        <ele>1106.1</ele>
        <time>2020-07-21T07:15:25Z</time>
      </trkpt>
      <trkpt lat="46.66696" lon="6.19826">
        <ele>1105.8</ele>
        <time>2020-07-21T07:15:30Z</time>
      </trkpt>
      <trkpt lat="46.66692" lon="6.19829">
        <ele>1105.6</ele>
        <time>2020-07-21T07:15:34Z</time>
      </trkpt>
      <trkpt lat="46.66681" lon="6.19834">
        <ele>1105</ele>
        <time>2020-07-21T07:15:44Z</time>
      </trkpt>
      <trkpt lat="46.66676" lon="6.19836">
        <ele>1104.9</ele>
        <time>2020-07-21T07:15:49Z</time>
      </trkpt>
      <trkpt lat="46.66671" lon="6.19839">
        <ele>1104.9</ele>
        <time>2020-07-21T07:15:54Z</time>
      </trkpt>
      <trkpt lat="46.66667" lon="6.19843">
        <ele>1105</ele>
        <time>2020-07-21T07:15:58Z</time>
      </trkpt>
      <trkpt lat="46.66662" lon="6.19847">
        <ele>1105.2</ele>
        <time>2020-07-21T07:16:03Z</time>
      </trkpt>
      <trkpt lat="46.66657" lon="6.19849">
        <ele>1105.4</ele>
        <time>2020-07-21T07:16:07Z</time>
      </trkpt>
      <trkpt lat="46.66652" lon="6.19852">
        <ele>1105.6</ele>
        <time>2020-07-21T07:16:12Z</time>
      </trkpt>
      <trkpt lat="46.66646" lon="6.19853">
        <ele>1105.8</ele>
        <time>2020-07-21T07:16:17Z</time>
      </trkpt>
      <trkpt lat="46.66641" lon="6.19855">
        <ele>1106</ele>
        <time>2020-07-21T07:16:22Z</time>
      </trkpt>
      <trkpt lat="46.66637" lon="6.19858">
        <ele>1106.2</ele>
        <time>2020-07-21T07:16:26Z</time>
      </trkpt>
      <trkpt lat="46.66632" lon="6.19861">
        <ele>1106.3</ele>
        <time>2020-07-21T07:16:30Z</time>
      </trkpt>
      <trkpt lat="46.66628" lon="6.19864">
        <ele>1106.5</ele>
        <time>2020-07-21T07:16:34Z</time>
      </trkpt>
      <trkpt lat="46.66623" lon="6.19867">
        <ele>1106.7</ele>
        <time>2020-07-21T07:16:38Z</time>
      </trkpt>
      <trkpt lat="46.66618" lon="6.19868">
        <ele>1106.8</ele>
        <time>2020-07-21T07:16:43Z</time>
      </trkpt>
      <trkpt lat="46.66613" lon="6.1987">
        <ele>1107.1</ele>
        <time>2020-07-21T07:16:48Z</time>
      </trkpt>
      <trkpt lat="46.66609" lon="6.19872">
        <ele>1107.5</ele>
        <time>2020-07-21T07:16:52Z</time>
      </trkpt>
      <trkpt lat="46.66604" lon="6.19874">
        <ele>1108</ele>
        <time>2020-07-21T07:16:57Z</time>
      </trkpt>
      <trkpt lat="46.66599" lon="6.19875">
        <ele>1109</ele>
        <time>2020-07-21T07:17:03Z</time>
      </trkpt>
      <trkpt lat="46.66594" lon="6.19877">
        <ele>1110</ele>
        <time>2020-07-21T07:17:09Z</time>
      </trkpt>
      <trkpt lat="46.66589" lon="6.19878">
        <ele>1110.8</ele>
        <time>2020-07-21T07:17:14Z</time>
      </trkpt>
      <trkpt lat="46.66584" lon="6.19879">
        <ele>1111.2</ele>
        <time>2020-07-21T07:17:19Z</time>
      </trkpt>
      <trkpt lat="46.6658" lon="6.19882">
        <ele>1111.3</ele>
        <time>2020-07-21T07:17:23Z</time>
      </trkpt>
      <trkpt lat="46.66575" lon="6.19883">
        <ele>1111.4</ele>
        <time>2020-07-21T07:17:27Z</time>
      </trkpt>
      <trkpt lat="46.6657" lon="6.19885">
        <ele>1111.5</ele>
        <time>2020-07-21T07:17:32Z</time>
      </trkpt>
      <trkpt lat="46.66565" lon="6.19887">
        <ele>1111.5</ele>
        <time>2020-07-21T07:17:36Z</time>
      </trkpt>
      <trkpt lat="46.66561" lon="6.19887">
        <ele>1111.5</ele>
        <time>2020-07-21T07:17:41Z</time>
      </trkpt>
      <trkpt lat="46.66556" lon="6.19887">
        <ele>1111.4</ele>
        <time>2020-07-21T07:17:46Z</time>
      </trkpt>
      <trkpt lat="46.66551" lon="6.19889">
        <ele>1111.3</ele>
        <time>2020-07-21T07:17:50Z</time>
      </trkpt>
      <trkpt lat="46.66546" lon="6.19891">
        <ele>1111</ele>
        <time>2020-07-21T07:17:54Z</time>
      </trkpt>
      <trkpt lat="46.66542" lon="6.19893">
        <ele>1110.7</ele>
        <time>2020-07-21T07:17:58Z</time>
      </trkpt>
      <trkpt lat="46.66537" lon="6.19894">
        <ele>1110.5</ele>
        <time>2020-07-21T07:18:03Z</time>
      </trkpt>
      <trkpt lat="46.66532" lon="6.19896">
        <ele>1110.3</ele>
        <time>2020-07-21T07:18:08Z</time>
      </trkpt>
      <trkpt lat="46.66527" lon="6.19897">
        <ele>1110.2</ele>
        <time>2020-07-21T07:18:13Z</time>
      </trkpt>
      <trkpt lat="46.66523" lon="6.19897">
        <ele>1110.3</ele>
        <time>2020-07-21T07:18:19Z</time>
      </trkpt>
      <trkpt lat="46.66518" lon="6.19898">
        <ele>1110.4</ele>
        <time>2020-07-21T07:18:25Z</time>
      </trkpt>
      <trkpt lat="46.66513" lon="6.199">
        <ele>1110.3</ele>
        <time>2020-07-21T07:18:30Z</time>
      </trkpt>
      <trkpt lat="46.665" lon="6.19905">
        <ele>1110.8</ele>
        <time>2020-07-21T07:18:38Z</time>
      </trkpt>
      <trkpt lat="46.6646" lon="6.19918">
        <ele>1121</ele>
        <time>2020-07-21T07:19:16Z</time>
      </trkpt>
      <trkpt lat="46.66456" lon="6.19921">
        <ele>1122.1</ele>
        <time>2020-07-21T07:19:21Z</time>
      </trkpt>
      <trkpt lat="46.66444" lon="6.19926">
        <ele>1126.3</ele>
        <time>2020-07-21T07:19:34Z</time>
      </trkpt>
      <trkpt lat="46.66439" lon="6.19927">
        <ele>1127</ele>
        <time>2020-07-21T07:19:39Z</time>
      </trkpt>
      <trkpt lat="46.66387" lon="6.19941">
        <ele>1139.4</ele>
        <time>2020-07-21T07:20:35Z</time>
      </trkpt>
      <trkpt lat="46.66382" lon="6.19937">
        <ele>1139.9</ele>
        <time>2020-07-21T07:20:40Z</time>
      </trkpt>
      <trkpt lat="46.66369" lon="6.19939">
        <ele>1141.5</ele>
        <time>2020-07-21T07:20:54Z</time>
      </trkpt>
      <trkpt lat="46.66365" lon="6.19943">
        <ele>1141.7</ele>
        <time>2020-07-21T07:20:59Z</time>
      </trkpt>
      <trkpt lat="46.6636" lon="6.19946">
        <ele>1141.8</ele>
        <time>2020-07-21T07:21:03Z</time>
      </trkpt>
      <trkpt lat="46.66356" lon="6.19946">
        <ele>1142.2</ele>
        <time>2020-07-21T07:21:09Z</time>
      </trkpt>
      <trkpt lat="46.66349" lon="6.19943">
        <ele>1142.9</ele>
        <time>2020-07-21T07:21:16Z</time>
      </trkpt>
      <trkpt lat="46.66345" lon="6.19941">
        <ele>1143.1</ele>
        <time>2020-07-21T07:21:18Z</time>
      </trkpt>
      <trkpt lat="46.66341" lon="6.19937">
        <ele>1143.5</ele>
        <time>2020-07-21T07:21:22Z</time>
      </trkpt>
      <trkpt lat="46.66331" lon="6.19934">
        <ele>1144.6</ele>
        <time>2020-07-21T07:21:34Z</time>
      </trkpt>
      <trkpt lat="46.66318" lon="6.19928">
        <ele>1145.1</ele>
        <time>2020-07-21T07:21:45Z</time>
      </trkpt>
      <trkpt lat="46.66299" lon="6.19918">
        <ele>1146</ele>
        <time>2020-07-21T07:22:05Z</time>
      </trkpt>
      <trkpt lat="46.66295" lon="6.19915">
        <ele>1145.6</ele>
        <time>2020-07-21T07:22:10Z</time>
      </trkpt>
      <trkpt lat="46.6629" lon="6.19913">
        <ele>1145.4</ele>
        <time>2020-07-21T07:22:17Z</time>
      </trkpt>
      <trkpt lat="46.66275" lon="6.19909">
        <ele>1147</ele>
        <time>2020-07-21T07:22:31Z</time>
      </trkpt>
      <trkpt lat="46.6627" lon="6.19906">
        <ele>1147.1</ele>
        <time>2020-07-21T07:22:35Z</time>
      </trkpt>
      <trkpt lat="46.66266" lon="6.19903">
        <ele>1147.4</ele>
        <time>2020-07-21T07:22:40Z</time>
      </trkpt>
      <trkpt lat="46.66261" lon="6.19901">
        <ele>1147.7</ele>
        <time>2020-07-21T07:22:45Z</time>
      </trkpt>
      <trkpt lat="46.66256" lon="6.19899">
        <ele>1147.8</ele>
        <time>2020-07-21T07:22:50Z</time>
      </trkpt>
      <trkpt lat="46.66251" lon="6.19898">
        <ele>1147.7</ele>
        <time>2020-07-21T07:22:54Z</time>
      </trkpt>
      <trkpt lat="46.66246" lon="6.19894">
        <ele>1147.7</ele>
        <time>2020-07-21T07:22:59Z</time>
      </trkpt>
      <trkpt lat="46.66241" lon="6.1989">
        <ele>1147.8</ele>
        <time>2020-07-21T07:23:04Z</time>
      </trkpt>
      <trkpt lat="46.66236" lon="6.19888">
        <ele>1147.8</ele>
        <time>2020-07-21T07:23:08Z</time>
      </trkpt>
      <trkpt lat="46.66232" lon="6.19886">
        <ele>1147.7</ele>
        <time>2020-07-21T07:23:12Z</time>
      </trkpt>
      <trkpt lat="46.66228" lon="6.19882">
        <ele>1147.4</ele>
        <time>2020-07-21T07:23:17Z</time>
      </trkpt>
      <trkpt lat="46.66225" lon="6.19877">
        <ele>1147.1</ele>
        <time>2020-07-21T07:23:22Z</time>
      </trkpt>
      <trkpt lat="46.66213" lon="6.19866">
        <ele>1147</ele>
        <time>2020-07-21T07:23:33Z</time>
      </trkpt>
      <trkpt lat="46.66209" lon="6.19864">
        <ele>1146.9</ele>
        <time>2020-07-21T07:23:37Z</time>
      </trkpt>
      <trkpt lat="46.66205" lon="6.1986">
        <ele>1146.7</ele>
        <time>2020-07-21T07:23:42Z</time>
      </trkpt>
      <trkpt lat="46.66193" lon="6.19847">
        <ele>1146.3</ele>
        <time>2020-07-21T07:23:54Z</time>
      </trkpt>
      <trkpt lat="46.6619" lon="6.19842">
        <ele>1146.5</ele>
        <time>2020-07-21T07:23:58Z</time>
      </trkpt>
      <trkpt lat="46.66186" lon="6.19838">
        <ele>1147</ele>
        <time>2020-07-21T07:24:02Z</time>
      </trkpt>
      <trkpt lat="46.66175" lon="6.19827">
        <ele>1148.7</ele>
        <time>2020-07-21T07:24:17Z</time>
      </trkpt>
      <trkpt lat="46.66171" lon="6.19823">
        <ele>1148.9</ele>
        <time>2020-07-21T07:24:22Z</time>
      </trkpt>
      <trkpt lat="46.66168" lon="6.19817">
        <ele>1149.6</ele>
        <time>2020-07-21T07:24:29Z</time>
      </trkpt>
      <trkpt lat="46.66164" lon="6.19812">
        <ele>1150.3</ele>
        <time>2020-07-21T07:24:34Z</time>
      </trkpt>
      <trkpt lat="46.66159" lon="6.19808">
        <ele>1150.8</ele>
        <time>2020-07-21T07:24:38Z</time>
      </trkpt>
      <trkpt lat="46.66155" lon="6.19804">
        <ele>1151</ele>
        <time>2020-07-21T07:24:41Z</time>
      </trkpt>
      <trkpt lat="46.66151" lon="6.198">
        <ele>1151.6</ele>
        <time>2020-07-21T07:24:45Z</time>
      </trkpt>
      <trkpt lat="46.66142" lon="6.19785">
        <ele>1154.4</ele>
        <time>2020-07-21T07:24:59Z</time>
      </trkpt>
      <trkpt lat="46.66139" lon="6.1978">
        <ele>1154.7</ele>
        <time>2020-07-21T07:25:05Z</time>
      </trkpt>
      <trkpt lat="46.6613" lon="6.1977">
        <ele>1155.2</ele>
        <time>2020-07-21T07:25:16Z</time>
      </trkpt>
      <trkpt lat="46.66127" lon="6.19765">
        <ele>1155.2</ele>
        <time>2020-07-21T07:25:21Z</time>
      </trkpt>
      <trkpt lat="46.66123" lon="6.19759">
        <ele>1155.2</ele>
        <time>2020-07-21T07:25:27Z</time>
      </trkpt>
      <trkpt lat="46.6612" lon="6.19754">
        <ele>1155.1</ele>
        <time>2020-07-21T07:25:33Z</time>
      </trkpt>
      <trkpt lat="46.66117" lon="6.19749">
        <ele>1154.8</ele>
        <time>2020-07-21T07:25:39Z</time>
      </trkpt>
      <trkpt lat="46.66114" lon="6.19744">
        <ele>1154.1</ele>
        <time>2020-07-21T07:25:45Z</time>
      </trkpt>
      <trkpt lat="46.6611" lon="6.19737">
        <ele>1153.6</ele>
        <time>2020-07-21T07:25:50Z</time>
      </trkpt>
      <trkpt lat="46.66106" lon="6.19731">
        <ele>1153.2</ele>
        <time>2020-07-21T07:25:53Z</time>
      </trkpt>
      <trkpt lat="46.66096" lon="6.19721">
        <ele>1152.2</ele>
        <time>2020-07-21T07:26:06Z</time>
      </trkpt>
      <trkpt lat="46.66092" lon="6.19716">
        <ele>1152.1</ele>
        <time>2020-07-21T07:26:10Z</time>
      </trkpt>
      <trkpt lat="46.66087" lon="6.19712">
        <ele>1152.1</ele>
        <time>2020-07-21T07:26:15Z</time>
      </trkpt>
      <trkpt lat="46.66083" lon="6.19708">
        <ele>1152.1</ele>
        <time>2020-07-21T07:26:20Z</time>
      </trkpt>
      <trkpt lat="46.6608" lon="6.19703">
        <ele>1152</ele>
        <time>2020-07-21T07:26:25Z</time>
      </trkpt>
      <trkpt lat="46.66071" lon="6.19695">
        <ele>1152.2</ele>
        <time>2020-07-21T07:26:35Z</time>
      </trkpt>
      <trkpt lat="46.66067" lon="6.19691">
        <ele>1152.5</ele>
        <time>2020-07-21T07:26:40Z</time>
      </trkpt>
      <trkpt lat="46.66063" lon="6.19687">
        <ele>1152.8</ele>
        <time>2020-07-21T07:26:43Z</time>
      </trkpt>
      <trkpt lat="46.66058" lon="6.19682">
        <ele>1153.3</ele>
        <time>2020-07-21T07:26:49Z</time>
      </trkpt>
      <trkpt lat="46.66053" lon="6.19679">
        <ele>1153.7</ele>
        <time>2020-07-21T07:26:54Z</time>
      </trkpt>
      <trkpt lat="46.66049" lon="6.19676">
        <ele>1154</ele>
        <time>2020-07-21T07:27:01Z</time>
      </trkpt>
      <trkpt lat="46.66043" lon="6.19675">
        <ele>1154.3</ele>
        <time>2020-07-21T07:27:05Z</time>
      </trkpt>
      <trkpt lat="46.66039" lon="6.19672">
        <ele>1154.6</ele>
        <time>2020-07-21T07:27:09Z</time>
      </trkpt>
      <trkpt lat="46.66034" lon="6.19667">
        <ele>1154.9</ele>
        <time>2020-07-21T07:27:13Z</time>
      </trkpt>
      <trkpt lat="46.66029" lon="6.19664">
        <ele>1155.3</ele>
        <time>2020-07-21T07:27:17Z</time>
      </trkpt>
      <trkpt lat="46.66024" lon="6.19663">
        <ele>1155.6</ele>
        <time>2020-07-21T07:27:20Z</time>
      </trkpt>
      <trkpt lat="46.66019" lon="6.19662">
        <ele>1155.9</ele>
        <time>2020-07-21T07:27:24Z</time>
      </trkpt>
      <trkpt lat="46.66015" lon="6.1966">
        <ele>1156.6</ele>
        <time>2020-07-21T07:27:30Z</time>
      </trkpt>
      <trkpt lat="46.6601" lon="6.19657">
        <ele>1157.4</ele>
        <time>2020-07-21T07:27:36Z</time>
      </trkpt>
      <trkpt lat="46.66006" lon="6.19653">
        <ele>1157.9</ele>
        <time>2020-07-21T07:27:42Z</time>
      </trkpt>
      <trkpt lat="46.66001" lon="6.1965">
        <ele>1158</ele>
        <time>2020-07-21T07:27:46Z</time>
      </trkpt>
      <trkpt lat="46.65997" lon="6.19648">
        <ele>1158</ele>
        <time>2020-07-21T07:27:50Z</time>
      </trkpt>
      <trkpt lat="46.65992" lon="6.19646">
        <ele>1158.1</ele>
        <time>2020-07-21T07:27:55Z</time>
      </trkpt>
      <trkpt lat="46.65986" lon="6.19646">
        <ele>1158.2</ele>
        <time>2020-07-21T07:28:00Z</time>
      </trkpt>
      <trkpt lat="46.65982" lon="6.19646">
        <ele>1158.4</ele>
        <time>2020-07-21T07:28:04Z</time>
      </trkpt>
      <trkpt lat="46.65968" lon="6.19644">
        <ele>1158.5</ele>
        <time>2020-07-21T07:28:16Z</time>
      </trkpt>
      <trkpt lat="46.65962" lon="6.19643">
        <ele>1158.5</ele>
        <time>2020-07-21T07:28:21Z</time>
      </trkpt>
      <trkpt lat="46.65957" lon="6.1964">
        <ele>1158.5</ele>
        <time>2020-07-21T07:28:26Z</time>
      </trkpt>
      <trkpt lat="46.65954" lon="6.19636">
        <ele>1158.4</ele>
        <time>2020-07-21T07:28:30Z</time>
      </trkpt>
      <trkpt lat="46.6595" lon="6.19632">
        <ele>1158.2</ele>
        <time>2020-07-21T07:28:36Z</time>
      </trkpt>
      <trkpt lat="46.65947" lon="6.19628">
        <ele>1158.3</ele>
        <time>2020-07-21T07:28:42Z</time>
      </trkpt>
      <trkpt lat="46.65944" lon="6.19623">
        <ele>1158.5</ele>
        <time>2020-07-21T07:28:46Z</time>
      </trkpt>
      <trkpt lat="46.6594" lon="6.19617">
        <ele>1159</ele>
        <time>2020-07-21T07:28:51Z</time>
      </trkpt>
      <trkpt lat="46.65937" lon="6.1961">
        <ele>1159.3</ele>
        <time>2020-07-21T07:28:55Z</time>
      </trkpt>
      <trkpt lat="46.65933" lon="6.19606">
        <ele>1159.5</ele>
        <time>2020-07-21T07:28:59Z</time>
      </trkpt>
      <trkpt lat="46.65929" lon="6.19598">
        <ele>1159.4</ele>
        <time>2020-07-21T07:29:04Z</time>
      </trkpt>
      <trkpt lat="46.65926" lon="6.19592">
        <ele>1159.2</ele>
        <time>2020-07-21T07:29:09Z</time>
      </trkpt>
      <trkpt lat="46.65923" lon="6.19587">
        <ele>1158.5</ele>
        <time>2020-07-21T07:29:14Z</time>
      </trkpt>
      <trkpt lat="46.65919" lon="6.19582">
        <ele>1157.5</ele>
        <time>2020-07-21T07:29:20Z</time>
      </trkpt>
      <trkpt lat="46.65917" lon="6.19576">
        <ele>1156.9</ele>
        <time>2020-07-21T07:29:25Z</time>
      </trkpt>
      <trkpt lat="46.65913" lon="6.1957">
        <ele>1156.8</ele>
        <time>2020-07-21T07:29:30Z</time>
      </trkpt>
      <trkpt lat="46.6591" lon="6.19565">
        <ele>1157</ele>
        <time>2020-07-21T07:29:35Z</time>
      </trkpt>
      <trkpt lat="46.65906" lon="6.19561">
        <ele>1157.5</ele>
        <time>2020-07-21T07:29:42Z</time>
      </trkpt>
      <trkpt lat="46.65902" lon="6.19558">
        <ele>1157.8</ele>
        <time>2020-07-21T07:29:47Z</time>
      </trkpt>
      <trkpt lat="46.65898" lon="6.19555">
        <ele>1158</ele>
        <time>2020-07-21T07:29:52Z</time>
      </trkpt>
      <trkpt lat="46.65894" lon="6.19549">
        <ele>1158.2</ele>
        <time>2020-07-21T07:29:57Z</time>
      </trkpt>
      <trkpt lat="46.6589" lon="6.19544">
        <ele>1158.2</ele>
        <time>2020-07-21T07:30:01Z</time>
      </trkpt>
      <trkpt lat="46.65886" lon="6.1954">
        <ele>1158.5</ele>
        <time>2020-07-21T07:30:08Z</time>
      </trkpt>
      <trkpt lat="46.65882" lon="6.19536">
        <ele>1158.8</ele>
        <time>2020-07-21T07:30:13Z</time>
      </trkpt>
      <trkpt lat="46.65877" lon="6.19532">
        <ele>1159</ele>
        <time>2020-07-21T07:30:17Z</time>
      </trkpt>
      <trkpt lat="46.65872" lon="6.19528">
        <ele>1159.2</ele>
        <time>2020-07-21T07:30:21Z</time>
      </trkpt>
      <trkpt lat="46.65867" lon="6.19524">
        <ele>1159.5</ele>
        <time>2020-07-21T07:30:25Z</time>
      </trkpt>
      <trkpt lat="46.65863" lon="6.19519">
        <ele>1159.8</ele>
        <time>2020-07-21T07:30:30Z</time>
      </trkpt>
      <trkpt lat="46.65859" lon="6.19515">
        <ele>1160.1</ele>
        <time>2020-07-21T07:30:35Z</time>
      </trkpt>
      <trkpt lat="46.65855" lon="6.1951">
        <ele>1160.4</ele>
        <time>2020-07-21T07:30:39Z</time>
      </trkpt>
      <trkpt lat="46.6585" lon="6.19508">
        <ele>1161</ele>
        <time>2020-07-21T07:30:46Z</time>
      </trkpt>
      <trkpt lat="46.65845" lon="6.19507">
        <ele>1161.8</ele>
        <time>2020-07-21T07:30:52Z</time>
      </trkpt>
      <trkpt lat="46.6584" lon="6.19506">
        <ele>1162.8</ele>
        <time>2020-07-21T07:30:57Z</time>
      </trkpt>
      <trkpt lat="46.65835" lon="6.19505">
        <ele>1163.6</ele>
        <time>2020-07-21T07:31:01Z</time>
      </trkpt>
      <trkpt lat="46.65831" lon="6.19505">
        <ele>1164.2</ele>
        <time>2020-07-21T07:31:05Z</time>
      </trkpt>
      <trkpt lat="46.65826" lon="6.19503">
        <ele>1164.6</ele>
        <time>2020-07-21T07:31:10Z</time>
      </trkpt>
      <trkpt lat="46.65821" lon="6.19503">
        <ele>1164.8</ele>
        <time>2020-07-21T07:31:15Z</time>
      </trkpt>
      <trkpt lat="46.65816" lon="6.19501">
        <ele>1164.8</ele>
        <time>2020-07-21T07:31:19Z</time>
      </trkpt>
      <trkpt lat="46.65802" lon="6.19496">
        <ele>1164.7</ele>
        <time>2020-07-21T07:31:32Z</time>
      </trkpt>
      <trkpt lat="46.65797" lon="6.19495">
        <ele>1164.8</ele>
        <time>2020-07-21T07:31:36Z</time>
      </trkpt>
      <trkpt lat="46.65792" lon="6.19495">
        <ele>1165.1</ele>
        <time>2020-07-21T07:31:41Z</time>
      </trkpt>
      <trkpt lat="46.65787" lon="6.19496">
        <ele>1165.3</ele>
        <time>2020-07-21T07:31:48Z</time>
      </trkpt>
      <trkpt lat="46.65783" lon="6.19497">
        <ele>1165.6</ele>
        <time>2020-07-21T07:31:54Z</time>
      </trkpt>
      <trkpt lat="46.65777" lon="6.19497">
        <ele>1165.8</ele>
        <time>2020-07-21T07:31:59Z</time>
      </trkpt>
      <trkpt lat="46.65772" lon="6.19496">
        <ele>1166</ele>
        <time>2020-07-21T07:32:03Z</time>
      </trkpt>
      <trkpt lat="46.65767" lon="6.19495">
        <ele>1166.2</ele>
        <time>2020-07-21T07:32:07Z</time>
      </trkpt>
      <trkpt lat="46.65762" lon="6.19495">
        <ele>1166.2</ele>
        <time>2020-07-21T07:32:11Z</time>
      </trkpt>
      <trkpt lat="46.65757" lon="6.19496">
        <ele>1166.2</ele>
        <time>2020-07-21T07:32:16Z</time>
      </trkpt>
      <trkpt lat="46.65744" lon="6.19495">
        <ele>1165.8</ele>
        <time>2020-07-21T07:32:30Z</time>
      </trkpt>
      <trkpt lat="46.65739" lon="6.19494">
        <ele>1165.6</ele>
        <time>2020-07-21T07:32:35Z</time>
      </trkpt>
      <trkpt lat="46.65734" lon="6.19495">
        <ele>1165.2</ele>
        <time>2020-07-21T07:32:39Z</time>
      </trkpt>
      <trkpt lat="46.65728" lon="6.19497">
        <ele>1164.9</ele>
        <time>2020-07-21T07:32:42Z</time>
      </trkpt>
      <trkpt lat="46.65722" lon="6.19498">
        <ele>1164.7</ele>
        <time>2020-07-21T07:32:47Z</time>
      </trkpt>
      <trkpt lat="46.65717" lon="6.19497">
        <ele>1164.6</ele>
        <time>2020-07-21T07:32:53Z</time>
      </trkpt>
      <trkpt lat="46.65712" lon="6.19498">
        <ele>1164.4</ele>
        <time>2020-07-21T07:32:58Z</time>
      </trkpt>
      <trkpt lat="46.65708" lon="6.19498">
        <ele>1164.2</ele>
        <time>2020-07-21T07:33:03Z</time>
      </trkpt>
      <trkpt lat="46.65694" lon="6.195">
        <ele>1163.6</ele>
        <time>2020-07-21T07:33:17Z</time>
      </trkpt>
      <trkpt lat="46.6569" lon="6.19501">
        <ele>1163.7</ele>
        <time>2020-07-21T07:33:22Z</time>
      </trkpt>
      <trkpt lat="46.65684" lon="6.19503">
        <ele>1163.9</ele>
        <time>2020-07-21T07:33:27Z</time>
      </trkpt>
      <trkpt lat="46.6568" lon="6.19504">
        <ele>1163.9</ele>
        <time>2020-07-21T07:33:31Z</time>
      </trkpt>
      <trkpt lat="46.65675" lon="6.19507">
        <ele>1163.8</ele>
        <time>2020-07-21T07:33:35Z</time>
      </trkpt>
      <trkpt lat="46.6567" lon="6.19509">
        <ele>1163.6</ele>
        <time>2020-07-21T07:33:39Z</time>
      </trkpt>
      <trkpt lat="46.65665" lon="6.19513">
        <ele>1163.5</ele>
        <time>2020-07-21T07:33:43Z</time>
      </trkpt>
      <trkpt lat="46.65661" lon="6.19516">
        <ele>1163.5</ele>
        <time>2020-07-21T07:33:48Z</time>
      </trkpt>
      <trkpt lat="46.65656" lon="6.19519">
        <ele>1163.7</ele>
        <time>2020-07-21T07:33:55Z</time>
      </trkpt>
      <trkpt lat="46.65652" lon="6.19523">
        <ele>1164.2</ele>
        <time>2020-07-21T07:34:01Z</time>
      </trkpt>
      <trkpt lat="46.65647" lon="6.19525">
        <ele>1164.6</ele>
        <time>2020-07-21T07:34:05Z</time>
      </trkpt>
      <trkpt lat="46.65643" lon="6.19527">
        <ele>1164.8</ele>
        <time>2020-07-21T07:34:09Z</time>
      </trkpt>
      <trkpt lat="46.65638" lon="6.19529">
        <ele>1164.8</ele>
        <time>2020-07-21T07:34:14Z</time>
      </trkpt>
      <trkpt lat="46.65634" lon="6.19532">
        <ele>1164.8</ele>
        <time>2020-07-21T07:34:17Z</time>
      </trkpt>
      <trkpt lat="46.65629" lon="6.19534">
        <ele>1164.8</ele>
        <time>2020-07-21T07:34:22Z</time>
      </trkpt>
      <trkpt lat="46.65624" lon="6.19536">
        <ele>1164.8</ele>
        <time>2020-07-21T07:34:26Z</time>
      </trkpt>
      <trkpt lat="46.65619" lon="6.19539">
        <ele>1164.7</ele>
        <time>2020-07-21T07:34:30Z</time>
      </trkpt>
      <trkpt lat="46.65615" lon="6.19542">
        <ele>1164.3</ele>
        <time>2020-07-21T07:34:36Z</time>
      </trkpt>
      <trkpt lat="46.65609" lon="6.19544">
        <ele>1164</ele>
        <time>2020-07-21T07:34:41Z</time>
      </trkpt>
      <trkpt lat="46.65605" lon="6.19546">
        <ele>1163.6</ele>
        <time>2020-07-21T07:34:45Z</time>
      </trkpt>
      <trkpt lat="46.65601" lon="6.19548">
        <ele>1162.9</ele>
        <time>2020-07-21T07:34:50Z</time>
      </trkpt>
      <trkpt lat="46.65596" lon="6.19552">
        <ele>1162.1</ele>
        <time>2020-07-21T07:34:56Z</time>
      </trkpt>
      <trkpt lat="46.65592" lon="6.19555">
        <ele>1161.3</ele>
        <time>2020-07-21T07:35:02Z</time>
      </trkpt>
      <trkpt lat="46.65588" lon="6.1956">
        <ele>1161</ele>
        <time>2020-07-21T07:35:09Z</time>
      </trkpt>
      <trkpt lat="46.65584" lon="6.19563">
        <ele>1161.2</ele>
        <time>2020-07-21T07:35:14Z</time>
      </trkpt>
      <trkpt lat="46.65579" lon="6.19563">
        <ele>1161.6</ele>
        <time>2020-07-21T07:35:18Z</time>
      </trkpt>
      <trkpt lat="46.65565" lon="6.19561">
        <ele>1179.5</ele>
        <time>2020-07-21T07:36:09Z</time>
      </trkpt>
      <trkpt lat="46.65562" lon="6.19567">
        <ele>1179.1</ele>
        <time>2020-07-21T07:36:15Z</time>
      </trkpt>
      <trkpt lat="46.65556" lon="6.19575">
        <ele>1178.6</ele>
        <time>2020-07-21T07:36:19Z</time>
      </trkpt>
      <trkpt lat="46.65553" lon="6.1958">
        <ele>1178.3</ele>
        <time>2020-07-21T07:36:21Z</time>
      </trkpt>
      <trkpt lat="46.65547" lon="6.19587">
        <ele>1167.2</ele>
        <time>2020-07-21T07:42:25Z</time>
      </trkpt>
      <trkpt lat="46.65543" lon="6.19592">
        <ele>1167.2</ele>
        <time>2020-07-21T07:42:29Z</time>
      </trkpt>
      <trkpt lat="46.65532" lon="6.19604">
        <ele>1167.8</ele>
        <time>2020-07-21T07:42:40Z</time>
      </trkpt>
      <trkpt lat="46.65528" lon="6.19607">
        <ele>1167.9</ele>
        <time>2020-07-21T07:42:45Z</time>
      </trkpt>
      <trkpt lat="46.65523" lon="6.19609">
        <ele>1168.1</ele>
        <time>2020-07-21T07:42:50Z</time>
      </trkpt>
      <trkpt lat="46.65518" lon="6.19611">
        <ele>1169.2</ele>
        <time>2020-07-21T07:42:56Z</time>
      </trkpt>
      <trkpt lat="46.65514" lon="6.19615">
        <ele>1170.1</ele>
        <time>2020-07-21T07:43:00Z</time>
      </trkpt>
      <trkpt lat="46.65511" lon="6.19619">
        <ele>1170.8</ele>
        <time>2020-07-21T07:43:04Z</time>
      </trkpt>
      <trkpt lat="46.65507" lon="6.19625">
        <ele>1171.2</ele>
        <time>2020-07-21T07:43:08Z</time>
      </trkpt>
      <trkpt lat="46.65503" lon="6.1963">
        <ele>1171.4</ele>
        <time>2020-07-21T07:43:12Z</time>
      </trkpt>
      <trkpt lat="46.65499" lon="6.19635">
        <ele>1171.6</ele>
        <time>2020-07-21T07:43:18Z</time>
      </trkpt>
      <trkpt lat="46.65494" lon="6.19641">
        <ele>1171.5</ele>
        <time>2020-07-21T07:43:22Z</time>
      </trkpt>
      <trkpt lat="46.65484" lon="6.1966">
        <ele>1171.2</ele>
        <time>2020-07-21T07:43:35Z</time>
      </trkpt>
      <trkpt lat="46.6547" lon="6.19671">
        <ele>1170.8</ele>
        <time>2020-07-21T07:43:52Z</time>
      </trkpt>
      <trkpt lat="46.65466" lon="6.19675">
        <ele>1170.9</ele>
        <time>2020-07-21T07:43:58Z</time>
      </trkpt>
      <trkpt lat="46.65461" lon="6.1968">
        <ele>1170.9</ele>
        <time>2020-07-21T07:44:03Z</time>
      </trkpt>
      <trkpt lat="46.65458" lon="6.19685">
        <ele>1171.1</ele>
        <time>2020-07-21T07:44:08Z</time>
      </trkpt>
      <trkpt lat="46.65455" lon="6.19691">
        <ele>1171.4</ele>
        <time>2020-07-21T07:44:12Z</time>
      </trkpt>
      <trkpt lat="46.65452" lon="6.19696">
        <ele>1171.9</ele>
        <time>2020-07-21T07:44:17Z</time>
      </trkpt>
      <trkpt lat="46.65444" lon="6.19705">
        <ele>1173.6</ele>
        <time>2020-07-21T07:44:30Z</time>
      </trkpt>
      <trkpt lat="46.65439" lon="6.19708">
        <ele>1174.1</ele>
        <time>2020-07-21T07:44:35Z</time>
      </trkpt>
      <trkpt lat="46.65435" lon="6.19712">
        <ele>1174.4</ele>
        <time>2020-07-21T07:44:41Z</time>
      </trkpt>
      <trkpt lat="46.6543" lon="6.19715">
        <ele>1174.6</ele>
        <time>2020-07-21T07:44:48Z</time>
      </trkpt>
      <trkpt lat="46.65427" lon="6.1972">
        <ele>1174.5</ele>
        <time>2020-07-21T07:44:53Z</time>
      </trkpt>
      <trkpt lat="46.65423" lon="6.19724">
        <ele>1174.3</ele>
        <time>2020-07-21T07:44:59Z</time>
      </trkpt>
      <trkpt lat="46.65414" lon="6.19732">
        <ele>1173.6</ele>
        <time>2020-07-21T07:45:06Z</time>
      </trkpt>
      <trkpt lat="46.6541" lon="6.19737">
        <ele>1173.3</ele>
        <time>2020-07-21T07:45:09Z</time>
      </trkpt>
      <trkpt lat="46.65387" lon="6.19748">
        <ele>1173.9</ele>
        <time>2020-07-21T07:45:37Z</time>
      </trkpt>
      <trkpt lat="46.65382" lon="6.19749">
        <ele>1174.2</ele>
        <time>2020-07-21T07:45:40Z</time>
      </trkpt>
      <trkpt lat="46.6537" lon="6.19751">
        <ele>1176.5</ele>
        <time>2020-07-21T07:45:53Z</time>
      </trkpt>
      <trkpt lat="46.65359" lon="6.19753">
        <ele>1178.6</ele>
        <time>2020-07-21T07:46:04Z</time>
      </trkpt>
      <trkpt lat="46.65354" lon="6.19754">
        <ele>1179.5</ele>
        <time>2020-07-21T07:46:09Z</time>
      </trkpt>
      <trkpt lat="46.65349" lon="6.19755">
        <ele>1180.3</ele>
        <time>2020-07-21T07:46:13Z</time>
      </trkpt>
      <trkpt lat="46.65344" lon="6.19756">
        <ele>1181.3</ele>
        <time>2020-07-21T07:46:18Z</time>
      </trkpt>
      <trkpt lat="46.65339" lon="6.19757">
        <ele>1182</ele>
        <time>2020-07-21T07:46:22Z</time>
      </trkpt>
      <trkpt lat="46.65334" lon="6.19757">
        <ele>1182.4</ele>
        <time>2020-07-21T07:46:25Z</time>
      </trkpt>
      <trkpt lat="46.65329" lon="6.19756">
        <ele>1182.7</ele>
        <time>2020-07-21T07:46:30Z</time>
      </trkpt>
      <trkpt lat="46.65323" lon="6.19755">
        <ele>1182.8</ele>
        <time>2020-07-21T07:46:35Z</time>
      </trkpt>
      <trkpt lat="46.65291" lon="6.19753">
        <ele>1181.2</ele>
        <time>2020-07-21T07:47:09Z</time>
      </trkpt>
      <trkpt lat="46.65286" lon="6.19754">
        <ele>1181.2</ele>
        <time>2020-07-21T07:47:13Z</time>
      </trkpt>
      <trkpt lat="46.65282" lon="6.19756">
        <ele>1181.1</ele>
        <time>2020-07-21T07:47:17Z</time>
      </trkpt>
      <trkpt lat="46.65277" lon="6.19756">
        <ele>1181</ele>
        <time>2020-07-21T07:47:22Z</time>
      </trkpt>
      <trkpt lat="46.65271" lon="6.19756">
        <ele>1180.7</ele>
        <time>2020-07-21T07:47:27Z</time>
      </trkpt>
      <trkpt lat="46.65266" lon="6.19756">
        <ele>1180.3</ele>
        <time>2020-07-21T07:47:32Z</time>
      </trkpt>
      <trkpt lat="46.65261" lon="6.19756">
        <ele>1180</ele>
        <time>2020-07-21T07:47:36Z</time>
      </trkpt>
      <trkpt lat="46.65249" lon="6.19754">
        <ele>1178.5</ele>
        <time>2020-07-21T07:47:47Z</time>
      </trkpt>
      <trkpt lat="46.65238" lon="6.1975">
        <ele>1178.5</ele>
        <time>2020-07-21T07:47:56Z</time>
      </trkpt>
      <trkpt lat="46.65234" lon="6.19747">
        <ele>1178.5</ele>
        <time>2020-07-21T07:48:02Z</time>
      </trkpt>
      <trkpt lat="46.6523" lon="6.19743">
        <ele>1178.6</ele>
        <time>2020-07-21T07:48:07Z</time>
      </trkpt>
      <trkpt lat="46.65226" lon="6.1974">
        <ele>1178.7</ele>
        <time>2020-07-21T07:48:12Z</time>
      </trkpt>
      <trkpt lat="46.65212" lon="6.1973">
        <ele>1178</ele>
        <time>2020-07-21T07:48:24Z</time>
      </trkpt>
      <trkpt lat="46.65207" lon="6.19725">
        <ele>1177.9</ele>
        <time>2020-07-21T07:48:29Z</time>
      </trkpt>
      <trkpt lat="46.65198" lon="6.19717">
        <ele>1178</ele>
        <time>2020-07-21T07:48:39Z</time>
      </trkpt>
      <trkpt lat="46.65194" lon="6.19712">
        <ele>1178.1</ele>
        <time>2020-07-21T07:48:44Z</time>
      </trkpt>
      <trkpt lat="46.6519" lon="6.19706">
        <ele>1178</ele>
        <time>2020-07-21T07:48:49Z</time>
      </trkpt>
      <trkpt lat="46.65186" lon="6.197">
        <ele>1177.9</ele>
        <time>2020-07-21T07:48:54Z</time>
      </trkpt>
      <trkpt lat="46.65177" lon="6.19687">
        <ele>1177.7</ele>
        <time>2020-07-21T07:49:09Z</time>
      </trkpt>
      <trkpt lat="46.65169" lon="6.19676">
        <ele>1179</ele>
        <time>2020-07-21T07:49:20Z</time>
      </trkpt>
      <trkpt lat="46.65164" lon="6.19671">
        <ele>1179.7</ele>
        <time>2020-07-21T07:49:25Z</time>
      </trkpt>
      <trkpt lat="46.6516" lon="6.19668">
        <ele>1180.4</ele>
        <time>2020-07-21T07:49:31Z</time>
      </trkpt>
      <trkpt lat="46.65157" lon="6.19664">
        <ele>1180.9</ele>
        <time>2020-07-21T07:49:39Z</time>
      </trkpt>
      <trkpt lat="46.65145" lon="6.19659">
        <ele>1182.8</ele>
        <time>2020-07-21T07:49:59Z</time>
      </trkpt>
      <trkpt lat="46.65123" lon="6.19626">
        <ele>1185.4</ele>
        <time>2020-07-21T07:50:23Z</time>
      </trkpt>
      <trkpt lat="46.6512" lon="6.19621">
        <ele>1185.7</ele>
        <time>2020-07-21T07:50:29Z</time>
      </trkpt>
      <trkpt lat="46.65118" lon="6.19615">
        <ele>1186.5</ele>
        <time>2020-07-21T07:50:36Z</time>
      </trkpt>
      <trkpt lat="46.65115" lon="6.19605">
        <ele>1186.8</ele>
        <time>2020-07-21T07:50:41Z</time>
      </trkpt>
      <trkpt lat="46.65108" lon="6.19589">
        <ele>1187</ele>
        <time>2020-07-21T07:50:52Z</time>
      </trkpt>
      <trkpt lat="46.65107" lon="6.19582">
        <ele>1187</ele>
        <time>2020-07-21T07:50:57Z</time>
      </trkpt>
      <trkpt lat="46.65107" lon="6.19563">
        <ele>1188.3</ele>
        <time>2020-07-21T07:51:09Z</time>
      </trkpt>
      <trkpt lat="46.65107" lon="6.19553">
        <ele>1190.4</ele>
        <time>2020-07-21T07:51:19Z</time>
      </trkpt>
      <trkpt lat="46.65107" lon="6.19546">
        <ele>1191.3</ele>
        <time>2020-07-21T07:51:25Z</time>
      </trkpt>
      <trkpt lat="46.65106" lon="6.19528">
        <ele>1194.2</ele>
        <time>2020-07-21T07:51:38Z</time>
      </trkpt>
      <trkpt lat="46.65103" lon="6.19522">
        <ele>1194.6</ele>
        <time>2020-07-21T07:51:42Z</time>
      </trkpt>
      <trkpt lat="46.65085" lon="6.19492">
        <ele>1201.3</ele>
        <time>2020-07-21T07:52:16Z</time>
      </trkpt>
      <trkpt lat="46.65083" lon="6.19485">
        <ele>1201.6</ele>
        <time>2020-07-21T07:52:21Z</time>
      </trkpt>
      <trkpt lat="46.6508" lon="6.19479">
        <ele>1201.7</ele>
        <time>2020-07-21T07:52:25Z</time>
      </trkpt>
      <trkpt lat="46.65076" lon="6.19473">
        <ele>1201.5</ele>
        <time>2020-07-21T07:52:36Z</time>
      </trkpt>
      <trkpt lat="46.65073" lon="6.19467">
        <ele>1201.6</ele>
        <time>2020-07-21T07:52:43Z</time>
      </trkpt>
      <trkpt lat="46.65072" lon="6.19459">
        <ele>1201.9</ele>
        <time>2020-07-21T07:52:48Z</time>
      </trkpt>
      <trkpt lat="46.65069" lon="6.19454">
        <ele>1202.5</ele>
        <time>2020-07-21T07:52:55Z</time>
      </trkpt>
      <trkpt lat="46.65065" lon="6.1945">
        <ele>1203.9</ele>
        <time>2020-07-21T07:53:03Z</time>
      </trkpt>
      <trkpt lat="46.65063" lon="6.19443">
        <ele>1204.7</ele>
        <time>2020-07-21T07:53:08Z</time>
      </trkpt>
      <trkpt lat="46.65062" lon="6.19436">
        <ele>1205.3</ele>
        <time>2020-07-21T07:53:12Z</time>
      </trkpt>
      <trkpt lat="46.65059" lon="6.1943">
        <ele>1206.2</ele>
        <time>2020-07-21T07:53:19Z</time>
      </trkpt>
      <trkpt lat="46.65055" lon="6.19427">
        <ele>1206.4</ele>
        <time>2020-07-21T07:53:24Z</time>
      </trkpt>
      <trkpt lat="46.65052" lon="6.19422">
        <ele>1206.5</ele>
        <time>2020-07-21T07:53:32Z</time>
      </trkpt>
      <trkpt lat="46.65049" lon="6.19417">
        <ele>1206.4</ele>
        <time>2020-07-21T07:53:36Z</time>
      </trkpt>
      <trkpt lat="46.65045" lon="6.19411">
        <ele>1206.4</ele>
        <time>2020-07-21T07:53:47Z</time>
      </trkpt>
      <trkpt lat="46.65043" lon="6.19405">
        <ele>1206.5</ele>
        <time>2020-07-21T07:53:49Z</time>
      </trkpt>
      <trkpt lat="46.65037" lon="6.19353">
        <ele>1217</ele>
        <time>2020-07-21T07:54:40Z</time>
      </trkpt>
      <trkpt lat="46.65035" lon="6.19346">
        <ele>1217.5</ele>
        <time>2020-07-21T07:54:44Z</time>
      </trkpt>
      <trkpt lat="46.65035" lon="6.19339">
        <ele>1218.5</ele>
        <time>2020-07-21T07:54:51Z</time>
      </trkpt>
      <trkpt lat="46.65034" lon="6.19332">
        <ele>1219.7</ele>
        <time>2020-07-21T07:55:00Z</time>
      </trkpt>
      <trkpt lat="46.65033" lon="6.19322">
        <ele>1221.6</ele>
        <time>2020-07-21T07:55:10Z</time>
      </trkpt>
      <trkpt lat="46.65033" lon="6.19315">
        <ele>1221.9</ele>
        <time>2020-07-21T07:55:12Z</time>
      </trkpt>
      <trkpt lat="46.6503" lon="6.19306">
        <ele>1222.4</ele>
        <time>2020-07-21T07:55:15Z</time>
      </trkpt>
      <trkpt lat="46.65029" lon="6.19299">
        <ele>1223.1</ele>
        <time>2020-07-21T07:55:20Z</time>
      </trkpt>
      <trkpt lat="46.65025" lon="6.19279">
        <ele>1224.5</ele>
        <time>2020-07-21T07:55:38Z</time>
      </trkpt>
      <trkpt lat="46.65023" lon="6.19272">
        <ele>1224.8</ele>
        <time>2020-07-21T07:55:43Z</time>
      </trkpt>
      <trkpt lat="46.6502" lon="6.19265">
        <ele>1225.9</ele>
        <time>2020-07-21T07:55:50Z</time>
      </trkpt>
      <trkpt lat="46.65019" lon="6.19258">
        <ele>1227.5</ele>
        <time>2020-07-21T07:55:59Z</time>
      </trkpt>
      <trkpt lat="46.65014" lon="6.19244">
        <ele>1230.1</ele>
        <time>2020-07-21T07:56:12Z</time>
      </trkpt>
      <trkpt lat="46.65012" lon="6.19237">
        <ele>1230.8</ele>
        <time>2020-07-21T07:56:18Z</time>
      </trkpt>
      <trkpt lat="46.6501" lon="6.19231">
        <ele>1231.6</ele>
        <time>2020-07-21T07:56:22Z</time>
      </trkpt>
      <trkpt lat="46.65007" lon="6.19225">
        <ele>1232.5</ele>
        <time>2020-07-21T07:56:26Z</time>
      </trkpt>
      <trkpt lat="46.65004" lon="6.19219">
        <ele>1233.1</ele>
        <time>2020-07-21T07:56:29Z</time>
      </trkpt>
      <trkpt lat="46.65002" lon="6.19213">
        <ele>1233.8</ele>
        <time>2020-07-21T07:56:33Z</time>
      </trkpt>
      <trkpt lat="46.65002" lon="6.19206">
        <ele>1235.1</ele>
        <time>2020-07-21T07:56:43Z</time>
      </trkpt>
      <trkpt lat="46.65005" lon="6.19201">
        <ele>1235.4</ele>
        <time>2020-07-21T07:56:47Z</time>
      </trkpt>
      <trkpt lat="46.65008" lon="6.19195">
        <ele>1235.6</ele>
        <time>2020-07-21T07:56:51Z</time>
      </trkpt>
      <trkpt lat="46.65012" lon="6.19191">
        <ele>1235.5</ele>
        <time>2020-07-21T07:56:55Z</time>
      </trkpt>
      <trkpt lat="46.65017" lon="6.19189">
        <ele>1235.1</ele>
        <time>2020-07-21T07:57:02Z</time>
      </trkpt>
      <trkpt lat="46.65022" lon="6.19187">
        <ele>1235.1</ele>
        <time>2020-07-21T07:57:09Z</time>
      </trkpt>
      <trkpt lat="46.65027" lon="6.19185">
        <ele>1234.9</ele>
        <time>2020-07-21T07:57:13Z</time>
      </trkpt>
      <trkpt lat="46.65031" lon="6.19182">
        <ele>1234.8</ele>
        <time>2020-07-21T07:57:18Z</time>
      </trkpt>
      <trkpt lat="46.65036" lon="6.19179">
        <ele>1234.6</ele>
        <time>2020-07-21T07:57:23Z</time>
      </trkpt>
      <trkpt lat="46.6504" lon="6.19176">
        <ele>1234.5</ele>
        <time>2020-07-21T07:57:28Z</time>
      </trkpt>
      <trkpt lat="46.65045" lon="6.19174">
        <ele>1234.4</ele>
        <time>2020-07-21T07:57:33Z</time>
      </trkpt>
      <trkpt lat="46.65049" lon="6.19171">
        <ele>1234.4</ele>
        <time>2020-07-21T07:57:38Z</time>
      </trkpt>
      <trkpt lat="46.65054" lon="6.19168">
        <ele>1234.8</ele>
        <time>2020-07-21T07:57:45Z</time>
      </trkpt>
      <trkpt lat="46.65057" lon="6.19164">
        <ele>1235</ele>
        <time>2020-07-21T07:57:51Z</time>
      </trkpt>
      <trkpt lat="46.6506" lon="6.19158">
        <ele>1235.1</ele>
        <time>2020-07-21T07:57:56Z</time>
      </trkpt>
      <trkpt lat="46.65063" lon="6.19151">
        <ele>1235.2</ele>
        <time>2020-07-21T07:58:01Z</time>
      </trkpt>
      <trkpt lat="46.65063" lon="6.19142">
        <ele>1235.5</ele>
        <time>2020-07-21T07:58:05Z</time>
      </trkpt>
      <trkpt lat="46.65064" lon="6.19135">
        <ele>1235.9</ele>
        <time>2020-07-21T07:58:09Z</time>
      </trkpt>
      <trkpt lat="46.65064" lon="6.19128">
        <ele>1236.4</ele>
        <time>2020-07-21T07:58:13Z</time>
      </trkpt>
      <trkpt lat="46.65062" lon="6.19121">
        <ele>1237.2</ele>
        <time>2020-07-21T07:58:21Z</time>
      </trkpt>
      <trkpt lat="46.65061" lon="6.19114">
        <ele>1237.8</ele>
        <time>2020-07-21T07:58:25Z</time>
      </trkpt>
      <trkpt lat="46.65058" lon="6.19108">
        <ele>1238.5</ele>
        <time>2020-07-21T07:58:29Z</time>
      </trkpt>
      <trkpt lat="46.65057" lon="6.19101">
        <ele>1239.3</ele>
        <time>2020-07-21T07:58:35Z</time>
      </trkpt>
      <trkpt lat="46.65055" lon="6.19095">
        <ele>1240.1</ele>
        <time>2020-07-21T07:59:25Z</time>
      </trkpt>
      <trkpt lat="46.65053" lon="6.19088">
        <ele>1240.1</ele>
        <time>2020-07-21T07:59:32Z</time>
      </trkpt>
      <trkpt lat="46.65047" lon="6.1908">
        <ele>1240.7</ele>
        <time>2020-07-21T08:01:05Z</time>
      </trkpt>
      <trkpt lat="46.65045" lon="6.19074">
        <ele>1241</ele>
        <time>2020-07-21T08:01:09Z</time>
      </trkpt>
      <trkpt lat="46.65043" lon="6.1906">
        <ele>1242</ele>
        <time>2020-07-21T08:01:18Z</time>
      </trkpt>
      <trkpt lat="46.65043" lon="6.19052">
        <ele>1242</ele>
        <time>2020-07-21T08:01:22Z</time>
      </trkpt>
      <trkpt lat="46.65042" lon="6.19046">
        <ele>1242.1</ele>
        <time>2020-07-21T08:01:26Z</time>
      </trkpt>
      <trkpt lat="46.6504" lon="6.19039">
        <ele>1242.2</ele>
        <time>2020-07-21T08:01:30Z</time>
      </trkpt>
      <trkpt lat="46.65038" lon="6.19033">
        <ele>1242.3</ele>
        <time>2020-07-21T08:01:34Z</time>
      </trkpt>
      <trkpt lat="46.65035" lon="6.19027">
        <ele>1242.5</ele>
        <time>2020-07-21T08:01:38Z</time>
      </trkpt>
      <trkpt lat="46.6503" lon="6.19005">
        <ele>1241.3</ele>
        <time>2020-07-21T08:02:33Z</time>
      </trkpt>
      <trkpt lat="46.65026" lon="6.18999">
        <ele>1241.2</ele>
        <time>2020-07-21T08:02:37Z</time>
      </trkpt>
      <trkpt lat="46.65023" lon="6.18993">
        <ele>1241.2</ele>
        <time>2020-07-21T08:02:41Z</time>
      </trkpt>
      <trkpt lat="46.65019" lon="6.18988">
        <ele>1241.3</ele>
        <time>2020-07-21T08:02:44Z</time>
      </trkpt>
      <trkpt lat="46.65015" lon="6.18984">
        <ele>1241.5</ele>
        <time>2020-07-21T08:02:47Z</time>
      </trkpt>
      <trkpt lat="46.65012" lon="6.18979">
        <ele>1241.8</ele>
        <time>2020-07-21T08:02:50Z</time>
      </trkpt>
      <trkpt lat="46.65008" lon="6.18974">
        <ele>1242.2</ele>
        <time>2020-07-21T08:02:53Z</time>
      </trkpt>
      <trkpt lat="46.64997" lon="6.1896">
        <ele>1244.5</ele>
        <time>2020-07-21T08:03:01Z</time>
      </trkpt>
      <trkpt lat="46.64995" lon="6.18954">
        <ele>1245</ele>
        <time>2020-07-21T08:03:06Z</time>
      </trkpt>
      <trkpt lat="46.64991" lon="6.18949">
        <ele>1245.4</ele>
        <time>2020-07-21T08:03:12Z</time>
      </trkpt>
      <trkpt lat="46.64989" lon="6.18943">
        <ele>1245.7</ele>
        <time>2020-07-21T08:03:17Z</time>
      </trkpt>
      <trkpt lat="46.64987" lon="6.18936">
        <ele>1245.9</ele>
        <time>2020-07-21T08:03:22Z</time>
      </trkpt>
      <trkpt lat="46.64984" lon="6.1893">
        <ele>1246.2</ele>
        <time>2020-07-21T08:03:27Z</time>
      </trkpt>
      <trkpt lat="46.6498" lon="6.18926">
        <ele>1246.6</ele>
        <time>2020-07-21T08:03:35Z</time>
      </trkpt>
      <trkpt lat="46.64978" lon="6.1892">
        <ele>1246.9</ele>
        <time>2020-07-21T08:03:41Z</time>
      </trkpt>
      <trkpt lat="46.64967" lon="6.18904">
        <ele>1247.4</ele>
        <time>2020-07-21T08:03:55Z</time>
      </trkpt>
      <trkpt lat="46.64964" lon="6.189">
        <ele>1247.2</ele>
        <time>2020-07-21T08:03:59Z</time>
      </trkpt>
      <trkpt lat="46.64959" lon="6.18895">
        <ele>1246.6</ele>
        <time>2020-07-21T08:04:04Z</time>
      </trkpt>
      <trkpt lat="46.64955" lon="6.18891">
        <ele>1245.9</ele>
        <time>2020-07-21T08:04:09Z</time>
      </trkpt>
      <trkpt lat="46.64952" lon="6.18886">
        <ele>1245.5</ele>
        <time>2020-07-21T08:04:14Z</time>
      </trkpt>
      <trkpt lat="46.64947" lon="6.18883">
        <ele>1245.1</ele>
        <time>2020-07-21T08:04:19Z</time>
      </trkpt>
      <trkpt lat="46.64942" lon="6.18879">
        <ele>1244.7</ele>
        <time>2020-07-21T08:04:23Z</time>
      </trkpt>
      <trkpt lat="46.64938" lon="6.18876">
        <ele>1244.2</ele>
        <time>2020-07-21T08:04:27Z</time>
      </trkpt>
      <trkpt lat="46.64933" lon="6.18873">
        <ele>1243.8</ele>
        <time>2020-07-21T08:04:33Z</time>
      </trkpt>
      <trkpt lat="46.64929" lon="6.1887">
        <ele>1243.6</ele>
        <time>2020-07-21T08:04:37Z</time>
      </trkpt>
      <trkpt lat="46.64924" lon="6.18867">
        <ele>1243.1</ele>
        <time>2020-07-21T08:04:42Z</time>
      </trkpt>
      <trkpt lat="46.64919" lon="6.18865">
        <ele>1242.7</ele>
        <time>2020-07-21T08:04:48Z</time>
      </trkpt>
      <trkpt lat="46.64914" lon="6.18863">
        <ele>1242.6</ele>
        <time>2020-07-21T08:04:54Z</time>
      </trkpt>
      <trkpt lat="46.6491" lon="6.18858">
        <ele>1242.4</ele>
        <time>2020-07-21T08:05:01Z</time>
      </trkpt>
      <trkpt lat="46.64906" lon="6.18855">
        <ele>1242.3</ele>
        <time>2020-07-21T08:05:06Z</time>
      </trkpt>
      <trkpt lat="46.64901" lon="6.18852">
        <ele>1242.2</ele>
        <time>2020-07-21T08:05:10Z</time>
      </trkpt>
      <trkpt lat="46.6489" lon="6.18844">
        <ele>1241.3</ele>
        <time>2020-07-21T08:05:23Z</time>
      </trkpt>
      <trkpt lat="46.64886" lon="6.18839">
        <ele>1241</ele>
        <time>2020-07-21T08:05:27Z</time>
      </trkpt>
      <trkpt lat="46.64882" lon="6.18835">
        <ele>1240.5</ele>
        <time>2020-07-21T08:05:32Z</time>
      </trkpt>
      <trkpt lat="46.64878" lon="6.18831">
        <ele>1239.9</ele>
        <time>2020-07-21T08:05:36Z</time>
      </trkpt>
      <trkpt lat="46.64865" lon="6.18816">
        <ele>1237.3</ele>
        <time>2020-07-21T08:05:51Z</time>
      </trkpt>
      <trkpt lat="46.64862" lon="6.1881">
        <ele>1237</ele>
        <time>2020-07-21T08:05:56Z</time>
      </trkpt>
      <trkpt lat="46.6486" lon="6.18804">
        <ele>1237</ele>
        <time>2020-07-21T08:06:01Z</time>
      </trkpt>
      <trkpt lat="46.64859" lon="6.18797">
        <ele>1237</ele>
        <time>2020-07-21T08:06:06Z</time>
      </trkpt>
      <trkpt lat="46.64858" lon="6.18791">
        <ele>1236.6</ele>
        <time>2020-07-21T08:06:15Z</time>
      </trkpt>
      <trkpt lat="46.64856" lon="6.18782">
        <ele>1238.1</ele>
        <time>2020-07-21T08:06:49Z</time>
      </trkpt>
      <trkpt lat="46.64854" lon="6.18776">
        <ele>1238.2</ele>
        <time>2020-07-21T08:06:55Z</time>
      </trkpt>
      <trkpt lat="46.64856" lon="6.18754">
        <ele>1239.9</ele>
        <time>2020-07-21T08:07:09Z</time>
      </trkpt>
      <trkpt lat="46.64856" lon="6.18747">
        <ele>1240.4</ele>
        <time>2020-07-21T08:07:13Z</time>
      </trkpt>
      <trkpt lat="46.64858" lon="6.1874">
        <ele>1241.3</ele>
        <time>2020-07-21T08:07:18Z</time>
      </trkpt>
      <trkpt lat="46.64861" lon="6.18734">
        <ele>1242.3</ele>
        <time>2020-07-21T08:07:25Z</time>
      </trkpt>
      <trkpt lat="46.64866" lon="6.18723">
        <ele>1245.8</ele>
        <time>2020-07-21T08:07:38Z</time>
      </trkpt>
      <trkpt lat="46.64869" lon="6.18717">
        <ele>1246.9</ele>
        <time>2020-07-21T08:07:46Z</time>
      </trkpt>
      <trkpt lat="46.64874" lon="6.18681">
        <ele>1252.1</ele>
        <time>2020-07-21T08:08:30Z</time>
      </trkpt>
      <trkpt lat="46.64873" lon="6.18675">
        <ele>1252.6</ele>
        <time>2020-07-21T08:08:34Z</time>
      </trkpt>
      <trkpt lat="46.64874" lon="6.18668">
        <ele>1253.1</ele>
        <time>2020-07-21T08:08:37Z</time>
      </trkpt>
      <trkpt lat="46.64874" lon="6.18661">
        <ele>1253.9</ele>
        <time>2020-07-21T08:08:41Z</time>
      </trkpt>
      <trkpt lat="46.64871" lon="6.18655">
        <ele>1254.3</ele>
        <time>2020-07-21T08:08:43Z</time>
      </trkpt>
      <trkpt lat="46.64869" lon="6.18649">
        <ele>1255.1</ele>
        <time>2020-07-21T08:08:47Z</time>
      </trkpt>
      <trkpt lat="46.64866" lon="6.18644">
        <ele>1256.5</ele>
        <time>2020-07-21T08:08:53Z</time>
      </trkpt>
      <trkpt lat="46.64862" lon="6.1864">
        <ele>1258.2</ele>
        <time>2020-07-21T08:09:00Z</time>
      </trkpt>
      <trkpt lat="46.64859" lon="6.18635">
        <ele>1259.4</ele>
        <time>2020-07-21T08:09:07Z</time>
      </trkpt>
      <trkpt lat="46.64858" lon="6.18628">
        <ele>1259.9</ele>
        <time>2020-07-21T08:09:12Z</time>
      </trkpt>
      <trkpt lat="46.64855" lon="6.18621">
        <ele>1260</ele>
        <time>2020-07-21T08:09:18Z</time>
      </trkpt>
      <trkpt lat="46.64854" lon="6.18614">
        <ele>1259.3</ele>
        <time>2020-07-21T08:09:24Z</time>
      </trkpt>
      <trkpt lat="46.64853" lon="6.18607">
        <ele>1258.7</ele>
        <time>2020-07-21T08:09:30Z</time>
      </trkpt>
      <trkpt lat="46.64853" lon="6.18599">
        <ele>1258.4</ele>
        <time>2020-07-21T08:09:35Z</time>
      </trkpt>
      <trkpt lat="46.64852" lon="6.18586">
        <ele>1257.8</ele>
        <time>2020-07-21T08:09:46Z</time>
      </trkpt>
      <trkpt lat="46.64853" lon="6.18578">
        <ele>1257.9</ele>
        <time>2020-07-21T08:09:53Z</time>
      </trkpt>
      <trkpt lat="46.64853" lon="6.18571">
        <ele>1258.1</ele>
        <time>2020-07-21T08:09:58Z</time>
      </trkpt>
      <trkpt lat="46.64855" lon="6.18564">
        <ele>1258.6</ele>
        <time>2020-07-21T08:10:04Z</time>
      </trkpt>
      <trkpt lat="46.64856" lon="6.18557">
        <ele>1258.9</ele>
        <time>2020-07-21T08:10:09Z</time>
      </trkpt>
      <trkpt lat="46.64858" lon="6.1855">
        <ele>1259.1</ele>
        <time>2020-07-21T08:10:15Z</time>
      </trkpt>
      <trkpt lat="46.64859" lon="6.18542">
        <ele>1259.4</ele>
        <time>2020-07-21T08:10:22Z</time>
      </trkpt>
      <trkpt lat="46.6486" lon="6.18536">
        <ele>1259.8</ele>
        <time>2020-07-21T08:10:27Z</time>
      </trkpt>
      <trkpt lat="46.64861" lon="6.18528">
        <ele>1260.2</ele>
        <time>2020-07-21T08:10:32Z</time>
      </trkpt>
      <trkpt lat="46.64862" lon="6.18521">
        <ele>1260.7</ele>
        <time>2020-07-21T08:10:38Z</time>
      </trkpt>
      <trkpt lat="46.64875" lon="6.185">
        <ele>1261.2</ele>
        <time>2020-07-21T08:10:57Z</time>
      </trkpt>
      <trkpt lat="46.64881" lon="6.18498">
        <ele>1261</ele>
        <time>2020-07-21T08:11:00Z</time>
      </trkpt>
      <trkpt lat="46.64885" lon="6.18497">
        <ele>1260.5</ele>
        <time>2020-07-21T08:11:05Z</time>
      </trkpt>
      <trkpt lat="46.6489" lon="6.18496">
        <ele>1259.5</ele>
        <time>2020-07-21T08:11:13Z</time>
      </trkpt>
      <trkpt lat="46.64894" lon="6.18492">
        <ele>1259</ele>
        <time>2020-07-21T08:11:20Z</time>
      </trkpt>
      <trkpt lat="46.64898" lon="6.18488">
        <ele>1258.8</ele>
        <time>2020-07-21T08:11:23Z</time>
      </trkpt>
      <trkpt lat="46.64901" lon="6.18471">
        <ele>1257.3</ele>
        <time>2020-07-21T08:11:36Z</time>
      </trkpt>
      <trkpt lat="46.64899" lon="6.18463">
        <ele>1257.1</ele>
        <time>2020-07-21T08:11:41Z</time>
      </trkpt>
      <trkpt lat="46.64898" lon="6.18455">
        <ele>1257</ele>
        <time>2020-07-21T08:11:45Z</time>
      </trkpt>
      <trkpt lat="46.64896" lon="6.18449">
        <ele>1257</ele>
        <time>2020-07-21T08:11:49Z</time>
      </trkpt>
      <trkpt lat="46.64891" lon="6.18438">
        <ele>1256.7</ele>
        <time>2020-07-21T08:12:00Z</time>
      </trkpt>
      <trkpt lat="46.64888" lon="6.18432">
        <ele>1256.5</ele>
        <time>2020-07-21T08:12:04Z</time>
      </trkpt>
      <trkpt lat="46.64884" lon="6.18426">
        <ele>1255.7</ele>
        <time>2020-07-21T08:12:11Z</time>
      </trkpt>
      <trkpt lat="46.6488" lon="6.18424">
        <ele>1255</ele>
        <time>2020-07-21T08:12:15Z</time>
      </trkpt>
      <trkpt lat="46.64876" lon="6.1842">
        <ele>1253.8</ele>
        <time>2020-07-21T08:12:21Z</time>
      </trkpt>
      <trkpt lat="46.64868" lon="6.18407">
        <ele>1252</ele>
        <time>2020-07-21T08:12:36Z</time>
      </trkpt>
      <trkpt lat="46.64865" lon="6.184">
        <ele>1251.9</ele>
        <time>2020-07-21T08:12:40Z</time>
      </trkpt>
      <trkpt lat="46.64862" lon="6.18394">
        <ele>1251.8</ele>
        <time>2020-07-21T08:12:44Z</time>
      </trkpt>
      <trkpt lat="46.64859" lon="6.18389">
        <ele>1251.8</ele>
        <time>2020-07-21T08:12:48Z</time>
      </trkpt>
      <trkpt lat="46.64857" lon="6.18382">
        <ele>1251.6</ele>
        <time>2020-07-21T08:12:52Z</time>
      </trkpt>
      <trkpt lat="46.64854" lon="6.18377">
        <ele>1251.5</ele>
        <time>2020-07-21T08:12:57Z</time>
      </trkpt>
      <trkpt lat="46.6485" lon="6.18375">
        <ele>1251.1</ele>
        <time>2020-07-21T08:13:06Z</time>
      </trkpt>
      <trkpt lat="46.64845" lon="6.18379">
        <ele>1250.8</ele>
        <time>2020-07-21T08:13:12Z</time>
      </trkpt>
      <trkpt lat="46.64841" lon="6.18381">
        <ele>1250.5</ele>
        <time>2020-07-21T08:13:17Z</time>
      </trkpt>
      <trkpt lat="46.64835" lon="6.18383">
        <ele>1250.2</ele>
        <time>2020-07-21T08:13:22Z</time>
      </trkpt>
      <trkpt lat="46.64831" lon="6.18386">
        <ele>1249.9</ele>
        <time>2020-07-21T08:13:26Z</time>
      </trkpt>
      <trkpt lat="46.64826" lon="6.18389">
        <ele>1249.9</ele>
        <time>2020-07-21T08:13:30Z</time>
      </trkpt>
      <trkpt lat="46.64814" lon="6.18395">
        <ele>1250.1</ele>
        <time>2020-07-21T08:13:41Z</time>
      </trkpt>
      <trkpt lat="46.6481" lon="6.18398">
        <ele>1249.7</ele>
        <time>2020-07-21T08:13:46Z</time>
      </trkpt>
      <trkpt lat="46.64798" lon="6.18411">
        <ele>1247.9</ele>
        <time>2020-07-21T08:14:00Z</time>
      </trkpt>
      <trkpt lat="46.64795" lon="6.18416">
        <ele>1247.9</ele>
        <time>2020-07-21T08:14:04Z</time>
      </trkpt>
      <trkpt lat="46.64782" lon="6.18419">
        <ele>1246.6</ele>
        <time>2020-07-21T08:14:22Z</time>
      </trkpt>
      <trkpt lat="46.64768" lon="6.18428">
        <ele>1245.3</ele>
        <time>2020-07-21T08:14:31Z</time>
      </trkpt>
      <trkpt lat="46.64763" lon="6.18429">
        <ele>1244.9</ele>
        <time>2020-07-21T08:14:34Z</time>
      </trkpt>
      <trkpt lat="46.64758" lon="6.18433">
        <ele>1243.9</ele>
        <time>2020-07-21T08:14:40Z</time>
      </trkpt>
      <trkpt lat="46.64753" lon="6.18438">
        <ele>1243.1</ele>
        <time>2020-07-21T08:14:44Z</time>
      </trkpt>
      <trkpt lat="46.64749" lon="6.18442">
        <ele>1241.9</ele>
        <time>2020-07-21T08:14:50Z</time>
      </trkpt>
      <trkpt lat="46.64745" lon="6.18447">
        <ele>1241.4</ele>
        <time>2020-07-21T08:14:56Z</time>
      </trkpt>
      <trkpt lat="46.64731" lon="6.18457">
        <ele>1241.8</ele>
        <time>2020-07-21T08:15:11Z</time>
      </trkpt>
      <trkpt lat="46.64727" lon="6.18461">
        <ele>1242.1</ele>
        <time>2020-07-21T08:15:18Z</time>
      </trkpt>
      <trkpt lat="46.64717" lon="6.1847">
        <ele>1242.3</ele>
        <time>2020-07-21T08:15:29Z</time>
      </trkpt>
      <trkpt lat="46.64711" lon="6.18474">
        <ele>1242</ele>
        <time>2020-07-21T08:15:34Z</time>
      </trkpt>
      <trkpt lat="46.64707" lon="6.18477">
        <ele>1241.8</ele>
        <time>2020-07-21T08:15:40Z</time>
      </trkpt>
      <trkpt lat="46.64701" lon="6.18479">
        <ele>1241.9</ele>
        <time>2020-07-21T08:15:46Z</time>
      </trkpt>
      <trkpt lat="46.64695" lon="6.18481">
        <ele>1242</ele>
        <time>2020-07-21T08:15:51Z</time>
      </trkpt>
      <trkpt lat="46.64691" lon="6.18483">
        <ele>1242.2</ele>
        <time>2020-07-21T08:15:56Z</time>
      </trkpt>
      <trkpt lat="46.64685" lon="6.18485">
        <ele>1242.5</ele>
        <time>2020-07-21T08:16:00Z</time>
      </trkpt>
      <trkpt lat="46.64681" lon="6.18484">
        <ele>1243.3</ele>
        <time>2020-07-21T08:16:06Z</time>
      </trkpt>
      <trkpt lat="46.64676" lon="6.18485">
        <ele>1244.5</ele>
        <time>2020-07-21T08:16:13Z</time>
      </trkpt>
      <trkpt lat="46.64672" lon="6.18489">
        <ele>1244.8</ele>
        <time>2020-07-21T08:16:15Z</time>
      </trkpt>
      <trkpt lat="46.64668" lon="6.18492">
        <ele>1245</ele>
        <time>2020-07-21T08:16:18Z</time>
      </trkpt>
      <trkpt lat="46.64663" lon="6.18495">
        <ele>1245.2</ele>
        <time>2020-07-21T08:16:22Z</time>
      </trkpt>
      <trkpt lat="46.64659" lon="6.18497">
        <ele>1245</ele>
        <time>2020-07-21T08:16:28Z</time>
      </trkpt>
      <trkpt lat="46.64654" lon="6.18499">
        <ele>1244.8</ele>
        <time>2020-07-21T08:16:35Z</time>
      </trkpt>
      <trkpt lat="46.64649" lon="6.185">
        <ele>1245</ele>
        <time>2020-07-21T08:16:40Z</time>
      </trkpt>
      <trkpt lat="46.64644" lon="6.18501">
        <ele>1245.2</ele>
        <time>2020-07-21T08:16:43Z</time>
      </trkpt>
      <trkpt lat="46.64639" lon="6.18502">
        <ele>1245.3</ele>
        <time>2020-07-21T08:16:47Z</time>
      </trkpt>
      <trkpt lat="46.64634" lon="6.18504">
        <ele>1245.3</ele>
        <time>2020-07-21T08:16:52Z</time>
      </trkpt>
      <trkpt lat="46.64623" lon="6.18507">
        <ele>1245.3</ele>
        <time>2020-07-21T08:17:07Z</time>
      </trkpt>
      <trkpt lat="46.64613" lon="6.18509">
        <ele>1246.3</ele>
        <time>2020-07-21T08:17:18Z</time>
      </trkpt>
      <trkpt lat="46.64609" lon="6.18512">
        <ele>1246.4</ele>
        <time>2020-07-21T08:17:20Z</time>
      </trkpt>
      <trkpt lat="46.64603" lon="6.18516">
        <ele>1246.7</ele>
        <time>2020-07-21T08:17:23Z</time>
      </trkpt>
      <trkpt lat="46.64599" lon="6.1852">
        <ele>1247.2</ele>
        <time>2020-07-21T08:17:28Z</time>
      </trkpt>
      <trkpt lat="46.64595" lon="6.18523">
        <ele>1248.3</ele>
        <time>2020-07-21T08:17:37Z</time>
      </trkpt>
      <trkpt lat="46.6459" lon="6.18526">
        <ele>1248.5</ele>
        <time>2020-07-21T08:17:42Z</time>
      </trkpt>
      <trkpt lat="46.64586" lon="6.1853">
        <ele>1247.9</ele>
        <time>2020-07-21T08:17:48Z</time>
      </trkpt>
      <trkpt lat="46.64583" lon="6.18536">
        <ele>1247.5</ele>
        <time>2020-07-21T08:17:51Z</time>
      </trkpt>
      <trkpt lat="46.6458" lon="6.18544">
        <ele>1246.7</ele>
        <time>2020-07-21T08:17:55Z</time>
      </trkpt>
      <trkpt lat="46.64579" lon="6.18551">
        <ele>1245.8</ele>
        <time>2020-07-21T08:18:00Z</time>
      </trkpt>
      <trkpt lat="46.64577" lon="6.18557">
        <ele>1245.3</ele>
        <time>2020-07-21T08:18:07Z</time>
      </trkpt>
      <trkpt lat="46.64573" lon="6.18562">
        <ele>1245.2</ele>
        <time>2020-07-21T08:18:12Z</time>
      </trkpt>
      <trkpt lat="46.64569" lon="6.18567">
        <ele>1245</ele>
        <time>2020-07-21T08:18:15Z</time>
      </trkpt>
      <trkpt lat="46.6456" lon="6.18582">
        <ele>1245</ele>
        <time>2020-07-21T08:18:26Z</time>
      </trkpt>
      <trkpt lat="46.64557" lon="6.18587">
        <ele>1244.9</ele>
        <time>2020-07-21T08:18:33Z</time>
      </trkpt>
      <trkpt lat="46.64553" lon="6.18592">
        <ele>1245</ele>
        <time>2020-07-21T08:18:38Z</time>
      </trkpt>
      <trkpt lat="46.6455" lon="6.18599">
        <ele>1245</ele>
        <time>2020-07-21T08:18:43Z</time>
      </trkpt>
      <trkpt lat="46.64538" lon="6.18619">
        <ele>1245.2</ele>
        <time>2020-07-21T08:19:05Z</time>
      </trkpt>
      <trkpt lat="46.64535" lon="6.18625">
        <ele>1245.2</ele>
        <time>2020-07-21T08:19:09Z</time>
      </trkpt>
      <trkpt lat="46.64533" lon="6.18631">
        <ele>1245.3</ele>
        <time>2020-07-21T08:19:15Z</time>
      </trkpt>
      <trkpt lat="46.64526" lon="6.1864">
        <ele>1249.6</ele>
        <time>2020-07-21T08:19:48Z</time>
      </trkpt>
      <trkpt lat="46.64522" lon="6.18643">
        <ele>1249.6</ele>
        <time>2020-07-21T08:19:53Z</time>
      </trkpt>
      <trkpt lat="46.64517" lon="6.18645">
        <ele>1249.6</ele>
        <time>2020-07-21T08:19:56Z</time>
      </trkpt>
      <trkpt lat="46.64512" lon="6.18648">
        <ele>1249.6</ele>
        <time>2020-07-21T08:19:59Z</time>
      </trkpt>
      <trkpt lat="46.64506" lon="6.18653">
        <ele>1249.6</ele>
        <time>2020-07-21T08:20:02Z</time>
      </trkpt>
      <trkpt lat="46.64502" lon="6.18656">
        <ele>1249.5</ele>
        <time>2020-07-21T08:20:06Z</time>
      </trkpt>
      <trkpt lat="46.64498" lon="6.18659">
        <ele>1249.4</ele>
        <time>2020-07-21T08:20:10Z</time>
      </trkpt>
      <trkpt lat="46.64493" lon="6.18661">
        <ele>1249.3</ele>
        <time>2020-07-21T08:20:14Z</time>
      </trkpt>
      <trkpt lat="46.64488" lon="6.18664">
        <ele>1249.3</ele>
        <time>2020-07-21T08:20:19Z</time>
      </trkpt>
      <trkpt lat="46.64483" lon="6.18666">
        <ele>1249.5</ele>
        <time>2020-07-21T08:20:24Z</time>
      </trkpt>
      <trkpt lat="46.64478" lon="6.18668">
        <ele>1249.5</ele>
        <time>2020-07-21T08:20:30Z</time>
      </trkpt>
      <trkpt lat="46.64474" lon="6.1867">
        <ele>1249.2</ele>
        <time>2020-07-21T08:20:36Z</time>
      </trkpt>
      <trkpt lat="46.64469" lon="6.18672">
        <ele>1249.1</ele>
        <time>2020-07-21T08:20:39Z</time>
      </trkpt>
      <trkpt lat="46.64465" lon="6.18676">
        <ele>1249</ele>
        <time>2020-07-21T08:20:43Z</time>
      </trkpt>
      <trkpt lat="46.64461" lon="6.18678">
        <ele>1249</ele>
        <time>2020-07-21T08:20:47Z</time>
      </trkpt>
      <trkpt lat="46.64456" lon="6.18681">
        <ele>1248.9</ele>
        <time>2020-07-21T08:20:52Z</time>
      </trkpt>
      <trkpt lat="46.64452" lon="6.18684">
        <ele>1248.5</ele>
        <time>2020-07-21T08:20:58Z</time>
      </trkpt>
      <trkpt lat="46.64447" lon="6.18686">
        <ele>1248.5</ele>
        <time>2020-07-21T08:21:02Z</time>
      </trkpt>
      <trkpt lat="46.64442" lon="6.18688">
        <ele>1248.6</ele>
        <time>2020-07-21T08:21:07Z</time>
      </trkpt>
      <trkpt lat="46.64437" lon="6.18689">
        <ele>1248.7</ele>
        <time>2020-07-21T08:21:11Z</time>
      </trkpt>
      <trkpt lat="46.64432" lon="6.18691">
        <ele>1248.5</ele>
        <time>2020-07-21T08:21:15Z</time>
      </trkpt>
      <trkpt lat="46.64427" lon="6.18694">
        <ele>1248.2</ele>
        <time>2020-07-21T08:21:19Z</time>
      </trkpt>
      <trkpt lat="46.64416" lon="6.18701">
        <ele>1247.1</ele>
        <time>2020-07-21T08:21:32Z</time>
      </trkpt>
      <trkpt lat="46.64411" lon="6.18704">
        <ele>1247</ele>
        <time>2020-07-21T08:21:38Z</time>
      </trkpt>
      <trkpt lat="46.64399" lon="6.18708">
        <ele>1247.1</ele>
        <time>2020-07-21T08:21:50Z</time>
      </trkpt>
      <trkpt lat="46.64394" lon="6.18709">
        <ele>1247.6</ele>
        <time>2020-07-21T08:21:56Z</time>
      </trkpt>
      <trkpt lat="46.64389" lon="6.18711">
        <ele>1248.1</ele>
        <time>2020-07-21T08:22:02Z</time>
      </trkpt>
      <trkpt lat="46.64383" lon="6.18714">
        <ele>1248.6</ele>
        <time>2020-07-21T08:22:05Z</time>
      </trkpt>
      <trkpt lat="46.64379" lon="6.18715">
        <ele>1249.5</ele>
        <time>2020-07-21T08:22:10Z</time>
      </trkpt>
      <trkpt lat="46.64374" lon="6.18716">
        <ele>1250.3</ele>
        <time>2020-07-21T08:22:16Z</time>
      </trkpt>
      <trkpt lat="46.64369" lon="6.18717">
        <ele>1250.7</ele>
        <time>2020-07-21T08:22:21Z</time>
      </trkpt>
      <trkpt lat="46.64365" lon="6.18718">
        <ele>1250.9</ele>
        <time>2020-07-21T08:22:25Z</time>
      </trkpt>
      <trkpt lat="46.6436" lon="6.18719">
        <ele>1251</ele>
        <time>2020-07-21T08:22:30Z</time>
      </trkpt>
      <trkpt lat="46.64356" lon="6.18722">
        <ele>1251.3</ele>
        <time>2020-07-21T08:22:36Z</time>
      </trkpt>
      <trkpt lat="46.64351" lon="6.18723">
        <ele>1251.8</ele>
        <time>2020-07-21T08:22:43Z</time>
      </trkpt>
      <trkpt lat="46.64346" lon="6.18723">
        <ele>1252.3</ele>
        <time>2020-07-21T08:22:49Z</time>
      </trkpt>
      <trkpt lat="46.64333" lon="6.18726">
        <ele>1252</ele>
        <time>2020-07-21T08:23:03Z</time>
      </trkpt>
      <trkpt lat="46.64328" lon="6.18727">
        <ele>1252</ele>
        <time>2020-07-21T08:23:08Z</time>
      </trkpt>
      <trkpt lat="46.64323" lon="6.18726">
        <ele>1252.1</ele>
        <time>2020-07-21T08:23:13Z</time>
      </trkpt>
      <trkpt lat="46.64318" lon="6.18725">
        <ele>1252.2</ele>
        <time>2020-07-21T08:23:18Z</time>
      </trkpt>
      <trkpt lat="46.64314" lon="6.18722">
        <ele>1252.2</ele>
        <time>2020-07-21T08:23:22Z</time>
      </trkpt>
      <trkpt lat="46.64309" lon="6.18719">
        <ele>1252.4</ele>
        <time>2020-07-21T08:23:27Z</time>
      </trkpt>
      <trkpt lat="46.64304" lon="6.18717">
        <ele>1252.6</ele>
        <time>2020-07-21T08:23:33Z</time>
      </trkpt>
      <trkpt lat="46.64299" lon="6.18715">
        <ele>1252.7</ele>
        <time>2020-07-21T08:23:38Z</time>
      </trkpt>
      <trkpt lat="46.64289" lon="6.18709">
        <ele>1253.1</ele>
        <time>2020-07-21T08:23:52Z</time>
      </trkpt>
      <trkpt lat="46.64284" lon="6.18707">
        <ele>1253</ele>
        <time>2020-07-21T08:23:58Z</time>
      </trkpt>
      <trkpt lat="46.64279" lon="6.18705">
        <ele>1252.8</ele>
        <time>2020-07-21T08:24:04Z</time>
      </trkpt>
      <trkpt lat="46.64275" lon="6.18704">
        <ele>1253.4</ele>
        <time>2020-07-21T08:24:13Z</time>
      </trkpt>
      <trkpt lat="46.6427" lon="6.18702">
        <ele>1255.3</ele>
        <time>2020-07-21T08:24:30Z</time>
      </trkpt>
      <trkpt lat="46.64265" lon="6.18703">
        <ele>1256.4</ele>
        <time>2020-07-21T08:24:37Z</time>
      </trkpt>
      <trkpt lat="46.64259" lon="6.18706">
        <ele>1256.9</ele>
        <time>2020-07-21T08:24:41Z</time>
      </trkpt>
      <trkpt lat="46.64255" lon="6.18708">
        <ele>1257.2</ele>
        <time>2020-07-21T08:24:45Z</time>
      </trkpt>
      <trkpt lat="46.64249" lon="6.18709">
        <ele>1257.3</ele>
        <time>2020-07-21T08:24:49Z</time>
      </trkpt>
      <trkpt lat="46.64243" lon="6.18709">
        <ele>1257.3</ele>
        <time>2020-07-21T08:24:53Z</time>
      </trkpt>
      <trkpt lat="46.64237" lon="6.18711">
        <ele>1257.3</ele>
        <time>2020-07-21T08:24:57Z</time>
      </trkpt>
      <trkpt lat="46.64233" lon="6.18713">
        <ele>1257.4</ele>
        <time>2020-07-21T08:25:01Z</time>
      </trkpt>
      <trkpt lat="46.64228" lon="6.18716">
        <ele>1257.8</ele>
        <time>2020-07-21T08:25:08Z</time>
      </trkpt>
      <trkpt lat="46.64223" lon="6.18718">
        <ele>1257.8</ele>
        <time>2020-07-21T08:25:14Z</time>
      </trkpt>
      <trkpt lat="46.64219" lon="6.18718">
        <ele>1257.7</ele>
        <time>2020-07-21T08:25:19Z</time>
      </trkpt>
      <trkpt lat="46.64215" lon="6.18721">
        <ele>1257.3</ele>
        <time>2020-07-21T08:25:24Z</time>
      </trkpt>
      <trkpt lat="46.6421" lon="6.18724">
        <ele>1257.2</ele>
        <time>2020-07-21T08:25:29Z</time>
      </trkpt>
      <trkpt lat="46.64205" lon="6.18727">
        <ele>1257.6</ele>
        <time>2020-07-21T08:25:36Z</time>
      </trkpt>
      <trkpt lat="46.642" lon="6.1873">
        <ele>1258</ele>
        <time>2020-07-21T08:25:42Z</time>
      </trkpt>
      <trkpt lat="46.64196" lon="6.18734">
        <ele>1258.4</ele>
        <time>2020-07-21T08:25:48Z</time>
      </trkpt>
      <trkpt lat="46.64193" lon="6.18739">
        <ele>1259</ele>
        <time>2020-07-21T08:25:56Z</time>
      </trkpt>
      <trkpt lat="46.64188" lon="6.18744">
        <ele>1259.3</ele>
        <time>2020-07-21T08:26:00Z</time>
      </trkpt>
      <trkpt lat="46.64185" lon="6.1875">
        <ele>1259.7</ele>
        <time>2020-07-21T08:26:04Z</time>
      </trkpt>
      <trkpt lat="46.64181" lon="6.1875">
        <ele>1260.1</ele>
        <time>2020-07-21T08:26:08Z</time>
      </trkpt>
      <trkpt lat="46.64173" lon="6.18757">
        <ele>1261.6</ele>
        <time>2020-07-21T08:26:22Z</time>
      </trkpt>
      <trkpt lat="46.64168" lon="6.18762">
        <ele>1261.7</ele>
        <time>2020-07-21T08:26:28Z</time>
      </trkpt>
      <trkpt lat="46.64157" lon="6.18772">
        <ele>1261.4</ele>
        <time>2020-07-21T08:26:41Z</time>
      </trkpt>
      <trkpt lat="46.64152" lon="6.18777">
        <ele>1261</ele>
        <time>2020-07-21T08:26:45Z</time>
      </trkpt>
      <trkpt lat="46.64142" lon="6.18784">
        <ele>1259.6</ele>
        <time>2020-07-21T08:27:00Z</time>
      </trkpt>
      <trkpt lat="46.64139" lon="6.18789">
        <ele>1259.4</ele>
        <time>2020-07-21T08:27:05Z</time>
      </trkpt>
      <trkpt lat="46.64131" lon="6.18801">
        <ele>1260.2</ele>
        <time>2020-07-21T08:27:17Z</time>
      </trkpt>
      <trkpt lat="46.64127" lon="6.18805">
        <ele>1259.9</ele>
        <time>2020-07-21T08:27:21Z</time>
      </trkpt>
      <trkpt lat="46.64121" lon="6.1881">
        <ele>1259.7</ele>
        <time>2020-07-21T08:27:25Z</time>
      </trkpt>
      <trkpt lat="46.64117" lon="6.18814">
        <ele>1259.5</ele>
        <time>2020-07-21T08:27:31Z</time>
      </trkpt>
      <trkpt lat="46.64113" lon="6.18818">
        <ele>1259.7</ele>
        <time>2020-07-21T08:27:35Z</time>
      </trkpt>
      <trkpt lat="46.64099" lon="6.18828">
        <ele>1261.3</ele>
        <time>2020-07-21T08:27:44Z</time>
      </trkpt>
      <trkpt lat="46.64094" lon="6.18832">
        <ele>1261.9</ele>
        <time>2020-07-21T08:27:49Z</time>
      </trkpt>
      <trkpt lat="46.6409" lon="6.18835">
        <ele>1262.2</ele>
        <time>2020-07-21T08:27:52Z</time>
      </trkpt>
      <trkpt lat="46.64086" lon="6.18839">
        <ele>1262.5</ele>
        <time>2020-07-21T08:27:55Z</time>
      </trkpt>
      <trkpt lat="46.64081" lon="6.18842">
        <ele>1263</ele>
        <time>2020-07-21T08:28:00Z</time>
      </trkpt>
      <trkpt lat="46.64077" lon="6.18844">
        <ele>1263.4</ele>
        <time>2020-07-21T08:28:07Z</time>
      </trkpt>
      <trkpt lat="46.64071" lon="6.18844">
        <ele>1264.1</ele>
        <time>2020-07-21T08:28:15Z</time>
      </trkpt>
      <trkpt lat="46.64066" lon="6.18843">
        <ele>1264.6</ele>
        <time>2020-07-21T08:28:21Z</time>
      </trkpt>
      <trkpt lat="46.64061" lon="6.18843">
        <ele>1265</ele>
        <time>2020-07-21T08:28:27Z</time>
      </trkpt>
      <trkpt lat="46.64056" lon="6.18843">
        <ele>1265.2</ele>
        <time>2020-07-21T08:28:31Z</time>
      </trkpt>
      <trkpt lat="46.64047" lon="6.18847">
        <ele>1266.5</ele>
        <time>2020-07-21T08:28:44Z</time>
      </trkpt>
      <trkpt lat="46.64034" lon="6.18856">
        <ele>1270.1</ele>
        <time>2020-07-21T08:28:54Z</time>
      </trkpt>
      <trkpt lat="46.64029" lon="6.18858">
        <ele>1270.8</ele>
        <time>2020-07-21T08:28:58Z</time>
      </trkpt>
      <trkpt lat="46.64025" lon="6.18862">
        <ele>1271.4</ele>
        <time>2020-07-21T08:29:01Z</time>
      </trkpt>
      <trkpt lat="46.64021" lon="6.18866">
        <ele>1273.1</ele>
        <time>2020-07-21T08:29:09Z</time>
      </trkpt>
      <trkpt lat="46.64014" lon="6.18874">
        <ele>1277.1</ele>
        <time>2020-07-21T08:29:28Z</time>
      </trkpt>
      <trkpt lat="46.64005" lon="6.18886">
        <ele>1280.4</ele>
        <time>2020-07-21T08:29:42Z</time>
      </trkpt>
      <trkpt lat="46.64" lon="6.18891">
        <ele>1281.5</ele>
        <time>2020-07-21T08:29:52Z</time>
      </trkpt>
      <trkpt lat="46.63985" lon="6.18915">
        <ele>1283.8</ele>
        <time>2020-07-21T08:30:11Z</time>
      </trkpt>
      <trkpt lat="46.63981" lon="6.18919">
        <ele>1283.9</ele>
        <time>2020-07-21T08:30:16Z</time>
      </trkpt>
      <trkpt lat="46.63976" lon="6.18924">
        <ele>1283.8</ele>
        <time>2020-07-21T08:30:21Z</time>
      </trkpt>
      <trkpt lat="46.63973" lon="6.1893">
        <ele>1283.4</ele>
        <time>2020-07-21T08:30:25Z</time>
      </trkpt>
      <trkpt lat="46.63965" lon="6.18939">
        <ele>1281.1</ele>
        <time>2020-07-21T08:30:40Z</time>
      </trkpt>
      <trkpt lat="46.63962" lon="6.18944">
        <ele>1280.7</ele>
        <time>2020-07-21T08:30:45Z</time>
      </trkpt>
      <trkpt lat="46.6396" lon="6.1895">
        <ele>1280.2</ele>
        <time>2020-07-21T08:30:50Z</time>
      </trkpt>
      <trkpt lat="46.63959" lon="6.18958">
        <ele>1279.6</ele>
        <time>2020-07-21T08:30:56Z</time>
      </trkpt>
      <trkpt lat="46.63958" lon="6.18966">
        <ele>1279.5</ele>
        <time>2020-07-21T08:31:01Z</time>
      </trkpt>
      <trkpt lat="46.63958" lon="6.18972">
        <ele>1279.6</ele>
        <time>2020-07-21T08:31:06Z</time>
      </trkpt>
      <trkpt lat="46.63957" lon="6.1899">
        <ele>1280.1</ele>
        <time>2020-07-21T08:31:19Z</time>
      </trkpt>
      <trkpt lat="46.63957" lon="6.18997">
        <ele>1279.7</ele>
        <time>2020-07-21T08:31:23Z</time>
      </trkpt>
      <trkpt lat="46.63955" lon="6.19003">
        <ele>1279.1</ele>
        <time>2020-07-21T08:31:28Z</time>
      </trkpt>
      <trkpt lat="46.63953" lon="6.1901">
        <ele>1278.6</ele>
        <time>2020-07-21T08:31:33Z</time>
      </trkpt>
      <trkpt lat="46.63953" lon="6.19017">
        <ele>1277.9</ele>
        <time>2020-07-21T08:31:39Z</time>
      </trkpt>
      <trkpt lat="46.63953" lon="6.19051">
        <ele>1277</ele>
        <time>2020-07-21T08:31:59Z</time>
      </trkpt>
      <trkpt lat="46.63953" lon="6.19058">
        <ele>1277.7</ele>
        <time>2020-07-21T08:32:05Z</time>
      </trkpt>
      <trkpt lat="46.63954" lon="6.19066">
        <ele>1279</ele>
        <time>2020-07-21T08:32:13Z</time>
      </trkpt>
      <trkpt lat="46.63954" lon="6.19074">
        <ele>1279.8</ele>
        <time>2020-07-21T08:32:19Z</time>
      </trkpt>
      <trkpt lat="46.63955" lon="6.19081">
        <ele>1280.1</ele>
        <time>2020-07-21T08:32:24Z</time>
      </trkpt>
      <trkpt lat="46.63955" lon="6.19088">
        <ele>1280.1</ele>
        <time>2020-07-21T08:32:31Z</time>
      </trkpt>
      <trkpt lat="46.63957" lon="6.19123">
        <ele>1281.2</ele>
        <time>2020-07-21T08:32:58Z</time>
      </trkpt>
      <trkpt lat="46.63958" lon="6.19131">
        <ele>1281.3</ele>
        <time>2020-07-21T08:33:00Z</time>
      </trkpt>
      <trkpt lat="46.6396" lon="6.19141">
        <ele>1281.4</ele>
        <time>2020-07-21T08:33:05Z</time>
      </trkpt>
      <trkpt lat="46.63961" lon="6.19147">
        <ele>1281.4</ele>
        <time>2020-07-21T08:33:07Z</time>
      </trkpt>
      <trkpt lat="46.63962" lon="6.19153">
        <ele>1281.4</ele>
        <time>2020-07-21T08:33:10Z</time>
      </trkpt>
      <trkpt lat="46.6398" lon="6.19198">
        <ele>1287.4</ele>
        <time>2020-07-21T08:33:46Z</time>
      </trkpt>
      <trkpt lat="46.63983" lon="6.19203">
        <ele>1288</ele>
        <time>2020-07-21T08:33:49Z</time>
      </trkpt>
      <trkpt lat="46.63986" lon="6.19209">
        <ele>1289.1</ele>
        <time>2020-07-21T08:33:54Z</time>
      </trkpt>
      <trkpt lat="46.6399" lon="6.19219">
        <ele>1291.7</ele>
        <time>2020-07-21T08:34:03Z</time>
      </trkpt>
      <trkpt lat="46.63992" lon="6.19227">
        <ele>1292.3</ele>
        <time>2020-07-21T08:34:09Z</time>
      </trkpt>
      <trkpt lat="46.64013" lon="6.19271">
        <ele>1296.6</ele>
        <time>2020-07-21T08:34:37Z</time>
      </trkpt>
      <trkpt lat="46.64015" lon="6.19278">
        <ele>1296.8</ele>
        <time>2020-07-21T08:34:42Z</time>
      </trkpt>
      <trkpt lat="46.64016" lon="6.19285">
        <ele>1296.8</ele>
        <time>2020-07-21T08:34:48Z</time>
      </trkpt>
      <trkpt lat="46.64016" lon="6.19299">
        <ele>1296.7</ele>
        <time>2020-07-21T08:35:01Z</time>
      </trkpt>
      <trkpt lat="46.64022" lon="6.19317">
        <ele>1296.8</ele>
        <time>2020-07-21T08:35:12Z</time>
      </trkpt>
      <trkpt lat="46.64026" lon="6.19323">
        <ele>1296.9</ele>
        <time>2020-07-21T08:35:15Z</time>
      </trkpt>
      <trkpt lat="46.64029" lon="6.19329">
        <ele>1297.3</ele>
        <time>2020-07-21T08:35:20Z</time>
      </trkpt>
      <trkpt lat="46.64033" lon="6.19335">
        <ele>1297.7</ele>
        <time>2020-07-21T08:35:25Z</time>
      </trkpt>
      <trkpt lat="46.64037" lon="6.19338">
        <ele>1298</ele>
        <time>2020-07-21T08:35:29Z</time>
      </trkpt>
      <trkpt lat="46.64041" lon="6.19343">
        <ele>1299.8</ele>
        <time>2020-07-21T08:35:45Z</time>
      </trkpt>
      <trkpt lat="46.64044" lon="6.19348">
        <ele>1300.1</ele>
        <time>2020-07-21T08:35:48Z</time>
      </trkpt>
      <trkpt lat="46.64054" lon="6.19357">
        <ele>1300.1</ele>
        <time>2020-07-21T08:35:59Z</time>
      </trkpt>
      <trkpt lat="46.64058" lon="6.19359">
        <ele>1299.5</ele>
        <time>2020-07-21T08:36:07Z</time>
      </trkpt>
      <trkpt lat="46.64063" lon="6.19361">
        <ele>1298.6</ele>
        <time>2020-07-21T08:36:13Z</time>
      </trkpt>
      <trkpt lat="46.64068" lon="6.19364">
        <ele>1298</ele>
        <time>2020-07-21T08:36:17Z</time>
      </trkpt>
      <trkpt lat="46.64072" lon="6.19369">
        <ele>1297.6</ele>
        <time>2020-07-21T08:36:20Z</time>
      </trkpt>
      <trkpt lat="46.64076" lon="6.19375">
        <ele>1297.1</ele>
        <time>2020-07-21T08:36:24Z</time>
      </trkpt>
      <trkpt lat="46.6408" lon="6.1938">
        <ele>1296.5</ele>
        <time>2020-07-21T08:36:28Z</time>
      </trkpt>
      <trkpt lat="46.64083" lon="6.19386">
        <ele>1295.9</ele>
        <time>2020-07-21T08:36:32Z</time>
      </trkpt>
      <trkpt lat="46.64087" lon="6.19392">
        <ele>1294.7</ele>
        <time>2020-07-21T08:36:40Z</time>
      </trkpt>
      <trkpt lat="46.6409" lon="6.19396">
        <ele>1294.4</ele>
        <time>2020-07-21T08:36:42Z</time>
      </trkpt>
      <trkpt lat="46.64095" lon="6.1941">
        <ele>1292.6</ele>
        <time>2020-07-21T08:36:56Z</time>
      </trkpt>
      <trkpt lat="46.64099" lon="6.19417">
        <ele>1292.5</ele>
        <time>2020-07-21T08:37:01Z</time>
      </trkpt>
      <trkpt lat="46.64104" lon="6.19422">
        <ele>1292.6</ele>
        <time>2020-07-21T08:37:03Z</time>
      </trkpt>
      <trkpt lat="46.6411" lon="6.19428">
        <ele>1292.7</ele>
        <time>2020-07-21T08:37:05Z</time>
      </trkpt>
      <trkpt lat="46.64114" lon="6.19434">
        <ele>1292.9</ele>
        <time>2020-07-21T08:37:07Z</time>
      </trkpt>
      <trkpt lat="46.64117" lon="6.19439">
        <ele>1293.5</ele>
        <time>2020-07-21T08:37:10Z</time>
      </trkpt>
      <trkpt lat="46.64123" lon="6.19455">
        <ele>1297.7</ele>
        <time>2020-07-21T08:37:22Z</time>
      </trkpt>
      <trkpt lat="46.64127" lon="6.1946">
        <ele>1298.1</ele>
        <time>2020-07-21T08:37:24Z</time>
      </trkpt>
      <trkpt lat="46.64131" lon="6.19463">
        <ele>1298.6</ele>
        <time>2020-07-21T08:37:27Z</time>
      </trkpt>
      <trkpt lat="46.64135" lon="6.19468">
        <ele>1299.2</ele>
        <time>2020-07-21T08:37:31Z</time>
      </trkpt>
      <trkpt lat="46.64138" lon="6.19475">
        <ele>1300.1</ele>
        <time>2020-07-21T08:37:38Z</time>
      </trkpt>
      <trkpt lat="46.6414" lon="6.19481">
        <ele>1300.6</ele>
        <time>2020-07-21T08:37:43Z</time>
      </trkpt>
      <trkpt lat="46.6414" lon="6.19493">
        <ele>1299.8</ele>
        <time>2020-07-21T08:37:55Z</time>
      </trkpt>
      <trkpt lat="46.64141" lon="6.19531">
        <ele>1298.8</ele>
        <time>2020-07-21T08:38:14Z</time>
      </trkpt>
      <trkpt lat="46.64139" lon="6.19538">
        <ele>1299</ele>
        <time>2020-07-21T08:38:22Z</time>
      </trkpt>
      <trkpt lat="46.64136" lon="6.19545">
        <ele>1298.6</ele>
        <time>2020-07-21T08:38:26Z</time>
      </trkpt>
      <trkpt lat="46.64134" lon="6.19553">
        <ele>1297.8</ele>
        <time>2020-07-21T08:38:31Z</time>
      </trkpt>
      <trkpt lat="46.64132" lon="6.1956">
        <ele>1297.2</ele>
        <time>2020-07-21T08:38:35Z</time>
      </trkpt>
      <trkpt lat="46.64125" lon="6.19576">
        <ele>1294.8</ele>
        <time>2020-07-21T08:38:46Z</time>
      </trkpt>
      <trkpt lat="46.64108" lon="6.19596">
        <ele>1294.5</ele>
        <time>2020-07-21T08:39:04Z</time>
      </trkpt>
      <trkpt lat="46.64099" lon="6.19602">
        <ele>1295.5</ele>
        <time>2020-07-21T08:39:15Z</time>
      </trkpt>
      <trkpt lat="46.64094" lon="6.19604">
        <ele>1295.6</ele>
        <time>2020-07-21T08:39:20Z</time>
      </trkpt>
      <trkpt lat="46.64089" lon="6.19607">
        <ele>1295.6</ele>
        <time>2020-07-21T08:39:27Z</time>
      </trkpt>
      <trkpt lat="46.64085" lon="6.19608">
        <ele>1295.7</ele>
        <time>2020-07-21T08:39:33Z</time>
      </trkpt>
      <trkpt lat="46.6408" lon="6.19611">
        <ele>1295.5</ele>
        <time>2020-07-21T08:39:38Z</time>
      </trkpt>
      <trkpt lat="46.64076" lon="6.19615">
        <ele>1295.3</ele>
        <time>2020-07-21T08:39:44Z</time>
      </trkpt>
      <trkpt lat="46.64072" lon="6.19618">
        <ele>1295</ele>
        <time>2020-07-21T08:39:52Z</time>
      </trkpt>
      <trkpt lat="46.64068" lon="6.19623">
        <ele>1294.3</ele>
        <time>2020-07-21T08:39:59Z</time>
      </trkpt>
      <trkpt lat="46.64061" lon="6.19634">
        <ele>1293.7</ele>
        <time>2020-07-21T08:40:13Z</time>
      </trkpt>
      <trkpt lat="46.64056" lon="6.1964">
        <ele>1293.9</ele>
        <time>2020-07-21T08:40:18Z</time>
      </trkpt>
      <trkpt lat="46.64052" lon="6.19646">
        <ele>1294.3</ele>
        <time>2020-07-21T08:40:26Z</time>
      </trkpt>
      <trkpt lat="46.64047" lon="6.19661">
        <ele>1296.1</ele>
        <time>2020-07-21T08:40:36Z</time>
      </trkpt>
      <trkpt lat="46.64045" lon="6.19668">
        <ele>1296.5</ele>
        <time>2020-07-21T08:40:40Z</time>
      </trkpt>
      <trkpt lat="46.64043" lon="6.19675">
        <ele>1296.9</ele>
        <time>2020-07-21T08:40:44Z</time>
      </trkpt>
      <trkpt lat="46.64041" lon="6.19682">
        <ele>1297</ele>
        <time>2020-07-21T08:40:47Z</time>
      </trkpt>
      <trkpt lat="46.64038" lon="6.19689">
        <ele>1297.2</ele>
        <time>2020-07-21T08:40:53Z</time>
      </trkpt>
      <trkpt lat="46.64027" lon="6.19724">
        <ele>1297.1</ele>
        <time>2020-07-21T08:41:17Z</time>
      </trkpt>
      <trkpt lat="46.64024" lon="6.1973">
        <ele>1297</ele>
        <time>2020-07-21T08:41:23Z</time>
      </trkpt>
      <trkpt lat="46.64023" lon="6.19737">
        <ele>1296.8</ele>
        <time>2020-07-21T08:41:30Z</time>
      </trkpt>
      <trkpt lat="46.64023" lon="6.19744">
        <ele>1296.5</ele>
        <time>2020-07-21T08:41:36Z</time>
      </trkpt>
      <trkpt lat="46.64024" lon="6.19766">
        <ele>1296.5</ele>
        <time>2020-07-21T08:41:51Z</time>
      </trkpt>
      <trkpt lat="46.64026" lon="6.19773">
        <ele>1296.8</ele>
        <time>2020-07-21T08:41:55Z</time>
      </trkpt>
      <trkpt lat="46.6403" lon="6.19807">
        <ele>1302.8</ele>
        <time>2020-07-21T08:42:20Z</time>
      </trkpt>
      <trkpt lat="46.64031" lon="6.19814">
        <ele>1303.9</ele>
        <time>2020-07-21T08:42:27Z</time>
      </trkpt>
      <trkpt lat="46.64031" lon="6.19821">
        <ele>1304.4</ele>
        <time>2020-07-21T08:42:30Z</time>
      </trkpt>
      <trkpt lat="46.64031" lon="6.19828">
        <ele>1304.8</ele>
        <time>2020-07-21T08:42:32Z</time>
      </trkpt>
      <trkpt lat="46.64032" lon="6.19835">
        <ele>1305.2</ele>
        <time>2020-07-21T08:42:35Z</time>
      </trkpt>
      <trkpt lat="46.64033" lon="6.19842">
        <ele>1306.1</ele>
        <time>2020-07-21T08:42:41Z</time>
      </trkpt>
      <trkpt lat="46.64033" lon="6.19849">
        <ele>1306.7</ele>
        <time>2020-07-21T08:42:45Z</time>
      </trkpt>
      <trkpt lat="46.64033" lon="6.19857">
        <ele>1307.3</ele>
        <time>2020-07-21T08:42:50Z</time>
      </trkpt>
      <trkpt lat="46.64032" lon="6.19864">
        <ele>1308</ele>
        <time>2020-07-21T08:42:56Z</time>
      </trkpt>
      <trkpt lat="46.64032" lon="6.19871">
        <ele>1308.4</ele>
        <time>2020-07-21T08:43:02Z</time>
      </trkpt>
      <trkpt lat="46.64033" lon="6.19878">
        <ele>1308.8</ele>
        <time>2020-07-21T08:43:07Z</time>
      </trkpt>
      <trkpt lat="46.64033" lon="6.19886">
        <ele>1309.5</ele>
        <time>2020-07-21T08:43:12Z</time>
      </trkpt>
      <trkpt lat="46.64033" lon="6.19894">
        <ele>1309.7</ele>
        <time>2020-07-21T08:43:17Z</time>
      </trkpt>
      <trkpt lat="46.64033" lon="6.19901">
        <ele>1309.6</ele>
        <time>2020-07-21T08:43:24Z</time>
      </trkpt>
      <trkpt lat="46.64036" lon="6.1991">
        <ele>1309.7</ele>
        <time>2020-07-21T08:43:29Z</time>
      </trkpt>
      <trkpt lat="46.64039" lon="6.19917">
        <ele>1309.7</ele>
        <time>2020-07-21T08:43:32Z</time>
      </trkpt>
      <trkpt lat="46.64048" lon="6.19959">
        <ele>1312.9</ele>
        <time>2020-07-21T08:44:05Z</time>
      </trkpt>
      <trkpt lat="46.64047" lon="6.19966">
        <ele>1312.8</ele>
        <time>2020-07-21T08:44:09Z</time>
      </trkpt>
      <trkpt lat="46.64047" lon="6.19974">
        <ele>1312.8</ele>
        <time>2020-07-21T08:44:13Z</time>
      </trkpt>
      <trkpt lat="46.64045" lon="6.19981">
        <ele>1312.7</ele>
        <time>2020-07-21T08:44:16Z</time>
      </trkpt>
      <trkpt lat="46.64043" lon="6.2001">
        <ele>1312</ele>
        <time>2020-07-21T08:44:37Z</time>
      </trkpt>
      <trkpt lat="46.64042" lon="6.20028">
        <ele>1306.8</ele>
        <time>2020-07-21T08:45:44Z</time>
      </trkpt>
      <trkpt lat="46.64041" lon="6.20035">
        <ele>1306.7</ele>
        <time>2020-07-21T08:45:49Z</time>
      </trkpt>
      <trkpt lat="46.64041" lon="6.20042">
        <ele>1306.7</ele>
        <time>2020-07-21T08:45:51Z</time>
      </trkpt>
      <trkpt lat="46.6404" lon="6.20049">
        <ele>1306.8</ele>
        <time>2020-07-21T08:45:55Z</time>
      </trkpt>
      <trkpt lat="46.64039" lon="6.20056">
        <ele>1307.2</ele>
        <time>2020-07-21T08:46:01Z</time>
      </trkpt>
      <trkpt lat="46.64038" lon="6.20063">
        <ele>1307.5</ele>
        <time>2020-07-21T08:46:06Z</time>
      </trkpt>
      <trkpt lat="46.64036" lon="6.2007">
        <ele>1308.1</ele>
        <time>2020-07-21T08:46:12Z</time>
      </trkpt>
      <trkpt lat="46.64034" lon="6.20077">
        <ele>1308.7</ele>
        <time>2020-07-21T08:46:16Z</time>
      </trkpt>
      <trkpt lat="46.64032" lon="6.20083">
        <ele>1309</ele>
        <time>2020-07-21T08:46:19Z</time>
      </trkpt>
      <trkpt lat="46.6403" lon="6.2009">
        <ele>1309.4</ele>
        <time>2020-07-21T08:46:23Z</time>
      </trkpt>
      <trkpt lat="46.6403" lon="6.20096">
        <ele>1310</ele>
        <time>2020-07-21T08:46:28Z</time>
      </trkpt>
      <trkpt lat="46.64032" lon="6.20103">
        <ele>1310.4</ele>
        <time>2020-07-21T08:46:34Z</time>
      </trkpt>
      <trkpt lat="46.64038" lon="6.20109">
        <ele>1313.3</ele>
        <time>2020-07-21T08:46:47Z</time>
      </trkpt>
      <trkpt lat="46.64042" lon="6.20112">
        <ele>1314.5</ele>
        <time>2020-07-21T08:46:51Z</time>
      </trkpt>
      <trkpt lat="46.64046" lon="6.20117">
        <ele>1316.3</ele>
        <time>2020-07-21T08:46:57Z</time>
      </trkpt>
      <trkpt lat="46.6405" lon="6.20122">
        <ele>1318</ele>
        <time>2020-07-21T08:47:04Z</time>
      </trkpt>
      <trkpt lat="46.64052" lon="6.20129">
        <ele>1319</ele>
        <time>2020-07-21T08:47:10Z</time>
      </trkpt>
      <trkpt lat="46.64054" lon="6.20136">
        <ele>1319.4</ele>
        <time>2020-07-21T08:47:17Z</time>
      </trkpt>
      <trkpt lat="46.6406" lon="6.20142">
        <ele>1321.9</ele>
        <time>2020-07-21T08:48:08Z</time>
      </trkpt>
      <trkpt lat="46.64063" lon="6.20155">
        <ele>1326.8</ele>
        <time>2020-07-21T08:50:15Z</time>
      </trkpt>
      <trkpt lat="46.64065" lon="6.20165">
        <ele>1329.8</ele>
        <time>2020-07-21T08:50:23Z</time>
      </trkpt>
      <trkpt lat="46.64063" lon="6.2019">
        <ele>1330.6</ele>
        <time>2020-07-21T08:50:34Z</time>
      </trkpt>
      <trkpt lat="46.64061" lon="6.20206">
        <ele>1332.9</ele>
        <time>2020-07-21T08:50:50Z</time>
      </trkpt>
      <trkpt lat="46.64061" lon="6.20215">
        <ele>1333.1</ele>
        <time>2020-07-21T08:50:55Z</time>
      </trkpt>
      <trkpt lat="46.64064" lon="6.20244">
        <ele>1333</ele>
        <time>2020-07-21T08:51:06Z</time>
      </trkpt>
      <trkpt lat="46.64066" lon="6.2025">
        <ele>1333</ele>
        <time>2020-07-21T08:51:09Z</time>
      </trkpt>
      <trkpt lat="46.64064" lon="6.20257">
        <ele>1333.1</ele>
        <time>2020-07-21T08:51:13Z</time>
      </trkpt>
      <trkpt lat="46.6406" lon="6.20263">
        <ele>1333.4</ele>
        <time>2020-07-21T08:51:19Z</time>
      </trkpt>
      <trkpt lat="46.64057" lon="6.20268">
        <ele>1333.5</ele>
        <time>2020-07-21T08:51:23Z</time>
      </trkpt>
      <trkpt lat="46.6405" lon="6.20276">
        <ele>1333.3</ele>
        <time>2020-07-21T08:51:34Z</time>
      </trkpt>
      <trkpt lat="46.64046" lon="6.20278">
        <ele>1333.2</ele>
        <time>2020-07-21T08:51:44Z</time>
      </trkpt>
      <trkpt lat="46.64041" lon="6.2028">
        <ele>1333.1</ele>
        <time>2020-07-21T08:51:50Z</time>
      </trkpt>
      <trkpt lat="46.64036" lon="6.20282">
        <ele>1332.9</ele>
        <time>2020-07-21T08:51:55Z</time>
      </trkpt>
      <trkpt lat="46.64031" lon="6.20286">
        <ele>1332.5</ele>
        <time>2020-07-21T08:52:01Z</time>
      </trkpt>
      <trkpt lat="46.64028" lon="6.20291">
        <ele>1332.4</ele>
        <time>2020-07-21T08:52:04Z</time>
      </trkpt>
      <trkpt lat="46.64024" lon="6.20296">
        <ele>1332.8</ele>
        <time>2020-07-21T08:52:12Z</time>
      </trkpt>
      <trkpt lat="46.64008" lon="6.20322">
        <ele>1334.1</ele>
        <time>2020-07-21T08:52:40Z</time>
      </trkpt>
      <trkpt lat="46.64003" lon="6.20328">
        <ele>1333.8</ele>
        <time>2020-07-21T08:52:43Z</time>
      </trkpt>
      <trkpt lat="46.63992" lon="6.20343">
        <ele>1333.6</ele>
        <time>2020-07-21T08:52:55Z</time>
      </trkpt>
      <trkpt lat="46.63993" lon="6.2035">
        <ele>1334</ele>
        <time>2020-07-21T08:53:00Z</time>
      </trkpt>
      <trkpt lat="46.63984" lon="6.20365">
        <ele>1335</ele>
        <time>2020-07-21T08:53:12Z</time>
      </trkpt>
      <trkpt lat="46.6398" lon="6.2037">
        <ele>1334.9</ele>
        <time>2020-07-21T08:53:14Z</time>
      </trkpt>
      <trkpt lat="46.63974" lon="6.20376">
        <ele>1334.9</ele>
        <time>2020-07-21T08:53:16Z</time>
      </trkpt>
      <trkpt lat="46.6397" lon="6.20382">
        <ele>1334.8</ele>
        <time>2020-07-21T08:53:18Z</time>
      </trkpt>
      <trkpt lat="46.63966" lon="6.20387">
        <ele>1334.7</ele>
        <time>2020-07-21T08:53:20Z</time>
      </trkpt>
      <trkpt lat="46.63963" lon="6.20392">
        <ele>1334.3</ele>
        <time>2020-07-21T08:53:25Z</time>
      </trkpt>
      <trkpt lat="46.63961" lon="6.20399">
        <ele>1334.3</ele>
        <time>2020-07-21T08:53:32Z</time>
      </trkpt>
      <trkpt lat="46.6396" lon="6.20405">
        <ele>1334.9</ele>
        <time>2020-07-21T08:53:40Z</time>
      </trkpt>
      <trkpt lat="46.63959" lon="6.20413">
        <ele>1335.7</ele>
        <time>2020-07-21T08:53:52Z</time>
      </trkpt>
      <trkpt lat="46.63958" lon="6.2042">
        <ele>1335.9</ele>
        <time>2020-07-21T08:53:59Z</time>
      </trkpt>
      <trkpt lat="46.63959" lon="6.20427">
        <ele>1335.7</ele>
        <time>2020-07-21T08:54:06Z</time>
      </trkpt>
      <trkpt lat="46.6396" lon="6.20433">
        <ele>1335.4</ele>
        <time>2020-07-21T08:54:12Z</time>
      </trkpt>
      <trkpt lat="46.63958" lon="6.2044">
        <ele>1335.1</ele>
        <time>2020-07-21T08:54:17Z</time>
      </trkpt>
      <trkpt lat="46.63957" lon="6.20447">
        <ele>1334.6</ele>
        <time>2020-07-21T08:54:23Z</time>
      </trkpt>
      <trkpt lat="46.63956" lon="6.20453">
        <ele>1334</ele>
        <time>2020-07-21T08:54:30Z</time>
      </trkpt>
      <trkpt lat="46.63954" lon="6.2046">
        <ele>1333.5</ele>
        <time>2020-07-21T08:54:35Z</time>
      </trkpt>
      <trkpt lat="46.63951" lon="6.20465">
        <ele>1333.3</ele>
        <time>2020-07-21T08:54:39Z</time>
      </trkpt>
      <trkpt lat="46.6395" lon="6.20473">
        <ele>1333.2</ele>
        <time>2020-07-21T08:54:46Z</time>
      </trkpt>
      <trkpt lat="46.63946" lon="6.20478">
        <ele>1333.1</ele>
        <time>2020-07-21T08:54:49Z</time>
      </trkpt>
      <trkpt lat="46.63942" lon="6.20484">
        <ele>1333.1</ele>
        <time>2020-07-21T08:54:54Z</time>
      </trkpt>
      <trkpt lat="46.63938" lon="6.20502">
        <ele>1333.8</ele>
        <time>2020-07-21T08:55:10Z</time>
      </trkpt>
      <trkpt lat="46.63938" lon="6.20525">
        <ele>1334.3</ele>
        <time>2020-07-21T08:55:26Z</time>
      </trkpt>
      <trkpt lat="46.63938" lon="6.20532">
        <ele>1334.7</ele>
        <time>2020-07-21T08:55:31Z</time>
      </trkpt>
      <trkpt lat="46.63934" lon="6.2054">
        <ele>1335</ele>
        <time>2020-07-21T08:55:33Z</time>
      </trkpt>
      <trkpt lat="46.63933" lon="6.20548">
        <ele>1335.3</ele>
        <time>2020-07-21T08:55:35Z</time>
      </trkpt>
      <trkpt lat="46.63929" lon="6.20565">
        <ele>1337.9</ele>
        <time>2020-07-21T08:55:49Z</time>
      </trkpt>
      <trkpt lat="46.63926" lon="6.2057">
        <ele>1338.4</ele>
        <time>2020-07-21T08:55:52Z</time>
      </trkpt>
      <trkpt lat="46.63924" lon="6.20577">
        <ele>1339</ele>
        <time>2020-07-21T08:55:55Z</time>
      </trkpt>
      <trkpt lat="46.63922" lon="6.20583">
        <ele>1339.7</ele>
        <time>2020-07-21T08:55:59Z</time>
      </trkpt>
      <trkpt lat="46.6392" lon="6.2059">
        <ele>1340.3</ele>
        <time>2020-07-21T08:56:03Z</time>
      </trkpt>
      <trkpt lat="46.63919" lon="6.20598">
        <ele>1340.7</ele>
        <time>2020-07-21T08:56:08Z</time>
      </trkpt>
      <trkpt lat="46.6392" lon="6.20604">
        <ele>1340.6</ele>
        <time>2020-07-21T08:56:13Z</time>
      </trkpt>
      <trkpt lat="46.63921" lon="6.20612">
        <ele>1339.9</ele>
        <time>2020-07-21T08:56:19Z</time>
      </trkpt>
      <trkpt lat="46.63922" lon="6.20618">
        <ele>1339</ele>
        <time>2020-07-21T08:56:24Z</time>
      </trkpt>
      <trkpt lat="46.63923" lon="6.20625">
        <ele>1337.8</ele>
        <time>2020-07-21T08:56:30Z</time>
      </trkpt>
      <trkpt lat="46.63921" lon="6.20631">
        <ele>1337.1</ele>
        <time>2020-07-21T08:56:34Z</time>
      </trkpt>
      <trkpt lat="46.63921" lon="6.2065">
        <ele>1335.9</ele>
        <time>2020-07-21T08:56:51Z</time>
      </trkpt>
      <trkpt lat="46.63922" lon="6.20658">
        <ele>1336.1</ele>
        <time>2020-07-21T08:56:58Z</time>
      </trkpt>
      <trkpt lat="46.63922" lon="6.20665">
        <ele>1336.1</ele>
        <time>2020-07-21T08:57:03Z</time>
      </trkpt>
      <trkpt lat="46.63922" lon="6.20673">
        <ele>1336.7</ele>
        <time>2020-07-21T08:57:12Z</time>
      </trkpt>
      <trkpt lat="46.63923" lon="6.20681">
        <ele>1338.2</ele>
        <time>2020-07-21T08:57:20Z</time>
      </trkpt>
      <trkpt lat="46.63925" lon="6.20687">
        <ele>1338.7</ele>
        <time>2020-07-21T08:57:23Z</time>
      </trkpt>
      <trkpt lat="46.63925" lon="6.20713">
        <ele>1341.2</ele>
        <time>2020-07-21T08:57:34Z</time>
      </trkpt>
      <trkpt lat="46.63925" lon="6.2072">
        <ele>1341.8</ele>
        <time>2020-07-21T08:57:39Z</time>
      </trkpt>
      <trkpt lat="46.63924" lon="6.2073">
        <ele>1344.3</ele>
        <time>2020-07-21T08:57:59Z</time>
      </trkpt>
      <trkpt lat="46.63921" lon="6.20737">
        <ele>1345.4</ele>
        <time>2020-07-21T08:58:05Z</time>
      </trkpt>
      <trkpt lat="46.63918" lon="6.20744">
        <ele>1345.8</ele>
        <time>2020-07-21T08:58:07Z</time>
      </trkpt>
      <trkpt lat="46.63914" lon="6.20764">
        <ele>1348.2</ele>
        <time>2020-07-21T08:58:22Z</time>
      </trkpt>
      <trkpt lat="46.63913" lon="6.20774">
        <ele>1348.5</ele>
        <time>2020-07-21T08:58:24Z</time>
      </trkpt>
      <trkpt lat="46.63912" lon="6.20782">
        <ele>1349</ele>
        <time>2020-07-21T08:58:27Z</time>
      </trkpt>
      <trkpt lat="46.63911" lon="6.20789">
        <ele>1349.9</ele>
        <time>2020-07-21T08:58:31Z</time>
      </trkpt>
      <trkpt lat="46.63911" lon="6.20796">
        <ele>1351</ele>
        <time>2020-07-21T08:58:36Z</time>
      </trkpt>
      <trkpt lat="46.63908" lon="6.20803">
        <ele>1352.1</ele>
        <time>2020-07-21T08:58:43Z</time>
      </trkpt>
      <trkpt lat="46.63906" lon="6.2081">
        <ele>1352.6</ele>
        <time>2020-07-21T08:58:47Z</time>
      </trkpt>
      <trkpt lat="46.63903" lon="6.20817">
        <ele>1353.4</ele>
        <time>2020-07-21T08:58:53Z</time>
      </trkpt>
      <trkpt lat="46.63902" lon="6.20826">
        <ele>1353.6</ele>
        <time>2020-07-21T08:58:57Z</time>
      </trkpt>
      <trkpt lat="46.63902" lon="6.20833">
        <ele>1353.8</ele>
        <time>2020-07-21T08:59:02Z</time>
      </trkpt>
      <trkpt lat="46.639" lon="6.20839">
        <ele>1353.7</ele>
        <time>2020-07-21T08:59:09Z</time>
      </trkpt>
      <trkpt lat="46.63899" lon="6.20845">
        <ele>1352.9</ele>
        <time>2020-07-21T08:59:16Z</time>
      </trkpt>
      <trkpt lat="46.63898" lon="6.20851">
        <ele>1351.7</ele>
        <time>2020-07-21T08:59:22Z</time>
      </trkpt>
      <trkpt lat="46.63896" lon="6.20859">
        <ele>1350.7</ele>
        <time>2020-07-21T08:59:27Z</time>
      </trkpt>
      <trkpt lat="46.6389" lon="6.20876">
        <ele>1350.5</ele>
        <time>2020-07-21T08:59:46Z</time>
      </trkpt>
      <trkpt lat="46.63887" lon="6.20885">
        <ele>1351</ele>
        <time>2020-07-21T08:59:51Z</time>
      </trkpt>
      <trkpt lat="46.63883" lon="6.2089">
        <ele>1351.4</ele>
        <time>2020-07-21T08:59:54Z</time>
      </trkpt>
      <trkpt lat="46.63874" lon="6.20911">
        <ele>1353.4</ele>
        <time>2020-07-21T09:00:07Z</time>
      </trkpt>
      <trkpt lat="46.63878" lon="6.20938">
        <ele>1354.7</ele>
        <time>2020-07-21T09:00:35Z</time>
      </trkpt>
      <trkpt lat="46.63878" lon="6.20946">
        <ele>1354.6</ele>
        <time>2020-07-21T09:00:37Z</time>
      </trkpt>
      <trkpt lat="46.63879" lon="6.20953">
        <ele>1354.6</ele>
        <time>2020-07-21T09:00:40Z</time>
      </trkpt>
      <trkpt lat="46.6388" lon="6.20962">
        <ele>1354.6</ele>
        <time>2020-07-21T09:00:42Z</time>
      </trkpt>
      <trkpt lat="46.63881" lon="6.20969">
        <ele>1354.5</ele>
        <time>2020-07-21T09:00:45Z</time>
      </trkpt>
      <trkpt lat="46.63882" lon="6.21015">
        <ele>1353.9</ele>
        <time>2020-07-21T09:01:10Z</time>
      </trkpt>
      <trkpt lat="46.63879" lon="6.21021">
        <ele>1354</ele>
        <time>2020-07-21T09:01:16Z</time>
      </trkpt>
      <trkpt lat="46.63881" lon="6.2104">
        <ele>1355.9</ele>
        <time>2020-07-21T09:01:33Z</time>
      </trkpt>
      <trkpt lat="46.63885" lon="6.21061">
        <ele>1356</ele>
        <time>2020-07-21T09:01:51Z</time>
      </trkpt>
      <trkpt lat="46.63883" lon="6.21068">
        <ele>1356.4</ele>
        <time>2020-07-21T09:01:59Z</time>
      </trkpt>
      <trkpt lat="46.63869" lon="6.2108">
        <ele>1356.8</ele>
        <time>2020-07-21T09:02:13Z</time>
      </trkpt>
      <trkpt lat="46.63862" lon="6.21081">
        <ele>1355.9</ele>
        <time>2020-07-21T09:02:23Z</time>
      </trkpt>
      <trkpt lat="46.63853" lon="6.21085">
        <ele>1352.9</ele>
        <time>2020-07-21T09:02:39Z</time>
      </trkpt>
      <trkpt lat="46.63838" lon="6.2109">
        <ele>1351</ele>
        <time>2020-07-21T09:02:49Z</time>
      </trkpt>
      <trkpt lat="46.63833" lon="6.21091">
        <ele>1351</ele>
        <time>2020-07-21T09:02:54Z</time>
      </trkpt>
      <trkpt lat="46.63827" lon="6.21093">
        <ele>1351.1</ele>
        <time>2020-07-21T09:02:56Z</time>
      </trkpt>
      <trkpt lat="46.63822" lon="6.21095">
        <ele>1351.1</ele>
        <time>2020-07-21T09:02:58Z</time>
      </trkpt>
      <trkpt lat="46.63799" lon="6.21103">
        <ele>1364.9</ele>
        <time>2020-07-21T09:07:33Z</time>
      </trkpt>
      <trkpt lat="46.63794" lon="6.21106">
        <ele>1365.2</ele>
        <time>2020-07-21T09:07:36Z</time>
      </trkpt>
      <trkpt lat="46.6379" lon="6.21111">
        <ele>1365.2</ele>
        <time>2020-07-21T09:07:39Z</time>
      </trkpt>
      <trkpt lat="46.63786" lon="6.21115">
        <ele>1365.1</ele>
        <time>2020-07-21T09:07:43Z</time>
      </trkpt>
      <trkpt lat="46.63781" lon="6.21117">
        <ele>1364.7</ele>
        <time>2020-07-21T09:07:48Z</time>
      </trkpt>
      <trkpt lat="46.63777" lon="6.21118">
        <ele>1364.3</ele>
        <time>2020-07-21T09:08:00Z</time>
      </trkpt>
      <trkpt lat="46.63786" lon="6.21136">
        <ele>1365.7</ele>
        <time>2020-07-21T09:08:43Z</time>
      </trkpt>
      <trkpt lat="46.63791" lon="6.21141">
        <ele>1364.8</ele>
        <time>2020-07-21T09:08:48Z</time>
      </trkpt>
      <trkpt lat="46.63796" lon="6.21147">
        <ele>1363.9</ele>
        <time>2020-07-21T09:08:53Z</time>
      </trkpt>
      <trkpt lat="46.638" lon="6.21152">
        <ele>1363.3</ele>
        <time>2020-07-21T09:08:57Z</time>
      </trkpt>
      <trkpt lat="46.63805" lon="6.21157">
        <ele>1362.7</ele>
        <time>2020-07-21T09:09:02Z</time>
      </trkpt>
      <trkpt lat="46.63809" lon="6.2116">
        <ele>1362</ele>
        <time>2020-07-21T09:09:08Z</time>
      </trkpt>
      <trkpt lat="46.63814" lon="6.21163">
        <ele>1361.2</ele>
        <time>2020-07-21T09:09:14Z</time>
      </trkpt>
      <trkpt lat="46.63818" lon="6.21166">
        <ele>1360.3</ele>
        <time>2020-07-21T09:09:20Z</time>
      </trkpt>
      <trkpt lat="46.63822" lon="6.21171">
        <ele>1359.1</ele>
        <time>2020-07-21T09:09:27Z</time>
      </trkpt>
      <trkpt lat="46.63824" lon="6.21178">
        <ele>1358.2</ele>
        <time>2020-07-21T09:09:31Z</time>
      </trkpt>
      <trkpt lat="46.63828" lon="6.21183">
        <ele>1357</ele>
        <time>2020-07-21T09:09:36Z</time>
      </trkpt>
      <trkpt lat="46.63831" lon="6.21187">
        <ele>1356.2</ele>
        <time>2020-07-21T09:09:40Z</time>
      </trkpt>
      <trkpt lat="46.63836" lon="6.21191">
        <ele>1355.3</ele>
        <time>2020-07-21T09:09:46Z</time>
      </trkpt>
      <trkpt lat="46.6384" lon="6.21195">
        <ele>1354.7</ele>
        <time>2020-07-21T09:09:50Z</time>
      </trkpt>
      <trkpt lat="46.63845" lon="6.21198">
        <ele>1354.4</ele>
        <time>2020-07-21T09:09:53Z</time>
      </trkpt>
      <trkpt lat="46.63849" lon="6.21202">
        <ele>1353.7</ele>
        <time>2020-07-21T09:10:00Z</time>
      </trkpt>
      <trkpt lat="46.63853" lon="6.21207">
        <ele>1353.4</ele>
        <time>2020-07-21T09:10:06Z</time>
      </trkpt>
      <trkpt lat="46.63857" lon="6.2121">
        <ele>1352.6</ele>
        <time>2020-07-21T09:10:14Z</time>
      </trkpt>
      <trkpt lat="46.63862" lon="6.21213">
        <ele>1352.3</ele>
        <time>2020-07-21T09:10:21Z</time>
      </trkpt>
      <trkpt lat="46.63867" lon="6.21212">
        <ele>1352</ele>
        <time>2020-07-21T09:10:27Z</time>
      </trkpt>
      <trkpt lat="46.63872" lon="6.21212">
        <ele>1351.8</ele>
        <time>2020-07-21T09:10:31Z</time>
      </trkpt>
      <trkpt lat="46.63877" lon="6.21212">
        <ele>1351.7</ele>
        <time>2020-07-21T09:10:35Z</time>
      </trkpt>
      <trkpt lat="46.63882" lon="6.21211">
        <ele>1351.4</ele>
        <time>2020-07-21T09:10:45Z</time>
      </trkpt>
      <trkpt lat="46.63886" lon="6.21211">
        <ele>1351.1</ele>
        <time>2020-07-21T09:10:50Z</time>
      </trkpt>
      <trkpt lat="46.63891" lon="6.21208">
        <ele>1350.7</ele>
        <time>2020-07-21T09:10:56Z</time>
      </trkpt>
      <trkpt lat="46.63902" lon="6.21207">
        <ele>1349.3</ele>
        <time>2020-07-21T09:11:08Z</time>
      </trkpt>
      <trkpt lat="46.63908" lon="6.21208">
        <ele>1349.1</ele>
        <time>2020-07-21T09:11:12Z</time>
      </trkpt>
      <trkpt lat="46.63915" lon="6.2121">
        <ele>1348.8</ele>
        <time>2020-07-21T09:11:15Z</time>
      </trkpt>
      <trkpt lat="46.6392" lon="6.21211">
        <ele>1348.5</ele>
        <time>2020-07-21T09:11:18Z</time>
      </trkpt>
      <trkpt lat="46.63924" lon="6.21214">
        <ele>1348.3</ele>
        <time>2020-07-21T09:11:20Z</time>
      </trkpt>
      <trkpt lat="46.63928" lon="6.21219">
        <ele>1347.9</ele>
        <time>2020-07-21T09:11:25Z</time>
      </trkpt>
      <trkpt lat="46.63932" lon="6.21224">
        <ele>1347.5</ele>
        <time>2020-07-21T09:11:32Z</time>
      </trkpt>
      <trkpt lat="46.63935" lon="6.21229">
        <ele>1347.5</ele>
        <time>2020-07-21T09:11:35Z</time>
      </trkpt>
      <trkpt lat="46.63938" lon="6.21235">
        <ele>1347.4</ele>
        <time>2020-07-21T09:11:38Z</time>
      </trkpt>
      <trkpt lat="46.63941" lon="6.21241">
        <ele>1347.4</ele>
        <time>2020-07-21T09:11:42Z</time>
      </trkpt>
      <trkpt lat="46.63944" lon="6.21247">
        <ele>1347.1</ele>
        <time>2020-07-21T09:11:46Z</time>
      </trkpt>
      <trkpt lat="46.63948" lon="6.21251">
        <ele>1346.7</ele>
        <time>2020-07-21T09:11:53Z</time>
      </trkpt>
      <trkpt lat="46.63952" lon="6.21255">
        <ele>1346.4</ele>
        <time>2020-07-21T09:12:01Z</time>
      </trkpt>
      <trkpt lat="46.63956" lon="6.2126">
        <ele>1346.3</ele>
        <time>2020-07-21T09:12:05Z</time>
      </trkpt>
      <trkpt lat="46.63967" lon="6.21277">
        <ele>1346.5</ele>
        <time>2020-07-21T09:12:23Z</time>
      </trkpt>
      <trkpt lat="46.6397" lon="6.21282">
        <ele>1346.8</ele>
        <time>2020-07-21T09:12:29Z</time>
      </trkpt>
      <trkpt lat="46.63974" lon="6.21288">
        <ele>1347</ele>
        <time>2020-07-21T09:12:34Z</time>
      </trkpt>
      <trkpt lat="46.63976" lon="6.21294">
        <ele>1347.2</ele>
        <time>2020-07-21T09:12:38Z</time>
      </trkpt>
      <trkpt lat="46.63979" lon="6.21301">
        <ele>1347.3</ele>
        <time>2020-07-21T09:12:43Z</time>
      </trkpt>
      <trkpt lat="46.63981" lon="6.21307">
        <ele>1347.1</ele>
        <time>2020-07-21T09:12:47Z</time>
      </trkpt>
      <trkpt lat="46.63982" lon="6.21315">
        <ele>1346.9</ele>
        <time>2020-07-21T09:12:52Z</time>
      </trkpt>
      <trkpt lat="46.63983" lon="6.21322">
        <ele>1346.7</ele>
        <time>2020-07-21T09:12:57Z</time>
      </trkpt>
      <trkpt lat="46.63983" lon="6.21329">
        <ele>1346.8</ele>
        <time>2020-07-21T09:13:08Z</time>
      </trkpt>
      <trkpt lat="46.63984" lon="6.21336">
        <ele>1346.8</ele>
        <time>2020-07-21T09:13:14Z</time>
      </trkpt>
      <trkpt lat="46.63985" lon="6.21343">
        <ele>1346.8</ele>
        <time>2020-07-21T09:13:20Z</time>
      </trkpt>
      <trkpt lat="46.63988" lon="6.21349">
        <ele>1346.7</ele>
        <time>2020-07-21T09:13:24Z</time>
      </trkpt>
      <trkpt lat="46.63991" lon="6.21355">
        <ele>1346.6</ele>
        <time>2020-07-21T09:13:28Z</time>
      </trkpt>
      <trkpt lat="46.63992" lon="6.21362">
        <ele>1346.4</ele>
        <time>2020-07-21T09:13:35Z</time>
      </trkpt>
      <trkpt lat="46.63998" lon="6.21361">
        <ele>1346.3</ele>
        <time>2020-07-21T09:13:42Z</time>
      </trkpt>
      <trkpt lat="46.64002" lon="6.21358">
        <ele>1346.2</ele>
        <time>2020-07-21T09:13:46Z</time>
      </trkpt>
      <trkpt lat="46.64007" lon="6.21357">
        <ele>1346</ele>
        <time>2020-07-21T09:13:53Z</time>
      </trkpt>
      <trkpt lat="46.64014" lon="6.21357">
        <ele>1345.2</ele>
        <time>2020-07-21T09:14:07Z</time>
      </trkpt>
      <trkpt lat="46.64018" lon="6.21354">
        <ele>1344.4</ele>
        <time>2020-07-21T09:14:22Z</time>
      </trkpt>
      <trkpt lat="46.64023" lon="6.21356">
        <ele>1344.2</ele>
        <time>2020-07-21T09:14:26Z</time>
      </trkpt>
      <trkpt lat="46.64026" lon="6.2135">
        <ele>1344</ele>
        <time>2020-07-21T09:14:35Z</time>
      </trkpt>
      <trkpt lat="46.6403" lon="6.21346">
        <ele>1343.9</ele>
        <time>2020-07-21T09:14:43Z</time>
      </trkpt>
      <trkpt lat="46.64036" lon="6.21347">
        <ele>1344.2</ele>
        <time>2020-07-21T09:14:50Z</time>
      </trkpt>
      <trkpt lat="46.64042" lon="6.2135">
        <ele>1344.3</ele>
        <time>2020-07-21T09:14:54Z</time>
      </trkpt>
      <trkpt lat="46.64047" lon="6.21352">
        <ele>1344.6</ele>
        <time>2020-07-21T09:14:58Z</time>
      </trkpt>
      <trkpt lat="46.64057" lon="6.21362">
        <ele>1348.1</ele>
        <time>2020-07-21T09:15:14Z</time>
      </trkpt>
      <trkpt lat="46.6406" lon="6.21368">
        <ele>1349.9</ele>
        <time>2020-07-21T09:15:22Z</time>
      </trkpt>
      <trkpt lat="46.64061" lon="6.21374">
        <ele>1351</ele>
        <time>2020-07-21T09:15:28Z</time>
      </trkpt>
      <trkpt lat="46.64063" lon="6.21381">
        <ele>1352</ele>
        <time>2020-07-21T09:15:35Z</time>
      </trkpt>
      <trkpt lat="46.64064" lon="6.21388">
        <ele>1352.6</ele>
        <time>2020-07-21T09:15:39Z</time>
      </trkpt>
      <trkpt lat="46.64065" lon="6.21395">
        <ele>1353.8</ele>
        <time>2020-07-21T09:15:45Z</time>
      </trkpt>
      <trkpt lat="46.64066" lon="6.21402">
        <ele>1354.7</ele>
        <time>2020-07-21T09:15:50Z</time>
      </trkpt>
      <trkpt lat="46.64068" lon="6.21409">
        <ele>1355.5</ele>
        <time>2020-07-21T09:15:55Z</time>
      </trkpt>
      <trkpt lat="46.6407" lon="6.21415">
        <ele>1356.3</ele>
        <time>2020-07-21T09:16:00Z</time>
      </trkpt>
      <trkpt lat="46.64073" lon="6.21422">
        <ele>1356.8</ele>
        <time>2020-07-21T09:16:07Z</time>
      </trkpt>
      <trkpt lat="46.64077" lon="6.21426">
        <ele>1357.1</ele>
        <time>2020-07-21T09:16:11Z</time>
      </trkpt>
      <trkpt lat="46.64081" lon="6.2143">
        <ele>1357.4</ele>
        <time>2020-07-21T09:16:15Z</time>
      </trkpt>
      <trkpt lat="46.64083" lon="6.21437">
        <ele>1357.8</ele>
        <time>2020-07-21T09:16:20Z</time>
      </trkpt>
      <trkpt lat="46.64085" lon="6.21443">
        <ele>1357.9</ele>
        <time>2020-07-21T09:16:24Z</time>
      </trkpt>
      <trkpt lat="46.64087" lon="6.21449">
        <ele>1357.9</ele>
        <time>2020-07-21T09:16:27Z</time>
      </trkpt>
      <trkpt lat="46.6409" lon="6.21454">
        <ele>1357.8</ele>
        <time>2020-07-21T09:16:30Z</time>
      </trkpt>
      <trkpt lat="46.64092" lon="6.21461">
        <ele>1357.6</ele>
        <time>2020-07-21T09:16:34Z</time>
      </trkpt>
      <trkpt lat="46.64093" lon="6.21468">
        <ele>1357.2</ele>
        <time>2020-07-21T09:16:40Z</time>
      </trkpt>
      <trkpt lat="46.64094" lon="6.21476">
        <ele>1356.7</ele>
        <time>2020-07-21T09:16:47Z</time>
      </trkpt>
      <trkpt lat="46.64096" lon="6.21483">
        <ele>1356.4</ele>
        <time>2020-07-21T09:16:51Z</time>
      </trkpt>
      <trkpt lat="46.64097" lon="6.2149">
        <ele>1356.2</ele>
        <time>2020-07-21T09:16:56Z</time>
      </trkpt>
      <trkpt lat="46.64101" lon="6.21496">
        <ele>1356.3</ele>
        <time>2020-07-21T09:17:02Z</time>
      </trkpt>
      <trkpt lat="46.64102" lon="6.21502">
        <ele>1356.8</ele>
        <time>2020-07-21T09:17:08Z</time>
      </trkpt>
      <trkpt lat="46.64104" lon="6.21509">
        <ele>1357.2</ele>
        <time>2020-07-21T09:17:11Z</time>
      </trkpt>
      <trkpt lat="46.64107" lon="6.21515">
        <ele>1357.5</ele>
        <time>2020-07-21T09:17:15Z</time>
      </trkpt>
      <trkpt lat="46.64108" lon="6.21522">
        <ele>1357.7</ele>
        <time>2020-07-21T09:17:20Z</time>
      </trkpt>
      <trkpt lat="46.64113" lon="6.21546">
        <ele>1357.6</ele>
        <time>2020-07-21T09:17:49Z</time>
      </trkpt>
      <trkpt lat="46.64115" lon="6.21552">
        <ele>1357.8</ele>
        <time>2020-07-21T09:17:52Z</time>
      </trkpt>
      <trkpt lat="46.64117" lon="6.21573">
        <ele>1358.3</ele>
        <time>2020-07-21T09:18:04Z</time>
      </trkpt>
      <trkpt lat="46.64116" lon="6.21595">
        <ele>1360.3</ele>
        <time>2020-07-21T09:18:25Z</time>
      </trkpt>
      <trkpt lat="46.64115" lon="6.21601">
        <ele>1361.1</ele>
        <time>2020-07-21T09:18:32Z</time>
      </trkpt>
      <trkpt lat="46.64116" lon="6.21609">
        <ele>1362.4</ele>
        <time>2020-07-21T09:18:38Z</time>
      </trkpt>
      <trkpt lat="46.64117" lon="6.21616">
        <ele>1363.5</ele>
        <time>2020-07-21T09:18:43Z</time>
      </trkpt>
      <trkpt lat="46.64117" lon="6.21623">
        <ele>1364.4</ele>
        <time>2020-07-21T09:18:47Z</time>
      </trkpt>
      <trkpt lat="46.64117" lon="6.21629">
        <ele>1365</ele>
        <time>2020-07-21T09:18:50Z</time>
      </trkpt>
      <trkpt lat="46.64119" lon="6.21636">
        <ele>1365.7</ele>
        <time>2020-07-21T09:18:55Z</time>
      </trkpt>
      <trkpt lat="46.64121" lon="6.21642">
        <ele>1366.5</ele>
        <time>2020-07-21T09:19:02Z</time>
      </trkpt>
      <trkpt lat="46.64123" lon="6.21648">
        <ele>1366.8</ele>
        <time>2020-07-21T09:19:07Z</time>
      </trkpt>
      <trkpt lat="46.64125" lon="6.21655">
        <ele>1367.1</ele>
        <time>2020-07-21T09:19:12Z</time>
      </trkpt>
      <trkpt lat="46.64127" lon="6.21662">
        <ele>1367.4</ele>
        <time>2020-07-21T09:19:18Z</time>
      </trkpt>
      <trkpt lat="46.6413" lon="6.21669">
        <ele>1367.8</ele>
        <time>2020-07-21T09:19:24Z</time>
      </trkpt>
      <trkpt lat="46.64131" lon="6.21676">
        <ele>1368.9</ele>
        <time>2020-07-21T09:19:33Z</time>
      </trkpt>
      <trkpt lat="46.64139" lon="6.21706">
        <ele>1371.1</ele>
        <time>2020-07-21T09:19:58Z</time>
      </trkpt>
      <trkpt lat="46.64144" lon="6.21722">
        <ele>1372</ele>
        <time>2020-07-21T09:20:11Z</time>
      </trkpt>
      <trkpt lat="46.64146" lon="6.21729">
        <ele>1371.7</ele>
        <time>2020-07-21T09:20:18Z</time>
      </trkpt>
      <trkpt lat="46.64149" lon="6.21734">
        <ele>1371.5</ele>
        <time>2020-07-21T09:20:21Z</time>
      </trkpt>
      <trkpt lat="46.64151" lon="6.21741">
        <ele>1371</ele>
        <time>2020-07-21T09:20:27Z</time>
      </trkpt>
      <trkpt lat="46.64153" lon="6.21747">
        <ele>1370.2</ele>
        <time>2020-07-21T09:20:33Z</time>
      </trkpt>
      <trkpt lat="46.64156" lon="6.21753">
        <ele>1369</ele>
        <time>2020-07-21T09:20:39Z</time>
      </trkpt>
      <trkpt lat="46.64176" lon="6.21782">
        <ele>1378.4</ele>
        <time>2020-07-21T09:26:34Z</time>
      </trkpt>
      <trkpt lat="46.6418" lon="6.21786">
        <ele>1377.9</ele>
        <time>2020-07-21T09:26:37Z</time>
      </trkpt>
      <trkpt lat="46.64184" lon="6.21791">
        <ele>1377.1</ele>
        <time>2020-07-21T09:26:43Z</time>
      </trkpt>
      <trkpt lat="46.64193" lon="6.21799">
        <ele>1376</ele>
        <time>2020-07-21T09:26:53Z</time>
      </trkpt>
      <trkpt lat="46.64197" lon="6.21803">
        <ele>1375.8</ele>
        <time>2020-07-21T09:27:03Z</time>
      </trkpt>
      <trkpt lat="46.64201" lon="6.21807">
        <ele>1375.9</ele>
        <time>2020-07-21T09:27:15Z</time>
      </trkpt>
      <trkpt lat="46.64206" lon="6.21806">
        <ele>1375.9</ele>
        <time>2020-07-21T09:27:21Z</time>
      </trkpt>
      <trkpt lat="46.64211" lon="6.21805">
        <ele>1375.5</ele>
        <time>2020-07-21T09:27:31Z</time>
      </trkpt>
      <trkpt lat="46.64216" lon="6.21808">
        <ele>1375.3</ele>
        <time>2020-07-21T09:27:35Z</time>
      </trkpt>
      <trkpt lat="46.64228" lon="6.21808">
        <ele>1374.5</ele>
        <time>2020-07-21T09:27:47Z</time>
      </trkpt>
      <trkpt lat="46.64233" lon="6.21809">
        <ele>1374.3</ele>
        <time>2020-07-21T09:27:51Z</time>
      </trkpt>
      <trkpt lat="46.64237" lon="6.21812">
        <ele>1373.8</ele>
        <time>2020-07-21T09:27:57Z</time>
      </trkpt>
      <trkpt lat="46.64241" lon="6.21818">
        <ele>1373.5</ele>
        <time>2020-07-21T09:27:59Z</time>
      </trkpt>
      <trkpt lat="46.64244" lon="6.21823">
        <ele>1372.9</ele>
        <time>2020-07-21T09:28:04Z</time>
      </trkpt>
      <trkpt lat="46.64249" lon="6.21828">
        <ele>1372.7</ele>
        <time>2020-07-21T09:28:06Z</time>
      </trkpt>
      <trkpt lat="46.64253" lon="6.21832">
        <ele>1372.3</ele>
        <time>2020-07-21T09:28:10Z</time>
      </trkpt>
      <trkpt lat="46.64257" lon="6.21835">
        <ele>1371.9</ele>
        <time>2020-07-21T09:28:16Z</time>
      </trkpt>
      <trkpt lat="46.64262" lon="6.21836">
        <ele>1371.6</ele>
        <time>2020-07-21T09:28:19Z</time>
      </trkpt>
      <trkpt lat="46.64266" lon="6.21837">
        <ele>1371</ele>
        <time>2020-07-21T09:28:25Z</time>
      </trkpt>
      <trkpt lat="46.64278" lon="6.21847">
        <ele>1368.1</ele>
        <time>2020-07-21T09:28:44Z</time>
      </trkpt>
      <trkpt lat="46.64282" lon="6.21852">
        <ele>1367.5</ele>
        <time>2020-07-21T09:28:53Z</time>
      </trkpt>
      <trkpt lat="46.64285" lon="6.21858">
        <ele>1366.9</ele>
        <time>2020-07-21T09:28:59Z</time>
      </trkpt>
      <trkpt lat="46.64288" lon="6.21863">
        <ele>1366.9</ele>
        <time>2020-07-21T09:29:06Z</time>
      </trkpt>
      <trkpt lat="46.64292" lon="6.21866">
        <ele>1367</ele>
        <time>2020-07-21T09:29:08Z</time>
      </trkpt>
      <trkpt lat="46.64298" lon="6.21868">
        <ele>1367.2</ele>
        <time>2020-07-21T09:29:10Z</time>
      </trkpt>
      <trkpt lat="46.6431" lon="6.2188">
        <ele>1368.6</ele>
        <time>2020-07-21T09:29:21Z</time>
      </trkpt>
      <trkpt lat="46.64311" lon="6.21887">
        <ele>1368.9</ele>
        <time>2020-07-21T09:29:25Z</time>
      </trkpt>
      <trkpt lat="46.64316" lon="6.21893">
        <ele>1369.9</ele>
        <time>2020-07-21T09:29:33Z</time>
      </trkpt>
      <trkpt lat="46.64321" lon="6.21897">
        <ele>1371</ele>
        <time>2020-07-21T09:29:39Z</time>
      </trkpt>
      <trkpt lat="46.64325" lon="6.21899">
        <ele>1371.9</ele>
        <time>2020-07-21T09:29:43Z</time>
      </trkpt>
      <trkpt lat="46.64341" lon="6.21903">
        <ele>1375.5</ele>
        <time>2020-07-21T09:30:22Z</time>
      </trkpt>
      <trkpt lat="46.64347" lon="6.21904">
        <ele>1375.5</ele>
        <time>2020-07-21T09:30:26Z</time>
      </trkpt>
      <trkpt lat="46.64352" lon="6.21906">
        <ele>1375.5</ele>
        <time>2020-07-21T09:30:29Z</time>
      </trkpt>
      <trkpt lat="46.64357" lon="6.21909">
        <ele>1375.5</ele>
        <time>2020-07-21T09:30:31Z</time>
      </trkpt>
      <trkpt lat="46.64363" lon="6.21915">
        <ele>1375.4</ele>
        <time>2020-07-21T09:30:33Z</time>
      </trkpt>
      <trkpt lat="46.64369" lon="6.2192">
        <ele>1375.3</ele>
        <time>2020-07-21T09:30:35Z</time>
      </trkpt>
      <trkpt lat="46.64375" lon="6.21923">
        <ele>1375</ele>
        <time>2020-07-21T09:30:38Z</time>
      </trkpt>
      <trkpt lat="46.64379" lon="6.21926">
        <ele>1374.1</ele>
        <time>2020-07-21T09:30:43Z</time>
      </trkpt>
      <trkpt lat="46.64383" lon="6.21929">
        <ele>1373.1</ele>
        <time>2020-07-21T09:30:48Z</time>
      </trkpt>
      <trkpt lat="46.64408" lon="6.21951">
        <ele>1367.5</ele>
        <time>2020-07-21T09:31:15Z</time>
      </trkpt>
      <trkpt lat="46.64413" lon="6.21955">
        <ele>1367.8</ele>
        <time>2020-07-21T09:31:20Z</time>
      </trkpt>
      <trkpt lat="46.64418" lon="6.21957">
        <ele>1368.1</ele>
        <time>2020-07-21T09:31:22Z</time>
      </trkpt>
      <trkpt lat="46.64422" lon="6.21958">
        <ele>1368.6</ele>
        <time>2020-07-21T09:31:27Z</time>
      </trkpt>
      <trkpt lat="46.64426" lon="6.21963">
        <ele>1369</ele>
        <time>2020-07-21T09:31:33Z</time>
      </trkpt>
      <trkpt lat="46.64429" lon="6.21968">
        <ele>1369</ele>
        <time>2020-07-21T09:31:40Z</time>
      </trkpt>
      <trkpt lat="46.64433" lon="6.21973">
        <ele>1368.6</ele>
        <time>2020-07-21T09:31:47Z</time>
      </trkpt>
      <trkpt lat="46.64436" lon="6.21978">
        <ele>1368.2</ele>
        <time>2020-07-21T09:31:50Z</time>
      </trkpt>
      <trkpt lat="46.64439" lon="6.21984">
        <ele>1367.8</ele>
        <time>2020-07-21T09:31:53Z</time>
      </trkpt>
      <trkpt lat="46.64448" lon="6.21999">
        <ele>1365.3</ele>
        <time>2020-07-21T09:32:07Z</time>
      </trkpt>
      <trkpt lat="46.64453" lon="6.22002">
        <ele>1364.5</ele>
        <time>2020-07-21T09:32:12Z</time>
      </trkpt>
      <trkpt lat="46.64457" lon="6.22006">
        <ele>1363.6</ele>
        <time>2020-07-21T09:32:17Z</time>
      </trkpt>
      <trkpt lat="46.64467" lon="6.22015">
        <ele>1361</ele>
        <time>2020-07-21T09:32:28Z</time>
      </trkpt>
      <trkpt lat="46.64471" lon="6.22018">
        <ele>1360.4</ele>
        <time>2020-07-21T09:32:34Z</time>
      </trkpt>
      <trkpt lat="46.64476" lon="6.22021">
        <ele>1359.8</ele>
        <time>2020-07-21T09:32:38Z</time>
      </trkpt>
      <trkpt lat="46.6448" lon="6.22024">
        <ele>1359.1</ele>
        <time>2020-07-21T09:32:42Z</time>
      </trkpt>
      <trkpt lat="46.64484" lon="6.22029">
        <ele>1358.2</ele>
        <time>2020-07-21T09:32:47Z</time>
      </trkpt>
      <trkpt lat="46.64489" lon="6.22041">
        <ele>1355.9</ele>
        <time>2020-07-21T09:32:57Z</time>
      </trkpt>
      <trkpt lat="46.64493" lon="6.22046">
        <ele>1355.5</ele>
        <time>2020-07-21T09:33:01Z</time>
      </trkpt>
      <trkpt lat="46.64497" lon="6.22053">
        <ele>1355.4</ele>
        <time>2020-07-21T09:33:04Z</time>
      </trkpt>
      <trkpt lat="46.64508" lon="6.22067">
        <ele>1354.5</ele>
        <time>2020-07-21T09:33:21Z</time>
      </trkpt>
      <trkpt lat="46.64509" lon="6.22075">
        <ele>1354.4</ele>
        <time>2020-07-21T09:33:25Z</time>
      </trkpt>
      <trkpt lat="46.64509" lon="6.22082">
        <ele>1354.7</ele>
        <time>2020-07-21T09:33:30Z</time>
      </trkpt>
      <trkpt lat="46.64505" lon="6.22094">
        <ele>1356</ele>
        <time>2020-07-21T09:33:40Z</time>
      </trkpt>
      <trkpt lat="46.64504" lon="6.22102">
        <ele>1356.1</ele>
        <time>2020-07-21T09:33:42Z</time>
      </trkpt>
      <trkpt lat="46.64502" lon="6.22108">
        <ele>1356.3</ele>
        <time>2020-07-21T09:33:44Z</time>
      </trkpt>
      <trkpt lat="46.64499" lon="6.22114">
        <ele>1356.7</ele>
        <time>2020-07-21T09:33:49Z</time>
      </trkpt>
      <trkpt lat="46.64496" lon="6.2212">
        <ele>1357.1</ele>
        <time>2020-07-21T09:33:53Z</time>
      </trkpt>
      <trkpt lat="46.64492" lon="6.22125">
        <ele>1357.7</ele>
        <time>2020-07-21T09:33:57Z</time>
      </trkpt>
      <trkpt lat="46.64488" lon="6.2213">
        <ele>1358.6</ele>
        <time>2020-07-21T09:34:02Z</time>
      </trkpt>
      <trkpt lat="46.64485" lon="6.22136">
        <ele>1359.1</ele>
        <time>2020-07-21T09:34:06Z</time>
      </trkpt>
      <trkpt lat="46.64482" lon="6.22142">
        <ele>1360.3</ele>
        <time>2020-07-21T09:34:15Z</time>
      </trkpt>
      <trkpt lat="46.64479" lon="6.22148">
        <ele>1360.7</ele>
        <time>2020-07-21T09:34:17Z</time>
      </trkpt>
      <trkpt lat="46.64475" lon="6.22153">
        <ele>1361.4</ele>
        <time>2020-07-21T09:34:20Z</time>
      </trkpt>
      <trkpt lat="46.64462" lon="6.2217">
        <ele>1364.2</ele>
        <time>2020-07-21T09:35:01Z</time>
      </trkpt>
      <trkpt lat="46.64464" lon="6.22178">
        <ele>1363.3</ele>
        <time>2020-07-21T09:35:09Z</time>
      </trkpt>
      <trkpt lat="46.64466" lon="6.22184">
        <ele>1363</ele>
        <time>2020-07-21T09:35:12Z</time>
      </trkpt>
      <trkpt lat="46.64468" lon="6.22191">
        <ele>1362.6</ele>
        <time>2020-07-21T09:35:15Z</time>
      </trkpt>
      <trkpt lat="46.6447" lon="6.22208">
        <ele>1360.4</ele>
        <time>2020-07-21T09:35:29Z</time>
      </trkpt>
      <trkpt lat="46.64475" lon="6.22221">
        <ele>1358.2</ele>
        <time>2020-07-21T09:35:39Z</time>
      </trkpt>
      <trkpt lat="46.6448" lon="6.22224">
        <ele>1356.2</ele>
        <time>2020-07-21T09:35:52Z</time>
      </trkpt>
      <trkpt lat="46.64482" lon="6.2223">
        <ele>1355.4</ele>
        <time>2020-07-21T09:36:00Z</time>
      </trkpt>
      <trkpt lat="46.64486" lon="6.22235">
        <ele>1354.9</ele>
        <time>2020-07-21T09:36:10Z</time>
      </trkpt>
      <trkpt lat="46.64493" lon="6.22236">
        <ele>1355.2</ele>
        <time>2020-07-21T09:36:14Z</time>
      </trkpt>
      <trkpt lat="46.64498" lon="6.22238">
        <ele>1355.5</ele>
        <time>2020-07-21T09:36:16Z</time>
      </trkpt>
      <trkpt lat="46.64516" lon="6.2227">
        <ele>1357.1</ele>
        <time>2020-07-21T09:36:52Z</time>
      </trkpt>
      <trkpt lat="46.64518" lon="6.22276">
        <ele>1357.4</ele>
        <time>2020-07-21T09:36:57Z</time>
      </trkpt>
      <trkpt lat="46.64521" lon="6.22281">
        <ele>1357.9</ele>
        <time>2020-07-21T09:37:03Z</time>
      </trkpt>
      <trkpt lat="46.64524" lon="6.22288">
        <ele>1358.7</ele>
        <time>2020-07-21T09:37:09Z</time>
      </trkpt>
      <trkpt lat="46.64524" lon="6.22298">
        <ele>1359.9</ele>
        <time>2020-07-21T09:37:16Z</time>
      </trkpt>
      <trkpt lat="46.64529" lon="6.22317">
        <ele>1362.8</ele>
        <time>2020-07-21T09:37:30Z</time>
      </trkpt>
      <trkpt lat="46.6453" lon="6.22325">
        <ele>1363.3</ele>
        <time>2020-07-21T09:37:41Z</time>
      </trkpt>
      <trkpt lat="46.64531" lon="6.22331">
        <ele>1363</ele>
        <time>2020-07-21T09:37:49Z</time>
      </trkpt>
      <trkpt lat="46.64534" lon="6.22337">
        <ele>1362.9</ele>
        <time>2020-07-21T09:37:56Z</time>
      </trkpt>
      <trkpt lat="46.64537" lon="6.22344">
        <ele>1363.7</ele>
        <time>2020-07-21T09:38:03Z</time>
      </trkpt>
      <trkpt lat="46.6454" lon="6.22352">
        <ele>1364</ele>
        <time>2020-07-21T09:38:05Z</time>
      </trkpt>
      <trkpt lat="46.64542" lon="6.22358">
        <ele>1364.5</ele>
        <time>2020-07-21T09:38:08Z</time>
      </trkpt>
      <trkpt lat="46.64545" lon="6.22365">
        <ele>1364.8</ele>
        <time>2020-07-21T09:38:11Z</time>
      </trkpt>
      <trkpt lat="46.64546" lon="6.22372">
        <ele>1365.7</ele>
        <time>2020-07-21T09:38:18Z</time>
      </trkpt>
      <trkpt lat="46.64547" lon="6.22379">
        <ele>1366.3</ele>
        <time>2020-07-21T09:38:26Z</time>
      </trkpt>
      <trkpt lat="46.64546" lon="6.22387">
        <ele>1366.9</ele>
        <time>2020-07-21T09:38:37Z</time>
      </trkpt>
      <trkpt lat="46.64547" lon="6.22395">
        <ele>1367</ele>
        <time>2020-07-21T09:38:43Z</time>
      </trkpt>
      <trkpt lat="46.64551" lon="6.22401">
        <ele>1367.2</ele>
        <time>2020-07-21T09:38:48Z</time>
      </trkpt>
      <trkpt lat="46.64555" lon="6.22407">
        <ele>1367.3</ele>
        <time>2020-07-21T09:38:50Z</time>
      </trkpt>
      <trkpt lat="46.64558" lon="6.22413">
        <ele>1367.7</ele>
        <time>2020-07-21T09:38:54Z</time>
      </trkpt>
      <trkpt lat="46.64561" lon="6.22419">
        <ele>1369.7</ele>
        <time>2020-07-21T09:39:09Z</time>
      </trkpt>
      <trkpt lat="46.64563" lon="6.22425">
        <ele>1371.1</ele>
        <time>2020-07-21T09:39:18Z</time>
      </trkpt>
      <trkpt lat="46.64566" lon="6.22429">
        <ele>1371.4</ele>
        <time>2020-07-21T09:39:21Z</time>
      </trkpt>
      <trkpt lat="46.64571" lon="6.22433">
        <ele>1372</ele>
        <time>2020-07-21T09:39:26Z</time>
      </trkpt>
      <trkpt lat="46.64576" lon="6.22435">
        <ele>1372.6</ele>
        <time>2020-07-21T09:39:31Z</time>
      </trkpt>
      <trkpt lat="46.6458" lon="6.22438">
        <ele>1373.2</ele>
        <time>2020-07-21T09:39:36Z</time>
      </trkpt>
      <trkpt lat="46.64583" lon="6.22444">
        <ele>1373.7</ele>
        <time>2020-07-21T09:39:42Z</time>
      </trkpt>
      <trkpt lat="46.64587" lon="6.22449">
        <ele>1373.9</ele>
        <time>2020-07-21T09:39:47Z</time>
      </trkpt>
      <trkpt lat="46.64591" lon="6.22453">
        <ele>1373.9</ele>
        <time>2020-07-21T09:39:51Z</time>
      </trkpt>
      <trkpt lat="46.64595" lon="6.22456">
        <ele>1373.9</ele>
        <time>2020-07-21T09:39:57Z</time>
      </trkpt>
      <trkpt lat="46.64599" lon="6.2246">
        <ele>1373.2</ele>
        <time>2020-07-21T09:40:04Z</time>
      </trkpt>
      <trkpt lat="46.64604" lon="6.22462">
        <ele>1372.4</ele>
        <time>2020-07-21T09:40:10Z</time>
      </trkpt>
      <trkpt lat="46.64608" lon="6.22468">
        <ele>1371.4</ele>
        <time>2020-07-21T09:40:15Z</time>
      </trkpt>
      <trkpt lat="46.64612" lon="6.22472">
        <ele>1370.2</ele>
        <time>2020-07-21T09:40:20Z</time>
      </trkpt>
      <trkpt lat="46.64616" lon="6.22477">
        <ele>1369</ele>
        <time>2020-07-21T09:40:25Z</time>
      </trkpt>
      <trkpt lat="46.64619" lon="6.22482">
        <ele>1367.5</ele>
        <time>2020-07-21T09:40:32Z</time>
      </trkpt>
      <trkpt lat="46.64623" lon="6.22486">
        <ele>1366.6</ele>
        <time>2020-07-21T09:40:36Z</time>
      </trkpt>
      <trkpt lat="46.64628" lon="6.22489">
        <ele>1365.6</ele>
        <time>2020-07-21T09:40:41Z</time>
      </trkpt>
      <trkpt lat="46.64632" lon="6.2249">
        <ele>1364.2</ele>
        <time>2020-07-21T09:40:47Z</time>
      </trkpt>
      <trkpt lat="46.64637" lon="6.22492">
        <ele>1363</ele>
        <time>2020-07-21T09:40:52Z</time>
      </trkpt>
      <trkpt lat="46.64641" lon="6.22495">
        <ele>1361.9</ele>
        <time>2020-07-21T09:40:57Z</time>
      </trkpt>
      <trkpt lat="46.64646" lon="6.22507">
        <ele>1360.3</ele>
        <time>2020-07-21T09:41:08Z</time>
      </trkpt>
      <trkpt lat="46.64649" lon="6.22514">
        <ele>1360.6</ele>
        <time>2020-07-21T09:41:16Z</time>
      </trkpt>
      <trkpt lat="46.64652" lon="6.22519">
        <ele>1361.1</ele>
        <time>2020-07-21T09:41:20Z</time>
      </trkpt>
      <trkpt lat="46.64654" lon="6.22525">
        <ele>1361.5</ele>
        <time>2020-07-21T09:41:24Z</time>
      </trkpt>
      <trkpt lat="46.64654" lon="6.22532">
        <ele>1362.1</ele>
        <time>2020-07-21T09:41:32Z</time>
      </trkpt>
      <trkpt lat="46.64657" lon="6.22538">
        <ele>1362.4</ele>
        <time>2020-07-21T09:41:38Z</time>
      </trkpt>
      <trkpt lat="46.64659" lon="6.22544">
        <ele>1362.5</ele>
        <time>2020-07-21T09:41:41Z</time>
      </trkpt>
      <trkpt lat="46.6466" lon="6.22551">
        <ele>1362.6</ele>
        <time>2020-07-21T09:41:43Z</time>
      </trkpt>
      <trkpt lat="46.64664" lon="6.22564">
        <ele>1363.8</ele>
        <time>2020-07-21T09:41:59Z</time>
      </trkpt>
      <trkpt lat="46.64666" lon="6.22571">
        <ele>1364.3</ele>
        <time>2020-07-21T09:42:03Z</time>
      </trkpt>
      <trkpt lat="46.6467" lon="6.22578">
        <ele>1364.6</ele>
        <time>2020-07-21T09:42:06Z</time>
      </trkpt>
      <trkpt lat="46.64674" lon="6.22585">
        <ele>1364.9</ele>
        <time>2020-07-21T09:42:09Z</time>
      </trkpt>
      <trkpt lat="46.64677" lon="6.2259">
        <ele>1365.3</ele>
        <time>2020-07-21T09:42:14Z</time>
      </trkpt>
      <trkpt lat="46.64679" lon="6.22596">
        <ele>1365.4</ele>
        <time>2020-07-21T09:42:21Z</time>
      </trkpt>
      <trkpt lat="46.64681" lon="6.22602">
        <ele>1364.9</ele>
        <time>2020-07-21T09:42:27Z</time>
      </trkpt>
      <trkpt lat="46.64684" lon="6.22608">
        <ele>1364.6</ele>
        <time>2020-07-21T09:42:30Z</time>
      </trkpt>
      <trkpt lat="46.64687" lon="6.22613">
        <ele>1364.1</ele>
        <time>2020-07-21T09:42:35Z</time>
      </trkpt>
      <trkpt lat="46.64689" lon="6.2262">
        <ele>1363.4</ele>
        <time>2020-07-21T09:42:41Z</time>
      </trkpt>
      <trkpt lat="46.6469" lon="6.22627">
        <ele>1362.4</ele>
        <time>2020-07-21T09:42:48Z</time>
      </trkpt>
      <trkpt lat="46.64692" lon="6.22643">
        <ele>1359</ele>
        <time>2020-07-21T09:44:58Z</time>
      </trkpt>
      <trkpt lat="46.64702" lon="6.22668">
        <ele>1359.2</ele>
        <time>2020-07-21T09:45:06Z</time>
      </trkpt>
      <trkpt lat="46.64705" lon="6.22675">
        <ele>1359.6</ele>
        <time>2020-07-21T09:45:10Z</time>
      </trkpt>
      <trkpt lat="46.64706" lon="6.22683">
        <ele>1361.4</ele>
        <time>2020-07-21T09:45:18Z</time>
      </trkpt>
      <trkpt lat="46.64709" lon="6.22688">
        <ele>1361.9</ele>
        <time>2020-07-21T09:45:20Z</time>
      </trkpt>
      <trkpt lat="46.64712" lon="6.22693">
        <ele>1362.4</ele>
        <time>2020-07-21T09:45:23Z</time>
      </trkpt>
      <trkpt lat="46.64715" lon="6.22698">
        <ele>1363.3</ele>
        <time>2020-07-21T09:45:30Z</time>
      </trkpt>
      <trkpt lat="46.64718" lon="6.22704">
        <ele>1363.7</ele>
        <time>2020-07-21T09:45:36Z</time>
      </trkpt>
      <trkpt lat="46.64731" lon="6.22731">
        <ele>1363</ele>
        <time>2020-07-21T09:45:55Z</time>
      </trkpt>
      <trkpt lat="46.64734" lon="6.22738">
        <ele>1363</ele>
        <time>2020-07-21T09:45:59Z</time>
      </trkpt>
      <trkpt lat="46.64737" lon="6.22743">
        <ele>1363.1</ele>
        <time>2020-07-21T09:46:02Z</time>
      </trkpt>
      <trkpt lat="46.6474" lon="6.22749">
        <ele>1363.8</ele>
        <time>2020-07-21T09:46:10Z</time>
      </trkpt>
      <trkpt lat="46.64745" lon="6.22766">
        <ele>1367.1</ele>
        <time>2020-07-21T09:46:27Z</time>
      </trkpt>
      <trkpt lat="46.64748" lon="6.22773">
        <ele>1367.6</ele>
        <time>2020-07-21T09:46:30Z</time>
      </trkpt>
      <trkpt lat="46.64752" lon="6.22781">
        <ele>1368.3</ele>
        <time>2020-07-21T09:46:36Z</time>
      </trkpt>
      <trkpt lat="46.64758" lon="6.22794">
        <ele>1369.5</ele>
        <time>2020-07-21T09:46:47Z</time>
      </trkpt>
      <trkpt lat="46.64759" lon="6.228">
        <ele>1370</ele>
        <time>2020-07-21T09:46:52Z</time>
      </trkpt>
      <trkpt lat="46.64761" lon="6.22807">
        <ele>1371</ele>
        <time>2020-07-21T09:47:00Z</time>
      </trkpt>
      <trkpt lat="46.64762" lon="6.22813">
        <ele>1371.2</ele>
        <time>2020-07-21T09:47:04Z</time>
      </trkpt>
      <trkpt lat="46.64765" lon="6.2282">
        <ele>1371.6</ele>
        <time>2020-07-21T09:47:11Z</time>
      </trkpt>
      <trkpt lat="46.64768" lon="6.22824">
        <ele>1371.8</ele>
        <time>2020-07-21T09:47:16Z</time>
      </trkpt>
      <trkpt lat="46.64772" lon="6.22831">
        <ele>1372.1</ele>
        <time>2020-07-21T09:47:22Z</time>
      </trkpt>
      <trkpt lat="46.64774" lon="6.22837">
        <ele>1372.2</ele>
        <time>2020-07-21T09:47:27Z</time>
      </trkpt>
      <trkpt lat="46.64778" lon="6.22842">
        <ele>1371.9</ele>
        <time>2020-07-21T09:47:32Z</time>
      </trkpt>
      <trkpt lat="46.64782" lon="6.22847">
        <ele>1371.5</ele>
        <time>2020-07-21T09:47:36Z</time>
      </trkpt>
      <trkpt lat="46.64786" lon="6.22851">
        <ele>1370.8</ele>
        <time>2020-07-21T09:47:41Z</time>
      </trkpt>
      <trkpt lat="46.6479" lon="6.22856">
        <ele>1370</ele>
        <time>2020-07-21T09:47:46Z</time>
      </trkpt>
      <trkpt lat="46.6479" lon="6.22865">
        <ele>1369.7</ele>
        <time>2020-07-21T09:47:49Z</time>
      </trkpt>
      <trkpt lat="46.64791" lon="6.22874">
        <ele>1369.5</ele>
        <time>2020-07-21T09:47:51Z</time>
      </trkpt>
      <trkpt lat="46.64792" lon="6.22881">
        <ele>1369.1</ele>
        <time>2020-07-21T09:47:55Z</time>
      </trkpt>
      <trkpt lat="46.64796" lon="6.22889">
        <ele>1368.6</ele>
        <time>2020-07-21T09:47:59Z</time>
      </trkpt>
      <trkpt lat="46.648" lon="6.22894">
        <ele>1368.4</ele>
        <time>2020-07-21T09:48:02Z</time>
      </trkpt>
      <trkpt lat="46.648" lon="6.22901">
        <ele>1368.2</ele>
        <time>2020-07-21T09:48:09Z</time>
      </trkpt>
      <trkpt lat="46.64803" lon="6.22916">
        <ele>1369.1</ele>
        <time>2020-07-21T09:48:22Z</time>
      </trkpt>
      <trkpt lat="46.64806" lon="6.2292">
        <ele>1369.1</ele>
        <time>2020-07-21T09:48:24Z</time>
      </trkpt>
      <trkpt lat="46.6481" lon="6.22925">
        <ele>1369</ele>
        <time>2020-07-21T09:48:27Z</time>
      </trkpt>
      <trkpt lat="46.64814" lon="6.2293">
        <ele>1369</ele>
        <time>2020-07-21T09:48:30Z</time>
      </trkpt>
      <trkpt lat="46.64818" lon="6.22934">
        <ele>1369.1</ele>
        <time>2020-07-21T09:48:34Z</time>
      </trkpt>
      <trkpt lat="46.64821" lon="6.2294">
        <ele>1369.2</ele>
        <time>2020-07-21T09:48:39Z</time>
      </trkpt>
      <trkpt lat="46.64825" lon="6.22943">
        <ele>1369.3</ele>
        <time>2020-07-21T09:48:44Z</time>
      </trkpt>
      <trkpt lat="46.64829" lon="6.22948">
        <ele>1369.8</ele>
        <time>2020-07-21T09:48:50Z</time>
      </trkpt>
      <trkpt lat="46.64832" lon="6.22953">
        <ele>1370.3</ele>
        <time>2020-07-21T09:48:57Z</time>
      </trkpt>
      <trkpt lat="46.64836" lon="6.22957">
        <ele>1370.9</ele>
        <time>2020-07-21T09:49:04Z</time>
      </trkpt>
      <trkpt lat="46.64839" lon="6.22962">
        <ele>1370.7</ele>
        <time>2020-07-21T09:49:10Z</time>
      </trkpt>
      <trkpt lat="46.64841" lon="6.22968">
        <ele>1370.5</ele>
        <time>2020-07-21T09:49:15Z</time>
      </trkpt>
      <trkpt lat="46.64842" lon="6.22976">
        <ele>1370.1</ele>
        <time>2020-07-21T09:49:22Z</time>
      </trkpt>
      <trkpt lat="46.64841" lon="6.22983">
        <ele>1370.1</ele>
        <time>2020-07-21T09:49:27Z</time>
      </trkpt>
      <trkpt lat="46.64842" lon="6.22989">
        <ele>1370.1</ele>
        <time>2020-07-21T09:49:32Z</time>
      </trkpt>
      <trkpt lat="46.64845" lon="6.22994">
        <ele>1370</ele>
        <time>2020-07-21T09:49:38Z</time>
      </trkpt>
      <trkpt lat="46.64851" lon="6.2301">
        <ele>1369.6</ele>
        <time>2020-07-21T09:49:53Z</time>
      </trkpt>
      <trkpt lat="46.64855" lon="6.23023">
        <ele>1367.8</ele>
        <time>2020-07-21T09:50:01Z</time>
      </trkpt>
      <trkpt lat="46.64857" lon="6.2303">
        <ele>1367.4</ele>
        <time>2020-07-21T09:50:05Z</time>
      </trkpt>
      <trkpt lat="46.6486" lon="6.23036">
        <ele>1366.7</ele>
        <time>2020-07-21T09:50:09Z</time>
      </trkpt>
      <trkpt lat="46.64863" lon="6.23041">
        <ele>1366</ele>
        <time>2020-07-21T09:50:13Z</time>
      </trkpt>
      <trkpt lat="46.64866" lon="6.23048">
        <ele>1365.2</ele>
        <time>2020-07-21T09:50:18Z</time>
      </trkpt>
      <trkpt lat="46.64868" lon="6.23056">
        <ele>1365</ele>
        <time>2020-07-21T09:50:21Z</time>
      </trkpt>
      <trkpt lat="46.64869" lon="6.23062">
        <ele>1365</ele>
        <time>2020-07-21T09:50:24Z</time>
      </trkpt>
      <trkpt lat="46.64871" lon="6.23069">
        <ele>1365.1</ele>
        <time>2020-07-21T09:50:29Z</time>
      </trkpt>
      <trkpt lat="46.64873" lon="6.23075">
        <ele>1365.3</ele>
        <time>2020-07-21T09:50:34Z</time>
      </trkpt>
      <trkpt lat="46.64875" lon="6.23082">
        <ele>1365.4</ele>
        <time>2020-07-21T09:50:38Z</time>
      </trkpt>
      <trkpt lat="46.64879" lon="6.23087">
        <ele>1365.4</ele>
        <time>2020-07-21T09:50:43Z</time>
      </trkpt>
      <trkpt lat="46.64881" lon="6.23094">
        <ele>1366</ele>
        <time>2020-07-21T09:50:51Z</time>
      </trkpt>
      <trkpt lat="46.64885" lon="6.23099">
        <ele>1366.1</ele>
        <time>2020-07-21T09:50:58Z</time>
      </trkpt>
      <trkpt lat="46.64888" lon="6.23105">
        <ele>1366</ele>
        <time>2020-07-21T09:51:02Z</time>
      </trkpt>
      <trkpt lat="46.64898" lon="6.2313">
        <ele>1365.2</ele>
        <time>2020-07-21T09:51:35Z</time>
      </trkpt>
      <trkpt lat="46.64901" lon="6.23134">
        <ele>1365.9</ele>
        <time>2020-07-21T09:51:43Z</time>
      </trkpt>
      <trkpt lat="46.64904" lon="6.23141">
        <ele>1366.2</ele>
        <time>2020-07-21T09:51:45Z</time>
      </trkpt>
      <trkpt lat="46.64906" lon="6.23147">
        <ele>1366.6</ele>
        <time>2020-07-21T09:51:47Z</time>
      </trkpt>
      <trkpt lat="46.64908" lon="6.23154">
        <ele>1367.7</ele>
        <time>2020-07-21T09:51:52Z</time>
      </trkpt>
      <trkpt lat="46.6491" lon="6.2316">
        <ele>1369.8</ele>
        <time>2020-07-21T09:52:03Z</time>
      </trkpt>
      <trkpt lat="46.6491" lon="6.23174">
        <ele>1371.6</ele>
        <time>2020-07-21T09:52:19Z</time>
      </trkpt>
      <trkpt lat="46.64911" lon="6.2318">
        <ele>1371.8</ele>
        <time>2020-07-21T09:52:25Z</time>
      </trkpt>
      <trkpt lat="46.64913" lon="6.23187">
        <ele>1371.9</ele>
        <time>2020-07-21T09:52:32Z</time>
      </trkpt>
      <trkpt lat="46.6492" lon="6.23196">
        <ele>1369.9</ele>
        <time>2020-07-21T09:52:47Z</time>
      </trkpt>
      <trkpt lat="46.6493" lon="6.23215">
        <ele>1368.6</ele>
        <time>2020-07-21T09:53:35Z</time>
      </trkpt>
      <trkpt lat="46.64943" lon="6.23231">
        <ele>1370.7</ele>
        <time>2020-07-21T09:53:48Z</time>
      </trkpt>
      <trkpt lat="46.64947" lon="6.23234">
        <ele>1370.8</ele>
        <time>2020-07-21T09:53:51Z</time>
      </trkpt>
      <trkpt lat="46.64952" lon="6.23236">
        <ele>1371.2</ele>
        <time>2020-07-21T09:53:59Z</time>
      </trkpt>
      <trkpt lat="46.64957" lon="6.23243">
        <ele>1371.2</ele>
        <time>2020-07-21T09:54:03Z</time>
      </trkpt>
      <trkpt lat="46.64961" lon="6.23246">
        <ele>1371.3</ele>
        <time>2020-07-21T09:54:05Z</time>
      </trkpt>
      <trkpt lat="46.64965" lon="6.23251">
        <ele>1371.5</ele>
        <time>2020-07-21T09:54:09Z</time>
      </trkpt>
      <trkpt lat="46.64969" lon="6.23256">
        <ele>1372</ele>
        <time>2020-07-21T09:54:14Z</time>
      </trkpt>
      <trkpt lat="46.64976" lon="6.23263">
        <ele>1372.9</ele>
        <time>2020-07-21T09:54:23Z</time>
      </trkpt>
      <trkpt lat="46.64983" lon="6.2327">
        <ele>1374.2</ele>
        <time>2020-07-21T09:54:33Z</time>
      </trkpt>
      <trkpt lat="46.64991" lon="6.2328">
        <ele>1377.3</ele>
        <time>2020-07-21T09:54:57Z</time>
      </trkpt>
      <trkpt lat="46.64995" lon="6.23286">
        <ele>1380.5</ele>
        <time>2020-07-21T09:55:08Z</time>
      </trkpt>
      <trkpt lat="46.64998" lon="6.23291">
        <ele>1382.1</ele>
        <time>2020-07-21T09:55:15Z</time>
      </trkpt>
      <trkpt lat="46.65001" lon="6.23296">
        <ele>1383.2</ele>
        <time>2020-07-21T09:55:21Z</time>
      </trkpt>
      <trkpt lat="46.64997" lon="6.233">
        <ele>1383</ele>
        <time>2020-07-21T09:55:36Z</time>
      </trkpt>
      <trkpt lat="46.64999" lon="6.23306">
        <ele>1382.1</ele>
        <time>2020-07-21T09:55:48Z</time>
      </trkpt>
      <trkpt lat="46.64994" lon="6.23303">
        <ele>1382.2</ele>
        <time>2020-07-21T09:56:00Z</time>
      </trkpt>
      <trkpt lat="46.64991" lon="6.23299">
        <ele>1383.5</ele>
        <time>2020-07-21T09:56:12Z</time>
      </trkpt>
      <trkpt lat="46.64992" lon="6.23295">
        <ele>1386.7</ele>
        <time>2020-07-21T09:56:55Z</time>
      </trkpt>
      <trkpt lat="46.64993" lon="6.23294">
        <ele>1377.1</ele>
        <time>2020-07-21T10:36:16Z</time>
      </trkpt>
      <trkpt lat="46.64992" lon="6.23284">
        <ele>1373.9</ele>
        <time>2020-07-21T10:38:41Z</time>
      </trkpt>
      <trkpt lat="46.64991" lon="6.23277">
        <ele>1373.8</ele>
        <time>2020-07-21T10:38:45Z</time>
      </trkpt>
      <trkpt lat="46.64995" lon="6.23273">
        <ele>1373.5</ele>
        <time>2020-07-21T10:38:54Z</time>
      </trkpt>
      <trkpt lat="46.64999" lon="6.23276">
        <ele>1374.1</ele>
        <time>2020-07-21T10:39:06Z</time>
      </trkpt>
      <trkpt lat="46.65003" lon="6.23278">
        <ele>1374.5</ele>
        <time>2020-07-21T10:39:13Z</time>
      </trkpt>
      <trkpt lat="46.65007" lon="6.23281">
        <ele>1375.4</ele>
        <time>2020-07-21T10:39:26Z</time>
      </trkpt>
      <trkpt lat="46.65012" lon="6.23283">
        <ele>1375.7</ele>
        <time>2020-07-21T10:39:29Z</time>
      </trkpt>
      <trkpt lat="46.65019" lon="6.23282">
        <ele>1376.9</ele>
        <time>2020-07-21T10:39:38Z</time>
      </trkpt>
      <trkpt lat="46.65024" lon="6.23285">
        <ele>1377.1</ele>
        <time>2020-07-21T10:39:40Z</time>
      </trkpt>
      <trkpt lat="46.6503" lon="6.23285">
        <ele>1377.4</ele>
        <time>2020-07-21T10:39:44Z</time>
      </trkpt>
      <trkpt lat="46.65034" lon="6.23286">
        <ele>1377.6</ele>
        <time>2020-07-21T10:39:48Z</time>
      </trkpt>
      <trkpt lat="46.65039" lon="6.23288">
        <ele>1377.7</ele>
        <time>2020-07-21T10:39:52Z</time>
      </trkpt>
      <trkpt lat="46.65045" lon="6.23287">
        <ele>1377.5</ele>
        <time>2020-07-21T10:39:56Z</time>
      </trkpt>
      <trkpt lat="46.65049" lon="6.23287">
        <ele>1377.3</ele>
        <time>2020-07-21T10:40:00Z</time>
      </trkpt>
      <trkpt lat="46.65054" lon="6.23287">
        <ele>1377.2</ele>
        <time>2020-07-21T10:40:04Z</time>
      </trkpt>
      <trkpt lat="46.65059" lon="6.23286">
        <ele>1377.1</ele>
        <time>2020-07-21T10:40:10Z</time>
      </trkpt>
      <trkpt lat="46.65064" lon="6.23283">
        <ele>1377</ele>
        <time>2020-07-21T10:40:17Z</time>
      </trkpt>
      <trkpt lat="46.65069" lon="6.23282">
        <ele>1376.8</ele>
        <time>2020-07-21T10:40:21Z</time>
      </trkpt>
      <trkpt lat="46.65074" lon="6.23281">
        <ele>1376.6</ele>
        <time>2020-07-21T10:40:25Z</time>
      </trkpt>
      <trkpt lat="46.65088" lon="6.23283">
        <ele>1375.3</ele>
        <time>2020-07-21T10:40:38Z</time>
      </trkpt>
      <trkpt lat="46.65093" lon="6.23285">
        <ele>1374.7</ele>
        <time>2020-07-21T10:40:42Z</time>
      </trkpt>
      <trkpt lat="46.65098" lon="6.23285">
        <ele>1373.9</ele>
        <time>2020-07-21T10:40:48Z</time>
      </trkpt>
      <trkpt lat="46.65102" lon="6.23289">
        <ele>1373.3</ele>
        <time>2020-07-21T10:40:53Z</time>
      </trkpt>
      <trkpt lat="46.65106" lon="6.23294">
        <ele>1372.4</ele>
        <time>2020-07-21T10:40:59Z</time>
      </trkpt>
      <trkpt lat="46.6511" lon="6.23299">
        <ele>1372.2</ele>
        <time>2020-07-21T10:41:05Z</time>
      </trkpt>
      <trkpt lat="46.65115" lon="6.23303">
        <ele>1372.4</ele>
        <time>2020-07-21T10:41:09Z</time>
      </trkpt>
      <trkpt lat="46.6512" lon="6.23307">
        <ele>1373</ele>
        <time>2020-07-21T10:41:13Z</time>
      </trkpt>
      <trkpt lat="46.65124" lon="6.2331">
        <ele>1374</ele>
        <time>2020-07-21T10:41:18Z</time>
      </trkpt>
      <trkpt lat="46.65128" lon="6.23314">
        <ele>1375.2</ele>
        <time>2020-07-21T10:41:24Z</time>
      </trkpt>
      <trkpt lat="46.65132" lon="6.23319">
        <ele>1375.8</ele>
        <time>2020-07-21T10:41:29Z</time>
      </trkpt>
      <trkpt lat="46.65142" lon="6.23328">
        <ele>1376.1</ele>
        <time>2020-07-21T10:41:43Z</time>
      </trkpt>
      <trkpt lat="46.65146" lon="6.23331">
        <ele>1375.4</ele>
        <time>2020-07-21T10:41:48Z</time>
      </trkpt>
      <trkpt lat="46.6515" lon="6.23335">
        <ele>1374.6</ele>
        <time>2020-07-21T10:41:54Z</time>
      </trkpt>
      <trkpt lat="46.65156" lon="6.23339">
        <ele>1373.8</ele>
        <time>2020-07-21T10:42:00Z</time>
      </trkpt>
      <trkpt lat="46.65168" lon="6.23348">
        <ele>1373.6</ele>
        <time>2020-07-21T10:42:11Z</time>
      </trkpt>
      <trkpt lat="46.65173" lon="6.23352">
        <ele>1374.4</ele>
        <time>2020-07-21T10:42:17Z</time>
      </trkpt>
      <trkpt lat="46.65178" lon="6.23357">
        <ele>1375.7</ele>
        <time>2020-07-21T10:42:23Z</time>
      </trkpt>
      <trkpt lat="46.65182" lon="6.23362">
        <ele>1376.5</ele>
        <time>2020-07-21T10:42:27Z</time>
      </trkpt>
      <trkpt lat="46.65185" lon="6.23366">
        <ele>1377.4</ele>
        <time>2020-07-21T10:42:32Z</time>
      </trkpt>
      <trkpt lat="46.65189" lon="6.2337">
        <ele>1378.2</ele>
        <time>2020-07-21T10:42:38Z</time>
      </trkpt>
      <trkpt lat="46.65193" lon="6.23374">
        <ele>1378.6</ele>
        <time>2020-07-21T10:42:43Z</time>
      </trkpt>
      <trkpt lat="46.65198" lon="6.23377">
        <ele>1379</ele>
        <time>2020-07-21T10:42:48Z</time>
      </trkpt>
      <trkpt lat="46.65202" lon="6.23379">
        <ele>1379.3</ele>
        <time>2020-07-21T10:42:53Z</time>
      </trkpt>
      <trkpt lat="46.65207" lon="6.23383">
        <ele>1379.6</ele>
        <time>2020-07-21T10:42:59Z</time>
      </trkpt>
      <trkpt lat="46.65212" lon="6.23387">
        <ele>1379.9</ele>
        <time>2020-07-21T10:43:04Z</time>
      </trkpt>
      <trkpt lat="46.65216" lon="6.2339">
        <ele>1380.1</ele>
        <time>2020-07-21T10:43:08Z</time>
      </trkpt>
      <trkpt lat="46.6522" lon="6.23393">
        <ele>1380.3</ele>
        <time>2020-07-21T10:43:11Z</time>
      </trkpt>
      <trkpt lat="46.65224" lon="6.23396">
        <ele>1380.6</ele>
        <time>2020-07-21T10:43:15Z</time>
      </trkpt>
      <trkpt lat="46.65229" lon="6.23398">
        <ele>1380.8</ele>
        <time>2020-07-21T10:43:20Z</time>
      </trkpt>
      <trkpt lat="46.65234" lon="6.234">
        <ele>1381.1</ele>
        <time>2020-07-21T10:43:24Z</time>
      </trkpt>
      <trkpt lat="46.65239" lon="6.23403">
        <ele>1381.4</ele>
        <time>2020-07-21T10:43:28Z</time>
      </trkpt>
      <trkpt lat="46.65243" lon="6.23406">
        <ele>1382</ele>
        <time>2020-07-21T10:43:34Z</time>
      </trkpt>
      <trkpt lat="46.65247" lon="6.2341">
        <ele>1382.5</ele>
        <time>2020-07-21T10:43:42Z</time>
      </trkpt>
      <trkpt lat="46.65252" lon="6.23413">
        <ele>1382.7</ele>
        <time>2020-07-21T10:43:49Z</time>
      </trkpt>
      <trkpt lat="46.65257" lon="6.23415">
        <ele>1382.4</ele>
        <time>2020-07-21T10:43:54Z</time>
      </trkpt>
      <trkpt lat="46.6526" lon="6.23419">
        <ele>1382.1</ele>
        <time>2020-07-21T10:44:00Z</time>
      </trkpt>
      <trkpt lat="46.65264" lon="6.23422">
        <ele>1381.7</ele>
        <time>2020-07-21T10:44:04Z</time>
      </trkpt>
      <trkpt lat="46.65269" lon="6.23425">
        <ele>1381.2</ele>
        <time>2020-07-21T10:44:09Z</time>
      </trkpt>
      <trkpt lat="46.65273" lon="6.23429">
        <ele>1380.4</ele>
        <time>2020-07-21T10:44:15Z</time>
      </trkpt>
      <trkpt lat="46.65282" lon="6.2344">
        <ele>1378.9</ele>
        <time>2020-07-21T10:44:29Z</time>
      </trkpt>
      <trkpt lat="46.65286" lon="6.23444">
        <ele>1379</ele>
        <time>2020-07-21T10:44:34Z</time>
      </trkpt>
      <trkpt lat="46.6529" lon="6.23447">
        <ele>1379.3</ele>
        <time>2020-07-21T10:44:39Z</time>
      </trkpt>
      <trkpt lat="46.65296" lon="6.2345">
        <ele>1379.5</ele>
        <time>2020-07-21T10:44:44Z</time>
      </trkpt>
      <trkpt lat="46.653" lon="6.23455">
        <ele>1379.5</ele>
        <time>2020-07-21T10:44:48Z</time>
      </trkpt>
      <trkpt lat="46.65304" lon="6.23459">
        <ele>1379.3</ele>
        <time>2020-07-21T10:44:52Z</time>
      </trkpt>
      <trkpt lat="46.65326" lon="6.23476">
        <ele>1378.6</ele>
        <time>2020-07-21T10:45:23Z</time>
      </trkpt>
      <trkpt lat="46.65332" lon="6.2348">
        <ele>1378.4</ele>
        <time>2020-07-21T10:45:29Z</time>
      </trkpt>
      <trkpt lat="46.65337" lon="6.23482">
        <ele>1378.8</ele>
        <time>2020-07-21T10:45:37Z</time>
      </trkpt>
      <trkpt lat="46.65342" lon="6.23483">
        <ele>1379.4</ele>
        <time>2020-07-21T10:45:43Z</time>
      </trkpt>
      <trkpt lat="46.65347" lon="6.23487">
        <ele>1379.7</ele>
        <time>2020-07-21T10:45:46Z</time>
      </trkpt>
      <trkpt lat="46.65357" lon="6.23489">
        <ele>1379.9</ele>
        <time>2020-07-21T10:45:48Z</time>
      </trkpt>
      <trkpt lat="46.65363" lon="6.23491">
        <ele>1380</ele>
        <time>2020-07-21T10:45:50Z</time>
      </trkpt>
      <trkpt lat="46.65368" lon="6.23491">
        <ele>1380.2</ele>
        <time>2020-07-21T10:45:52Z</time>
      </trkpt>
      <trkpt lat="46.65373" lon="6.23492">
        <ele>1380.6</ele>
        <time>2020-07-21T10:45:56Z</time>
      </trkpt>
      <trkpt lat="46.65378" lon="6.23494">
        <ele>1381.5</ele>
        <time>2020-07-21T10:46:05Z</time>
      </trkpt>
      <trkpt lat="46.65382" lon="6.23498">
        <ele>1381.7</ele>
        <time>2020-07-21T10:46:10Z</time>
      </trkpt>
      <trkpt lat="46.65386" lon="6.23502">
        <ele>1381.9</ele>
        <time>2020-07-21T10:46:15Z</time>
      </trkpt>
      <trkpt lat="46.65389" lon="6.23507">
        <ele>1382.1</ele>
        <time>2020-07-21T10:46:22Z</time>
      </trkpt>
      <trkpt lat="46.65392" lon="6.23512">
        <ele>1382</ele>
        <time>2020-07-21T10:46:26Z</time>
      </trkpt>
      <trkpt lat="46.65395" lon="6.23518">
        <ele>1381.9</ele>
        <time>2020-07-21T10:46:32Z</time>
      </trkpt>
      <trkpt lat="46.65398" lon="6.23525">
        <ele>1381.9</ele>
        <time>2020-07-21T10:46:36Z</time>
      </trkpt>
      <trkpt lat="46.65401" lon="6.23529">
        <ele>1381.8</ele>
        <time>2020-07-21T10:46:40Z</time>
      </trkpt>
      <trkpt lat="46.65405" lon="6.23534">
        <ele>1381.8</ele>
        <time>2020-07-21T10:46:43Z</time>
      </trkpt>
      <trkpt lat="46.65409" lon="6.23539">
        <ele>1381.8</ele>
        <time>2020-07-21T10:46:47Z</time>
      </trkpt>
      <trkpt lat="46.65413" lon="6.23545">
        <ele>1381.6</ele>
        <time>2020-07-21T10:46:52Z</time>
      </trkpt>
      <trkpt lat="46.65417" lon="6.2355">
        <ele>1381.5</ele>
        <time>2020-07-21T10:46:58Z</time>
      </trkpt>
      <trkpt lat="46.65419" lon="6.23557">
        <ele>1381.7</ele>
        <time>2020-07-21T10:47:05Z</time>
      </trkpt>
      <trkpt lat="46.65422" lon="6.23561">
        <ele>1381.8</ele>
        <time>2020-07-21T10:47:10Z</time>
      </trkpt>
      <trkpt lat="46.65426" lon="6.23565">
        <ele>1381.5</ele>
        <time>2020-07-21T10:47:15Z</time>
      </trkpt>
      <trkpt lat="46.65431" lon="6.23569">
        <ele>1381.2</ele>
        <time>2020-07-21T10:47:20Z</time>
      </trkpt>
      <trkpt lat="46.65435" lon="6.23575">
        <ele>1380.9</ele>
        <time>2020-07-21T10:47:25Z</time>
      </trkpt>
      <trkpt lat="46.65438" lon="6.23579">
        <ele>1380.4</ele>
        <time>2020-07-21T10:47:31Z</time>
      </trkpt>
      <trkpt lat="46.65441" lon="6.23584">
        <ele>1379.8</ele>
        <time>2020-07-21T10:47:36Z</time>
      </trkpt>
      <trkpt lat="46.65444" lon="6.2359">
        <ele>1379.4</ele>
        <time>2020-07-21T10:47:41Z</time>
      </trkpt>
      <trkpt lat="46.65447" lon="6.23596">
        <ele>1379.3</ele>
        <time>2020-07-21T10:47:47Z</time>
      </trkpt>
      <trkpt lat="46.65452" lon="6.23599">
        <ele>1379.3</ele>
        <time>2020-07-21T10:47:51Z</time>
      </trkpt>
      <trkpt lat="46.65456" lon="6.23601">
        <ele>1379.2</ele>
        <time>2020-07-21T10:47:55Z</time>
      </trkpt>
      <trkpt lat="46.6546" lon="6.23605">
        <ele>1379</ele>
        <time>2020-07-21T10:47:59Z</time>
      </trkpt>
      <trkpt lat="46.65463" lon="6.23611">
        <ele>1378.7</ele>
        <time>2020-07-21T10:48:04Z</time>
      </trkpt>
      <trkpt lat="46.65467" lon="6.23615">
        <ele>1378.1</ele>
        <time>2020-07-21T10:48:11Z</time>
      </trkpt>
      <trkpt lat="46.65472" lon="6.23619">
        <ele>1378</ele>
        <time>2020-07-21T10:48:13Z</time>
      </trkpt>
      <trkpt lat="46.65476" lon="6.23623">
        <ele>1378</ele>
        <time>2020-07-21T10:48:18Z</time>
      </trkpt>
      <trkpt lat="46.65479" lon="6.2363">
        <ele>1378</ele>
        <time>2020-07-21T10:48:25Z</time>
      </trkpt>
      <trkpt lat="46.65481" lon="6.23636">
        <ele>1378.1</ele>
        <time>2020-07-21T10:48:29Z</time>
      </trkpt>
      <trkpt lat="46.65485" lon="6.23641">
        <ele>1378.2</ele>
        <time>2020-07-21T10:48:32Z</time>
      </trkpt>
      <trkpt lat="46.65489" lon="6.23646">
        <ele>1378.6</ele>
        <time>2020-07-21T10:48:36Z</time>
      </trkpt>
      <trkpt lat="46.65493" lon="6.23651">
        <ele>1379</ele>
        <time>2020-07-21T10:48:41Z</time>
      </trkpt>
      <trkpt lat="46.65495" lon="6.23657">
        <ele>1379.6</ele>
        <time>2020-07-21T10:48:47Z</time>
      </trkpt>
      <trkpt lat="46.65498" lon="6.23663">
        <ele>1379.7</ele>
        <time>2020-07-21T10:48:53Z</time>
      </trkpt>
      <trkpt lat="46.65502" lon="6.23666">
        <ele>1379.6</ele>
        <time>2020-07-21T10:48:56Z</time>
      </trkpt>
      <trkpt lat="46.65506" lon="6.2367">
        <ele>1379.3</ele>
        <time>2020-07-21T10:49:01Z</time>
      </trkpt>
      <trkpt lat="46.65511" lon="6.23675">
        <ele>1379.3</ele>
        <time>2020-07-21T10:49:06Z</time>
      </trkpt>
      <trkpt lat="46.65514" lon="6.2368">
        <ele>1379.6</ele>
        <time>2020-07-21T10:49:11Z</time>
      </trkpt>
      <trkpt lat="46.65516" lon="6.23687">
        <ele>1380.1</ele>
        <time>2020-07-21T10:49:15Z</time>
      </trkpt>
      <trkpt lat="46.65518" lon="6.23693">
        <ele>1380.4</ele>
        <time>2020-07-21T10:49:20Z</time>
      </trkpt>
      <trkpt lat="46.65518" lon="6.23711">
        <ele>1380.9</ele>
        <time>2020-07-21T10:49:32Z</time>
      </trkpt>
      <trkpt lat="46.65514" lon="6.23715">
        <ele>1380.8</ele>
        <time>2020-07-21T10:49:40Z</time>
      </trkpt>
      <trkpt lat="46.65517" lon="6.23723">
        <ele>1380.7</ele>
        <time>2020-07-21T10:49:45Z</time>
      </trkpt>
      <trkpt lat="46.65519" lon="6.23729">
        <ele>1380.6</ele>
        <time>2020-07-21T10:49:48Z</time>
      </trkpt>
      <trkpt lat="46.65518" lon="6.23737">
        <ele>1380.4</ele>
        <time>2020-07-21T10:49:52Z</time>
      </trkpt>
      <trkpt lat="46.65517" lon="6.23743">
        <ele>1380.1</ele>
        <time>2020-07-21T10:49:57Z</time>
      </trkpt>
      <trkpt lat="46.65516" lon="6.2375">
        <ele>1380.2</ele>
        <time>2020-07-21T10:50:00Z</time>
      </trkpt>
      <trkpt lat="46.65514" lon="6.23757">
        <ele>1380.2</ele>
        <time>2020-07-21T10:50:02Z</time>
      </trkpt>
      <trkpt lat="46.65513" lon="6.23763">
        <ele>1380.3</ele>
        <time>2020-07-21T10:50:04Z</time>
      </trkpt>
      <trkpt lat="46.65512" lon="6.2377">
        <ele>1380.9</ele>
        <time>2020-07-21T10:50:11Z</time>
      </trkpt>
      <trkpt lat="46.65513" lon="6.23779">
        <ele>1381.7</ele>
        <time>2020-07-21T10:50:16Z</time>
      </trkpt>
      <trkpt lat="46.65514" lon="6.23786">
        <ele>1382.1</ele>
        <time>2020-07-21T10:50:18Z</time>
      </trkpt>
      <trkpt lat="46.65515" lon="6.23801">
        <ele>1384.6</ele>
        <time>2020-07-21T10:50:29Z</time>
      </trkpt>
      <trkpt lat="46.65516" lon="6.23809">
        <ele>1385.1</ele>
        <time>2020-07-21T10:50:34Z</time>
      </trkpt>
      <trkpt lat="46.65517" lon="6.23816">
        <ele>1385.3</ele>
        <time>2020-07-21T10:50:37Z</time>
      </trkpt>
      <trkpt lat="46.65519" lon="6.23823">
        <ele>1385.3</ele>
        <time>2020-07-21T10:50:55Z</time>
      </trkpt>
      <trkpt lat="46.65521" lon="6.23829">
        <ele>1385.4</ele>
        <time>2020-07-21T10:51:05Z</time>
      </trkpt>
      <trkpt lat="46.65526" lon="6.23828">
        <ele>1388.8</ele>
        <time>2020-07-21T10:51:19Z</time>
      </trkpt>
      <trkpt lat="46.65531" lon="6.23826">
        <ele>1389.7</ele>
        <time>2020-07-21T10:51:23Z</time>
      </trkpt>
      <trkpt lat="46.65534" lon="6.23817">
        <ele>1399.1</ele>
        <time>2020-07-21T10:54:57Z</time>
      </trkpt>
      <trkpt lat="46.65542" lon="6.23806">
        <ele>1400.3</ele>
        <time>2020-07-21T10:56:30Z</time>
      </trkpt>
      <trkpt lat="46.65543" lon="6.23799">
        <ele>1400.4</ele>
        <time>2020-07-21T10:56:34Z</time>
      </trkpt>
      <trkpt lat="46.65547" lon="6.23796">
        <ele>1400.9</ele>
        <time>2020-07-21T10:56:41Z</time>
      </trkpt>
      <trkpt lat="46.65551" lon="6.23793">
        <ele>1401.7</ele>
        <time>2020-07-21T10:56:48Z</time>
      </trkpt>
      <trkpt lat="46.65565" lon="6.23791">
        <ele>1404.5</ele>
        <time>2020-07-21T10:57:14Z</time>
      </trkpt>
      <trkpt lat="46.6557" lon="6.23792">
        <ele>1404.7</ele>
        <time>2020-07-21T10:57:17Z</time>
      </trkpt>
      <trkpt lat="46.65575" lon="6.23795">
        <ele>1404.9</ele>
        <time>2020-07-21T10:57:20Z</time>
      </trkpt>
      <trkpt lat="46.65579" lon="6.23797">
        <ele>1406.1</ele>
        <time>2020-07-21T10:57:29Z</time>
      </trkpt>
      <trkpt lat="46.65585" lon="6.23799">
        <ele>1406.9</ele>
        <time>2020-07-21T10:57:34Z</time>
      </trkpt>
      <trkpt lat="46.65592" lon="6.23801">
        <ele>1407.3</ele>
        <time>2020-07-21T10:57:38Z</time>
      </trkpt>
      <trkpt lat="46.65598" lon="6.23802">
        <ele>1407.4</ele>
        <time>2020-07-21T10:57:40Z</time>
      </trkpt>
      <trkpt lat="46.65603" lon="6.23802">
        <ele>1407.5</ele>
        <time>2020-07-21T10:57:44Z</time>
      </trkpt>
      <trkpt lat="46.65608" lon="6.23799">
        <ele>1407.6</ele>
        <time>2020-07-21T10:57:54Z</time>
      </trkpt>
      <trkpt lat="46.6561" lon="6.23793">
        <ele>1407.5</ele>
        <time>2020-07-21T10:58:01Z</time>
      </trkpt>
      <trkpt lat="46.65616" lon="6.2379">
        <ele>1406.8</ele>
        <time>2020-07-21T10:58:08Z</time>
      </trkpt>
      <trkpt lat="46.65621" lon="6.23787">
        <ele>1405.9</ele>
        <time>2020-07-21T10:58:13Z</time>
      </trkpt>
      <trkpt lat="46.65626" lon="6.23785">
        <ele>1405.1</ele>
        <time>2020-07-21T10:58:17Z</time>
      </trkpt>
      <trkpt lat="46.65629" lon="6.2378">
        <ele>1403.7</ele>
        <time>2020-07-21T10:58:23Z</time>
      </trkpt>
      <trkpt lat="46.65632" lon="6.23775">
        <ele>1401.6</ele>
        <time>2020-07-21T10:58:33Z</time>
      </trkpt>
      <trkpt lat="46.65633" lon="6.23767">
        <ele>1400.8</ele>
        <time>2020-07-21T10:58:37Z</time>
      </trkpt>
      <trkpt lat="46.65634" lon="6.23761">
        <ele>1399.9</ele>
        <time>2020-07-21T10:58:42Z</time>
      </trkpt>
      <trkpt lat="46.65635" lon="6.23754">
        <ele>1399</ele>
        <time>2020-07-21T10:58:47Z</time>
      </trkpt>
      <trkpt lat="46.65637" lon="6.23746">
        <ele>1397.9</ele>
        <time>2020-07-21T10:58:55Z</time>
      </trkpt>
      <trkpt lat="46.6564" lon="6.23739">
        <ele>1397.5</ele>
        <time>2020-07-21T10:58:59Z</time>
      </trkpt>
      <trkpt lat="46.65643" lon="6.23732">
        <ele>1397.2</ele>
        <time>2020-07-21T10:59:03Z</time>
      </trkpt>
      <trkpt lat="46.65645" lon="6.23727">
        <ele>1396.8</ele>
        <time>2020-07-21T10:59:07Z</time>
      </trkpt>
      <trkpt lat="46.65648" lon="6.23721">
        <ele>1396.4</ele>
        <time>2020-07-21T10:59:12Z</time>
      </trkpt>
      <trkpt lat="46.6565" lon="6.23715">
        <ele>1395.4</ele>
        <time>2020-07-21T10:59:20Z</time>
      </trkpt>
      <trkpt lat="46.65654" lon="6.2371">
        <ele>1394.6</ele>
        <time>2020-07-21T10:59:27Z</time>
      </trkpt>
      <trkpt lat="46.65658" lon="6.23708">
        <ele>1394.1</ele>
        <time>2020-07-21T10:59:34Z</time>
      </trkpt>
      <trkpt lat="46.65663" lon="6.23707">
        <ele>1393.9</ele>
        <time>2020-07-21T10:59:39Z</time>
      </trkpt>
      <trkpt lat="46.65668" lon="6.23707">
        <ele>1393.6</ele>
        <time>2020-07-21T10:59:45Z</time>
      </trkpt>
      <trkpt lat="46.65672" lon="6.23702">
        <ele>1393.2</ele>
        <time>2020-07-21T10:59:53Z</time>
      </trkpt>
      <trkpt lat="46.65675" lon="6.23697">
        <ele>1393</ele>
        <time>2020-07-21T10:59:57Z</time>
      </trkpt>
      <trkpt lat="46.65677" lon="6.23691">
        <ele>1392.9</ele>
        <time>2020-07-21T11:00:01Z</time>
      </trkpt>
      <trkpt lat="46.65681" lon="6.23686">
        <ele>1393</ele>
        <time>2020-07-21T11:00:05Z</time>
      </trkpt>
      <trkpt lat="46.65685" lon="6.23683">
        <ele>1393.2</ele>
        <time>2020-07-21T11:00:12Z</time>
      </trkpt>
      <trkpt lat="46.6569" lon="6.23681">
        <ele>1393.3</ele>
        <time>2020-07-21T11:00:19Z</time>
      </trkpt>
      <trkpt lat="46.65694" lon="6.23676">
        <ele>1393.3</ele>
        <time>2020-07-21T11:00:24Z</time>
      </trkpt>
      <trkpt lat="46.65696" lon="6.2367">
        <ele>1393.2</ele>
        <time>2020-07-21T11:00:29Z</time>
      </trkpt>
      <trkpt lat="46.65696" lon="6.23664">
        <ele>1393</ele>
        <time>2020-07-21T11:00:34Z</time>
      </trkpt>
      <trkpt lat="46.65696" lon="6.23656">
        <ele>1392.4</ele>
        <time>2020-07-21T11:00:40Z</time>
      </trkpt>
      <trkpt lat="46.65695" lon="6.23649">
        <ele>1391.3</ele>
        <time>2020-07-21T11:00:46Z</time>
      </trkpt>
      <trkpt lat="46.65695" lon="6.23637">
        <ele>1388.7</ele>
        <time>2020-07-21T11:00:57Z</time>
      </trkpt>
      <trkpt lat="46.65698" lon="6.23629">
        <ele>1388.3</ele>
        <time>2020-07-21T11:01:03Z</time>
      </trkpt>
      <trkpt lat="46.65701" lon="6.23622">
        <ele>1388</ele>
        <time>2020-07-21T11:01:07Z</time>
      </trkpt>
      <trkpt lat="46.65703" lon="6.23615">
        <ele>1387.6</ele>
        <time>2020-07-21T11:01:11Z</time>
      </trkpt>
      <trkpt lat="46.65706" lon="6.2361">
        <ele>1387.3</ele>
        <time>2020-07-21T11:01:16Z</time>
      </trkpt>
      <trkpt lat="46.65708" lon="6.23604">
        <ele>1387</ele>
        <time>2020-07-21T11:01:22Z</time>
      </trkpt>
      <trkpt lat="46.6571" lon="6.23597">
        <ele>1386.8</ele>
        <time>2020-07-21T11:01:27Z</time>
      </trkpt>
      <trkpt lat="46.65712" lon="6.2359">
        <ele>1386.8</ele>
        <time>2020-07-21T11:01:31Z</time>
      </trkpt>
      <trkpt lat="46.65715" lon="6.23583">
        <ele>1386.8</ele>
        <time>2020-07-21T11:01:36Z</time>
      </trkpt>
      <trkpt lat="46.65717" lon="6.23576">
        <ele>1387.2</ele>
        <time>2020-07-21T11:01:41Z</time>
      </trkpt>
      <trkpt lat="46.65721" lon="6.23571">
        <ele>1388.2</ele>
        <time>2020-07-21T11:01:47Z</time>
      </trkpt>
      <trkpt lat="46.65724" lon="6.23566">
        <ele>1389.7</ele>
        <time>2020-07-21T11:01:56Z</time>
      </trkpt>
      <trkpt lat="46.65726" lon="6.23558">
        <ele>1390.7</ele>
        <time>2020-07-21T11:02:00Z</time>
      </trkpt>
      <trkpt lat="46.65728" lon="6.23551">
        <ele>1391.8</ele>
        <time>2020-07-21T11:02:04Z</time>
      </trkpt>
      <trkpt lat="46.65727" lon="6.23544">
        <ele>1392.7</ele>
        <time>2020-07-21T11:02:07Z</time>
      </trkpt>
      <trkpt lat="46.65728" lon="6.23537">
        <ele>1393.3</ele>
        <time>2020-07-21T11:02:09Z</time>
      </trkpt>
      <trkpt lat="46.65728" lon="6.2353">
        <ele>1394.3</ele>
        <time>2020-07-21T11:02:14Z</time>
      </trkpt>
      <trkpt lat="46.65727" lon="6.23521">
        <ele>1395</ele>
        <time>2020-07-21T11:02:19Z</time>
      </trkpt>
      <trkpt lat="46.65723" lon="6.23512">
        <ele>1395.3</ele>
        <time>2020-07-21T11:02:21Z</time>
      </trkpt>
      <trkpt lat="46.65718" lon="6.23503">
        <ele>1395.4</ele>
        <time>2020-07-21T11:02:23Z</time>
      </trkpt>
      <trkpt lat="46.65715" lon="6.23498">
        <ele>1395.6</ele>
        <time>2020-07-21T11:02:26Z</time>
      </trkpt>
      <trkpt lat="46.65713" lon="6.23492">
        <ele>1395.9</ele>
        <time>2020-07-21T11:02:36Z</time>
      </trkpt>
      <trkpt lat="46.65717" lon="6.23488">
        <ele>1395.4</ele>
        <time>2020-07-21T11:02:46Z</time>
      </trkpt>
      <trkpt lat="46.65721" lon="6.23487">
        <ele>1394.5</ele>
        <time>2020-07-21T11:02:56Z</time>
      </trkpt>
      <trkpt lat="46.65725" lon="6.23481">
        <ele>1394.1</ele>
        <time>2020-07-21T11:03:35Z</time>
      </trkpt>
      <trkpt lat="46.65726" lon="6.23471">
        <ele>1394.3</ele>
        <time>2020-07-21T11:03:40Z</time>
      </trkpt>
      <trkpt lat="46.65725" lon="6.23461">
        <ele>1394.4</ele>
        <time>2020-07-21T11:03:45Z</time>
      </trkpt>
      <trkpt lat="46.65726" lon="6.23455">
        <ele>1394.7</ele>
        <time>2020-07-21T11:03:50Z</time>
      </trkpt>
      <trkpt lat="46.65726" lon="6.23448">
        <ele>1395</ele>
        <time>2020-07-21T11:03:53Z</time>
      </trkpt>
      <trkpt lat="46.65724" lon="6.23439">
        <ele>1395.2</ele>
        <time>2020-07-21T11:03:55Z</time>
      </trkpt>
      <trkpt lat="46.65722" lon="6.23431">
        <ele>1395.4</ele>
        <time>2020-07-21T11:03:57Z</time>
      </trkpt>
      <trkpt lat="46.6572" lon="6.23422">
        <ele>1395.4</ele>
        <time>2020-07-21T11:04:00Z</time>
      </trkpt>
      <trkpt lat="46.65719" lon="6.23416">
        <ele>1395.4</ele>
        <time>2020-07-21T11:04:03Z</time>
      </trkpt>
      <trkpt lat="46.65718" lon="6.23408">
        <ele>1395.2</ele>
        <time>2020-07-21T11:04:07Z</time>
      </trkpt>
      <trkpt lat="46.6572" lon="6.23402">
        <ele>1394.9</ele>
        <time>2020-07-21T11:04:10Z</time>
      </trkpt>
      <trkpt lat="46.65722" lon="6.23396">
        <ele>1394.4</ele>
        <time>2020-07-21T11:04:15Z</time>
      </trkpt>
      <trkpt lat="46.65726" lon="6.23389">
        <ele>1394.1</ele>
        <time>2020-07-21T11:04:19Z</time>
      </trkpt>
      <trkpt lat="46.65729" lon="6.23384">
        <ele>1393.3</ele>
        <time>2020-07-21T11:04:26Z</time>
      </trkpt>
      <trkpt lat="46.65733" lon="6.2338">
        <ele>1392</ele>
        <time>2020-07-21T11:04:34Z</time>
      </trkpt>
      <trkpt lat="46.65736" lon="6.23376">
        <ele>1391.4</ele>
        <time>2020-07-21T11:04:38Z</time>
      </trkpt>
      <trkpt lat="46.65741" lon="6.23371">
        <ele>1390.6</ele>
        <time>2020-07-21T11:04:43Z</time>
      </trkpt>
      <trkpt lat="46.65744" lon="6.23368">
        <ele>1389.9</ele>
        <time>2020-07-21T11:04:47Z</time>
      </trkpt>
      <trkpt lat="46.65748" lon="6.23363">
        <ele>1389.3</ele>
        <time>2020-07-21T11:04:50Z</time>
      </trkpt>
      <trkpt lat="46.65751" lon="6.23358">
        <ele>1388.5</ele>
        <time>2020-07-21T11:04:54Z</time>
      </trkpt>
      <trkpt lat="46.65755" lon="6.23352">
        <ele>1387.5</ele>
        <time>2020-07-21T11:04:58Z</time>
      </trkpt>
      <trkpt lat="46.65759" lon="6.23348">
        <ele>1386.6</ele>
        <time>2020-07-21T11:05:01Z</time>
      </trkpt>
      <trkpt lat="46.65762" lon="6.23341">
        <ele>1385.2</ele>
        <time>2020-07-21T11:05:06Z</time>
      </trkpt>
      <trkpt lat="46.65765" lon="6.23338">
        <ele>1383.2</ele>
        <time>2020-07-21T11:05:14Z</time>
      </trkpt>
      <trkpt lat="46.65768" lon="6.23333">
        <ele>1382.1</ele>
        <time>2020-07-21T11:05:18Z</time>
      </trkpt>
      <trkpt lat="46.65772" lon="6.23327">
        <ele>1380.7</ele>
        <time>2020-07-21T11:05:23Z</time>
      </trkpt>
      <trkpt lat="46.65776" lon="6.23323">
        <ele>1379.5</ele>
        <time>2020-07-21T11:05:28Z</time>
      </trkpt>
      <trkpt lat="46.65778" lon="6.23317">
        <ele>1378.7</ele>
        <time>2020-07-21T11:05:32Z</time>
      </trkpt>
      <trkpt lat="46.65782" lon="6.23311">
        <ele>1377.9</ele>
        <time>2020-07-21T11:05:36Z</time>
      </trkpt>
      <trkpt lat="46.65786" lon="6.23307">
        <ele>1377.3</ele>
        <time>2020-07-21T11:05:40Z</time>
      </trkpt>
      <trkpt lat="46.6579" lon="6.23303">
        <ele>1376.6</ele>
        <time>2020-07-21T11:05:46Z</time>
      </trkpt>
      <trkpt lat="46.65793" lon="6.23297">
        <ele>1375.8</ele>
        <time>2020-07-21T11:05:52Z</time>
      </trkpt>
      <trkpt lat="46.65795" lon="6.23291">
        <ele>1374.6</ele>
        <time>2020-07-21T11:06:00Z</time>
      </trkpt>
      <trkpt lat="46.65796" lon="6.23283">
        <ele>1369.7</ele>
        <time>2020-07-21T11:06:28Z</time>
      </trkpt>
      <trkpt lat="46.65797" lon="6.23276">
        <ele>1368.9</ele>
        <time>2020-07-21T11:06:34Z</time>
      </trkpt>
      <trkpt lat="46.65801" lon="6.23271">
        <ele>1368.3</ele>
        <time>2020-07-21T11:06:39Z</time>
      </trkpt>
      <trkpt lat="46.65805" lon="6.23266">
        <ele>1367.7</ele>
        <time>2020-07-21T11:06:43Z</time>
      </trkpt>
      <trkpt lat="46.65808" lon="6.23261">
        <ele>1367.2</ele>
        <time>2020-07-21T11:06:47Z</time>
      </trkpt>
      <trkpt lat="46.65809" lon="6.23253">
        <ele>1366.8</ele>
        <time>2020-07-21T11:06:51Z</time>
      </trkpt>
      <trkpt lat="46.6581" lon="6.23245">
        <ele>1366.4</ele>
        <time>2020-07-21T11:06:55Z</time>
      </trkpt>
      <trkpt lat="46.65813" lon="6.23238">
        <ele>1366.2</ele>
        <time>2020-07-21T11:07:00Z</time>
      </trkpt>
      <trkpt lat="46.65816" lon="6.23232">
        <ele>1366.1</ele>
        <time>2020-07-21T11:07:05Z</time>
      </trkpt>
      <trkpt lat="46.65818" lon="6.23226">
        <ele>1366.1</ele>
        <time>2020-07-21T11:07:10Z</time>
      </trkpt>
      <trkpt lat="46.65821" lon="6.2322">
        <ele>1366.2</ele>
        <time>2020-07-21T11:07:16Z</time>
      </trkpt>
      <trkpt lat="46.65823" lon="6.23213">
        <ele>1366.3</ele>
        <time>2020-07-21T11:07:23Z</time>
      </trkpt>
      <trkpt lat="46.65827" lon="6.23209">
        <ele>1366.3</ele>
        <time>2020-07-21T11:07:29Z</time>
      </trkpt>
      <trkpt lat="46.65831" lon="6.23204">
        <ele>1366.2</ele>
        <time>2020-07-21T11:07:35Z</time>
      </trkpt>
      <trkpt lat="46.65834" lon="6.23199">
        <ele>1365.8</ele>
        <time>2020-07-21T11:07:41Z</time>
      </trkpt>
      <trkpt lat="46.65835" lon="6.23192">
        <ele>1363.6</ele>
        <time>2020-07-21T11:08:16Z</time>
      </trkpt>
      <trkpt lat="46.65835" lon="6.23185">
        <ele>1364.3</ele>
        <time>2020-07-21T11:09:06Z</time>
      </trkpt>
      <trkpt lat="46.65836" lon="6.23179">
        <ele>1364.3</ele>
        <time>2020-07-21T11:09:13Z</time>
      </trkpt>
      <trkpt lat="46.65839" lon="6.23172">
        <ele>1364.2</ele>
        <time>2020-07-21T11:09:17Z</time>
      </trkpt>
      <trkpt lat="46.6584" lon="6.23165">
        <ele>1364.2</ele>
        <time>2020-07-21T11:09:23Z</time>
      </trkpt>
      <trkpt lat="46.65844" lon="6.23159">
        <ele>1364.2</ele>
        <time>2020-07-21T11:09:28Z</time>
      </trkpt>
      <trkpt lat="46.65847" lon="6.23153">
        <ele>1364.2</ele>
        <time>2020-07-21T11:09:32Z</time>
      </trkpt>
      <trkpt lat="46.65848" lon="6.23146">
        <ele>1364</ele>
        <time>2020-07-21T11:09:38Z</time>
      </trkpt>
      <trkpt lat="46.65849" lon="6.23139">
        <ele>1363.3</ele>
        <time>2020-07-21T11:09:45Z</time>
      </trkpt>
      <trkpt lat="46.65851" lon="6.23133">
        <ele>1362.1</ele>
        <time>2020-07-21T11:09:51Z</time>
      </trkpt>
      <trkpt lat="46.65855" lon="6.23128">
        <ele>1360.6</ele>
        <time>2020-07-21T11:09:58Z</time>
      </trkpt>
      <trkpt lat="46.65858" lon="6.23122">
        <ele>1359.3</ele>
        <time>2020-07-21T11:10:05Z</time>
      </trkpt>
      <trkpt lat="46.65862" lon="6.23117">
        <ele>1358.4</ele>
        <time>2020-07-21T11:10:11Z</time>
      </trkpt>
      <trkpt lat="46.65865" lon="6.2311">
        <ele>1357.4</ele>
        <time>2020-07-21T11:10:18Z</time>
      </trkpt>
      <trkpt lat="46.65867" lon="6.23103">
        <ele>1356.9</ele>
        <time>2020-07-21T11:10:23Z</time>
      </trkpt>
      <trkpt lat="46.6587" lon="6.23096">
        <ele>1356.7</ele>
        <time>2020-07-21T11:10:27Z</time>
      </trkpt>
      <trkpt lat="46.65873" lon="6.23091">
        <ele>1356.6</ele>
        <time>2020-07-21T11:10:31Z</time>
      </trkpt>
      <trkpt lat="46.65874" lon="6.23084">
        <ele>1356.5</ele>
        <time>2020-07-21T11:10:36Z</time>
      </trkpt>
      <trkpt lat="46.65875" lon="6.23078">
        <ele>1356.7</ele>
        <time>2020-07-21T11:10:40Z</time>
      </trkpt>
      <trkpt lat="46.65876" lon="6.2307">
        <ele>1356.7</ele>
        <time>2020-07-21T11:10:44Z</time>
      </trkpt>
      <trkpt lat="46.65878" lon="6.23062">
        <ele>1356.8</ele>
        <time>2020-07-21T11:10:48Z</time>
      </trkpt>
      <trkpt lat="46.6588" lon="6.23056">
        <ele>1356.7</ele>
        <time>2020-07-21T11:10:53Z</time>
      </trkpt>
      <trkpt lat="46.65883" lon="6.2305">
        <ele>1356.4</ele>
        <time>2020-07-21T11:10:59Z</time>
      </trkpt>
      <trkpt lat="46.65885" lon="6.23043">
        <ele>1355.7</ele>
        <time>2020-07-21T11:11:06Z</time>
      </trkpt>
      <trkpt lat="46.65888" lon="6.23038">
        <ele>1355</ele>
        <time>2020-07-21T11:11:12Z</time>
      </trkpt>
      <trkpt lat="46.65891" lon="6.23032">
        <ele>1353.7</ele>
        <time>2020-07-21T11:11:19Z</time>
      </trkpt>
      <trkpt lat="46.65893" lon="6.23026">
        <ele>1352.7</ele>
        <time>2020-07-21T11:11:25Z</time>
      </trkpt>
      <trkpt lat="46.65894" lon="6.23018">
        <ele>1351.7</ele>
        <time>2020-07-21T11:11:31Z</time>
      </trkpt>
      <trkpt lat="46.65895" lon="6.23011">
        <ele>1351</ele>
        <time>2020-07-21T11:11:36Z</time>
      </trkpt>
      <trkpt lat="46.65894" lon="6.23002">
        <ele>1350.4</ele>
        <time>2020-07-21T11:11:40Z</time>
      </trkpt>
      <trkpt lat="46.65894" lon="6.22995">
        <ele>1350</ele>
        <time>2020-07-21T11:11:44Z</time>
      </trkpt>
      <trkpt lat="46.65895" lon="6.22988">
        <ele>1349.5</ele>
        <time>2020-07-21T11:11:49Z</time>
      </trkpt>
      <trkpt lat="46.65896" lon="6.22981">
        <ele>1349</ele>
        <time>2020-07-21T11:11:54Z</time>
      </trkpt>
      <trkpt lat="46.65896" lon="6.22974">
        <ele>1348.6</ele>
        <time>2020-07-21T11:11:59Z</time>
      </trkpt>
      <trkpt lat="46.65898" lon="6.22966">
        <ele>1347.9</ele>
        <time>2020-07-21T11:12:04Z</time>
      </trkpt>
      <trkpt lat="46.65899" lon="6.22959">
        <ele>1347.2</ele>
        <time>2020-07-21T11:12:09Z</time>
      </trkpt>
      <trkpt lat="46.65901" lon="6.22953">
        <ele>1346.5</ele>
        <time>2020-07-21T11:12:14Z</time>
      </trkpt>
      <trkpt lat="46.65904" lon="6.22947">
        <ele>1345.9</ele>
        <time>2020-07-21T11:12:20Z</time>
      </trkpt>
      <trkpt lat="46.65906" lon="6.22941">
        <ele>1345.3</ele>
        <time>2020-07-21T11:12:26Z</time>
      </trkpt>
      <trkpt lat="46.65909" lon="6.22936">
        <ele>1344.7</ele>
        <time>2020-07-21T11:12:33Z</time>
      </trkpt>
      <trkpt lat="46.65912" lon="6.2293">
        <ele>1344.2</ele>
        <time>2020-07-21T11:12:39Z</time>
      </trkpt>
      <trkpt lat="46.65915" lon="6.22923">
        <ele>1344</ele>
        <time>2020-07-21T11:12:44Z</time>
      </trkpt>
      <trkpt lat="46.65917" lon="6.22916">
        <ele>1344</ele>
        <time>2020-07-21T11:12:49Z</time>
      </trkpt>
      <trkpt lat="46.6592" lon="6.22911">
        <ele>1344.1</ele>
        <time>2020-07-21T11:12:55Z</time>
      </trkpt>
      <trkpt lat="46.65922" lon="6.22905">
        <ele>1343.8</ele>
        <time>2020-07-21T11:13:01Z</time>
      </trkpt>
      <trkpt lat="46.65924" lon="6.22898">
        <ele>1343.5</ele>
        <time>2020-07-21T11:13:06Z</time>
      </trkpt>
      <trkpt lat="46.65927" lon="6.22892">
        <ele>1343.2</ele>
        <time>2020-07-21T11:13:10Z</time>
      </trkpt>
      <trkpt lat="46.6593" lon="6.22888">
        <ele>1342.8</ele>
        <time>2020-07-21T11:13:14Z</time>
      </trkpt>
      <trkpt lat="46.65933" lon="6.22882">
        <ele>1342.4</ele>
        <time>2020-07-21T11:13:18Z</time>
      </trkpt>
      <trkpt lat="46.65936" lon="6.22875">
        <ele>1342.1</ele>
        <time>2020-07-21T11:13:24Z</time>
      </trkpt>
      <trkpt lat="46.65939" lon="6.22869">
        <ele>1342</ele>
        <time>2020-07-21T11:13:29Z</time>
      </trkpt>
      <trkpt lat="46.65944" lon="6.22866">
        <ele>1341.4</ele>
        <time>2020-07-21T11:13:38Z</time>
      </trkpt>
      <trkpt lat="46.65948" lon="6.22863">
        <ele>1341.2</ele>
        <time>2020-07-21T11:13:47Z</time>
      </trkpt>
      <trkpt lat="46.65952" lon="6.22859">
        <ele>1341.1</ele>
        <time>2020-07-21T11:13:53Z</time>
      </trkpt>
      <trkpt lat="46.65956" lon="6.22855">
        <ele>1341</ele>
        <time>2020-07-21T11:14:00Z</time>
      </trkpt>
      <trkpt lat="46.6596" lon="6.22844">
        <ele>1340.8</ele>
        <time>2020-07-21T11:14:40Z</time>
      </trkpt>
      <trkpt lat="46.65962" lon="6.22838">
        <ele>1340.8</ele>
        <time>2020-07-21T11:14:45Z</time>
      </trkpt>
      <trkpt lat="46.65966" lon="6.22833">
        <ele>1340.7</ele>
        <time>2020-07-21T11:14:50Z</time>
      </trkpt>
      <trkpt lat="46.6597" lon="6.22827">
        <ele>1340.5</ele>
        <time>2020-07-21T11:14:55Z</time>
      </trkpt>
      <trkpt lat="46.65974" lon="6.22821">
        <ele>1340.4</ele>
        <time>2020-07-21T11:15:00Z</time>
      </trkpt>
      <trkpt lat="46.65978" lon="6.22817">
        <ele>1340.1</ele>
        <time>2020-07-21T11:15:04Z</time>
      </trkpt>
      <trkpt lat="46.65981" lon="6.2281">
        <ele>1339.6</ele>
        <time>2020-07-21T11:15:08Z</time>
      </trkpt>
      <trkpt lat="46.65983" lon="6.22804">
        <ele>1338.9</ele>
        <time>2020-07-21T11:15:13Z</time>
      </trkpt>
      <trkpt lat="46.65986" lon="6.22798">
        <ele>1338.3</ele>
        <time>2020-07-21T11:15:18Z</time>
      </trkpt>
      <trkpt lat="46.65989" lon="6.22792">
        <ele>1337.9</ele>
        <time>2020-07-21T11:15:22Z</time>
      </trkpt>
      <trkpt lat="46.65992" lon="6.22785">
        <ele>1337.5</ele>
        <time>2020-07-21T11:15:26Z</time>
      </trkpt>
      <trkpt lat="46.65995" lon="6.22778">
        <ele>1337.1</ele>
        <time>2020-07-21T11:15:31Z</time>
      </trkpt>
      <trkpt lat="46.65997" lon="6.22771">
        <ele>1336.6</ele>
        <time>2020-07-21T11:15:36Z</time>
      </trkpt>
      <trkpt lat="46.65999" lon="6.22765">
        <ele>1336</ele>
        <time>2020-07-21T11:15:42Z</time>
      </trkpt>
      <trkpt lat="46.66" lon="6.22759">
        <ele>1335.6</ele>
        <time>2020-07-21T11:15:46Z</time>
      </trkpt>
      <trkpt lat="46.66002" lon="6.22751">
        <ele>1335.2</ele>
        <time>2020-07-21T11:15:50Z</time>
      </trkpt>
      <trkpt lat="46.66004" lon="6.22745">
        <ele>1334.7</ele>
        <time>2020-07-21T11:15:54Z</time>
      </trkpt>
      <trkpt lat="46.66006" lon="6.22739">
        <ele>1333.9</ele>
        <time>2020-07-21T11:15:59Z</time>
      </trkpt>
      <trkpt lat="46.66009" lon="6.22733">
        <ele>1333.3</ele>
        <time>2020-07-21T11:16:03Z</time>
      </trkpt>
      <trkpt lat="46.66012" lon="6.22725">
        <ele>1332.8</ele>
        <time>2020-07-21T11:16:07Z</time>
      </trkpt>
      <trkpt lat="46.66014" lon="6.22719">
        <ele>1332.2</ele>
        <time>2020-07-21T11:16:13Z</time>
      </trkpt>
      <trkpt lat="46.66018" lon="6.22714">
        <ele>1331.7</ele>
        <time>2020-07-21T11:16:18Z</time>
      </trkpt>
      <trkpt lat="46.66031" lon="6.22708">
        <ele>1330.4</ele>
        <time>2020-07-21T11:16:27Z</time>
      </trkpt>
      <trkpt lat="46.66036" lon="6.22706">
        <ele>1330.1</ele>
        <time>2020-07-21T11:16:31Z</time>
      </trkpt>
      <trkpt lat="46.66041" lon="6.22704">
        <ele>1329.7</ele>
        <time>2020-07-21T11:16:35Z</time>
      </trkpt>
      <trkpt lat="46.66046" lon="6.22703">
        <ele>1329.2</ele>
        <time>2020-07-21T11:16:39Z</time>
      </trkpt>
      <trkpt lat="46.66051" lon="6.22701">
        <ele>1328.6</ele>
        <time>2020-07-21T11:16:44Z</time>
      </trkpt>
      <trkpt lat="46.66056" lon="6.227">
        <ele>1328</ele>
        <time>2020-07-21T11:16:48Z</time>
      </trkpt>
      <trkpt lat="46.66062" lon="6.22698">
        <ele>1327.4</ele>
        <time>2020-07-21T11:16:53Z</time>
      </trkpt>
      <trkpt lat="46.66067" lon="6.22696">
        <ele>1326.7</ele>
        <time>2020-07-21T11:16:58Z</time>
      </trkpt>
      <trkpt lat="46.66072" lon="6.22695">
        <ele>1326.2</ele>
        <time>2020-07-21T11:17:02Z</time>
      </trkpt>
      <trkpt lat="46.66077" lon="6.22693">
        <ele>1325.6</ele>
        <time>2020-07-21T11:17:07Z</time>
      </trkpt>
      <trkpt lat="46.66088" lon="6.22688">
        <ele>1323.5</ele>
        <time>2020-07-21T11:17:17Z</time>
      </trkpt>
      <trkpt lat="46.66094" lon="6.22689">
        <ele>1323.1</ele>
        <time>2020-07-21T11:17:21Z</time>
      </trkpt>
      <trkpt lat="46.66099" lon="6.2269">
        <ele>1322.7</ele>
        <time>2020-07-21T11:17:25Z</time>
      </trkpt>
      <trkpt lat="46.66104" lon="6.22692">
        <ele>1322.4</ele>
        <time>2020-07-21T11:17:28Z</time>
      </trkpt>
      <trkpt lat="46.66109" lon="6.22692">
        <ele>1322.2</ele>
        <time>2020-07-21T11:17:31Z</time>
      </trkpt>
      <trkpt lat="46.66115" lon="6.22691">
        <ele>1322</ele>
        <time>2020-07-21T11:17:34Z</time>
      </trkpt>
      <trkpt lat="46.6612" lon="6.22691">
        <ele>1322</ele>
        <time>2020-07-21T11:17:38Z</time>
      </trkpt>
      <trkpt lat="46.66125" lon="6.22691">
        <ele>1322.2</ele>
        <time>2020-07-21T11:17:43Z</time>
      </trkpt>
      <trkpt lat="46.6613" lon="6.22691">
        <ele>1322.5</ele>
        <time>2020-07-21T11:17:48Z</time>
      </trkpt>
      <trkpt lat="46.66136" lon="6.22691">
        <ele>1322.7</ele>
        <time>2020-07-21T11:17:52Z</time>
      </trkpt>
      <trkpt lat="46.66141" lon="6.22692">
        <ele>1322.8</ele>
        <time>2020-07-21T11:17:56Z</time>
      </trkpt>
      <trkpt lat="46.66146" lon="6.22694">
        <ele>1322.8</ele>
        <time>2020-07-21T11:17:59Z</time>
      </trkpt>
      <trkpt lat="46.66151" lon="6.22695">
        <ele>1322.7</ele>
        <time>2020-07-21T11:18:03Z</time>
      </trkpt>
      <trkpt lat="46.66155" lon="6.22696">
        <ele>1322.6</ele>
        <time>2020-07-21T11:18:06Z</time>
      </trkpt>
      <trkpt lat="46.6616" lon="6.22696">
        <ele>1322.5</ele>
        <time>2020-07-21T11:18:09Z</time>
      </trkpt>
      <trkpt lat="46.66166" lon="6.22696">
        <ele>1322.2</ele>
        <time>2020-07-21T11:18:13Z</time>
      </trkpt>
      <trkpt lat="46.6617" lon="6.22694">
        <ele>1322</ele>
        <time>2020-07-21T11:18:17Z</time>
      </trkpt>
      <trkpt lat="46.66175" lon="6.22693">
        <ele>1321.9</ele>
        <time>2020-07-21T11:18:22Z</time>
      </trkpt>
      <trkpt lat="46.6618" lon="6.22691">
        <ele>1321.8</ele>
        <time>2020-07-21T11:18:27Z</time>
      </trkpt>
      <trkpt lat="46.66185" lon="6.22688">
        <ele>1321.8</ele>
        <time>2020-07-21T11:18:32Z</time>
      </trkpt>
      <trkpt lat="46.6619" lon="6.22687">
        <ele>1321.8</ele>
        <time>2020-07-21T11:18:36Z</time>
      </trkpt>
      <trkpt lat="46.66195" lon="6.22685">
        <ele>1321.8</ele>
        <time>2020-07-21T11:18:41Z</time>
      </trkpt>
      <trkpt lat="46.662" lon="6.22684">
        <ele>1321.8</ele>
        <time>2020-07-21T11:18:45Z</time>
      </trkpt>
      <trkpt lat="46.66205" lon="6.22684">
        <ele>1321.8</ele>
        <time>2020-07-21T11:18:49Z</time>
      </trkpt>
      <trkpt lat="46.66211" lon="6.22683">
        <ele>1321.5</ele>
        <time>2020-07-21T11:18:54Z</time>
      </trkpt>
      <trkpt lat="46.66215" lon="6.22683">
        <ele>1321.1</ele>
        <time>2020-07-21T11:19:03Z</time>
      </trkpt>
      <trkpt lat="46.66221" lon="6.22683">
        <ele>1320.9</ele>
        <time>2020-07-21T11:19:08Z</time>
      </trkpt>
      <trkpt lat="46.66225" lon="6.22684">
        <ele>1320.7</ele>
        <time>2020-07-21T11:19:11Z</time>
      </trkpt>
      <trkpt lat="46.66231" lon="6.22682">
        <ele>1320.3</ele>
        <time>2020-07-21T11:19:16Z</time>
      </trkpt>
      <trkpt lat="46.66235" lon="6.2268">
        <ele>1319.9</ele>
        <time>2020-07-21T11:19:21Z</time>
      </trkpt>
      <trkpt lat="46.6624" lon="6.22677">
        <ele>1319.7</ele>
        <time>2020-07-21T11:19:28Z</time>
      </trkpt>
      <trkpt lat="46.66244" lon="6.22675">
        <ele>1319.6</ele>
        <time>2020-07-21T11:19:32Z</time>
      </trkpt>
      <trkpt lat="46.66248" lon="6.2267">
        <ele>1319.3</ele>
        <time>2020-07-21T11:19:38Z</time>
      </trkpt>
      <trkpt lat="46.66252" lon="6.22667">
        <ele>1318.9</ele>
        <time>2020-07-21T11:19:44Z</time>
      </trkpt>
      <trkpt lat="46.66255" lon="6.22663">
        <ele>1318.5</ele>
        <time>2020-07-21T11:19:50Z</time>
      </trkpt>
      <trkpt lat="46.6626" lon="6.22658">
        <ele>1318</ele>
        <time>2020-07-21T11:19:55Z</time>
      </trkpt>
      <trkpt lat="46.66265" lon="6.22654">
        <ele>1317.6</ele>
        <time>2020-07-21T11:19:58Z</time>
      </trkpt>
      <trkpt lat="46.66269" lon="6.22649">
        <ele>1316.8</ele>
        <time>2020-07-21T11:20:02Z</time>
      </trkpt>
      <trkpt lat="46.66274" lon="6.22645">
        <ele>1316.1</ele>
        <time>2020-07-21T11:20:08Z</time>
      </trkpt>
      <trkpt lat="46.66278" lon="6.22641">
        <ele>1315.7</ele>
        <time>2020-07-21T11:20:13Z</time>
      </trkpt>
      <trkpt lat="46.66282" lon="6.22639">
        <ele>1315</ele>
        <time>2020-07-21T11:20:18Z</time>
      </trkpt>
      <trkpt lat="46.66287" lon="6.22636">
        <ele>1314.3</ele>
        <time>2020-07-21T11:20:22Z</time>
      </trkpt>
      <trkpt lat="46.66291" lon="6.22633">
        <ele>1313.5</ele>
        <time>2020-07-21T11:20:27Z</time>
      </trkpt>
      <trkpt lat="46.66295" lon="6.2263">
        <ele>1313</ele>
        <time>2020-07-21T11:20:31Z</time>
      </trkpt>
      <trkpt lat="46.66299" lon="6.22627">
        <ele>1312.6</ele>
        <time>2020-07-21T11:20:36Z</time>
      </trkpt>
      <trkpt lat="46.66305" lon="6.22625">
        <ele>1312.1</ele>
        <time>2020-07-21T11:20:43Z</time>
      </trkpt>
      <trkpt lat="46.66309" lon="6.22623">
        <ele>1311.6</ele>
        <time>2020-07-21T11:20:47Z</time>
      </trkpt>
      <trkpt lat="46.66314" lon="6.2262">
        <ele>1311</ele>
        <time>2020-07-21T11:20:51Z</time>
      </trkpt>
      <trkpt lat="46.66318" lon="6.22618">
        <ele>1310.5</ele>
        <time>2020-07-21T11:20:54Z</time>
      </trkpt>
      <trkpt lat="46.66323" lon="6.22617">
        <ele>1310</ele>
        <time>2020-07-21T11:20:59Z</time>
      </trkpt>
      <trkpt lat="46.66328" lon="6.22614">
        <ele>1309.4</ele>
        <time>2020-07-21T11:21:06Z</time>
      </trkpt>
      <trkpt lat="46.66332" lon="6.22611">
        <ele>1309.3</ele>
        <time>2020-07-21T11:21:10Z</time>
      </trkpt>
      <trkpt lat="46.66336" lon="6.2261">
        <ele>1309.2</ele>
        <time>2020-07-21T11:21:15Z</time>
      </trkpt>
      <trkpt lat="46.66341" lon="6.22607">
        <ele>1308.8</ele>
        <time>2020-07-21T11:21:21Z</time>
      </trkpt>
      <trkpt lat="46.66345" lon="6.22605">
        <ele>1308.1</ele>
        <time>2020-07-21T11:21:26Z</time>
      </trkpt>
      <trkpt lat="46.6635" lon="6.22604">
        <ele>1307.4</ele>
        <time>2020-07-21T11:21:31Z</time>
      </trkpt>
      <trkpt lat="46.66355" lon="6.22603">
        <ele>1306.4</ele>
        <time>2020-07-21T11:21:37Z</time>
      </trkpt>
      <trkpt lat="46.6636" lon="6.22603">
        <ele>1305.6</ele>
        <time>2020-07-21T11:21:43Z</time>
      </trkpt>
      <trkpt lat="46.66365" lon="6.22602">
        <ele>1305.1</ele>
        <time>2020-07-21T11:21:48Z</time>
      </trkpt>
      <trkpt lat="46.6637" lon="6.22599">
        <ele>1304.7</ele>
        <time>2020-07-21T11:21:52Z</time>
      </trkpt>
      <trkpt lat="46.66375" lon="6.22597">
        <ele>1303.3</ele>
        <time>2020-07-21T11:22:00Z</time>
      </trkpt>
      <trkpt lat="46.66379" lon="6.22595">
        <ele>1301.7</ele>
        <time>2020-07-21T11:22:07Z</time>
      </trkpt>
      <trkpt lat="46.66383" lon="6.22591">
        <ele>1299.4</ele>
        <time>2020-07-21T11:22:16Z</time>
      </trkpt>
      <trkpt lat="46.66388" lon="6.22589">
        <ele>1297</ele>
        <time>2020-07-21T11:22:27Z</time>
      </trkpt>
      <trkpt lat="46.6639" lon="6.22583">
        <ele>1292.1</ele>
        <time>2020-07-21T11:22:45Z</time>
      </trkpt>
      <trkpt lat="46.66399" lon="6.22577">
        <ele>1289.8</ele>
        <time>2020-07-21T11:23:00Z</time>
      </trkpt>
      <trkpt lat="46.66404" lon="6.22574">
        <ele>1290</ele>
        <time>2020-07-21T11:23:06Z</time>
      </trkpt>
      <trkpt lat="46.66408" lon="6.22571">
        <ele>1290.7</ele>
        <time>2020-07-21T11:23:12Z</time>
      </trkpt>
      <trkpt lat="46.66413" lon="6.22566">
        <ele>1291.3</ele>
        <time>2020-07-21T11:23:18Z</time>
      </trkpt>
      <trkpt lat="46.66415" lon="6.2256">
        <ele>1292.3</ele>
        <time>2020-07-21T11:23:26Z</time>
      </trkpt>
      <trkpt lat="46.66417" lon="6.22553">
        <ele>1292.9</ele>
        <time>2020-07-21T11:23:35Z</time>
      </trkpt>
      <trkpt lat="46.66418" lon="6.22547">
        <ele>1292.8</ele>
        <time>2020-07-21T11:23:43Z</time>
      </trkpt>
      <trkpt lat="46.66416" lon="6.22541">
        <ele>1291.6</ele>
        <time>2020-07-21T11:24:00Z</time>
      </trkpt>
      <trkpt lat="46.66417" lon="6.22534">
        <ele>1291.2</ele>
        <time>2020-07-21T11:24:07Z</time>
      </trkpt>
      <trkpt lat="46.66418" lon="6.22526">
        <ele>1291</ele>
        <time>2020-07-21T11:24:12Z</time>
      </trkpt>
      <trkpt lat="46.66418" lon="6.2252">
        <ele>1290.9</ele>
        <time>2020-07-21T11:24:17Z</time>
      </trkpt>
      <trkpt lat="46.66417" lon="6.22513">
        <ele>1290.7</ele>
        <time>2020-07-21T11:24:21Z</time>
      </trkpt>
      <trkpt lat="46.66416" lon="6.22506">
        <ele>1290.5</ele>
        <time>2020-07-21T11:24:26Z</time>
      </trkpt>
      <trkpt lat="46.66417" lon="6.22498">
        <ele>1290.5</ele>
        <time>2020-07-21T11:24:31Z</time>
      </trkpt>
      <trkpt lat="46.66417" lon="6.22491">
        <ele>1290.5</ele>
        <time>2020-07-21T11:24:35Z</time>
      </trkpt>
      <trkpt lat="46.66418" lon="6.22484">
        <ele>1290.4</ele>
        <time>2020-07-21T11:24:40Z</time>
      </trkpt>
      <trkpt lat="46.66419" lon="6.22478">
        <ele>1290</ele>
        <time>2020-07-21T11:24:46Z</time>
      </trkpt>
      <trkpt lat="46.66419" lon="6.2247">
        <ele>1289.5</ele>
        <time>2020-07-21T11:24:52Z</time>
      </trkpt>
      <trkpt lat="46.66417" lon="6.22463">
        <ele>1288.9</ele>
        <time>2020-07-21T11:24:57Z</time>
      </trkpt>
      <trkpt lat="46.66417" lon="6.22455">
        <ele>1288.2</ele>
        <time>2020-07-21T11:25:03Z</time>
      </trkpt>
      <trkpt lat="46.66416" lon="6.22448">
        <ele>1287.7</ele>
        <time>2020-07-21T11:25:08Z</time>
      </trkpt>
      <trkpt lat="46.66417" lon="6.22441">
        <ele>1286.4</ele>
        <time>2020-07-21T11:25:20Z</time>
      </trkpt>
      <trkpt lat="46.66418" lon="6.22434">
        <ele>1285.6</ele>
        <time>2020-07-21T11:25:29Z</time>
      </trkpt>
      <trkpt lat="46.66414" lon="6.22431">
        <ele>1284.2</ele>
        <time>2020-07-21T11:25:46Z</time>
      </trkpt>
      <trkpt lat="46.66413" lon="6.22423">
        <ele>1283.6</ele>
        <time>2020-07-21T11:25:51Z</time>
      </trkpt>
      <trkpt lat="46.66414" lon="6.22416">
        <ele>1283.1</ele>
        <time>2020-07-21T11:25:56Z</time>
      </trkpt>
      <trkpt lat="46.66416" lon="6.22409">
        <ele>1282.6</ele>
        <time>2020-07-21T11:26:00Z</time>
      </trkpt>
      <trkpt lat="46.66418" lon="6.22402">
        <ele>1282.1</ele>
        <time>2020-07-21T11:26:04Z</time>
      </trkpt>
      <trkpt lat="46.6642" lon="6.22395">
        <ele>1281.5</ele>
        <time>2020-07-21T11:26:08Z</time>
      </trkpt>
      <trkpt lat="46.66423" lon="6.22389">
        <ele>1280.9</ele>
        <time>2020-07-21T11:26:12Z</time>
      </trkpt>
      <trkpt lat="46.66427" lon="6.22384">
        <ele>1280</ele>
        <time>2020-07-21T11:26:17Z</time>
      </trkpt>
      <trkpt lat="46.66432" lon="6.22379">
        <ele>1279.5</ele>
        <time>2020-07-21T11:26:21Z</time>
      </trkpt>
      <trkpt lat="46.66435" lon="6.22372">
        <ele>1279.1</ele>
        <time>2020-07-21T11:26:25Z</time>
      </trkpt>
      <trkpt lat="46.66436" lon="6.22365">
        <ele>1278.8</ele>
        <time>2020-07-21T11:26:30Z</time>
      </trkpt>
      <trkpt lat="46.6644" lon="6.22359">
        <ele>1278.5</ele>
        <time>2020-07-21T11:26:35Z</time>
      </trkpt>
      <trkpt lat="46.66442" lon="6.22352">
        <ele>1278.4</ele>
        <time>2020-07-21T11:26:39Z</time>
      </trkpt>
      <trkpt lat="46.66445" lon="6.22346">
        <ele>1278.5</ele>
        <time>2020-07-21T11:26:44Z</time>
      </trkpt>
      <trkpt lat="46.66447" lon="6.22341">
        <ele>1278.5</ele>
        <time>2020-07-21T11:26:48Z</time>
      </trkpt>
      <trkpt lat="46.66451" lon="6.22336">
        <ele>1278.5</ele>
        <time>2020-07-21T11:26:53Z</time>
      </trkpt>
      <trkpt lat="46.66454" lon="6.22331">
        <ele>1278.5</ele>
        <time>2020-07-21T11:26:57Z</time>
      </trkpt>
      <trkpt lat="46.66457" lon="6.22325">
        <ele>1278.2</ele>
        <time>2020-07-21T11:27:02Z</time>
      </trkpt>
      <trkpt lat="46.6646" lon="6.22319">
        <ele>1277.8</ele>
        <time>2020-07-21T11:27:07Z</time>
      </trkpt>
      <trkpt lat="46.66464" lon="6.22314">
        <ele>1277.4</ele>
        <time>2020-07-21T11:27:13Z</time>
      </trkpt>
      <trkpt lat="46.66468" lon="6.22309">
        <ele>1276.9</ele>
        <time>2020-07-21T11:27:18Z</time>
      </trkpt>
      <trkpt lat="46.66471" lon="6.22305">
        <ele>1276</ele>
        <time>2020-07-21T11:27:24Z</time>
      </trkpt>
      <trkpt lat="46.66476" lon="6.22301">
        <ele>1275.4</ele>
        <time>2020-07-21T11:27:29Z</time>
      </trkpt>
      <trkpt lat="46.66479" lon="6.22297">
        <ele>1274.9</ele>
        <time>2020-07-21T11:27:33Z</time>
      </trkpt>
      <trkpt lat="46.66483" lon="6.22293">
        <ele>1274.2</ele>
        <time>2020-07-21T11:27:38Z</time>
      </trkpt>
      <trkpt lat="46.66487" lon="6.22288">
        <ele>1273.5</ele>
        <time>2020-07-21T11:27:43Z</time>
      </trkpt>
      <trkpt lat="46.6649" lon="6.22282">
        <ele>1272.8</ele>
        <time>2020-07-21T11:27:47Z</time>
      </trkpt>
      <trkpt lat="46.66492" lon="6.22277">
        <ele>1272.2</ele>
        <time>2020-07-21T11:27:51Z</time>
      </trkpt>
      <trkpt lat="46.66494" lon="6.2227">
        <ele>1271.5</ele>
        <time>2020-07-21T11:27:56Z</time>
      </trkpt>
      <trkpt lat="46.66495" lon="6.22264">
        <ele>1270.9</ele>
        <time>2020-07-21T11:28:01Z</time>
      </trkpt>
      <trkpt lat="46.66496" lon="6.22256">
        <ele>1270.2</ele>
        <time>2020-07-21T11:28:06Z</time>
      </trkpt>
      <trkpt lat="46.66497" lon="6.22248">
        <ele>1269.4</ele>
        <time>2020-07-21T11:28:11Z</time>
      </trkpt>
      <trkpt lat="46.66497" lon="6.22241">
        <ele>1268.7</ele>
        <time>2020-07-21T11:28:15Z</time>
      </trkpt>
      <trkpt lat="46.66498" lon="6.22234">
        <ele>1268</ele>
        <time>2020-07-21T11:28:20Z</time>
      </trkpt>
      <trkpt lat="46.66499" lon="6.22227">
        <ele>1267</ele>
        <time>2020-07-21T11:28:26Z</time>
      </trkpt>
      <trkpt lat="46.665" lon="6.2222">
        <ele>1266</ele>
        <time>2020-07-21T11:28:32Z</time>
      </trkpt>
      <trkpt lat="46.66501" lon="6.22213">
        <ele>1265.3</ele>
        <time>2020-07-21T11:28:37Z</time>
      </trkpt>
      <trkpt lat="46.66502" lon="6.22205">
        <ele>1264.4</ele>
        <time>2020-07-21T11:28:43Z</time>
      </trkpt>
      <trkpt lat="46.66503" lon="6.22198">
        <ele>1263.6</ele>
        <time>2020-07-21T11:28:49Z</time>
      </trkpt>
      <trkpt lat="46.66504" lon="6.22191">
        <ele>1262.9</ele>
        <time>2020-07-21T11:28:54Z</time>
      </trkpt>
      <trkpt lat="46.66506" lon="6.22184">
        <ele>1262.2</ele>
        <time>2020-07-21T11:29:00Z</time>
      </trkpt>
      <trkpt lat="46.66507" lon="6.22178">
        <ele>1261.5</ele>
        <time>2020-07-21T11:29:06Z</time>
      </trkpt>
      <trkpt lat="46.66508" lon="6.22171">
        <ele>1260.8</ele>
        <time>2020-07-21T11:29:10Z</time>
      </trkpt>
      <trkpt lat="46.6651" lon="6.22164">
        <ele>1260.1</ele>
        <time>2020-07-21T11:29:14Z</time>
      </trkpt>
      <trkpt lat="46.6651" lon="6.22157">
        <ele>1259.1</ele>
        <time>2020-07-21T11:29:20Z</time>
      </trkpt>
      <trkpt lat="46.6651" lon="6.2215">
        <ele>1258.2</ele>
        <time>2020-07-21T11:29:26Z</time>
      </trkpt>
      <trkpt lat="46.66507" lon="6.22143">
        <ele>1257.5</ele>
        <time>2020-07-21T11:29:31Z</time>
      </trkpt>
      <trkpt lat="46.66504" lon="6.22137">
        <ele>1257</ele>
        <time>2020-07-21T11:29:36Z</time>
      </trkpt>
      <trkpt lat="46.66501" lon="6.22132">
        <ele>1256.4</ele>
        <time>2020-07-21T11:29:41Z</time>
      </trkpt>
      <trkpt lat="46.66498" lon="6.22126">
        <ele>1256</ele>
        <time>2020-07-21T11:29:46Z</time>
      </trkpt>
      <trkpt lat="46.66496" lon="6.2212">
        <ele>1255.5</ele>
        <time>2020-07-21T11:29:51Z</time>
      </trkpt>
      <trkpt lat="46.66493" lon="6.22114">
        <ele>1254.7</ele>
        <time>2020-07-21T11:29:57Z</time>
      </trkpt>
      <trkpt lat="46.6649" lon="6.22107">
        <ele>1253.7</ele>
        <time>2020-07-21T11:30:03Z</time>
      </trkpt>
      <trkpt lat="46.66487" lon="6.22102">
        <ele>1252.8</ele>
        <time>2020-07-21T11:30:09Z</time>
      </trkpt>
      <trkpt lat="46.66484" lon="6.22098">
        <ele>1252.1</ele>
        <time>2020-07-21T11:30:13Z</time>
      </trkpt>
      <trkpt lat="46.6648" lon="6.22093">
        <ele>1251.2</ele>
        <time>2020-07-21T11:30:18Z</time>
      </trkpt>
      <trkpt lat="46.66476" lon="6.22089">
        <ele>1250.2</ele>
        <time>2020-07-21T11:30:23Z</time>
      </trkpt>
      <trkpt lat="46.66472" lon="6.22085">
        <ele>1249.3</ele>
        <time>2020-07-21T11:30:28Z</time>
      </trkpt>
      <trkpt lat="46.66469" lon="6.2208">
        <ele>1248.1</ele>
        <time>2020-07-21T11:30:34Z</time>
      </trkpt>
      <trkpt lat="46.66466" lon="6.22074">
        <ele>1247</ele>
        <time>2020-07-21T11:30:39Z</time>
      </trkpt>
      <trkpt lat="46.66464" lon="6.22068">
        <ele>1245.9</ele>
        <time>2020-07-21T11:30:45Z</time>
      </trkpt>
      <trkpt lat="46.66463" lon="6.22062">
        <ele>1244.7</ele>
        <time>2020-07-21T11:30:51Z</time>
      </trkpt>
      <trkpt lat="46.66465" lon="6.22055">
        <ele>1243.4</ele>
        <time>2020-07-21T11:30:57Z</time>
      </trkpt>
      <trkpt lat="46.66467" lon="6.22048">
        <ele>1242.2</ele>
        <time>2020-07-21T11:31:03Z</time>
      </trkpt>
      <trkpt lat="46.6647" lon="6.22043">
        <ele>1241.1</ele>
        <time>2020-07-21T11:31:09Z</time>
      </trkpt>
      <trkpt lat="46.66474" lon="6.2204">
        <ele>1240.4</ele>
        <time>2020-07-21T11:31:14Z</time>
      </trkpt>
      <trkpt lat="46.66479" lon="6.22035">
        <ele>1239.6</ele>
        <time>2020-07-21T11:31:19Z</time>
      </trkpt>
      <trkpt lat="46.66484" lon="6.22031">
        <ele>1239</ele>
        <time>2020-07-21T11:31:23Z</time>
      </trkpt>
      <trkpt lat="46.66488" lon="6.22028">
        <ele>1238.3</ele>
        <time>2020-07-21T11:31:27Z</time>
      </trkpt>
      <trkpt lat="46.66492" lon="6.22025">
        <ele>1237.6</ele>
        <time>2020-07-21T11:31:32Z</time>
      </trkpt>
      <trkpt lat="46.66496" lon="6.22021">
        <ele>1236.9</ele>
        <time>2020-07-21T11:31:39Z</time>
      </trkpt>
      <trkpt lat="46.66501" lon="6.22018">
        <ele>1236.4</ele>
        <time>2020-07-21T11:31:44Z</time>
      </trkpt>
      <trkpt lat="46.66505" lon="6.22016">
        <ele>1235.9</ele>
        <time>2020-07-21T11:31:48Z</time>
      </trkpt>
      <trkpt lat="46.66511" lon="6.22015">
        <ele>1235.3</ele>
        <time>2020-07-21T11:31:52Z</time>
      </trkpt>
      <trkpt lat="46.66516" lon="6.22014">
        <ele>1234.8</ele>
        <time>2020-07-21T11:31:56Z</time>
      </trkpt>
      <trkpt lat="46.66521" lon="6.22013">
        <ele>1234.3</ele>
        <time>2020-07-21T11:32:01Z</time>
      </trkpt>
      <trkpt lat="46.66526" lon="6.22013">
        <ele>1233.8</ele>
        <time>2020-07-21T11:32:05Z</time>
      </trkpt>
      <trkpt lat="46.66531" lon="6.22013">
        <ele>1233.4</ele>
        <time>2020-07-21T11:32:09Z</time>
      </trkpt>
      <trkpt lat="46.66535" lon="6.22012">
        <ele>1232.6</ele>
        <time>2020-07-21T11:32:14Z</time>
      </trkpt>
      <trkpt lat="46.66541" lon="6.22011">
        <ele>1231.5</ele>
        <time>2020-07-21T11:32:20Z</time>
      </trkpt>
      <trkpt lat="46.66545" lon="6.22009">
        <ele>1229.4</ele>
        <time>2020-07-21T11:32:43Z</time>
      </trkpt>
      <trkpt lat="46.66548" lon="6.22004">
        <ele>1228.5</ele>
        <time>2020-07-21T11:32:52Z</time>
      </trkpt>
      <trkpt lat="46.66552" lon="6.22">
        <ele>1227.7</ele>
        <time>2020-07-21T11:33:11Z</time>
      </trkpt>
      <trkpt lat="46.66556" lon="6.21996">
        <ele>1227</ele>
        <time>2020-07-21T11:33:18Z</time>
      </trkpt>
      <trkpt lat="46.6656" lon="6.21992">
        <ele>1225.7</ele>
        <time>2020-07-21T11:33:28Z</time>
      </trkpt>
      <trkpt lat="46.66563" lon="6.21986">
        <ele>1225</ele>
        <time>2020-07-21T11:33:32Z</time>
      </trkpt>
      <trkpt lat="46.66566" lon="6.21979">
        <ele>1224.3</ele>
        <time>2020-07-21T11:33:36Z</time>
      </trkpt>
      <trkpt lat="46.66567" lon="6.21973">
        <ele>1223.7</ele>
        <time>2020-07-21T11:33:40Z</time>
      </trkpt>
      <trkpt lat="46.66569" lon="6.21966">
        <ele>1222.8</ele>
        <time>2020-07-21T11:33:46Z</time>
      </trkpt>
      <trkpt lat="46.66571" lon="6.21959">
        <ele>1222.4</ele>
        <time>2020-07-21T11:33:51Z</time>
      </trkpt>
      <trkpt lat="46.66573" lon="6.21952">
        <ele>1222.1</ele>
        <time>2020-07-21T11:33:55Z</time>
      </trkpt>
      <trkpt lat="46.66576" lon="6.21947">
        <ele>1222</ele>
        <time>2020-07-21T11:34:01Z</time>
      </trkpt>
      <trkpt lat="46.66579" lon="6.21941">
        <ele>1222.1</ele>
        <time>2020-07-21T11:34:07Z</time>
      </trkpt>
      <trkpt lat="46.66583" lon="6.21936">
        <ele>1221.9</ele>
        <time>2020-07-21T11:34:13Z</time>
      </trkpt>
      <trkpt lat="46.66586" lon="6.2193">
        <ele>1221.7</ele>
        <time>2020-07-21T11:34:17Z</time>
      </trkpt>
      <trkpt lat="46.6659" lon="6.21924">
        <ele>1221.3</ele>
        <time>2020-07-21T11:34:22Z</time>
      </trkpt>
      <trkpt lat="46.66594" lon="6.2192">
        <ele>1220.9</ele>
        <time>2020-07-21T11:34:27Z</time>
      </trkpt>
      <trkpt lat="46.66597" lon="6.21915">
        <ele>1220.5</ele>
        <time>2020-07-21T11:34:32Z</time>
      </trkpt>
      <trkpt lat="46.66602" lon="6.2191">
        <ele>1220.2</ele>
        <time>2020-07-21T11:34:37Z</time>
      </trkpt>
      <trkpt lat="46.66606" lon="6.21905">
        <ele>1220</ele>
        <time>2020-07-21T11:34:42Z</time>
      </trkpt>
      <trkpt lat="46.66611" lon="6.21901">
        <ele>1219.9</ele>
        <time>2020-07-21T11:34:47Z</time>
      </trkpt>
      <trkpt lat="46.66615" lon="6.21898">
        <ele>1219.7</ele>
        <time>2020-07-21T11:34:52Z</time>
      </trkpt>
      <trkpt lat="46.6662" lon="6.21895">
        <ele>1219.5</ele>
        <time>2020-07-21T11:34:57Z</time>
      </trkpt>
      <trkpt lat="46.66624" lon="6.2189">
        <ele>1219.2</ele>
        <time>2020-07-21T11:35:02Z</time>
      </trkpt>
      <trkpt lat="46.66627" lon="6.21886">
        <ele>1219.1</ele>
        <time>2020-07-21T11:35:07Z</time>
      </trkpt>
      <trkpt lat="46.66632" lon="6.21883">
        <ele>1218.9</ele>
        <time>2020-07-21T11:35:12Z</time>
      </trkpt>
      <trkpt lat="46.66637" lon="6.21879">
        <ele>1218.6</ele>
        <time>2020-07-21T11:35:17Z</time>
      </trkpt>
      <trkpt lat="46.66642" lon="6.21876">
        <ele>1218.2</ele>
        <time>2020-07-21T11:35:21Z</time>
      </trkpt>
      <trkpt lat="46.66646" lon="6.21873">
        <ele>1217.7</ele>
        <time>2020-07-21T11:35:27Z</time>
      </trkpt>
      <trkpt lat="46.6665" lon="6.2187">
        <ele>1217.4</ele>
        <time>2020-07-21T11:35:31Z</time>
      </trkpt>
      <trkpt lat="46.66654" lon="6.21868">
        <ele>1216.8</ele>
        <time>2020-07-21T11:35:35Z</time>
      </trkpt>
      <trkpt lat="46.66659" lon="6.21865">
        <ele>1215.4</ele>
        <time>2020-07-21T11:35:42Z</time>
      </trkpt>
      <trkpt lat="46.66663" lon="6.21863">
        <ele>1214.3</ele>
        <time>2020-07-21T11:35:46Z</time>
      </trkpt>
      <trkpt lat="46.66668" lon="6.2186">
        <ele>1212.8</ele>
        <time>2020-07-21T11:35:51Z</time>
      </trkpt>
      <trkpt lat="46.66674" lon="6.21858">
        <ele>1211</ele>
        <time>2020-07-21T11:35:57Z</time>
      </trkpt>
      <trkpt lat="46.66678" lon="6.21855">
        <ele>1209.7</ele>
        <time>2020-07-21T11:36:01Z</time>
      </trkpt>
      <trkpt lat="46.66683" lon="6.21854">
        <ele>1207.8</ele>
        <time>2020-07-21T11:36:07Z</time>
      </trkpt>
      <trkpt lat="46.66688" lon="6.21854">
        <ele>1206.3</ele>
        <time>2020-07-21T11:36:12Z</time>
      </trkpt>
      <trkpt lat="46.66693" lon="6.21855">
        <ele>1204.7</ele>
        <time>2020-07-21T11:36:17Z</time>
      </trkpt>
      <trkpt lat="46.66698" lon="6.21854">
        <ele>1202</ele>
        <time>2020-07-21T11:36:27Z</time>
      </trkpt>
      <trkpt lat="46.66702" lon="6.21854">
        <ele>1200.4</ele>
        <time>2020-07-21T11:36:33Z</time>
      </trkpt>
      <trkpt lat="46.66707" lon="6.21853">
        <ele>1198.8</ele>
        <time>2020-07-21T11:36:39Z</time>
      </trkpt>
      <trkpt lat="46.66712" lon="6.21854">
        <ele>1197.4</ele>
        <time>2020-07-21T11:36:44Z</time>
      </trkpt>
      <trkpt lat="46.66718" lon="6.21853">
        <ele>1196.5</ele>
        <time>2020-07-21T11:36:48Z</time>
      </trkpt>
      <trkpt lat="46.66723" lon="6.21853">
        <ele>1195.6</ele>
        <time>2020-07-21T11:36:52Z</time>
      </trkpt>
      <trkpt lat="46.66728" lon="6.21852">
        <ele>1194.3</ele>
        <time>2020-07-21T11:36:58Z</time>
      </trkpt>
      <trkpt lat="46.66734" lon="6.21853">
        <ele>1193.5</ele>
        <time>2020-07-21T11:37:03Z</time>
      </trkpt>
      <trkpt lat="46.66738" lon="6.21852">
        <ele>1193.3</ele>
        <time>2020-07-21T11:37:05Z</time>
      </trkpt>
      <trkpt lat="46.66743" lon="6.21852">
        <ele>1192.6</ele>
        <time>2020-07-21T11:37:09Z</time>
      </trkpt>
      <trkpt lat="46.66749" lon="6.21852">
        <ele>1191.8</ele>
        <time>2020-07-21T11:37:13Z</time>
      </trkpt>
      <trkpt lat="46.66754" lon="6.21851">
        <ele>1190.9</ele>
        <time>2020-07-21T11:37:18Z</time>
      </trkpt>
      <trkpt lat="46.66758" lon="6.21851">
        <ele>1189.9</ele>
        <time>2020-07-21T11:37:27Z</time>
      </trkpt>
      <trkpt lat="46.66763" lon="6.21851">
        <ele>1189.6</ele>
        <time>2020-07-21T11:37:30Z</time>
      </trkpt>
      <trkpt lat="46.66769" lon="6.21854">
        <ele>1189.4</ele>
        <time>2020-07-21T11:37:39Z</time>
      </trkpt>
      <trkpt lat="46.66774" lon="6.21854">
        <ele>1189.3</ele>
        <time>2020-07-21T11:37:43Z</time>
      </trkpt>
      <trkpt lat="46.66779" lon="6.21853">
        <ele>1189.3</ele>
        <time>2020-07-21T11:37:47Z</time>
      </trkpt>
      <trkpt lat="46.66784" lon="6.21854">
        <ele>1189.4</ele>
        <time>2020-07-21T11:37:51Z</time>
      </trkpt>
      <trkpt lat="46.66789" lon="6.21857">
        <ele>1189.4</ele>
        <time>2020-07-21T11:37:54Z</time>
      </trkpt>
      <trkpt lat="46.66793" lon="6.21859">
        <ele>1189.4</ele>
        <time>2020-07-21T11:37:57Z</time>
      </trkpt>
      <trkpt lat="46.66798" lon="6.2186">
        <ele>1188.8</ele>
        <time>2020-07-21T11:38:04Z</time>
      </trkpt>
      <trkpt lat="46.66804" lon="6.21859">
        <ele>1188.2</ele>
        <time>2020-07-21T11:38:12Z</time>
      </trkpt>
      <trkpt lat="46.66809" lon="6.21856">
        <ele>1187.7</ele>
        <time>2020-07-21T11:38:17Z</time>
      </trkpt>
      <trkpt lat="46.66814" lon="6.21855">
        <ele>1187.4</ele>
        <time>2020-07-21T11:38:21Z</time>
      </trkpt>
      <trkpt lat="46.66818" lon="6.21852">
        <ele>1187.1</ele>
        <time>2020-07-21T11:38:26Z</time>
      </trkpt>
      <trkpt lat="46.66823" lon="6.21852">
        <ele>1186.2</ele>
        <time>2020-07-21T11:38:34Z</time>
      </trkpt>
      <trkpt lat="46.66829" lon="6.21851">
        <ele>1185.1</ele>
        <time>2020-07-21T11:38:39Z</time>
      </trkpt>
      <trkpt lat="46.66834" lon="6.2185">
        <ele>1184.6</ele>
        <time>2020-07-21T11:38:41Z</time>
      </trkpt>
      <trkpt lat="46.66854" lon="6.21843">
        <ele>1182.6</ele>
        <time>2020-07-21T11:38:53Z</time>
      </trkpt>
      <trkpt lat="46.66858" lon="6.2184">
        <ele>1182.7</ele>
        <time>2020-07-21T11:38:57Z</time>
      </trkpt>
      <trkpt lat="46.66863" lon="6.21837">
        <ele>1182.6</ele>
        <time>2020-07-21T11:39:06Z</time>
      </trkpt>
      <trkpt lat="46.66868" lon="6.21839">
        <ele>1181.9</ele>
        <time>2020-07-21T11:39:13Z</time>
      </trkpt>
      <trkpt lat="46.66873" lon="6.2184">
        <ele>1181.5</ele>
        <time>2020-07-21T11:39:18Z</time>
      </trkpt>
      <trkpt lat="46.66878" lon="6.21841">
        <ele>1181.3</ele>
        <time>2020-07-21T11:39:25Z</time>
      </trkpt>
      <trkpt lat="46.66883" lon="6.21843">
        <ele>1181.1</ele>
        <time>2020-07-21T11:39:29Z</time>
      </trkpt>
      <trkpt lat="46.66888" lon="6.21846">
        <ele>1179.7</ele>
        <time>2020-07-21T11:39:37Z</time>
      </trkpt>
      <trkpt lat="46.66893" lon="6.21849">
        <ele>1177.7</ele>
        <time>2020-07-21T11:39:44Z</time>
      </trkpt>
      <trkpt lat="46.66897" lon="6.21853">
        <ele>1176.7</ele>
        <time>2020-07-21T11:39:48Z</time>
      </trkpt>
      <trkpt lat="46.66901" lon="6.21857">
        <ele>1175.8</ele>
        <time>2020-07-21T11:39:52Z</time>
      </trkpt>
      <trkpt lat="46.66906" lon="6.21862">
        <ele>1175.2</ele>
        <time>2020-07-21T11:39:56Z</time>
      </trkpt>
      <trkpt lat="46.6691" lon="6.21866">
        <ele>1174.6</ele>
        <time>2020-07-21T11:40:03Z</time>
      </trkpt>
      <trkpt lat="46.66915" lon="6.2187">
        <ele>1174.4</ele>
        <time>2020-07-21T11:40:06Z</time>
      </trkpt>
      <trkpt lat="46.66918" lon="6.21875">
        <ele>1174.3</ele>
        <time>2020-07-21T11:40:09Z</time>
      </trkpt>
      <trkpt lat="46.66924" lon="6.21879">
        <ele>1173.9</ele>
        <time>2020-07-21T11:40:13Z</time>
      </trkpt>
      <trkpt lat="46.66928" lon="6.2188">
        <ele>1173.4</ele>
        <time>2020-07-21T11:40:18Z</time>
      </trkpt>
      <trkpt lat="46.66933" lon="6.21879">
        <ele>1172.2</ele>
        <time>2020-07-21T11:40:32Z</time>
      </trkpt>
      <trkpt lat="46.66938" lon="6.21874">
        <ele>1171.9</ele>
        <time>2020-07-21T11:40:38Z</time>
      </trkpt>
      <trkpt lat="46.66941" lon="6.21867">
        <ele>1171.8</ele>
        <time>2020-07-21T11:40:40Z</time>
      </trkpt>
      <trkpt lat="46.66945" lon="6.2186">
        <ele>1171.6</ele>
        <time>2020-07-21T11:40:43Z</time>
      </trkpt>
      <trkpt lat="46.66949" lon="6.21855">
        <ele>1171.5</ele>
        <time>2020-07-21T11:40:47Z</time>
      </trkpt>
      <trkpt lat="46.66952" lon="6.21848">
        <ele>1171.6</ele>
        <time>2020-07-21T11:40:51Z</time>
      </trkpt>
      <trkpt lat="46.66954" lon="6.2184">
        <ele>1171.7</ele>
        <time>2020-07-21T11:40:54Z</time>
      </trkpt>
      <trkpt lat="46.66957" lon="6.21834">
        <ele>1172</ele>
        <time>2020-07-21T11:40:58Z</time>
      </trkpt>
      <trkpt lat="46.6696" lon="6.21828">
        <ele>1172.9</ele>
        <time>2020-07-21T11:41:03Z</time>
      </trkpt>
      <trkpt lat="46.66962" lon="6.21821">
        <ele>1173.9</ele>
        <time>2020-07-21T11:41:08Z</time>
      </trkpt>
      <trkpt lat="46.66964" lon="6.21815">
        <ele>1174.9</ele>
        <time>2020-07-21T11:41:12Z</time>
      </trkpt>
      <trkpt lat="46.66968" lon="6.2181">
        <ele>1175.9</ele>
        <time>2020-07-21T11:41:17Z</time>
      </trkpt>
      <trkpt lat="46.66972" lon="6.21805">
        <ele>1176.5</ele>
        <time>2020-07-21T11:41:22Z</time>
      </trkpt>
      <trkpt lat="46.66975" lon="6.218">
        <ele>1176.9</ele>
        <time>2020-07-21T11:41:26Z</time>
      </trkpt>
      <trkpt lat="46.66978" lon="6.21794">
        <ele>1177.1</ele>
        <time>2020-07-21T11:41:30Z</time>
      </trkpt>
      <trkpt lat="46.66982" lon="6.21788">
        <ele>1177.4</ele>
        <time>2020-07-21T11:41:35Z</time>
      </trkpt>
      <trkpt lat="46.66986" lon="6.21784">
        <ele>1177.2</ele>
        <time>2020-07-21T11:41:40Z</time>
      </trkpt>
      <trkpt lat="46.66988" lon="6.21778">
        <ele>1176.8</ele>
        <time>2020-07-21T11:41:44Z</time>
      </trkpt>
      <trkpt lat="46.66991" lon="6.21773">
        <ele>1176.3</ele>
        <time>2020-07-21T11:41:49Z</time>
      </trkpt>
      <trkpt lat="46.66994" lon="6.21766">
        <ele>1175.7</ele>
        <time>2020-07-21T11:41:55Z</time>
      </trkpt>
      <trkpt lat="46.66996" lon="6.21759">
        <ele>1175.1</ele>
        <time>2020-07-21T11:42:00Z</time>
      </trkpt>
      <trkpt lat="46.66998" lon="6.21753">
        <ele>1174.7</ele>
        <time>2020-07-21T11:42:04Z</time>
      </trkpt>
      <trkpt lat="46.67" lon="6.21747">
        <ele>1174</ele>
        <time>2020-07-21T11:42:09Z</time>
      </trkpt>
      <trkpt lat="46.67002" lon="6.2174">
        <ele>1173.1</ele>
        <time>2020-07-21T11:42:14Z</time>
      </trkpt>
      <trkpt lat="46.67005" lon="6.21734">
        <ele>1172.4</ele>
        <time>2020-07-21T11:42:18Z</time>
      </trkpt>
      <trkpt lat="46.67008" lon="6.21728">
        <ele>1171.6</ele>
        <time>2020-07-21T11:42:23Z</time>
      </trkpt>
      <trkpt lat="46.67011" lon="6.21722">
        <ele>1170.8</ele>
        <time>2020-07-21T11:42:28Z</time>
      </trkpt>
      <trkpt lat="46.67015" lon="6.21717">
        <ele>1170.1</ele>
        <time>2020-07-21T11:42:32Z</time>
      </trkpt>
      <trkpt lat="46.67018" lon="6.21711">
        <ele>1169.5</ele>
        <time>2020-07-21T11:42:37Z</time>
      </trkpt>
      <trkpt lat="46.67021" lon="6.21706">
        <ele>1168.7</ele>
        <time>2020-07-21T11:42:44Z</time>
      </trkpt>
      <trkpt lat="46.67025" lon="6.21702">
        <ele>1168.2</ele>
        <time>2020-07-21T11:42:49Z</time>
      </trkpt>
      <trkpt lat="46.67028" lon="6.21697">
        <ele>1167.6</ele>
        <time>2020-07-21T11:42:53Z</time>
      </trkpt>
      <trkpt lat="46.67031" lon="6.21691">
        <ele>1166.7</ele>
        <time>2020-07-21T11:42:58Z</time>
      </trkpt>
      <trkpt lat="46.67034" lon="6.21685">
        <ele>1165.8</ele>
        <time>2020-07-21T11:43:03Z</time>
      </trkpt>
      <trkpt lat="46.67037" lon="6.21679">
        <ele>1165.1</ele>
        <time>2020-07-21T11:43:08Z</time>
      </trkpt>
      <trkpt lat="46.67041" lon="6.21674">
        <ele>1164.7</ele>
        <time>2020-07-21T11:43:12Z</time>
      </trkpt>
      <trkpt lat="46.67045" lon="6.21671">
        <ele>1164.3</ele>
        <time>2020-07-21T11:43:16Z</time>
      </trkpt>
      <trkpt lat="46.6705" lon="6.21668">
        <ele>1164</ele>
        <time>2020-07-21T11:43:20Z</time>
      </trkpt>
      <trkpt lat="46.67055" lon="6.21666">
        <ele>1163.5</ele>
        <time>2020-07-21T11:43:24Z</time>
      </trkpt>
      <trkpt lat="46.6706" lon="6.21662">
        <ele>1162.7</ele>
        <time>2020-07-21T11:43:29Z</time>
      </trkpt>
      <trkpt lat="46.67064" lon="6.2166">
        <ele>1161.8</ele>
        <time>2020-07-21T11:43:33Z</time>
      </trkpt>
      <trkpt lat="46.67069" lon="6.21656">
        <ele>1160.8</ele>
        <time>2020-07-21T11:43:37Z</time>
      </trkpt>
      <trkpt lat="46.67074" lon="6.21653">
        <ele>1159.2</ele>
        <time>2020-07-21T11:43:42Z</time>
      </trkpt>
      <trkpt lat="46.67078" lon="6.2165">
        <ele>1157.6</ele>
        <time>2020-07-21T11:43:47Z</time>
      </trkpt>
      <trkpt lat="46.67083" lon="6.21647">
        <ele>1156.2</ele>
        <time>2020-07-21T11:43:51Z</time>
      </trkpt>
      <trkpt lat="46.67087" lon="6.21643">
        <ele>1154.9</ele>
        <time>2020-07-21T11:43:56Z</time>
      </trkpt>
      <trkpt lat="46.6709" lon="6.21639">
        <ele>1154.1</ele>
        <time>2020-07-21T11:44:02Z</time>
      </trkpt>
      <trkpt lat="46.67095" lon="6.21634">
        <ele>1154</ele>
        <time>2020-07-21T11:44:06Z</time>
      </trkpt>
      <trkpt lat="46.67103" lon="6.21625">
        <ele>1153.1</ele>
        <time>2020-07-21T11:44:16Z</time>
      </trkpt>
      <trkpt lat="46.67109" lon="6.21618">
        <ele>1152.4</ele>
        <time>2020-07-21T11:44:20Z</time>
      </trkpt>
      <trkpt lat="46.67113" lon="6.21612">
        <ele>1151.7</ele>
        <time>2020-07-21T11:44:23Z</time>
      </trkpt>
      <trkpt lat="46.67117" lon="6.21608">
        <ele>1151.2</ele>
        <time>2020-07-21T11:44:26Z</time>
      </trkpt>
      <trkpt lat="46.67121" lon="6.21604">
        <ele>1150.5</ele>
        <time>2020-07-21T11:44:30Z</time>
      </trkpt>
      <trkpt lat="46.67126" lon="6.21601">
        <ele>1150</ele>
        <time>2020-07-21T11:44:35Z</time>
      </trkpt>
      <trkpt lat="46.67131" lon="6.21599">
        <ele>1149.3</ele>
        <time>2020-07-21T11:44:41Z</time>
      </trkpt>
      <trkpt lat="46.67135" lon="6.21594">
        <ele>1149.1</ele>
        <time>2020-07-21T11:44:45Z</time>
      </trkpt>
      <trkpt lat="46.67139" lon="6.21589">
        <ele>1149</ele>
        <time>2020-07-21T11:44:49Z</time>
      </trkpt>
      <trkpt lat="46.67143" lon="6.21583">
        <ele>1149.1</ele>
        <time>2020-07-21T11:44:55Z</time>
      </trkpt>
      <trkpt lat="46.67146" lon="6.21578">
        <ele>1149.2</ele>
        <time>2020-07-21T11:45:00Z</time>
      </trkpt>
      <trkpt lat="46.6715" lon="6.21573">
        <ele>1149.4</ele>
        <time>2020-07-21T11:45:05Z</time>
      </trkpt>
      <trkpt lat="46.67155" lon="6.21569">
        <ele>1149.4</ele>
        <time>2020-07-21T11:45:09Z</time>
      </trkpt>
      <trkpt lat="46.67159" lon="6.21565">
        <ele>1149.2</ele>
        <time>2020-07-21T11:45:13Z</time>
      </trkpt>
      <trkpt lat="46.67164" lon="6.21563">
        <ele>1149.1</ele>
        <time>2020-07-21T11:45:16Z</time>
      </trkpt>
      <trkpt lat="46.67169" lon="6.21561">
        <ele>1148.9</ele>
        <time>2020-07-21T11:45:20Z</time>
      </trkpt>
      <trkpt lat="46.67173" lon="6.21559">
        <ele>1148.5</ele>
        <time>2020-07-21T11:45:25Z</time>
      </trkpt>
      <trkpt lat="46.67177" lon="6.21555">
        <ele>1148.2</ele>
        <time>2020-07-21T11:45:30Z</time>
      </trkpt>
      <trkpt lat="46.67183" lon="6.21552">
        <ele>1148</ele>
        <time>2020-07-21T11:45:34Z</time>
      </trkpt>
      <trkpt lat="46.67187" lon="6.21548">
        <ele>1147.9</ele>
        <time>2020-07-21T11:45:38Z</time>
      </trkpt>
      <trkpt lat="46.67192" lon="6.21545">
        <ele>1147.6</ele>
        <time>2020-07-21T11:45:43Z</time>
      </trkpt>
      <trkpt lat="46.67196" lon="6.21541">
        <ele>1147.2</ele>
        <time>2020-07-21T11:45:47Z</time>
      </trkpt>
      <trkpt lat="46.67201" lon="6.21537">
        <ele>1146.9</ele>
        <time>2020-07-21T11:45:51Z</time>
      </trkpt>
      <trkpt lat="46.67204" lon="6.21533">
        <ele>1146.6</ele>
        <time>2020-07-21T11:45:55Z</time>
      </trkpt>
      <trkpt lat="46.67208" lon="6.21529">
        <ele>1146.3</ele>
        <time>2020-07-21T11:45:59Z</time>
      </trkpt>
      <trkpt lat="46.67212" lon="6.21525">
        <ele>1146.1</ele>
        <time>2020-07-21T11:46:03Z</time>
      </trkpt>
      <trkpt lat="46.67216" lon="6.21521">
        <ele>1145.9</ele>
        <time>2020-07-21T11:46:07Z</time>
      </trkpt>
      <trkpt lat="46.67221" lon="6.21517">
        <ele>1145.5</ele>
        <time>2020-07-21T11:46:12Z</time>
      </trkpt>
      <trkpt lat="46.67225" lon="6.21513">
        <ele>1145.1</ele>
        <time>2020-07-21T11:46:16Z</time>
      </trkpt>
      <trkpt lat="46.67229" lon="6.21508">
        <ele>1144.8</ele>
        <time>2020-07-21T11:46:21Z</time>
      </trkpt>
      <trkpt lat="46.67232" lon="6.21503">
        <ele>1144.7</ele>
        <time>2020-07-21T11:46:25Z</time>
      </trkpt>
      <trkpt lat="46.67236" lon="6.21497">
        <ele>1144.8</ele>
        <time>2020-07-21T11:46:30Z</time>
      </trkpt>
      <trkpt lat="46.6724" lon="6.21493">
        <ele>1145.1</ele>
        <time>2020-07-21T11:46:34Z</time>
      </trkpt>
      <trkpt lat="46.67243" lon="6.21488">
        <ele>1145.3</ele>
        <time>2020-07-21T11:46:38Z</time>
      </trkpt>
      <trkpt lat="46.67248" lon="6.21483">
        <ele>1145.4</ele>
        <time>2020-07-21T11:46:43Z</time>
      </trkpt>
      <trkpt lat="46.67251" lon="6.21477">
        <ele>1145.5</ele>
        <time>2020-07-21T11:46:49Z</time>
      </trkpt>
      <trkpt lat="46.67255" lon="6.21471">
        <ele>1145.6</ele>
        <time>2020-07-21T11:46:54Z</time>
      </trkpt>
      <trkpt lat="46.67259" lon="6.21466">
        <ele>1145.8</ele>
        <time>2020-07-21T11:46:58Z</time>
      </trkpt>
      <trkpt lat="46.67264" lon="6.21461">
        <ele>1145.9</ele>
        <time>2020-07-21T11:47:02Z</time>
      </trkpt>
      <trkpt lat="46.67268" lon="6.21456">
        <ele>1146.2</ele>
        <time>2020-07-21T11:47:07Z</time>
      </trkpt>
      <trkpt lat="46.67272" lon="6.21452">
        <ele>1146.5</ele>
        <time>2020-07-21T11:47:12Z</time>
      </trkpt>
      <trkpt lat="46.67277" lon="6.21447">
        <ele>1146.8</ele>
        <time>2020-07-21T11:47:17Z</time>
      </trkpt>
      <trkpt lat="46.67281" lon="6.21442">
        <ele>1146.7</ele>
        <time>2020-07-21T11:47:23Z</time>
      </trkpt>
      <trkpt lat="46.67286" lon="6.21437">
        <ele>1146.7</ele>
        <time>2020-07-21T11:47:27Z</time>
      </trkpt>
      <trkpt lat="46.6729" lon="6.21434">
        <ele>1146.8</ele>
        <time>2020-07-21T11:47:31Z</time>
      </trkpt>
      <trkpt lat="46.67295" lon="6.2143">
        <ele>1146.7</ele>
        <time>2020-07-21T11:47:35Z</time>
      </trkpt>
      <trkpt lat="46.67299" lon="6.21427">
        <ele>1146.5</ele>
        <time>2020-07-21T11:47:39Z</time>
      </trkpt>
      <trkpt lat="46.67303" lon="6.21422">
        <ele>1146.4</ele>
        <time>2020-07-21T11:47:44Z</time>
      </trkpt>
      <trkpt lat="46.67307" lon="6.21418">
        <ele>1146.1</ele>
        <time>2020-07-21T11:47:49Z</time>
      </trkpt>
      <trkpt lat="46.67311" lon="6.21413">
        <ele>1145.8</ele>
        <time>2020-07-21T11:47:54Z</time>
      </trkpt>
      <trkpt lat="46.67315" lon="6.2141">
        <ele>1145.7</ele>
        <time>2020-07-21T11:47:58Z</time>
      </trkpt>
      <trkpt lat="46.6732" lon="6.21405">
        <ele>1145.6</ele>
        <time>2020-07-21T11:48:02Z</time>
      </trkpt>
      <trkpt lat="46.67324" lon="6.21401">
        <ele>1145.5</ele>
        <time>2020-07-21T11:48:06Z</time>
      </trkpt>
      <trkpt lat="46.67329" lon="6.21398">
        <ele>1145.4</ele>
        <time>2020-07-21T11:48:10Z</time>
      </trkpt>
      <trkpt lat="46.67333" lon="6.21394">
        <ele>1145</ele>
        <time>2020-07-21T11:48:15Z</time>
      </trkpt>
      <trkpt lat="46.67338" lon="6.21391">
        <ele>1144.8</ele>
        <time>2020-07-21T11:48:20Z</time>
      </trkpt>
      <trkpt lat="46.67342" lon="6.21387">
        <ele>1144.6</ele>
        <time>2020-07-21T11:48:25Z</time>
      </trkpt>
      <trkpt lat="46.67346" lon="6.21382">
        <ele>1144.5</ele>
        <time>2020-07-21T11:48:29Z</time>
      </trkpt>
      <trkpt lat="46.67351" lon="6.21377">
        <ele>1144.4</ele>
        <time>2020-07-21T11:48:33Z</time>
      </trkpt>
      <trkpt lat="46.67355" lon="6.21373">
        <ele>1144.5</ele>
        <time>2020-07-21T11:48:37Z</time>
      </trkpt>
      <trkpt lat="46.67359" lon="6.21369">
        <ele>1144.7</ele>
        <time>2020-07-21T11:48:41Z</time>
      </trkpt>
      <trkpt lat="46.67363" lon="6.21365">
        <ele>1144.7</ele>
        <time>2020-07-21T11:48:45Z</time>
      </trkpt>
      <trkpt lat="46.67368" lon="6.2136">
        <ele>1144.8</ele>
        <time>2020-07-21T11:48:50Z</time>
      </trkpt>
      <trkpt lat="46.67371" lon="6.21355">
        <ele>1145.2</ele>
        <time>2020-07-21T11:48:55Z</time>
      </trkpt>
      <trkpt lat="46.67375" lon="6.21351">
        <ele>1145.3</ele>
        <time>2020-07-21T11:48:59Z</time>
      </trkpt>
      <trkpt lat="46.6738" lon="6.21346">
        <ele>1145.2</ele>
        <time>2020-07-21T11:49:03Z</time>
      </trkpt>
      <trkpt lat="46.67383" lon="6.21342">
        <ele>1145.1</ele>
        <time>2020-07-21T11:49:07Z</time>
      </trkpt>
      <trkpt lat="46.67387" lon="6.21337">
        <ele>1145.1</ele>
        <time>2020-07-21T11:49:11Z</time>
      </trkpt>
      <trkpt lat="46.6739" lon="6.21332">
        <ele>1145.2</ele>
        <time>2020-07-21T11:49:16Z</time>
      </trkpt>
      <trkpt lat="46.67394" lon="6.21327">
        <ele>1145.2</ele>
        <time>2020-07-21T11:49:20Z</time>
      </trkpt>
      <trkpt lat="46.67398" lon="6.21322">
        <ele>1145.1</ele>
        <time>2020-07-21T11:49:25Z</time>
      </trkpt>
      <trkpt lat="46.67402" lon="6.21318">
        <ele>1145</ele>
        <time>2020-07-21T11:49:30Z</time>
      </trkpt>
      <trkpt lat="46.67406" lon="6.21314">
        <ele>1144.8</ele>
        <time>2020-07-21T11:49:34Z</time>
      </trkpt>
      <trkpt lat="46.6741" lon="6.2131">
        <ele>1144.5</ele>
        <time>2020-07-21T11:49:39Z</time>
      </trkpt>
      <trkpt lat="46.67414" lon="6.21306">
        <ele>1144.1</ele>
        <time>2020-07-21T11:49:43Z</time>
      </trkpt>
      <trkpt lat="46.67418" lon="6.21303">
        <ele>1143.7</ele>
        <time>2020-07-21T11:49:47Z</time>
      </trkpt>
      <trkpt lat="46.67423" lon="6.21299">
        <ele>1143.2</ele>
        <time>2020-07-21T11:49:51Z</time>
      </trkpt>
      <trkpt lat="46.67427" lon="6.21295">
        <ele>1142.9</ele>
        <time>2020-07-21T11:49:54Z</time>
      </trkpt>
      <trkpt lat="46.67431" lon="6.21292">
        <ele>1142.4</ele>
        <time>2020-07-21T11:49:59Z</time>
      </trkpt>
      <trkpt lat="46.67436" lon="6.21289">
        <ele>1142</ele>
        <time>2020-07-21T11:50:04Z</time>
      </trkpt>
      <trkpt lat="46.67441" lon="6.21286">
        <ele>1141.5</ele>
        <time>2020-07-21T11:50:08Z</time>
      </trkpt>
      <trkpt lat="46.67445" lon="6.21283">
        <ele>1141</ele>
        <time>2020-07-21T11:50:12Z</time>
      </trkpt>
      <trkpt lat="46.6745" lon="6.2128">
        <ele>1140.4</ele>
        <time>2020-07-21T11:50:18Z</time>
      </trkpt>
      <trkpt lat="46.67455" lon="6.21276">
        <ele>1140</ele>
        <time>2020-07-21T11:50:23Z</time>
      </trkpt>
      <trkpt lat="46.67459" lon="6.21272">
        <ele>1139.9</ele>
        <time>2020-07-21T11:50:28Z</time>
      </trkpt>
      <trkpt lat="46.67463" lon="6.21267">
        <ele>1140.2</ele>
        <time>2020-07-21T11:50:33Z</time>
      </trkpt>
      <trkpt lat="46.67467" lon="6.21263">
        <ele>1140.5</ele>
        <time>2020-07-21T11:50:38Z</time>
      </trkpt>
      <trkpt lat="46.67471" lon="6.2126">
        <ele>1140.8</ele>
        <time>2020-07-21T11:50:42Z</time>
      </trkpt>
      <trkpt lat="46.67476" lon="6.21256">
        <ele>1141</ele>
        <time>2020-07-21T11:50:46Z</time>
      </trkpt>
      <trkpt lat="46.67481" lon="6.21253">
        <ele>1141.3</ele>
        <time>2020-07-21T11:50:50Z</time>
      </trkpt>
      <trkpt lat="46.67486" lon="6.2125">
        <ele>1141.5</ele>
        <time>2020-07-21T11:50:55Z</time>
      </trkpt>
      <trkpt lat="46.6749" lon="6.21247">
        <ele>1141.6</ele>
        <time>2020-07-21T11:50:59Z</time>
      </trkpt>
      <trkpt lat="46.67495" lon="6.21244">
        <ele>1141.9</ele>
        <time>2020-07-21T11:51:04Z</time>
      </trkpt>
      <trkpt lat="46.67499" lon="6.21241">
        <ele>1142.3</ele>
        <time>2020-07-21T11:51:08Z</time>
      </trkpt>
      <trkpt lat="46.67503" lon="6.21237">
        <ele>1142.8</ele>
        <time>2020-07-21T11:51:12Z</time>
      </trkpt>
      <trkpt lat="46.67508" lon="6.21233">
        <ele>1143.2</ele>
        <time>2020-07-21T11:51:16Z</time>
      </trkpt>
      <trkpt lat="46.67512" lon="6.21228">
        <ele>1143.4</ele>
        <time>2020-07-21T11:51:21Z</time>
      </trkpt>
      <trkpt lat="46.67516" lon="6.21222">
        <ele>1143.6</ele>
        <time>2020-07-21T11:51:26Z</time>
      </trkpt>
      <trkpt lat="46.67519" lon="6.21216">
        <ele>1143.8</ele>
        <time>2020-07-21T11:51:30Z</time>
      </trkpt>
      <trkpt lat="46.67523" lon="6.21209">
        <ele>1144.2</ele>
        <time>2020-07-21T11:51:35Z</time>
      </trkpt>
      <trkpt lat="46.67525" lon="6.21204">
        <ele>1144.4</ele>
        <time>2020-07-21T11:51:39Z</time>
      </trkpt>
      <trkpt lat="46.67528" lon="6.21197">
        <ele>1144.6</ele>
        <time>2020-07-21T11:51:44Z</time>
      </trkpt>
      <trkpt lat="46.6753" lon="6.21191">
        <ele>1144.6</ele>
        <time>2020-07-21T11:51:48Z</time>
      </trkpt>
      <trkpt lat="46.67532" lon="6.21185">
        <ele>1144.5</ele>
        <time>2020-07-21T11:51:52Z</time>
      </trkpt>
      <trkpt lat="46.67534" lon="6.21179">
        <ele>1144.3</ele>
        <time>2020-07-21T11:51:56Z</time>
      </trkpt>
      <trkpt lat="46.67535" lon="6.21173">
        <ele>1144.3</ele>
        <time>2020-07-21T11:52:00Z</time>
      </trkpt>
      <trkpt lat="46.67536" lon="6.21166">
        <ele>1144.4</ele>
        <time>2020-07-21T11:52:04Z</time>
      </trkpt>
      <trkpt lat="46.67536" lon="6.21159">
        <ele>1144.5</ele>
        <time>2020-07-21T11:52:08Z</time>
      </trkpt>
      <trkpt lat="46.67535" lon="6.21151">
        <ele>1144.7</ele>
        <time>2020-07-21T11:52:12Z</time>
      </trkpt>
      <trkpt lat="46.67535" lon="6.21145">
        <ele>1144.8</ele>
        <time>2020-07-21T11:52:16Z</time>
      </trkpt>
      <trkpt lat="46.67535" lon="6.21138">
        <ele>1144.9</ele>
        <time>2020-07-21T11:52:20Z</time>
      </trkpt>
      <trkpt lat="46.67535" lon="6.2113">
        <ele>1145.2</ele>
        <time>2020-07-21T11:52:25Z</time>
      </trkpt>
      <trkpt lat="46.67534" lon="6.21122">
        <ele>1145.5</ele>
        <time>2020-07-21T11:52:30Z</time>
      </trkpt>
      <trkpt lat="46.67532" lon="6.21116">
        <ele>1145.7</ele>
        <time>2020-07-21T11:52:34Z</time>
      </trkpt>
      <trkpt lat="46.67531" lon="6.21108">
        <ele>1145.9</ele>
        <time>2020-07-21T11:52:39Z</time>
      </trkpt>
      <trkpt lat="46.67529" lon="6.21101">
        <ele>1145.9</ele>
        <time>2020-07-21T11:52:44Z</time>
      </trkpt>
      <trkpt lat="46.67527" lon="6.21094">
        <ele>1145.9</ele>
        <time>2020-07-21T11:52:49Z</time>
      </trkpt>
      <trkpt lat="46.67525" lon="6.21088">
        <ele>1145.7</ele>
        <time>2020-07-21T11:52:53Z</time>
      </trkpt>
      <trkpt lat="46.67522" lon="6.21081">
        <ele>1145.6</ele>
        <time>2020-07-21T11:52:57Z</time>
      </trkpt>
      <trkpt lat="46.6752" lon="6.21074">
        <ele>1145.6</ele>
        <time>2020-07-21T11:53:01Z</time>
      </trkpt>
      <trkpt lat="46.67518" lon="6.21067">
        <ele>1145.7</ele>
        <time>2020-07-21T11:53:05Z</time>
      </trkpt>
      <trkpt lat="46.67517" lon="6.2106">
        <ele>1145.8</ele>
        <time>2020-07-21T11:53:09Z</time>
      </trkpt>
      <trkpt lat="46.67516" lon="6.21054">
        <ele>1146</ele>
        <time>2020-07-21T11:53:13Z</time>
      </trkpt>
      <trkpt lat="46.67515" lon="6.21047">
        <ele>1146.1</ele>
        <time>2020-07-21T11:53:17Z</time>
      </trkpt>
      <trkpt lat="46.67513" lon="6.2104">
        <ele>1146.1</ele>
        <time>2020-07-21T11:53:21Z</time>
      </trkpt>
      <trkpt lat="46.67512" lon="6.21033">
        <ele>1146.2</ele>
        <time>2020-07-21T11:53:25Z</time>
      </trkpt>
      <trkpt lat="46.67511" lon="6.21025">
        <ele>1146.3</ele>
        <time>2020-07-21T11:53:30Z</time>
      </trkpt>
      <trkpt lat="46.6751" lon="6.21017">
        <ele>1146.5</ele>
        <time>2020-07-21T11:53:35Z</time>
      </trkpt>
      <trkpt lat="46.67509" lon="6.2101">
        <ele>1146.7</ele>
        <time>2020-07-21T11:53:40Z</time>
      </trkpt>
      <trkpt lat="46.67509" lon="6.21003">
        <ele>1146.8</ele>
        <time>2020-07-21T11:53:44Z</time>
      </trkpt>
      <trkpt lat="46.67508" lon="6.20995">
        <ele>1146.8</ele>
        <time>2020-07-21T11:53:49Z</time>
      </trkpt>
      <trkpt lat="46.67507" lon="6.20987">
        <ele>1146.7</ele>
        <time>2020-07-21T11:53:54Z</time>
      </trkpt>
      <trkpt lat="46.67507" lon="6.2098">
        <ele>1146.7</ele>
        <time>2020-07-21T11:53:58Z</time>
      </trkpt>
      <trkpt lat="46.67506" lon="6.20972">
        <ele>1146.7</ele>
        <time>2020-07-21T11:54:02Z</time>
      </trkpt>
      <trkpt lat="46.67505" lon="6.20965">
        <ele>1146.7</ele>
        <time>2020-07-21T11:54:05Z</time>
      </trkpt>
      <trkpt lat="46.67505" lon="6.20958">
        <ele>1146.7</ele>
        <time>2020-07-21T11:54:08Z</time>
      </trkpt>
      <trkpt lat="46.67506" lon="6.2095">
        <ele>1146.7</ele>
        <time>2020-07-21T11:54:12Z</time>
      </trkpt>
      <trkpt lat="46.67508" lon="6.20943">
        <ele>1146.7</ele>
        <time>2020-07-21T11:54:15Z</time>
      </trkpt>
      <trkpt lat="46.67509" lon="6.20936">
        <ele>1146.7</ele>
        <time>2020-07-21T11:54:20Z</time>
      </trkpt>
      <trkpt lat="46.67511" lon="6.20928">
        <ele>1146.6</ele>
        <time>2020-07-21T11:54:25Z</time>
      </trkpt>
      <trkpt lat="46.67513" lon="6.20921">
        <ele>1146.8</ele>
        <time>2020-07-21T11:54:30Z</time>
      </trkpt>
      <trkpt lat="46.67514" lon="6.20913">
        <ele>1147</ele>
        <time>2020-07-21T11:54:35Z</time>
      </trkpt>
      <trkpt lat="46.67515" lon="6.20905">
        <ele>1147.3</ele>
        <time>2020-07-21T11:54:40Z</time>
      </trkpt>
      <trkpt lat="46.67516" lon="6.20899">
        <ele>1147.7</ele>
        <time>2020-07-21T11:54:44Z</time>
      </trkpt>
      <trkpt lat="46.67518" lon="6.20891">
        <ele>1148.2</ele>
        <time>2020-07-21T11:54:48Z</time>
      </trkpt>
      <trkpt lat="46.67519" lon="6.20884">
        <ele>1148.6</ele>
        <time>2020-07-21T11:54:53Z</time>
      </trkpt>
      <trkpt lat="46.67522" lon="6.20877">
        <ele>1148.6</ele>
        <time>2020-07-21T11:54:57Z</time>
      </trkpt>
      <trkpt lat="46.67524" lon="6.20871">
        <ele>1148.6</ele>
        <time>2020-07-21T11:55:01Z</time>
      </trkpt>
      <trkpt lat="46.67527" lon="6.20866">
        <ele>1148.6</ele>
        <time>2020-07-21T11:55:06Z</time>
      </trkpt>
      <trkpt lat="46.67531" lon="6.2086">
        <ele>1148.4</ele>
        <time>2020-07-21T11:55:11Z</time>
      </trkpt>
      <trkpt lat="46.67534" lon="6.20853">
        <ele>1148.2</ele>
        <time>2020-07-21T11:55:16Z</time>
      </trkpt>
      <trkpt lat="46.67537" lon="6.20848">
        <ele>1148</ele>
        <time>2020-07-21T11:55:20Z</time>
      </trkpt>
      <trkpt lat="46.6754" lon="6.20842">
        <ele>1147.9</ele>
        <time>2020-07-21T11:55:24Z</time>
      </trkpt>
      <trkpt lat="46.67544" lon="6.20838">
        <ele>1147.7</ele>
        <time>2020-07-21T11:55:29Z</time>
      </trkpt>
      <trkpt lat="46.67548" lon="6.20834">
        <ele>1147.3</ele>
        <time>2020-07-21T11:55:35Z</time>
      </trkpt>
      <trkpt lat="46.67553" lon="6.2083">
        <ele>1147.1</ele>
        <time>2020-07-21T11:55:40Z</time>
      </trkpt>
      <trkpt lat="46.67557" lon="6.20826">
        <ele>1146.7</ele>
        <time>2020-07-21T11:55:44Z</time>
      </trkpt>
      <trkpt lat="46.67561" lon="6.20822">
        <ele>1146.3</ele>
        <time>2020-07-21T11:55:48Z</time>
      </trkpt>
      <trkpt lat="46.67565" lon="6.20817">
        <ele>1145.8</ele>
        <time>2020-07-21T11:55:53Z</time>
      </trkpt>
      <trkpt lat="46.67568" lon="6.20812">
        <ele>1145.4</ele>
        <time>2020-07-21T11:55:58Z</time>
      </trkpt>
      <trkpt lat="46.67571" lon="6.20806">
        <ele>1145.1</ele>
        <time>2020-07-21T11:56:02Z</time>
      </trkpt>
      <trkpt lat="46.67574" lon="6.208">
        <ele>1144.9</ele>
        <time>2020-07-21T11:56:06Z</time>
      </trkpt>
      <trkpt lat="46.67578" lon="6.20795">
        <ele>1144.7</ele>
        <time>2020-07-21T11:56:11Z</time>
      </trkpt>
      <trkpt lat="46.67582" lon="6.2079">
        <ele>1144.7</ele>
        <time>2020-07-21T11:56:15Z</time>
      </trkpt>
      <trkpt lat="46.67586" lon="6.20784">
        <ele>1144.5</ele>
        <time>2020-07-21T11:56:20Z</time>
      </trkpt>
      <trkpt lat="46.6759" lon="6.20779">
        <ele>1144.4</ele>
        <time>2020-07-21T11:56:24Z</time>
      </trkpt>
      <trkpt lat="46.67593" lon="6.20775">
        <ele>1144.3</ele>
        <time>2020-07-21T11:56:27Z</time>
      </trkpt>
      <trkpt lat="46.67597" lon="6.2077">
        <ele>1144.4</ele>
        <time>2020-07-21T11:56:31Z</time>
      </trkpt>
      <trkpt lat="46.676" lon="6.20764">
        <ele>1144.5</ele>
        <time>2020-07-21T11:56:36Z</time>
      </trkpt>
      <trkpt lat="46.67604" lon="6.20759">
        <ele>1144.5</ele>
        <time>2020-07-21T11:56:41Z</time>
      </trkpt>
      <trkpt lat="46.67607" lon="6.20754">
        <ele>1144.5</ele>
        <time>2020-07-21T11:56:45Z</time>
      </trkpt>
      <trkpt lat="46.6761" lon="6.20749">
        <ele>1144.3</ele>
        <time>2020-07-21T11:56:49Z</time>
      </trkpt>
      <trkpt lat="46.67613" lon="6.20745">
        <ele>1144.1</ele>
        <time>2020-07-21T11:56:53Z</time>
      </trkpt>
      <trkpt lat="46.67617" lon="6.20741">
        <ele>1143.8</ele>
        <time>2020-07-21T11:56:57Z</time>
      </trkpt>
      <trkpt lat="46.67621" lon="6.20736">
        <ele>1143.3</ele>
        <time>2020-07-21T11:57:01Z</time>
      </trkpt>
      <trkpt lat="46.67625" lon="6.20731">
        <ele>1142.7</ele>
        <time>2020-07-21T11:57:05Z</time>
      </trkpt>
      <trkpt lat="46.67628" lon="6.20726">
        <ele>1142.2</ele>
        <time>2020-07-21T11:57:09Z</time>
      </trkpt>
      <trkpt lat="46.67631" lon="6.2072">
        <ele>1141.8</ele>
        <time>2020-07-21T11:57:13Z</time>
      </trkpt>
      <trkpt lat="46.67633" lon="6.20714">
        <ele>1141.5</ele>
        <time>2020-07-21T11:57:18Z</time>
      </trkpt>
      <trkpt lat="46.67637" lon="6.20707">
        <ele>1141.4</ele>
        <time>2020-07-21T11:57:23Z</time>
      </trkpt>
      <trkpt lat="46.6764" lon="6.20703">
        <ele>1141.2</ele>
        <time>2020-07-21T11:57:27Z</time>
      </trkpt>
      <trkpt lat="46.67644" lon="6.20697">
        <ele>1140.9</ele>
        <time>2020-07-21T11:57:31Z</time>
      </trkpt>
      <trkpt lat="46.67648" lon="6.20692">
        <ele>1140.7</ele>
        <time>2020-07-21T11:57:35Z</time>
      </trkpt>
      <trkpt lat="46.67652" lon="6.20686">
        <ele>1140.7</ele>
        <time>2020-07-21T11:57:39Z</time>
      </trkpt>
      <trkpt lat="46.67656" lon="6.20682">
        <ele>1140.8</ele>
        <time>2020-07-21T11:57:44Z</time>
      </trkpt>
      <trkpt lat="46.67661" lon="6.20678">
        <ele>1141</ele>
        <time>2020-07-21T11:57:49Z</time>
      </trkpt>
      <trkpt lat="46.67665" lon="6.20673">
        <ele>1141</ele>
        <time>2020-07-21T11:57:55Z</time>
      </trkpt>
      <trkpt lat="46.67669" lon="6.20669">
        <ele>1140.6</ele>
        <time>2020-07-21T11:57:59Z</time>
      </trkpt>
      <trkpt lat="46.67673" lon="6.20663">
        <ele>1140.2</ele>
        <time>2020-07-21T11:58:04Z</time>
      </trkpt>
      <trkpt lat="46.67676" lon="6.20658">
        <ele>1139.9</ele>
        <time>2020-07-21T11:58:08Z</time>
      </trkpt>
      <trkpt lat="46.67679" lon="6.20653">
        <ele>1139.5</ele>
        <time>2020-07-21T11:58:13Z</time>
      </trkpt>
      <trkpt lat="46.67683" lon="6.20648">
        <ele>1139</ele>
        <time>2020-07-21T11:58:17Z</time>
      </trkpt>
      <trkpt lat="46.67686" lon="6.20643">
        <ele>1138.4</ele>
        <time>2020-07-21T11:58:21Z</time>
      </trkpt>
      <trkpt lat="46.6769" lon="6.20638">
        <ele>1137.6</ele>
        <time>2020-07-21T11:58:25Z</time>
      </trkpt>
      <trkpt lat="46.67694" lon="6.20634">
        <ele>1137</ele>
        <time>2020-07-21T11:58:29Z</time>
      </trkpt>
      <trkpt lat="46.67698" lon="6.20629">
        <ele>1136.3</ele>
        <time>2020-07-21T11:58:34Z</time>
      </trkpt>
      <trkpt lat="46.67702" lon="6.20624">
        <ele>1135.5</ele>
        <time>2020-07-21T11:58:38Z</time>
      </trkpt>
      <trkpt lat="46.67705" lon="6.20618">
        <ele>1134.8</ele>
        <time>2020-07-21T11:58:42Z</time>
      </trkpt>
      <trkpt lat="46.67708" lon="6.20612">
        <ele>1134.2</ele>
        <time>2020-07-21T11:58:47Z</time>
      </trkpt>
      <trkpt lat="46.67711" lon="6.20607">
        <ele>1133.8</ele>
        <time>2020-07-21T11:58:51Z</time>
      </trkpt>
      <trkpt lat="46.67714" lon="6.20601">
        <ele>1133.8</ele>
        <time>2020-07-21T11:58:55Z</time>
      </trkpt>
      <trkpt lat="46.67717" lon="6.20596">
        <ele>1133.8</ele>
        <time>2020-07-21T11:58:59Z</time>
      </trkpt>
      <trkpt lat="46.6772" lon="6.2059">
        <ele>1133.8</ele>
        <time>2020-07-21T11:59:03Z</time>
      </trkpt>
      <trkpt lat="46.67723" lon="6.20585">
        <ele>1133.9</ele>
        <time>2020-07-21T11:59:08Z</time>
      </trkpt>
      <trkpt lat="46.67727" lon="6.20581">
        <ele>1134.1</ele>
        <time>2020-07-21T11:59:12Z</time>
      </trkpt>
      <trkpt lat="46.67732" lon="6.20577">
        <ele>1134.1</ele>
        <time>2020-07-21T11:59:16Z</time>
      </trkpt>
      <trkpt lat="46.67736" lon="6.20572">
        <ele>1134.2</ele>
        <time>2020-07-21T11:59:22Z</time>
      </trkpt>
      <trkpt lat="46.67741" lon="6.20567">
        <ele>1134.4</ele>
        <time>2020-07-21T11:59:27Z</time>
      </trkpt>
      <trkpt lat="46.67744" lon="6.20561">
        <ele>1134.5</ele>
        <time>2020-07-21T11:59:32Z</time>
      </trkpt>
      <trkpt lat="46.67748" lon="6.20557">
        <ele>1134.6</ele>
        <time>2020-07-21T11:59:37Z</time>
      </trkpt>
      <trkpt lat="46.67751" lon="6.20553">
        <ele>1134.7</ele>
        <time>2020-07-21T11:59:41Z</time>
      </trkpt>
      <trkpt lat="46.67754" lon="6.20548">
        <ele>1134.7</ele>
        <time>2020-07-21T11:59:45Z</time>
      </trkpt>
      <trkpt lat="46.67759" lon="6.20544">
        <ele>1134.6</ele>
        <time>2020-07-21T11:59:49Z</time>
      </trkpt>
      <trkpt lat="46.67764" lon="6.2054">
        <ele>1134.4</ele>
        <time>2020-07-21T11:59:54Z</time>
      </trkpt>
      <trkpt lat="46.67768" lon="6.20536">
        <ele>1134.2</ele>
        <time>2020-07-21T11:59:58Z</time>
      </trkpt>
      <trkpt lat="46.67771" lon="6.20531">
        <ele>1134.1</ele>
        <time>2020-07-21T12:00:02Z</time>
      </trkpt>
      <trkpt lat="46.67774" lon="6.20525">
        <ele>1134.2</ele>
        <time>2020-07-21T12:00:06Z</time>
      </trkpt>
      <trkpt lat="46.67777" lon="6.20518">
        <ele>1134.2</ele>
        <time>2020-07-21T12:00:10Z</time>
      </trkpt>
      <trkpt lat="46.6778" lon="6.20512">
        <ele>1134.4</ele>
        <time>2020-07-21T12:00:15Z</time>
      </trkpt>
      <trkpt lat="46.67783" lon="6.20507">
        <ele>1134.7</ele>
        <time>2020-07-21T12:00:21Z</time>
      </trkpt>
      <trkpt lat="46.67787" lon="6.20502">
        <ele>1135</ele>
        <time>2020-07-21T12:00:25Z</time>
      </trkpt>
      <trkpt lat="46.67791" lon="6.20496">
        <ele>1135.4</ele>
        <time>2020-07-21T12:00:30Z</time>
      </trkpt>
      <trkpt lat="46.67793" lon="6.20491">
        <ele>1135.5</ele>
        <time>2020-07-21T12:00:33Z</time>
      </trkpt>
      <trkpt lat="46.67797" lon="6.20487">
        <ele>1135.9</ele>
        <time>2020-07-21T12:00:37Z</time>
      </trkpt>
      <trkpt lat="46.67801" lon="6.20482">
        <ele>1136.2</ele>
        <time>2020-07-21T12:00:41Z</time>
      </trkpt>
      <trkpt lat="46.67803" lon="6.20476">
        <ele>1136.4</ele>
        <time>2020-07-21T12:00:44Z</time>
      </trkpt>
      <trkpt lat="46.67805" lon="6.2047">
        <ele>1136.6</ele>
        <time>2020-07-21T12:00:49Z</time>
      </trkpt>
      <trkpt lat="46.67807" lon="6.20462">
        <ele>1136.8</ele>
        <time>2020-07-21T12:00:54Z</time>
      </trkpt>
      <trkpt lat="46.6781" lon="6.20456">
        <ele>1136.9</ele>
        <time>2020-07-21T12:00:58Z</time>
      </trkpt>
      <trkpt lat="46.67813" lon="6.20451">
        <ele>1137</ele>
        <time>2020-07-21T12:01:02Z</time>
      </trkpt>
      <trkpt lat="46.67816" lon="6.20445">
        <ele>1137</ele>
        <time>2020-07-21T12:01:07Z</time>
      </trkpt>
      <trkpt lat="46.67819" lon="6.2044">
        <ele>1136.7</ele>
        <time>2020-07-21T12:01:12Z</time>
      </trkpt>
      <trkpt lat="46.67822" lon="6.20434">
        <ele>1136.5</ele>
        <time>2020-07-21T12:01:17Z</time>
      </trkpt>
      <trkpt lat="46.67825" lon="6.20429">
        <ele>1136.3</ele>
        <time>2020-07-21T12:01:22Z</time>
      </trkpt>
      <trkpt lat="46.67829" lon="6.20424">
        <ele>1136.1</ele>
        <time>2020-07-21T12:01:28Z</time>
      </trkpt>
      <trkpt lat="46.67834" lon="6.2042">
        <ele>1135.8</ele>
        <time>2020-07-21T12:01:32Z</time>
      </trkpt>
      <trkpt lat="46.67837" lon="6.20415">
        <ele>1135.3</ele>
        <time>2020-07-21T12:01:36Z</time>
      </trkpt>
      <trkpt lat="46.67841" lon="6.2041">
        <ele>1134.8</ele>
        <time>2020-07-21T12:01:40Z</time>
      </trkpt>
      <trkpt lat="46.67845" lon="6.20404">
        <ele>1134.2</ele>
        <time>2020-07-21T12:01:44Z</time>
      </trkpt>
      <trkpt lat="46.67849" lon="6.204">
        <ele>1133.7</ele>
        <time>2020-07-21T12:01:47Z</time>
      </trkpt>
      <trkpt lat="46.67853" lon="6.20395">
        <ele>1133.1</ele>
        <time>2020-07-21T12:01:51Z</time>
      </trkpt>
      <trkpt lat="46.6786" lon="6.20382">
        <ele>1131.9</ele>
        <time>2020-07-21T12:02:00Z</time>
      </trkpt>
      <trkpt lat="46.67862" lon="6.20375">
        <ele>1131.9</ele>
        <time>2020-07-21T12:02:04Z</time>
      </trkpt>
      <trkpt lat="46.67865" lon="6.2037">
        <ele>1132</ele>
        <time>2020-07-21T12:02:07Z</time>
      </trkpt>
      <trkpt lat="46.67868" lon="6.20364">
        <ele>1132.1</ele>
        <time>2020-07-21T12:02:11Z</time>
      </trkpt>
      <trkpt lat="46.6787" lon="6.20358">
        <ele>1132.2</ele>
        <time>2020-07-21T12:02:15Z</time>
      </trkpt>
      <trkpt lat="46.67873" lon="6.20352">
        <ele>1132.5</ele>
        <time>2020-07-21T12:02:20Z</time>
      </trkpt>
      <trkpt lat="46.67876" lon="6.20345">
        <ele>1132.9</ele>
        <time>2020-07-21T12:02:25Z</time>
      </trkpt>
      <trkpt lat="46.67878" lon="6.20339">
        <ele>1133.2</ele>
        <time>2020-07-21T12:02:30Z</time>
      </trkpt>
      <trkpt lat="46.67882" lon="6.20332">
        <ele>1133.4</ele>
        <time>2020-07-21T12:02:34Z</time>
      </trkpt>
      <trkpt lat="46.67885" lon="6.20327">
        <ele>1133.4</ele>
        <time>2020-07-21T12:02:38Z</time>
      </trkpt>
      <trkpt lat="46.67889" lon="6.20323">
        <ele>1133.3</ele>
        <time>2020-07-21T12:02:42Z</time>
      </trkpt>
      <trkpt lat="46.67893" lon="6.20318">
        <ele>1133.2</ele>
        <time>2020-07-21T12:02:48Z</time>
      </trkpt>
      <trkpt lat="46.67896" lon="6.20312">
        <ele>1133</ele>
        <time>2020-07-21T12:02:53Z</time>
      </trkpt>
      <trkpt lat="46.67899" lon="6.20307">
        <ele>1132.7</ele>
        <time>2020-07-21T12:02:57Z</time>
      </trkpt>
      <trkpt lat="46.67903" lon="6.20303">
        <ele>1132.4</ele>
        <time>2020-07-21T12:03:01Z</time>
      </trkpt>
      <trkpt lat="46.67907" lon="6.203">
        <ele>1132.3</ele>
        <time>2020-07-21T12:03:04Z</time>
      </trkpt>
      <trkpt lat="46.67911" lon="6.20296">
        <ele>1132.2</ele>
        <time>2020-07-21T12:03:08Z</time>
      </trkpt>
      <trkpt lat="46.67915" lon="6.20291">
        <ele>1132.5</ele>
        <time>2020-07-21T12:03:14Z</time>
      </trkpt>
      <trkpt lat="46.67919" lon="6.20287">
        <ele>1132.8</ele>
        <time>2020-07-21T12:03:18Z</time>
      </trkpt>
      <trkpt lat="46.67923" lon="6.20283">
        <ele>1132.9</ele>
        <time>2020-07-21T12:03:22Z</time>
      </trkpt>
      <trkpt lat="46.67928" lon="6.20279">
        <ele>1133</ele>
        <time>2020-07-21T12:03:28Z</time>
      </trkpt>
      <trkpt lat="46.67933" lon="6.20274">
        <ele>1133.1</ele>
        <time>2020-07-21T12:03:33Z</time>
      </trkpt>
      <trkpt lat="46.67938" lon="6.20271">
        <ele>1133.1</ele>
        <time>2020-07-21T12:03:37Z</time>
      </trkpt>
      <trkpt lat="46.67943" lon="6.20268">
        <ele>1133.2</ele>
        <time>2020-07-21T12:03:42Z</time>
      </trkpt>
      <trkpt lat="46.67947" lon="6.20266">
        <ele>1133.4</ele>
        <time>2020-07-21T12:03:47Z</time>
      </trkpt>
      <trkpt lat="46.67952" lon="6.20263">
        <ele>1133.5</ele>
        <time>2020-07-21T12:03:51Z</time>
      </trkpt>
      <trkpt lat="46.67957" lon="6.2026">
        <ele>1133.5</ele>
        <time>2020-07-21T12:03:55Z</time>
      </trkpt>
      <trkpt lat="46.67961" lon="6.20257">
        <ele>1133.6</ele>
        <time>2020-07-21T12:03:59Z</time>
      </trkpt>
      <trkpt lat="46.67965" lon="6.20253">
        <ele>1133.5</ele>
        <time>2020-07-21T12:04:04Z</time>
      </trkpt>
      <trkpt lat="46.6797" lon="6.20248">
        <ele>1133.5</ele>
        <time>2020-07-21T12:04:08Z</time>
      </trkpt>
      <trkpt lat="46.67974" lon="6.20244">
        <ele>1133.4</ele>
        <time>2020-07-21T12:04:12Z</time>
      </trkpt>
      <trkpt lat="46.67979" lon="6.2024">
        <ele>1133.4</ele>
        <time>2020-07-21T12:04:17Z</time>
      </trkpt>
      <trkpt lat="46.67983" lon="6.20234">
        <ele>1133.4</ele>
        <time>2020-07-21T12:04:21Z</time>
      </trkpt>
      <trkpt lat="46.67987" lon="6.20231">
        <ele>1133.4</ele>
        <time>2020-07-21T12:04:26Z</time>
      </trkpt>
      <trkpt lat="46.67991" lon="6.20228">
        <ele>1133.8</ele>
        <time>2020-07-21T12:04:32Z</time>
      </trkpt>
      <trkpt lat="46.67995" lon="6.20222">
        <ele>1134.7</ele>
        <time>2020-07-21T12:04:38Z</time>
      </trkpt>
      <trkpt lat="46.67998" lon="6.20217">
        <ele>1135.2</ele>
        <time>2020-07-21T12:04:41Z</time>
      </trkpt>
      <trkpt lat="46.68001" lon="6.20211">
        <ele>1135.9</ele>
        <time>2020-07-21T12:04:45Z</time>
      </trkpt>
      <trkpt lat="46.68004" lon="6.20203">
        <ele>1136.7</ele>
        <time>2020-07-21T12:04:49Z</time>
      </trkpt>
      <trkpt lat="46.68006" lon="6.20195">
        <ele>1137.2</ele>
        <time>2020-07-21T12:04:52Z</time>
      </trkpt>
      <trkpt lat="46.68006" lon="6.20185">
        <ele>1137.9</ele>
        <time>2020-07-21T12:04:56Z</time>
      </trkpt>
      <trkpt lat="46.68006" lon="6.20178">
        <ele>1138.4</ele>
        <time>2020-07-21T12:05:00Z</time>
      </trkpt>
      <trkpt lat="46.68007" lon="6.20171">
        <ele>1139</ele>
        <time>2020-07-21T12:05:05Z</time>
      </trkpt>
      <trkpt lat="46.68009" lon="6.20163">
        <ele>1139.4</ele>
        <time>2020-07-21T12:05:11Z</time>
      </trkpt>
      <trkpt lat="46.6801" lon="6.20156">
        <ele>1139.7</ele>
        <time>2020-07-21T12:05:19Z</time>
      </trkpt>
      <trkpt lat="46.68014" lon="6.20151">
        <ele>1139.5</ele>
        <time>2020-07-21T12:05:25Z</time>
      </trkpt>
      <trkpt lat="46.68017" lon="6.20146">
        <ele>1139.2</ele>
        <time>2020-07-21T12:05:30Z</time>
      </trkpt>
      <trkpt lat="46.6802" lon="6.20141">
        <ele>1138.6</ele>
        <time>2020-07-21T12:05:38Z</time>
      </trkpt>
      <trkpt lat="46.68021" lon="6.20133">
        <ele>1137.8</ele>
        <time>2020-07-21T12:05:51Z</time>
      </trkpt>
      <trkpt lat="46.68023" lon="6.20127">
        <ele>1137.5</ele>
        <time>2020-07-21T12:05:54Z</time>
      </trkpt>
      <trkpt lat="46.68025" lon="6.2012">
        <ele>1137.2</ele>
        <time>2020-07-21T12:05:57Z</time>
      </trkpt>
      <trkpt lat="46.68026" lon="6.20113">
        <ele>1136.5</ele>
        <time>2020-07-21T12:06:02Z</time>
      </trkpt>
      <trkpt lat="46.68026" lon="6.20106">
        <ele>1135.4</ele>
        <time>2020-07-21T12:06:08Z</time>
      </trkpt>
      <trkpt lat="46.68025" lon="6.20099">
        <ele>1134.7</ele>
        <time>2020-07-21T12:06:12Z</time>
      </trkpt>
      <trkpt lat="46.68023" lon="6.20093">
        <ele>1134.3</ele>
        <time>2020-07-21T12:06:15Z</time>
      </trkpt>
      <trkpt lat="46.68022" lon="6.20086">
        <ele>1134</ele>
        <time>2020-07-21T12:06:18Z</time>
      </trkpt>
      <trkpt lat="46.6802" lon="6.2008">
        <ele>1133.7</ele>
        <time>2020-07-21T12:06:22Z</time>
      </trkpt>
      <trkpt lat="46.68016" lon="6.20074">
        <ele>1133.4</ele>
        <time>2020-07-21T12:06:27Z</time>
      </trkpt>
      <trkpt lat="46.68014" lon="6.20068">
        <ele>1133.5</ele>
        <time>2020-07-21T12:06:38Z</time>
      </trkpt>
      <trkpt lat="46.68011" lon="6.20062">
        <ele>1133.6</ele>
        <time>2020-07-21T12:06:43Z</time>
      </trkpt>
      <trkpt lat="46.68008" lon="6.20056">
        <ele>1133.8</ele>
        <time>2020-07-21T12:06:47Z</time>
      </trkpt>
      <trkpt lat="46.68007" lon="6.20049">
        <ele>1133.7</ele>
        <time>2020-07-21T12:06:54Z</time>
      </trkpt>
      <trkpt lat="46.68005" lon="6.20042">
        <ele>1133.3</ele>
        <time>2020-07-21T12:06:59Z</time>
      </trkpt>
      <trkpt lat="46.68002" lon="6.20036">
        <ele>1133</ele>
        <time>2020-07-21T12:07:03Z</time>
      </trkpt>
      <trkpt lat="46.67999" lon="6.2003">
        <ele>1132.7</ele>
        <time>2020-07-21T12:07:09Z</time>
      </trkpt>
      <trkpt lat="46.67996" lon="6.20025">
        <ele>1132</ele>
        <time>2020-07-21T12:07:17Z</time>
      </trkpt>
      <trkpt lat="46.67992" lon="6.20019">
        <ele>1131.3</ele>
        <time>2020-07-21T12:07:23Z</time>
      </trkpt>
      <trkpt lat="46.67988" lon="6.20014">
        <ele>1130.5</ele>
        <time>2020-07-21T12:07:30Z</time>
      </trkpt>
      <trkpt lat="46.67985" lon="6.20009">
        <ele>1130.4</ele>
        <time>2020-07-21T12:07:33Z</time>
      </trkpt>
      <trkpt lat="46.67982" lon="6.20003">
        <ele>1130.8</ele>
        <time>2020-07-21T12:07:40Z</time>
      </trkpt>
      <trkpt lat="46.67979" lon="6.19997">
        <ele>1132</ele>
        <time>2020-07-21T12:07:46Z</time>
      </trkpt>
      <trkpt lat="46.67976" lon="6.19993">
        <ele>1133.3</ele>
        <time>2020-07-21T12:07:52Z</time>
      </trkpt>
      <trkpt lat="46.67971" lon="6.19987">
        <ele>1133.7</ele>
        <time>2020-07-21T12:07:55Z</time>
      </trkpt>
      <trkpt lat="46.67967" lon="6.19983">
        <ele>1133.9</ele>
        <time>2020-07-21T12:07:59Z</time>
      </trkpt>
      <trkpt lat="46.67962" lon="6.1998">
        <ele>1133.8</ele>
        <time>2020-07-21T12:08:02Z</time>
      </trkpt>
      <trkpt lat="46.67958" lon="6.19977">
        <ele>1133.5</ele>
        <time>2020-07-21T12:08:05Z</time>
      </trkpt>
      <trkpt lat="46.67954" lon="6.19974">
        <ele>1132.6</ele>
        <time>2020-07-21T12:08:10Z</time>
      </trkpt>
      <trkpt lat="46.6795" lon="6.19971">
        <ele>1131.6</ele>
        <time>2020-07-21T12:08:15Z</time>
      </trkpt>
      <trkpt lat="46.67945" lon="6.19968">
        <ele>1130.7</ele>
        <time>2020-07-21T12:08:19Z</time>
      </trkpt>
      <trkpt lat="46.6794" lon="6.19964">
        <ele>1129.9</ele>
        <time>2020-07-21T12:08:23Z</time>
      </trkpt>
      <trkpt lat="46.67935" lon="6.1996">
        <ele>1129</ele>
        <time>2020-07-21T12:08:27Z</time>
      </trkpt>
      <trkpt lat="46.67931" lon="6.1996">
        <ele>1124.9</ele>
        <time>2020-07-21T12:08:42Z</time>
      </trkpt>
      <trkpt lat="46.67934" lon="6.19955">
        <ele>1122.7</ele>
        <time>2020-07-21T12:08:54Z</time>
      </trkpt>
      <trkpt lat="46.67933" lon="6.19949">
        <ele>1122.3</ele>
        <time>2020-07-21T12:08:57Z</time>
      </trkpt>
      <trkpt lat="46.67931" lon="6.19942">
        <ele>1122.1</ele>
        <time>2020-07-21T12:09:00Z</time>
      </trkpt>
      <trkpt lat="46.67928" lon="6.19937">
        <ele>1121.8</ele>
        <time>2020-07-21T12:09:03Z</time>
      </trkpt>
      <trkpt lat="46.67926" lon="6.19931">
        <ele>1121.4</ele>
        <time>2020-07-21T12:09:07Z</time>
      </trkpt>
      <trkpt lat="46.67922" lon="6.19926">
        <ele>1121</ele>
        <time>2020-07-21T12:09:11Z</time>
      </trkpt>
      <trkpt lat="46.67918" lon="6.19921">
        <ele>1120.6</ele>
        <time>2020-07-21T12:09:15Z</time>
      </trkpt>
      <trkpt lat="46.67915" lon="6.19916">
        <ele>1120.4</ele>
        <time>2020-07-21T12:09:18Z</time>
      </trkpt>
      <trkpt lat="46.67911" lon="6.19911">
        <ele>1120.2</ele>
        <time>2020-07-21T12:09:22Z</time>
      </trkpt>
      <trkpt lat="46.67905" lon="6.19906">
        <ele>1120</ele>
        <time>2020-07-21T12:09:26Z</time>
      </trkpt>
      <trkpt lat="46.67901" lon="6.19901">
        <ele>1120.2</ele>
        <time>2020-07-21T12:09:31Z</time>
      </trkpt>
      <trkpt lat="46.67896" lon="6.19895">
        <ele>1120.6</ele>
        <time>2020-07-21T12:09:38Z</time>
      </trkpt>
      <trkpt lat="46.67893" lon="6.19889">
        <ele>1120.8</ele>
        <time>2020-07-21T12:09:41Z</time>
      </trkpt>
      <trkpt lat="46.6789" lon="6.19883">
        <ele>1121.4</ele>
        <time>2020-07-21T12:09:47Z</time>
      </trkpt>
      <trkpt lat="46.67887" lon="6.19878">
        <ele>1121.7</ele>
        <time>2020-07-21T12:09:52Z</time>
      </trkpt>
      <trkpt lat="46.67883" lon="6.19872">
        <ele>1121.6</ele>
        <time>2020-07-21T12:09:57Z</time>
      </trkpt>
      <trkpt lat="46.67873" lon="6.19861">
        <ele>1119.4</ele>
        <time>2020-07-21T12:10:09Z</time>
      </trkpt>
      <trkpt lat="46.6787" lon="6.19857">
        <ele>1118.8</ele>
        <time>2020-07-21T12:10:13Z</time>
      </trkpt>
      <trkpt lat="46.67866" lon="6.1985">
        <ele>1118.3</ele>
        <time>2020-07-21T12:10:17Z</time>
      </trkpt>
      <trkpt lat="46.67863" lon="6.19844">
        <ele>1117.9</ele>
        <time>2020-07-21T12:10:21Z</time>
      </trkpt>
      <trkpt lat="46.6786" lon="6.19838">
        <ele>1117.6</ele>
        <time>2020-07-21T12:10:25Z</time>
      </trkpt>
      <trkpt lat="46.67858" lon="6.19831">
        <ele>1117.3</ele>
        <time>2020-07-21T12:10:29Z</time>
      </trkpt>
      <trkpt lat="46.67857" lon="6.19825">
        <ele>1116.9</ele>
        <time>2020-07-21T12:10:33Z</time>
      </trkpt>
      <trkpt lat="46.67853" lon="6.19819">
        <ele>1116.6</ele>
        <time>2020-07-21T12:10:37Z</time>
      </trkpt>
      <trkpt lat="46.6785" lon="6.19814">
        <ele>1116.1</ele>
        <time>2020-07-21T12:10:42Z</time>
      </trkpt>
      <trkpt lat="46.67847" lon="6.19809">
        <ele>1115.5</ele>
        <time>2020-07-21T12:10:47Z</time>
      </trkpt>
      <trkpt lat="46.67843" lon="6.19803">
        <ele>1114.9</ele>
        <time>2020-07-21T12:10:52Z</time>
      </trkpt>
      <trkpt lat="46.6784" lon="6.19798">
        <ele>1114.4</ele>
        <time>2020-07-21T12:10:56Z</time>
      </trkpt>
      <trkpt lat="46.67837" lon="6.19792">
        <ele>1113.5</ele>
        <time>2020-07-21T12:11:02Z</time>
      </trkpt>
      <trkpt lat="46.67836" lon="6.19785">
        <ele>1112.9</ele>
        <time>2020-07-21T12:11:06Z</time>
      </trkpt>
      <trkpt lat="46.67835" lon="6.19779">
        <ele>1112.3</ele>
        <time>2020-07-21T12:11:10Z</time>
      </trkpt>
      <trkpt lat="46.67832" lon="6.19772">
        <ele>1111.8</ele>
        <time>2020-07-21T12:11:14Z</time>
      </trkpt>
      <trkpt lat="46.67831" lon="6.19765">
        <ele>1111.2</ele>
        <time>2020-07-21T12:11:18Z</time>
      </trkpt>
      <trkpt lat="46.67828" lon="6.19759">
        <ele>1110.8</ele>
        <time>2020-07-21T12:11:22Z</time>
      </trkpt>
      <trkpt lat="46.67824" lon="6.19755">
        <ele>1110.2</ele>
        <time>2020-07-21T12:11:29Z</time>
      </trkpt>
      <trkpt lat="46.67819" lon="6.19752">
        <ele>1109.8</ele>
        <time>2020-07-21T12:11:39Z</time>
      </trkpt>
      <trkpt lat="46.67814" lon="6.19751">
        <ele>1109.6</ele>
        <time>2020-07-21T12:11:47Z</time>
      </trkpt>
      <trkpt lat="46.67809" lon="6.19747">
        <ele>1109.3</ele>
        <time>2020-07-21T12:11:53Z</time>
      </trkpt>
      <trkpt lat="46.67807" lon="6.1974">
        <ele>1109</ele>
        <time>2020-07-21T12:12:00Z</time>
      </trkpt>
      <trkpt lat="46.67807" lon="6.19732">
        <ele>1109.4</ele>
        <time>2020-07-21T12:12:05Z</time>
      </trkpt>
      <trkpt lat="46.67806" lon="6.19723">
        <ele>1110</ele>
        <time>2020-07-21T12:12:10Z</time>
      </trkpt>
      <trkpt lat="46.67805" lon="6.19716">
        <ele>1110.4</ele>
        <time>2020-07-21T12:12:14Z</time>
      </trkpt>
      <trkpt lat="46.67803" lon="6.19709">
        <ele>1110.8</ele>
        <time>2020-07-21T12:12:19Z</time>
      </trkpt>
      <trkpt lat="46.67802" lon="6.19701">
        <ele>1111</ele>
        <time>2020-07-21T12:12:23Z</time>
      </trkpt>
      <trkpt lat="46.678" lon="6.19695">
        <ele>1111.1</ele>
        <time>2020-07-21T12:12:26Z</time>
      </trkpt>
      <trkpt lat="46.67799" lon="6.19687">
        <ele>1111.6</ele>
        <time>2020-07-21T12:12:31Z</time>
      </trkpt>
      <trkpt lat="46.67797" lon="6.19681">
        <ele>1112.1</ele>
        <time>2020-07-21T12:12:35Z</time>
      </trkpt>
      <trkpt lat="46.67794" lon="6.19674">
        <ele>1112.3</ele>
        <time>2020-07-21T12:12:40Z</time>
      </trkpt>
      <trkpt lat="46.6779" lon="6.19669">
        <ele>1112.3</ele>
        <time>2020-07-21T12:12:45Z</time>
      </trkpt>
      <trkpt lat="46.67787" lon="6.19664">
        <ele>1112.6</ele>
        <time>2020-07-21T12:12:54Z</time>
      </trkpt>
      <trkpt lat="46.67787" lon="6.19657">
        <ele>1112.5</ele>
        <time>2020-07-21T12:13:01Z</time>
      </trkpt>
      <trkpt lat="46.67789" lon="6.1965">
        <ele>1112.4</ele>
        <time>2020-07-21T12:13:06Z</time>
      </trkpt>
      <trkpt lat="46.67798" lon="6.19627">
        <ele>1109.5</ele>
        <time>2020-07-21T12:13:28Z</time>
      </trkpt>
      <trkpt lat="46.67798" lon="6.19619">
        <ele>1107.9</ele>
        <time>2020-07-21T12:13:38Z</time>
      </trkpt>
      <trkpt lat="46.67799" lon="6.19612">
        <ele>1107.4</ele>
        <time>2020-07-21T12:13:42Z</time>
      </trkpt>
      <trkpt lat="46.67801" lon="6.19605">
        <ele>1107.3</ele>
        <time>2020-07-21T12:13:45Z</time>
      </trkpt>
      <trkpt lat="46.67804" lon="6.196">
        <ele>1107.3</ele>
        <time>2020-07-21T12:13:49Z</time>
      </trkpt>
      <trkpt lat="46.67804" lon="6.19592">
        <ele>1107.7</ele>
        <time>2020-07-21T12:13:54Z</time>
      </trkpt>
      <trkpt lat="46.67802" lon="6.19585">
        <ele>1108</ele>
        <time>2020-07-21T12:13:57Z</time>
      </trkpt>
      <trkpt lat="46.67799" lon="6.19578">
        <ele>1108.3</ele>
        <time>2020-07-21T12:14:00Z</time>
      </trkpt>
      <trkpt lat="46.67796" lon="6.19572">
        <ele>1108.7</ele>
        <time>2020-07-21T12:14:03Z</time>
      </trkpt>
      <trkpt lat="46.67794" lon="6.19566">
        <ele>1109.1</ele>
        <time>2020-07-21T12:14:08Z</time>
      </trkpt>
      <trkpt lat="46.67793" lon="6.19559">
        <ele>1108.7</ele>
        <time>2020-07-21T12:14:15Z</time>
      </trkpt>
      <trkpt lat="46.67791" lon="6.19553">
        <ele>1108</ele>
        <time>2020-07-21T12:14:21Z</time>
      </trkpt>
      <trkpt lat="46.67788" lon="6.19547">
        <ele>1107.6</ele>
        <time>2020-07-21T12:14:27Z</time>
      </trkpt>
      <trkpt lat="46.67785" lon="6.19541">
        <ele>1107.7</ele>
        <time>2020-07-21T12:14:33Z</time>
      </trkpt>
      <trkpt lat="46.67782" lon="6.19533">
        <ele>1108.3</ele>
        <time>2020-07-21T12:14:41Z</time>
      </trkpt>
      <trkpt lat="46.6778" lon="6.19528">
        <ele>1108.6</ele>
        <time>2020-07-21T12:14:44Z</time>
      </trkpt>
      <trkpt lat="46.67776" lon="6.19522">
        <ele>1109.9</ele>
        <time>2020-07-21T12:14:51Z</time>
      </trkpt>
      <trkpt lat="46.67775" lon="6.19515">
        <ele>1111.2</ele>
        <time>2020-07-21T12:14:59Z</time>
      </trkpt>
      <trkpt lat="46.67773" lon="6.19506">
        <ele>1111.4</ele>
        <time>2020-07-21T12:15:03Z</time>
      </trkpt>
      <trkpt lat="46.6777" lon="6.195">
        <ele>1111.5</ele>
        <time>2020-07-21T12:15:05Z</time>
      </trkpt>
      <trkpt lat="46.67766" lon="6.19494">
        <ele>1111.6</ele>
        <time>2020-07-21T12:15:09Z</time>
      </trkpt>
      <trkpt lat="46.67763" lon="6.19488">
        <ele>1111.5</ele>
        <time>2020-07-21T12:15:14Z</time>
      </trkpt>
      <trkpt lat="46.6776" lon="6.19481">
        <ele>1111.3</ele>
        <time>2020-07-21T12:15:18Z</time>
      </trkpt>
      <trkpt lat="46.67757" lon="6.19476">
        <ele>1110.9</ele>
        <time>2020-07-21T12:15:23Z</time>
      </trkpt>
      <trkpt lat="46.67755" lon="6.19469">
        <ele>1110.3</ele>
        <time>2020-07-21T12:15:28Z</time>
      </trkpt>
      <trkpt lat="46.67752" lon="6.19463">
        <ele>1109.3</ele>
        <time>2020-07-21T12:15:32Z</time>
      </trkpt>
      <trkpt lat="46.67751" lon="6.19456">
        <ele>1108.1</ele>
        <time>2020-07-21T12:15:36Z</time>
      </trkpt>
      <trkpt lat="46.67749" lon="6.1945">
        <ele>1107</ele>
        <time>2020-07-21T12:15:40Z</time>
      </trkpt>
      <trkpt lat="46.67748" lon="6.19442">
        <ele>1105.6</ele>
        <time>2020-07-21T12:15:45Z</time>
      </trkpt>
      <trkpt lat="46.67745" lon="6.19428">
        <ele>1102.2</ele>
        <time>2020-07-21T12:15:57Z</time>
      </trkpt>
      <trkpt lat="46.67744" lon="6.1942">
        <ele>1101.4</ele>
        <time>2020-07-21T12:16:02Z</time>
      </trkpt>
      <trkpt lat="46.67742" lon="6.19413">
        <ele>1100.9</ele>
        <time>2020-07-21T12:16:05Z</time>
      </trkpt>
      <trkpt lat="46.67741" lon="6.19407">
        <ele>1100.3</ele>
        <time>2020-07-21T12:16:09Z</time>
      </trkpt>
      <trkpt lat="46.67739" lon="6.19399">
        <ele>1099.6</ele>
        <time>2020-07-21T12:16:14Z</time>
      </trkpt>
      <trkpt lat="46.67737" lon="6.19393">
        <ele>1099.2</ele>
        <time>2020-07-21T12:16:18Z</time>
      </trkpt>
      <trkpt lat="46.67737" lon="6.19386">
        <ele>1098.5</ele>
        <time>2020-07-21T12:16:23Z</time>
      </trkpt>
      <trkpt lat="46.6774" lon="6.1937">
        <ele>1096.5</ele>
        <time>2020-07-21T12:16:36Z</time>
      </trkpt>
      <trkpt lat="46.67743" lon="6.19365">
        <ele>1096.1</ele>
        <time>2020-07-21T12:16:40Z</time>
      </trkpt>
      <trkpt lat="46.67743" lon="6.19355">
        <ele>1095.9</ele>
        <time>2020-07-21T12:16:45Z</time>
      </trkpt>
      <trkpt lat="46.67743" lon="6.19348">
        <ele>1095.8</ele>
        <time>2020-07-21T12:16:47Z</time>
      </trkpt>
      <trkpt lat="46.67743" lon="6.1934">
        <ele>1095.5</ele>
        <time>2020-07-21T12:16:51Z</time>
      </trkpt>
      <trkpt lat="46.67744" lon="6.19333">
        <ele>1095.1</ele>
        <time>2020-07-21T12:16:56Z</time>
      </trkpt>
      <trkpt lat="46.67743" lon="6.19325">
        <ele>1094.8</ele>
        <time>2020-07-21T12:16:59Z</time>
      </trkpt>
      <trkpt lat="46.67742" lon="6.19318">
        <ele>1094.1</ele>
        <time>2020-07-21T12:17:06Z</time>
      </trkpt>
      <trkpt lat="46.6774" lon="6.19311">
        <ele>1093.8</ele>
        <time>2020-07-21T12:17:08Z</time>
      </trkpt>
      <trkpt lat="46.6774" lon="6.19304">
        <ele>1093.5</ele>
        <time>2020-07-21T12:17:11Z</time>
      </trkpt>
      <trkpt lat="46.67741" lon="6.19296">
        <ele>1093.3</ele>
        <time>2020-07-21T12:17:16Z</time>
      </trkpt>
      <trkpt lat="46.67743" lon="6.19289">
        <ele>1093.4</ele>
        <time>2020-07-21T12:17:20Z</time>
      </trkpt>
      <trkpt lat="46.67747" lon="6.19284">
        <ele>1093.5</ele>
        <time>2020-07-21T12:17:25Z</time>
      </trkpt>
      <trkpt lat="46.67752" lon="6.19279">
        <ele>1093.4</ele>
        <time>2020-07-21T12:17:30Z</time>
      </trkpt>
      <trkpt lat="46.67752" lon="6.19272">
        <ele>1093.4</ele>
        <time>2020-07-21T12:17:33Z</time>
      </trkpt>
      <trkpt lat="46.67752" lon="6.19265">
        <ele>1093.6</ele>
        <time>2020-07-21T12:17:37Z</time>
      </trkpt>
      <trkpt lat="46.67754" lon="6.19257">
        <ele>1093.8</ele>
        <time>2020-07-21T12:17:43Z</time>
      </trkpt>
      <trkpt lat="46.67754" lon="6.1925">
        <ele>1094.1</ele>
        <time>2020-07-21T12:17:47Z</time>
      </trkpt>
      <trkpt lat="46.67755" lon="6.19242">
        <ele>1094.5</ele>
        <time>2020-07-21T12:17:51Z</time>
      </trkpt>
      <trkpt lat="46.67756" lon="6.19234">
        <ele>1094.9</ele>
        <time>2020-07-21T12:17:55Z</time>
      </trkpt>
      <trkpt lat="46.67758" lon="6.19227">
        <ele>1095.5</ele>
        <time>2020-07-21T12:18:01Z</time>
      </trkpt>
      <trkpt lat="46.67756" lon="6.19218">
        <ele>1095.8</ele>
        <time>2020-07-21T12:18:04Z</time>
      </trkpt>
      <trkpt lat="46.67756" lon="6.19211">
        <ele>1096.3</ele>
        <time>2020-07-21T12:18:09Z</time>
      </trkpt>
      <trkpt lat="46.6776" lon="6.19206">
        <ele>1096.5</ele>
        <time>2020-07-21T12:18:14Z</time>
      </trkpt>
      <trkpt lat="46.67764" lon="6.19201">
        <ele>1096.6</ele>
        <time>2020-07-21T12:18:18Z</time>
      </trkpt>
      <trkpt lat="46.67765" lon="6.19195">
        <ele>1096.6</ele>
        <time>2020-07-21T12:18:22Z</time>
      </trkpt>
      <trkpt lat="46.67767" lon="6.19187">
        <ele>1096.8</ele>
        <time>2020-07-21T12:18:28Z</time>
      </trkpt>
      <trkpt lat="46.67769" lon="6.1918">
        <ele>1097.1</ele>
        <time>2020-07-21T12:18:33Z</time>
      </trkpt>
      <trkpt lat="46.67771" lon="6.19174">
        <ele>1097.2</ele>
        <time>2020-07-21T12:18:36Z</time>
      </trkpt>
      <trkpt lat="46.67771" lon="6.19167">
        <ele>1097.3</ele>
        <time>2020-07-21T12:18:38Z</time>
      </trkpt>
      <trkpt lat="46.6777" lon="6.1916">
        <ele>1097.4</ele>
        <time>2020-07-21T12:18:41Z</time>
      </trkpt>
      <trkpt lat="46.67771" lon="6.19153">
        <ele>1097.6</ele>
        <time>2020-07-21T12:18:47Z</time>
      </trkpt>
      <trkpt lat="46.67771" lon="6.19146">
        <ele>1097.8</ele>
        <time>2020-07-21T12:18:53Z</time>
      </trkpt>
      <trkpt lat="46.67771" lon="6.1914">
        <ele>1097.8</ele>
        <time>2020-07-21T12:18:56Z</time>
      </trkpt>
      <trkpt lat="46.6777" lon="6.19133">
        <ele>1097.7</ele>
        <time>2020-07-21T12:19:00Z</time>
      </trkpt>
      <trkpt lat="46.6777" lon="6.19126">
        <ele>1097.5</ele>
        <time>2020-07-21T12:19:06Z</time>
      </trkpt>
      <trkpt lat="46.67769" lon="6.19119">
        <ele>1097</ele>
        <time>2020-07-21T12:19:12Z</time>
      </trkpt>
      <trkpt lat="46.67774" lon="6.19103">
        <ele>1094.9</ele>
        <time>2020-07-21T12:19:24Z</time>
      </trkpt>
      <trkpt lat="46.67776" lon="6.19097">
        <ele>1093.9</ele>
        <time>2020-07-21T12:19:29Z</time>
      </trkpt>
      <trkpt lat="46.67775" lon="6.19087">
        <ele>1093.4</ele>
        <time>2020-07-21T12:19:32Z</time>
      </trkpt>
      <trkpt lat="46.67775" lon="6.19081">
        <ele>1092.9</ele>
        <time>2020-07-21T12:19:35Z</time>
      </trkpt>
      <trkpt lat="46.67774" lon="6.19074">
        <ele>1092.4</ele>
        <time>2020-07-21T12:19:39Z</time>
      </trkpt>
      <trkpt lat="46.67773" lon="6.19066">
        <ele>1092</ele>
        <time>2020-07-21T12:19:42Z</time>
      </trkpt>
      <trkpt lat="46.67772" lon="6.19058">
        <ele>1090.9</ele>
        <time>2020-07-21T12:19:48Z</time>
      </trkpt>
      <trkpt lat="46.67771" lon="6.19048">
        <ele>1090</ele>
        <time>2020-07-21T12:19:53Z</time>
      </trkpt>
      <trkpt lat="46.67769" lon="6.19009">
        <ele>1088</ele>
        <time>2020-07-21T12:20:18Z</time>
      </trkpt>
      <trkpt lat="46.67771" lon="6.19003">
        <ele>1088.1</ele>
        <time>2020-07-21T12:20:21Z</time>
      </trkpt>
      <trkpt lat="46.67771" lon="6.18995">
        <ele>1088.4</ele>
        <time>2020-07-21T12:20:25Z</time>
      </trkpt>
      <trkpt lat="46.67772" lon="6.18988">
        <ele>1088.7</ele>
        <time>2020-07-21T12:20:29Z</time>
      </trkpt>
      <trkpt lat="46.67773" lon="6.18981">
        <ele>1089.1</ele>
        <time>2020-07-21T12:20:33Z</time>
      </trkpt>
      <trkpt lat="46.67775" lon="6.18974">
        <ele>1089.4</ele>
        <time>2020-07-21T12:20:38Z</time>
      </trkpt>
      <trkpt lat="46.67781" lon="6.18964">
        <ele>1090.1</ele>
        <time>2020-07-21T12:20:51Z</time>
      </trkpt>
      <trkpt lat="46.67782" lon="6.18958">
        <ele>1090.1</ele>
        <time>2020-07-21T12:20:53Z</time>
      </trkpt>
      <trkpt lat="46.67784" lon="6.18952">
        <ele>1090.1</ele>
        <time>2020-07-21T12:20:56Z</time>
      </trkpt>
      <trkpt lat="46.6779" lon="6.18942">
        <ele>1091</ele>
        <time>2020-07-21T12:21:05Z</time>
      </trkpt>
      <trkpt lat="46.67794" lon="6.18938">
        <ele>1091.5</ele>
        <time>2020-07-21T12:21:09Z</time>
      </trkpt>
      <trkpt lat="46.678" lon="6.18935">
        <ele>1092.3</ele>
        <time>2020-07-21T12:21:14Z</time>
      </trkpt>
      <trkpt lat="46.67805" lon="6.18931">
        <ele>1092.6</ele>
        <time>2020-07-21T12:21:18Z</time>
      </trkpt>
      <trkpt lat="46.67812" lon="6.18929">
        <ele>1092.6</ele>
        <time>2020-07-21T12:21:20Z</time>
      </trkpt>
      <trkpt lat="46.67817" lon="6.18929">
        <ele>1092.6</ele>
        <time>2020-07-21T12:21:22Z</time>
      </trkpt>
      <trkpt lat="46.67824" lon="6.18927">
        <ele>1092.4</ele>
        <time>2020-07-21T12:21:24Z</time>
      </trkpt>
      <trkpt lat="46.67829" lon="6.18926">
        <ele>1092</ele>
        <time>2020-07-21T12:21:27Z</time>
      </trkpt>
      <trkpt lat="46.67834" lon="6.18924">
        <ele>1091.3</ele>
        <time>2020-07-21T12:21:31Z</time>
      </trkpt>
      <trkpt lat="46.67838" lon="6.18921">
        <ele>1090.5</ele>
        <time>2020-07-21T12:21:35Z</time>
      </trkpt>
      <trkpt lat="46.67842" lon="6.18915">
        <ele>1089.2</ele>
        <time>2020-07-21T12:21:43Z</time>
      </trkpt>
      <trkpt lat="46.67844" lon="6.18909">
        <ele>1089.1</ele>
        <time>2020-07-21T12:21:49Z</time>
      </trkpt>
      <trkpt lat="46.67847" lon="6.18902">
        <ele>1089.2</ele>
        <time>2020-07-21T12:21:53Z</time>
      </trkpt>
      <trkpt lat="46.67849" lon="6.18897">
        <ele>1089.4</ele>
        <time>2020-07-21T12:21:57Z</time>
      </trkpt>
      <trkpt lat="46.67854" lon="6.18892">
        <ele>1089.9</ele>
        <time>2020-07-21T12:22:02Z</time>
      </trkpt>
      <trkpt lat="46.67858" lon="6.18887">
        <ele>1090.3</ele>
        <time>2020-07-21T12:22:06Z</time>
      </trkpt>
      <trkpt lat="46.67874" lon="6.18868">
        <ele>1094</ele>
        <time>2020-07-21T12:22:21Z</time>
      </trkpt>
      <trkpt lat="46.67878" lon="6.18865">
        <ele>1094.5</ele>
        <time>2020-07-21T12:22:25Z</time>
      </trkpt>
      <trkpt lat="46.67883" lon="6.18864">
        <ele>1094</ele>
        <time>2020-07-21T12:22:35Z</time>
      </trkpt>
      <trkpt lat="46.67888" lon="6.18861">
        <ele>1093.5</ele>
        <time>2020-07-21T12:22:42Z</time>
      </trkpt>
      <trkpt lat="46.67892" lon="6.18858">
        <ele>1093.4</ele>
        <time>2020-07-21T12:22:47Z</time>
      </trkpt>
      <trkpt lat="46.67896" lon="6.18856">
        <ele>1093.5</ele>
        <time>2020-07-21T12:22:51Z</time>
      </trkpt>
      <trkpt lat="46.67901" lon="6.18853">
        <ele>1093.2</ele>
        <time>2020-07-21T12:22:57Z</time>
      </trkpt>
      <trkpt lat="46.67905" lon="6.18848">
        <ele>1092.1</ele>
        <time>2020-07-21T12:23:04Z</time>
      </trkpt>
      <trkpt lat="46.67909" lon="6.18845">
        <ele>1091</ele>
        <time>2020-07-21T12:23:09Z</time>
      </trkpt>
      <trkpt lat="46.67913" lon="6.18842">
        <ele>1089.4</ele>
        <time>2020-07-21T12:23:15Z</time>
      </trkpt>
      <trkpt lat="46.67917" lon="6.18837">
        <ele>1088.5</ele>
        <time>2020-07-21T12:23:19Z</time>
      </trkpt>
      <trkpt lat="46.67921" lon="6.18833">
        <ele>1087.7</ele>
        <time>2020-07-21T12:23:24Z</time>
      </trkpt>
      <trkpt lat="46.6793" lon="6.18824">
        <ele>1086.8</ele>
        <time>2020-07-21T12:23:34Z</time>
      </trkpt>
      <trkpt lat="46.67933" lon="6.18819">
        <ele>1086.8</ele>
        <time>2020-07-21T12:23:40Z</time>
      </trkpt>
      <trkpt lat="46.67935" lon="6.18813">
        <ele>1086.6</ele>
        <time>2020-07-21T12:23:44Z</time>
      </trkpt>
      <trkpt lat="46.67938" lon="6.18806">
        <ele>1086.2</ele>
        <time>2020-07-21T12:23:49Z</time>
      </trkpt>
      <trkpt lat="46.67942" lon="6.188">
        <ele>1085.8</ele>
        <time>2020-07-21T12:23:53Z</time>
      </trkpt>
      <trkpt lat="46.67945" lon="6.18795">
        <ele>1085.4</ele>
        <time>2020-07-21T12:23:58Z</time>
      </trkpt>
      <trkpt lat="46.67949" lon="6.1879">
        <ele>1085.5</ele>
        <time>2020-07-21T12:24:02Z</time>
      </trkpt>
      <trkpt lat="46.67953" lon="6.18787">
        <ele>1085.5</ele>
        <time>2020-07-21T12:24:07Z</time>
      </trkpt>
      <trkpt lat="46.67957" lon="6.18782">
        <ele>1085.7</ele>
        <time>2020-07-21T12:24:12Z</time>
      </trkpt>
      <trkpt lat="46.67961" lon="6.18777">
        <ele>1085.9</ele>
        <time>2020-07-21T12:24:17Z</time>
      </trkpt>
      <trkpt lat="46.67965" lon="6.18773">
        <ele>1086.1</ele>
        <time>2020-07-21T12:24:23Z</time>
      </trkpt>
    </trkseg>
  </trk>
</gpx>